<?xml version="1.0" encoding="UTF-8"?>
<gpx version="1.1" creator="2bulu-scraper" xmlns="http://www.topografix.com/GPX/1/1">
  <metadata><name>徒步成渝古道东大路之十二：罗星村-迎祥街-太平铺-双凤驿-椑木铺-椑木古渡</name><desc>source: 2bulu.com trackId=79070361; exported 2026-09-01T18:03:16.301Z</desc>
    <bounds minlat="29.3681286" minlon="105.0855995" maxlat="29.5123423" maxlon="105.2627587"/>
    <link href="https://www.2bulu.com/track/t-fmToFFje89Hp%252FR2KBg5Tzw%253D%253D.htm"><text>2bulu 源页面</text></link>
  </metadata>
  <wpt lat="29.3840206" lon="105.241031"><ele>333</ele><name>
        </name></wpt>
  <wpt lat="29.3834995" lon="105.2305601"><ele>333</ele><name>
        </name></wpt>
  <wpt lat="29.3846099" lon="105.2264281"><ele>329</ele><name>
        </name></wpt>
  <wpt lat="29.387213" lon="105.2137762"><ele>348</ele><name>
        </name></wpt>
  <wpt lat="29.3903065" lon="105.2129288"><ele>370</ele><name>
        </name></wpt>
  <wpt lat="29.3948916" lon="105.2045643"><ele>333</ele><name>
        </name></wpt>
  <wpt lat="29.4200179" lon="105.1649834"><ele>335</ele><name>
        </name></wpt>
  <wpt lat="29.4203957" lon="105.1640986"><ele>335</ele><name>
        </name></wpt>
  <wpt lat="29.4088568" lon="105.1626631"><ele>332</ele><name>
        </name></wpt>
  <wpt lat="29.4204357" lon="105.165737"><ele>336</ele><name>
        </name></wpt>
  <wpt lat="29.4362546" lon="105.1521845"><ele>337</ele><name>
        </name></wpt>
  <wpt lat="29.4482646" lon="105.142182"><ele>330</ele><name>
        </name></wpt>
  <wpt lat="29.4485374" lon="105.1417805"><ele>332</ele><name>
        </name></wpt>
  <wpt lat="29.4778338" lon="105.1298753"><ele>301</ele><name>
        </name></wpt>
  <wpt lat="29.4787021" lon="105.127612"><ele>303</ele><name>
        </name></wpt>
  <wpt lat="29.4742732" lon="105.1240655"><ele>309</ele><name>
        </name></wpt>
  <wpt lat="29.4845896" lon="105.1024002"><ele>280</ele><name>
        </name></wpt>
  <wpt lat="29.4879913" lon="105.1005554"><ele>330</ele><name>
        </name></wpt>
  <wpt lat="29.507614" lon="105.0872014"><ele>279</ele><name>
        </name></wpt>
  <wpt lat="29.5121333" lon="105.0859793"><ele>266</ele><name>
        </name></wpt>
  <wpt lat="29.5113854" lon="105.0860838"><ele>258</ele><name>
        </name></wpt>
  <wpt lat="29.5109805" lon="105.0878464"><ele>261</ele><name>
        </name></wpt>
  <wpt lat="29.5107822" lon="105.0882187"><ele>356</ele><name>
        </name></wpt>
  <trk><name>徒步成渝古道东大路之十二：罗星村-迎祥街-太平铺-双凤驿-椑木铺-椑木古渡</name>
      <trkseg>
        <trkpt lat="29.3681286" lon="105.262275"><ele>343.99</ele><time>2026-02-10T18:04:35.000Z</time></trkpt>
        <trkpt lat="29.3682074" lon="105.2623229"><ele>343.99</ele><time>2026-02-10T18:04:43.000Z</time></trkpt>
        <trkpt lat="29.3682609" lon="105.2624174"><ele>342.81</ele><time>2026-02-10T18:04:53.000Z</time></trkpt>
        <trkpt lat="29.3682868" lon="105.2625351"><ele>341.81</ele><time>2026-02-10T18:05:03.000Z</time></trkpt>
        <trkpt lat="29.3683206" lon="105.2626598"><ele>340.49</ele><time>2026-02-10T18:05:13.000Z</time></trkpt>
        <trkpt lat="29.3684036" lon="105.2627254"><ele>339.81</ele><time>2026-02-10T18:05:21.000Z</time></trkpt>
        <trkpt lat="29.3684982" lon="105.2627587"><ele>339.72</ele><time>2026-02-10T18:05:29.000Z</time></trkpt>
        <trkpt lat="29.3685991" lon="105.2627547"><ele>339.81</ele><time>2026-02-10T18:05:39.000Z</time></trkpt>
        <trkpt lat="29.368703" lon="105.2627134"><ele>340.64</ele><time>2026-02-10T18:05:49.000Z</time></trkpt>
        <trkpt lat="29.3688106" lon="105.2626498"><ele>341.11</ele><time>2026-02-10T18:05:59.000Z</time></trkpt>
        <trkpt lat="29.3689142" lon="105.2625769"><ele>341.14</ele><time>2026-02-10T18:06:07.000Z</time></trkpt>
        <trkpt lat="29.3690064" lon="105.2625107"><ele>341.23</ele><time>2026-02-10T18:06:15.000Z</time></trkpt>
        <trkpt lat="29.3691059" lon="105.2624463"><ele>340.97</ele><time>2026-02-10T18:06:23.000Z</time></trkpt>
        <trkpt lat="29.3691985" lon="105.2624132"><ele>341.17</ele><time>2026-02-10T18:06:31.000Z</time></trkpt>
        <trkpt lat="29.369254" lon="105.2623218"><ele>341.18</ele><time>2026-02-10T18:06:47.000Z</time></trkpt>
        <trkpt lat="29.3692552" lon="105.2622066"><ele>340.98</ele><time>2026-02-10T18:06:55.000Z</time></trkpt>
        <trkpt lat="29.3693243" lon="105.2621733"><ele>340.61</ele><time>2026-02-10T18:07:03.000Z</time></trkpt>
        <trkpt lat="29.3694154" lon="105.2622204"><ele>340.26</ele><time>2026-02-10T18:07:09.000Z</time></trkpt>
        <trkpt lat="29.3695073" lon="105.2622833"><ele>339.75</ele><time>2026-02-10T18:07:15.000Z</time></trkpt>
        <trkpt lat="29.3696028" lon="105.262318"><ele>339.4</ele><time>2026-02-10T18:07:23.000Z</time></trkpt>
        <trkpt lat="29.3697068" lon="105.2623107"><ele>338.96</ele><time>2026-02-10T18:07:31.000Z</time></trkpt>
        <trkpt lat="29.3698071" lon="105.2622884"><ele>338.53</ele><time>2026-02-10T18:07:37.000Z</time></trkpt>
        <trkpt lat="29.3699013" lon="105.2622693"><ele>338.15</ele><time>2026-02-10T18:07:43.000Z</time></trkpt>
        <trkpt lat="29.3700106" lon="105.2622651"><ele>337.97</ele><time>2026-02-10T18:07:51.000Z</time></trkpt>
        <trkpt lat="29.3701055" lon="105.2623036"><ele>337.11</ele><time>2026-02-10T18:07:57.000Z</time></trkpt>
        <trkpt lat="29.3701956" lon="105.2623575"><ele>336.6</ele><time>2026-02-10T18:08:11.000Z</time></trkpt>
        <trkpt lat="29.370285" lon="105.2624037"><ele>336.17</ele><time>2026-02-10T18:08:21.000Z</time></trkpt>
        <trkpt lat="29.3703825" lon="105.2624637"><ele>335.95</ele><time>2026-02-10T18:08:31.000Z</time></trkpt>
        <trkpt lat="29.3704792" lon="105.2625399"><ele>336.72</ele><time>2026-02-10T18:08:39.000Z</time></trkpt>
        <trkpt lat="29.3705715" lon="105.2625972"><ele>337.94</ele><time>2026-02-10T18:08:45.000Z</time></trkpt>
        <trkpt lat="29.3706666" lon="105.2626419"><ele>338.71</ele><time>2026-02-10T18:08:51.000Z</time></trkpt>
        <trkpt lat="29.3707591" lon="105.2626059"><ele>339.64</ele><time>2026-02-10T18:08:59.000Z</time></trkpt>
        <trkpt lat="29.3708355" lon="105.2625106"><ele>339.84</ele><time>2026-02-10T18:09:07.000Z</time></trkpt>
        <trkpt lat="29.3709074" lon="105.2624101"><ele>339.34</ele><time>2026-02-10T18:09:15.000Z</time></trkpt>
        <trkpt lat="29.3709684" lon="105.2623188"><ele>338.84</ele><time>2026-02-10T18:09:27.000Z</time></trkpt>
        <trkpt lat="29.3710661" lon="105.262295"><ele>338.81</ele><time>2026-02-10T18:09:37.000Z</time></trkpt>
        <trkpt lat="29.3711338" lon="105.2622261"><ele>338.77</ele><time>2026-02-10T18:09:49.000Z</time></trkpt>
        <trkpt lat="29.3711325" lon="105.2621271"><ele>338.39</ele><time>2026-02-10T18:09:57.000Z</time></trkpt>
        <trkpt lat="29.3711293" lon="105.262011"><ele>338.71</ele><time>2026-02-10T18:10:09.000Z</time></trkpt>
        <trkpt lat="29.3711878" lon="105.2620186"><ele>339.43</ele><time>2026-02-10T18:10:21.000Z</time></trkpt>
        <trkpt lat="29.3712805" lon="105.262032"><ele>341.14</ele><time>2026-02-10T18:10:29.000Z</time></trkpt>
        <trkpt lat="29.3713706" lon="105.2620821"><ele>342.91</ele><time>2026-02-10T18:10:37.000Z</time></trkpt>
        <trkpt lat="29.3714688" lon="105.2621248"><ele>344.38</ele><time>2026-02-10T18:10:45.000Z</time></trkpt>
        <trkpt lat="29.3715651" lon="105.2621642"><ele>345.61</ele><time>2026-02-10T18:10:55.000Z</time></trkpt>
        <trkpt lat="29.3716501" lon="105.2622302"><ele>347.02</ele><time>2026-02-10T18:11:03.000Z</time></trkpt>
        <trkpt lat="29.3717453" lon="105.2622536"><ele>348.6</ele><time>2026-02-10T18:11:13.000Z</time></trkpt>
        <trkpt lat="29.3718378" lon="105.26225"><ele>350.16</ele><time>2026-02-10T18:11:27.000Z</time></trkpt>
        <trkpt lat="29.3719413" lon="105.2622458"><ele>351.24</ele><time>2026-02-10T18:11:35.000Z</time></trkpt>
        <trkpt lat="29.3720491" lon="105.2622232"><ele>351.54</ele><time>2026-02-10T18:11:43.000Z</time></trkpt>
        <trkpt lat="29.3721636" lon="105.2621951"><ele>351.37</ele><time>2026-02-10T18:11:55.000Z</time></trkpt>
        <trkpt lat="29.3722479" lon="105.262121"><ele>350.57</ele><time>2026-02-10T18:12:01.000Z</time></trkpt>
        <trkpt lat="29.3723319" lon="105.2620726"><ele>349.22</ele><time>2026-02-10T18:12:07.000Z</time></trkpt>
        <trkpt lat="29.37242" lon="105.2620648"><ele>348.37</ele><time>2026-02-10T18:12:13.000Z</time></trkpt>
        <trkpt lat="29.3725258" lon="105.2620308"><ele>347.83</ele><time>2026-02-10T18:12:21.000Z</time></trkpt>
        <trkpt lat="29.3726116" lon="105.2619747"><ele>347.07</ele><time>2026-02-10T18:12:27.000Z</time></trkpt>
        <trkpt lat="29.372705" lon="105.2619027"><ele>345.95</ele><time>2026-02-10T18:12:35.000Z</time></trkpt>
        <trkpt lat="29.3727891" lon="105.2618356"><ele>345.07</ele><time>2026-02-10T18:12:41.000Z</time></trkpt>
        <trkpt lat="29.3728749" lon="105.2617623"><ele>344.37</ele><time>2026-02-10T18:12:49.000Z</time></trkpt>
        <trkpt lat="29.3729768" lon="105.2617125"><ele>344.55</ele><time>2026-02-10T18:12:57.000Z</time></trkpt>
        <trkpt lat="29.373049" lon="105.2616357"><ele>344.6</ele><time>2026-02-10T18:13:05.000Z</time></trkpt>
        <trkpt lat="29.373049" lon="105.2616357"><ele>344.6</ele><time>2026-02-10T18:14:03.000Z</time></trkpt>
        <trkpt lat="29.373049" lon="105.2616357"><ele>344.6</ele><time>2026-02-10T18:14:06.000Z</time></trkpt>
        <trkpt lat="29.373049" lon="105.2616357"><ele>344.6</ele><time>2026-02-10T18:14:29.000Z</time></trkpt>
        <trkpt lat="29.3729885" lon="105.2615086"><ele>344.95</ele><time>2026-02-10T18:14:42.000Z</time></trkpt>
        <trkpt lat="29.3729885" lon="105.2615086"><ele>344.95</ele><time>2026-02-10T18:14:53.000Z</time></trkpt>
        <trkpt lat="29.3729736" lon="105.2613804"><ele>343.71</ele><time>2026-02-10T18:15:01.000Z</time></trkpt>
        <trkpt lat="29.3729861" lon="105.2612671"><ele>342.91</ele><time>2026-02-10T18:15:09.000Z</time></trkpt>
        <trkpt lat="29.3729805" lon="105.2611629"><ele>342.72</ele><time>2026-02-10T18:15:15.000Z</time></trkpt>
        <trkpt lat="29.3729644" lon="105.2610459"><ele>343.27</ele><time>2026-02-10T18:15:23.000Z</time></trkpt>
        <trkpt lat="29.3729459" lon="105.2609202"><ele>344.19</ele><time>2026-02-10T18:15:31.000Z</time></trkpt>
        <trkpt lat="29.3729416" lon="105.2608047"><ele>345.08</ele><time>2026-02-10T18:15:37.000Z</time></trkpt>
        <trkpt lat="29.3729614" lon="105.2606824"><ele>345.51</ele><time>2026-02-10T18:15:45.000Z</time></trkpt>
        <trkpt lat="29.372979" lon="105.2605681"><ele>346.12</ele><time>2026-02-10T18:15:51.000Z</time></trkpt>
        <trkpt lat="29.3730059" lon="105.260465"><ele>346.75</ele><time>2026-02-10T18:15:57.000Z</time></trkpt>
        <trkpt lat="29.3730409" lon="105.2603464"><ele>347.29</ele><time>2026-02-10T18:16:05.000Z</time></trkpt>
        <trkpt lat="29.3730219" lon="105.2602459"><ele>347.24</ele><time>2026-02-10T18:16:09.000Z</time></trkpt>
        <trkpt lat="29.372974" lon="105.2601555"><ele>346.89</ele><time>2026-02-10T18:16:15.000Z</time></trkpt>
        <trkpt lat="29.3729237" lon="105.2600647"><ele>346.78</ele><time>2026-02-10T18:16:21.000Z</time></trkpt>
        <trkpt lat="29.37287" lon="105.2599472"><ele>346.27</ele><time>2026-02-10T18:16:28.000Z</time></trkpt>
        <trkpt lat="29.3728029" lon="105.2598416"><ele>346</ele><time>2026-02-10T18:16:35.000Z</time></trkpt>
        <trkpt lat="29.3727416" lon="105.2597389"><ele>346.27</ele><time>2026-02-10T18:16:43.000Z</time></trkpt>
        <trkpt lat="29.3726835" lon="105.2596449"><ele>346.78</ele><time>2026-02-10T18:16:47.000Z</time></trkpt>
        <trkpt lat="29.3726168" lon="105.2595706"><ele>347.29</ele><time>2026-02-10T18:16:53.000Z</time></trkpt>
        <trkpt lat="29.3725491" lon="105.259488"><ele>347.17</ele><time>2026-02-10T18:17:01.000Z</time></trkpt>
        <trkpt lat="29.3724881" lon="105.259407"><ele>346.98</ele><time>2026-02-10T18:17:07.000Z</time></trkpt>
        <trkpt lat="29.3724231" lon="105.2593064"><ele>346.97</ele><time>2026-02-10T18:17:15.000Z</time></trkpt>
        <trkpt lat="29.3723717" lon="105.2592028"><ele>347.09</ele><time>2026-02-10T18:17:21.000Z</time></trkpt>
        <trkpt lat="29.3723327" lon="105.2590925"><ele>347.45</ele><time>2026-02-10T18:17:29.000Z</time></trkpt>
        <trkpt lat="29.3723205" lon="105.2589842"><ele>347.67</ele><time>2026-02-10T18:17:35.000Z</time></trkpt>
        <trkpt lat="29.3723238" lon="105.2588753"><ele>348.37</ele><time>2026-02-10T18:17:41.000Z</time></trkpt>
        <trkpt lat="29.3723431" lon="105.2587622"><ele>349.29</ele><time>2026-02-10T18:17:49.000Z</time></trkpt>
        <trkpt lat="29.3723728" lon="105.258637"><ele>350.13</ele><time>2026-02-10T18:17:57.000Z</time></trkpt>
        <trkpt lat="29.3724286" lon="105.2585025"><ele>350.64</ele><time>2026-02-10T18:18:05.000Z</time></trkpt>
        <trkpt lat="29.3724883" lon="105.2583937"><ele>350.97</ele><time>2026-02-10T18:18:09.000Z</time></trkpt>
        <trkpt lat="29.3725428" lon="105.2582692"><ele>351.08</ele><time>2026-02-10T18:18:15.000Z</time></trkpt>
        <trkpt lat="29.3725882" lon="105.2581629"><ele>351.1</ele><time>2026-02-10T18:18:21.000Z</time></trkpt>
        <trkpt lat="29.3726419" lon="105.2580578"><ele>351.37</ele><time>2026-02-10T18:18:29.000Z</time></trkpt>
        <trkpt lat="29.3727168" lon="105.2579989"><ele>352.12</ele><time>2026-02-10T18:18:35.000Z</time></trkpt>
        <trkpt lat="29.3728117" lon="105.2579354"><ele>352.48</ele><time>2026-02-10T18:18:43.000Z</time></trkpt>
        <trkpt lat="29.3728678" lon="105.2578486"><ele>352.97</ele><time>2026-02-10T18:18:51.000Z</time></trkpt>
        <trkpt lat="29.372869" lon="105.2577363"><ele>352.98</ele><time>2026-02-10T18:18:59.000Z</time></trkpt>
        <trkpt lat="29.3729005" lon="105.2576325"><ele>352.49</ele><time>2026-02-10T18:19:07.000Z</time></trkpt>
        <trkpt lat="29.3729731" lon="105.2575811"><ele>352.28</ele><time>2026-02-10T18:19:17.000Z</time></trkpt>
        <trkpt lat="29.3730699" lon="105.2575242"><ele>351.88</ele><time>2026-02-10T18:19:25.000Z</time></trkpt>
        <trkpt lat="29.3731541" lon="105.257456"><ele>351.89</ele><time>2026-02-10T18:19:31.000Z</time></trkpt>
        <trkpt lat="29.3732206" lon="105.2573625"><ele>351.67</ele><time>2026-02-10T18:19:39.000Z</time></trkpt>
        <trkpt lat="29.373265" lon="105.2572402"><ele>351.79</ele><time>2026-02-10T18:19:47.000Z</time></trkpt>
        <trkpt lat="29.3732896" lon="105.2571203"><ele>351.5</ele><time>2026-02-10T18:19:55.000Z</time></trkpt>
        <trkpt lat="29.3733599" lon="105.2570619"><ele>351.2</ele><time>2026-02-10T18:20:03.000Z</time></trkpt>
        <trkpt lat="29.3734485" lon="105.2570623"><ele>350.9</ele><time>2026-02-10T18:20:09.000Z</time></trkpt>
        <trkpt lat="29.3735489" lon="105.2570889"><ele>350.91</ele><time>2026-02-10T18:20:17.000Z</time></trkpt>
        <trkpt lat="29.373643" lon="105.2570527"><ele>350.62</ele><time>2026-02-10T18:20:25.000Z</time></trkpt>
        <trkpt lat="29.3737081" lon="105.2569615"><ele>349.62</ele><time>2026-02-10T18:20:31.000Z</time></trkpt>
        <trkpt lat="29.3737457" lon="105.2568465"><ele>349.19</ele><time>2026-02-10T18:20:39.000Z</time></trkpt>
        <trkpt lat="29.3737327" lon="105.2567316"><ele>348.59</ele><time>2026-02-10T18:20:45.000Z</time></trkpt>
        <trkpt lat="29.3736848" lon="105.2566184"><ele>347.6</ele><time>2026-02-10T18:20:53.000Z</time></trkpt>
        <trkpt lat="29.3736486" lon="105.2565036"><ele>346.6</ele><time>2026-02-10T18:21:03.000Z</time></trkpt>
        <trkpt lat="29.3737058" lon="105.2564355"><ele>345.45</ele><time>2026-02-10T18:21:13.000Z</time></trkpt>
        <trkpt lat="29.3736682" lon="105.2564613"><ele>345.32</ele><time>2026-02-10T18:21:29.000Z</time></trkpt>
        <trkpt lat="29.3735937" lon="105.2564272"><ele>344.04</ele><time>2026-02-10T18:21:35.000Z</time></trkpt>
        <trkpt lat="29.3735458" lon="105.2563245"><ele>342.15</ele><time>2026-02-10T18:21:43.000Z</time></trkpt>
        <trkpt lat="29.3735491" lon="105.2562125"><ele>340.3</ele><time>2026-02-10T18:21:49.000Z</time></trkpt>
        <trkpt lat="29.3735976" lon="105.2560887"><ele>339.59</ele><time>2026-02-10T18:21:57.000Z</time></trkpt>
        <trkpt lat="29.3736572" lon="105.2559677"><ele>339.18</ele><time>2026-02-10T18:22:05.000Z</time></trkpt>
        <trkpt lat="29.3737125" lon="105.2558532"><ele>339.09</ele><time>2026-02-10T18:22:13.000Z</time></trkpt>
        <trkpt lat="29.3737406" lon="105.2557392"><ele>338.57</ele><time>2026-02-10T18:22:25.000Z</time></trkpt>
        <trkpt lat="29.3737603" lon="105.2556204"><ele>338.36</ele><time>2026-02-10T18:22:31.000Z</time></trkpt>
        <trkpt lat="29.3737821" lon="105.2555138"><ele>338.45</ele><time>2026-02-10T18:22:37.000Z</time></trkpt>
        <trkpt lat="29.3738103" lon="105.2554024"><ele>338.55</ele><time>2026-02-10T18:22:43.000Z</time></trkpt>
        <trkpt lat="29.3738271" lon="105.2552808"><ele>338.68</ele><time>2026-02-10T18:22:51.000Z</time></trkpt>
        <trkpt lat="29.3738433" lon="105.2551528"><ele>338.71</ele><time>2026-02-10T18:22:57.000Z</time></trkpt>
        <trkpt lat="29.3738601" lon="105.2550165"><ele>338.96</ele><time>2026-02-10T18:23:05.000Z</time></trkpt>
        <trkpt lat="29.3738778" lon="105.254891"><ele>339.81</ele><time>2026-02-10T18:23:13.000Z</time></trkpt>
        <trkpt lat="29.3738864" lon="105.2547689"><ele>340.54</ele><time>2026-02-10T18:23:21.000Z</time></trkpt>
        <trkpt lat="29.3738988" lon="105.2546599"><ele>341.09</ele><time>2026-02-10T18:23:29.000Z</time></trkpt>
        <trkpt lat="29.3739142" lon="105.2545503"><ele>341.58</ele><time>2026-02-10T18:23:35.000Z</time></trkpt>
        <trkpt lat="29.3739366" lon="105.2544494"><ele>341.87</ele><time>2026-02-10T18:23:41.000Z</time></trkpt>
        <trkpt lat="29.373956" lon="105.2543469"><ele>342.06</ele><time>2026-02-10T18:23:47.000Z</time></trkpt>
        <trkpt lat="29.3739641" lon="105.2542394"><ele>341.79</ele><time>2026-02-10T18:23:53.000Z</time></trkpt>
        <trkpt lat="29.373982" lon="105.2541372"><ele>342.05</ele><time>2026-02-10T18:23:59.000Z</time></trkpt>
        <trkpt lat="29.3739969" lon="105.2540133"><ele>342.16</ele><time>2026-02-10T18:24:07.000Z</time></trkpt>
        <trkpt lat="29.374007" lon="105.2538957"><ele>342.16</ele><time>2026-02-10T18:24:15.000Z</time></trkpt>
        <trkpt lat="29.3740076" lon="105.2537744"><ele>342.04</ele><time>2026-02-10T18:24:23.000Z</time></trkpt>
        <trkpt lat="29.3740103" lon="105.2536507"><ele>342.18</ele><time>2026-02-10T18:24:31.000Z</time></trkpt>
        <trkpt lat="29.3739964" lon="105.2535251"><ele>341.64</ele><time>2026-02-10T18:24:35.000Z</time></trkpt>
        <trkpt lat="29.3739856" lon="105.2534089"><ele>341.23</ele><time>2026-02-10T18:24:43.000Z</time></trkpt>
        <trkpt lat="29.3739079" lon="105.2533895"><ele>340.71</ele><time>2026-02-10T18:24:59.000Z</time></trkpt>
        <trkpt lat="29.3738056" lon="105.2533878"><ele>339.7</ele><time>2026-02-10T18:25:07.000Z</time></trkpt>
        <trkpt lat="29.3737127" lon="105.2534398"><ele>338.59</ele><time>2026-02-10T18:25:21.000Z</time></trkpt>
        <trkpt lat="29.3736278" lon="105.2534092"><ele>337.4</ele><time>2026-02-10T18:25:31.000Z</time></trkpt>
        <trkpt lat="29.3735835" lon="105.2533244"><ele>336.81</ele><time>2026-02-10T18:25:39.000Z</time></trkpt>
        <trkpt lat="29.3735652" lon="105.2532009"><ele>336.97</ele><time>2026-02-10T18:25:51.000Z</time></trkpt>
        <trkpt lat="29.3735538" lon="105.2530671"><ele>337.61</ele><time>2026-02-10T18:25:59.000Z</time></trkpt>
        <trkpt lat="29.3735524" lon="105.2529301"><ele>338.4</ele><time>2026-02-10T18:26:07.000Z</time></trkpt>
        <trkpt lat="29.3735689" lon="105.2527976"><ele>339.52</ele><time>2026-02-10T18:26:15.000Z</time></trkpt>
        <trkpt lat="29.3735819" lon="105.2526822"><ele>340.55</ele><time>2026-02-10T18:26:21.000Z</time></trkpt>
        <trkpt lat="29.3735324" lon="105.252593"><ele>341.09</ele><time>2026-02-10T18:26:29.000Z</time></trkpt>
        <trkpt lat="29.3734523" lon="105.2525019"><ele>341.35</ele><time>2026-02-10T18:26:37.000Z</time></trkpt>
        <trkpt lat="29.373365" lon="105.2524138"><ele>340.86</ele><time>2026-02-10T18:26:47.000Z</time></trkpt>
        <trkpt lat="29.3733221" lon="105.2523072"><ele>340.51</ele><time>2026-02-10T18:26:53.000Z</time></trkpt>
        <trkpt lat="29.3733429" lon="105.2522083"><ele>340.3</ele><time>2026-02-10T18:26:59.000Z</time></trkpt>
        <trkpt lat="29.3733931" lon="105.2520986"><ele>340.06</ele><time>2026-02-10T18:27:07.000Z</time></trkpt>
        <trkpt lat="29.373429" lon="105.2519857"><ele>339.61</ele><time>2026-02-10T18:27:15.000Z</time></trkpt>
        <trkpt lat="29.3734378" lon="105.251874"><ele>339.65</ele><time>2026-02-10T18:27:23.000Z</time></trkpt>
        <trkpt lat="29.3734505" lon="105.2517487"><ele>339.62</ele><time>2026-02-10T18:27:31.000Z</time></trkpt>
        <trkpt lat="29.3734896" lon="105.2516477"><ele>338.65</ele><time>2026-02-10T18:27:37.000Z</time></trkpt>
        <trkpt lat="29.3735635" lon="105.2515576"><ele>338.02</ele><time>2026-02-10T18:27:45.000Z</time></trkpt>
        <trkpt lat="29.3736362" lon="105.2514814"><ele>337.35</ele><time>2026-02-10T18:27:53.000Z</time></trkpt>
        <trkpt lat="29.3737357" lon="105.251437"><ele>337.05</ele><time>2026-02-10T18:28:07.000Z</time></trkpt>
        <trkpt lat="29.3738377" lon="105.2514698"><ele>336.42</ele><time>2026-02-10T18:28:15.000Z</time></trkpt>
        <trkpt lat="29.3738966" lon="105.2515602"><ele>336.68</ele><time>2026-02-10T18:28:21.000Z</time></trkpt>
        <trkpt lat="29.3739744" lon="105.2515565"><ele>337</ele><time>2026-02-10T18:28:45.000Z</time></trkpt>
        <trkpt lat="29.3740404" lon="105.2514869"><ele>337.3</ele><time>2026-02-10T18:28:55.000Z</time></trkpt>
        <trkpt lat="29.3741213" lon="105.2513981"><ele>336.78</ele><time>2026-02-10T18:29:07.000Z</time></trkpt>
        <trkpt lat="29.3742037" lon="105.2513333"><ele>335.41</ele><time>2026-02-10T18:29:15.000Z</time></trkpt>
        <trkpt lat="29.3742596" lon="105.2512424"><ele>335.21</ele><time>2026-02-10T18:29:23.000Z</time></trkpt>
        <trkpt lat="29.3742941" lon="105.2511407"><ele>334.97</ele><time>2026-02-10T18:29:29.000Z</time></trkpt>
        <trkpt lat="29.3743485" lon="105.2510383"><ele>335.09</ele><time>2026-02-10T18:29:37.000Z</time></trkpt>
        <trkpt lat="29.374413" lon="105.250958"><ele>334.81</ele><time>2026-02-10T18:29:45.000Z</time></trkpt>
        <trkpt lat="29.3744766" lon="105.250881"><ele>334.6</ele><time>2026-02-10T18:29:53.000Z</time></trkpt>
        <trkpt lat="29.3745434" lon="105.2508013"><ele>334.55</ele><time>2026-02-10T18:30:09.000Z</time></trkpt>
        <trkpt lat="29.3746291" lon="105.2507725"><ele>335</ele><time>2026-02-10T18:30:23.000Z</time></trkpt>
        <trkpt lat="29.3747095" lon="105.2507222"><ele>336.42</ele><time>2026-02-10T18:30:39.000Z</time></trkpt>
        <trkpt lat="29.3747612" lon="105.2506409"><ele>337.42</ele><time>2026-02-10T18:30:49.000Z</time></trkpt>
        <trkpt lat="29.3748239" lon="105.2505521"><ele>337.63</ele><time>2026-02-10T18:31:01.000Z</time></trkpt>
        <trkpt lat="29.3748927" lon="105.2504657"><ele>338.37</ele><time>2026-02-10T18:31:19.000Z</time></trkpt>
        <trkpt lat="29.3749501" lon="105.2503739"><ele>339.27</ele><time>2026-02-10T18:31:35.000Z</time></trkpt>
        <trkpt lat="29.3750243" lon="105.2503066"><ele>340.31</ele><time>2026-02-10T18:31:51.000Z</time></trkpt>
        <trkpt lat="29.3750937" lon="105.2502354"><ele>341.92</ele><time>2026-02-10T18:32:17.000Z</time></trkpt>
        <trkpt lat="29.375106" lon="105.2501344"><ele>343.37</ele><time>2026-02-10T18:32:41.000Z</time></trkpt>
        <trkpt lat="29.3751414" lon="105.2500253"><ele>344.37</ele><time>2026-02-10T18:32:57.000Z</time></trkpt>
        <trkpt lat="29.375214" lon="105.2499662"><ele>344.75</ele><time>2026-02-10T18:33:09.000Z</time></trkpt>
        <trkpt lat="29.3752859" lon="105.2499027"><ele>344.98</ele><time>2026-02-10T18:33:23.000Z</time></trkpt>
        <trkpt lat="29.3752869" lon="105.2498032"><ele>344.29</ele><time>2026-02-10T18:33:33.000Z</time></trkpt>
        <trkpt lat="29.3752649" lon="105.2496879"><ele>343.2</ele><time>2026-02-10T18:33:41.000Z</time></trkpt>
        <trkpt lat="29.3752078" lon="105.2495892"><ele>341.76</ele><time>2026-02-10T18:33:51.000Z</time></trkpt>
        <trkpt lat="29.3751483" lon="105.2494958"><ele>341.26</ele><time>2026-02-10T18:34:03.000Z</time></trkpt>
        <trkpt lat="29.3750711" lon="105.2494321"><ele>340.29</ele><time>2026-02-10T18:34:13.000Z</time></trkpt>
        <trkpt lat="29.3750351" lon="105.2493309"><ele>339.86</ele><time>2026-02-10T18:34:21.000Z</time></trkpt>
        <trkpt lat="29.3750806" lon="105.2492438"><ele>340.29</ele><time>2026-02-10T18:34:33.000Z</time></trkpt>
        <trkpt lat="29.3751254" lon="105.249136"><ele>340.71</ele><time>2026-02-10T18:34:49.000Z</time></trkpt>
        <trkpt lat="29.3751081" lon="105.2490299"><ele>341.82</ele><time>2026-02-10T18:35:07.000Z</time></trkpt>
        <trkpt lat="29.3751074" lon="105.2489152"><ele>342.39</ele><time>2026-02-10T18:35:27.000Z</time></trkpt>
        <trkpt lat="29.3751418" lon="105.2488179"><ele>342.37</ele><time>2026-02-10T18:35:37.000Z</time></trkpt>
        <trkpt lat="29.3751908" lon="105.248722"><ele>342.25</ele><time>2026-02-10T18:35:53.000Z</time></trkpt>
        <trkpt lat="29.3751908" lon="105.248722"><ele>342.25</ele><time>2026-02-10T18:36:33.000Z</time></trkpt>
        <trkpt lat="29.3751908" lon="105.248722"><ele>342.25</ele><time>2026-02-10T18:36:38.000Z</time></trkpt>
        <trkpt lat="29.3751908" lon="105.248722"><ele>342.25</ele><time>2026-02-10T18:36:57.000Z</time></trkpt>
        <trkpt lat="29.3751889" lon="105.2486128"><ele>341.63</ele><time>2026-02-10T18:37:02.000Z</time></trkpt>
        <trkpt lat="29.3751889" lon="105.2486128"><ele>341.63</ele><time>2026-02-10T18:37:37.000Z</time></trkpt>
        <trkpt lat="29.3752391" lon="105.2485169"><ele>341.25</ele><time>2026-02-10T18:37:49.000Z</time></trkpt>
        <trkpt lat="29.3752932" lon="105.2484228"><ele>341.64</ele><time>2026-02-10T18:37:59.000Z</time></trkpt>
        <trkpt lat="29.3753608" lon="105.2483412"><ele>341.6</ele><time>2026-02-10T18:38:07.000Z</time></trkpt>
        <trkpt lat="29.3754361" lon="105.2482798"><ele>341.44</ele><time>2026-02-10T18:38:15.000Z</time></trkpt>
        <trkpt lat="29.3755243" lon="105.2482387"><ele>341.17</ele><time>2026-02-10T18:38:23.000Z</time></trkpt>
        <trkpt lat="29.3756189" lon="105.248255"><ele>340.94</ele><time>2026-02-10T18:38:35.000Z</time></trkpt>
        <trkpt lat="29.375612" lon="105.2481903"><ele>341.37</ele><time>2026-02-10T18:38:49.000Z</time></trkpt>
        <trkpt lat="29.375612" lon="105.2481903"><ele>341.37</ele><time>2026-02-10T18:39:11.000Z</time></trkpt>
        <trkpt lat="29.3756498" lon="105.2482494"><ele>341.68</ele><time>2026-02-10T18:39:20.000Z</time></trkpt>
        <trkpt lat="29.3756498" lon="105.2482494"><ele>341.68</ele><time>2026-02-10T18:39:29.000Z</time></trkpt>
        <trkpt lat="29.3757329" lon="105.248319"><ele>342.39</ele><time>2026-02-10T18:39:41.000Z</time></trkpt>
        <trkpt lat="29.3758101" lon="105.2484239"><ele>342.91</ele><time>2026-02-10T18:39:55.000Z</time></trkpt>
        <trkpt lat="29.3758927" lon="105.2484928"><ele>343.19</ele><time>2026-02-10T18:40:11.000Z</time></trkpt>
        <trkpt lat="29.3759675" lon="105.2484603"><ele>343.41</ele><time>2026-02-10T18:40:17.000Z</time></trkpt>
        <trkpt lat="29.3760193" lon="105.2483697"><ele>342.67</ele><time>2026-02-10T18:40:25.000Z</time></trkpt>
        <trkpt lat="29.376095" lon="105.2483901"><ele>341.94</ele><time>2026-02-10T18:40:37.000Z</time></trkpt>
        <trkpt lat="29.3762034" lon="105.2484476"><ele>342.47</ele><time>2026-02-10T18:40:45.000Z</time></trkpt>
        <trkpt lat="29.3762949" lon="105.2485172"><ele>342.01</ele><time>2026-02-10T18:40:51.000Z</time></trkpt>
        <trkpt lat="29.376367" lon="105.2486102"><ele>342.08</ele><time>2026-02-10T18:40:59.000Z</time></trkpt>
        <trkpt lat="29.376438" lon="105.24859"><ele>342.43</ele><time>2026-02-10T18:41:09.000Z</time></trkpt>
        <trkpt lat="29.3764802" lon="105.2484974"><ele>342.93</ele><time>2026-02-10T18:41:21.000Z</time></trkpt>
        <trkpt lat="29.3765274" lon="105.248535"><ele>343.71</ele><time>2026-02-10T18:41:49.000Z</time></trkpt>
        <trkpt lat="29.3765435" lon="105.248638"><ele>346.12</ele><time>2026-02-10T18:41:57.000Z</time></trkpt>
        <trkpt lat="29.3765586" lon="105.2487569"><ele>348.14</ele><time>2026-02-10T18:42:05.000Z</time></trkpt>
        <trkpt lat="29.3765701" lon="105.2488853"><ele>349.41</ele><time>2026-02-10T18:42:15.000Z</time></trkpt>
        <trkpt lat="29.3766044" lon="105.2489945"><ele>350.62</ele><time>2026-02-10T18:42:23.000Z</time></trkpt>
        <trkpt lat="29.3766743" lon="105.2490685"><ele>352.24</ele><time>2026-02-10T18:42:31.000Z</time></trkpt>
        <trkpt lat="29.3767715" lon="105.2490768"><ele>353.08</ele><time>2026-02-10T18:42:41.000Z</time></trkpt>
        <trkpt lat="29.3768652" lon="105.2490433"><ele>353.62</ele><time>2026-02-10T18:42:47.000Z</time></trkpt>
        <trkpt lat="29.3769559" lon="105.248994"><ele>353.9</ele><time>2026-02-10T18:42:53.000Z</time></trkpt>
        <trkpt lat="29.3770411" lon="105.2489341"><ele>353.89</ele><time>2026-02-10T18:42:59.000Z</time></trkpt>
        <trkpt lat="29.3771444" lon="105.248898"><ele>353.33</ele><time>2026-02-10T18:43:07.000Z</time></trkpt>
        <trkpt lat="29.3772372" lon="105.2489155"><ele>352.45</ele><time>2026-02-10T18:43:13.000Z</time></trkpt>
        <trkpt lat="29.3773325" lon="105.2489468"><ele>351.91</ele><time>2026-02-10T18:43:19.000Z</time></trkpt>
        <trkpt lat="29.3773959" lon="105.2488948"><ele>351.85</ele><time>2026-02-10T18:43:29.000Z</time></trkpt>
        <trkpt lat="29.3774731" lon="105.248793"><ele>350.04</ele><time>2026-02-10T18:43:37.000Z</time></trkpt>
        <trkpt lat="29.3775609" lon="105.2486827"><ele>349.2</ele><time>2026-02-10T18:43:43.000Z</time></trkpt>
        <trkpt lat="29.3776493" lon="105.2486261"><ele>348.31</ele><time>2026-02-10T18:43:47.000Z</time></trkpt>
        <trkpt lat="29.3777453" lon="105.2486065"><ele>347.18</ele><time>2026-02-10T18:43:53.000Z</time></trkpt>
        <trkpt lat="29.3778354" lon="105.2485734"><ele>347.1</ele><time>2026-02-10T18:44:01.000Z</time></trkpt>
        <trkpt lat="29.3779302" lon="105.2485322"><ele>347.63</ele><time>2026-02-10T18:44:09.000Z</time></trkpt>
        <trkpt lat="29.3780305" lon="105.2484747"><ele>348.45</ele><time>2026-02-10T18:44:19.000Z</time></trkpt>
        <trkpt lat="29.3781033" lon="105.2483965"><ele>348.91</ele><time>2026-02-10T18:44:27.000Z</time></trkpt>
        <trkpt lat="29.3781803" lon="105.2483419"><ele>349.23</ele><time>2026-02-10T18:44:33.000Z</time></trkpt>
        <trkpt lat="29.3782567" lon="105.248262"><ele>349.48</ele><time>2026-02-10T18:44:41.000Z</time></trkpt>
        <trkpt lat="29.3783347" lon="105.2481693"><ele>349.67</ele><time>2026-02-10T18:44:49.000Z</time></trkpt>
        <trkpt lat="29.3783924" lon="105.248065"><ele>349.99</ele><time>2026-02-10T18:44:57.000Z</time></trkpt>
        <trkpt lat="29.3784208" lon="105.2479575"><ele>350.63</ele><time>2026-02-10T18:45:05.000Z</time></trkpt>
        <trkpt lat="29.3784914" lon="105.2478977"><ele>350.62</ele><time>2026-02-10T18:45:15.000Z</time></trkpt>
        <trkpt lat="29.3785817" lon="105.2478815"><ele>350.52</ele><time>2026-02-10T18:45:21.000Z</time></trkpt>
        <trkpt lat="29.378679" lon="105.2478787"><ele>350.52</ele><time>2026-02-10T18:45:29.000Z</time></trkpt>
        <trkpt lat="29.3787738" lon="105.2478749"><ele>350.3</ele><time>2026-02-10T18:45:35.000Z</time></trkpt>
        <trkpt lat="29.3788667" lon="105.247896"><ele>350.24</ele><time>2026-02-10T18:45:43.000Z</time></trkpt>
        <trkpt lat="29.3789002" lon="105.2479912"><ele>350.23</ele><time>2026-02-10T18:45:51.000Z</time></trkpt>
        <trkpt lat="29.3789288" lon="105.2481192"><ele>349.82</ele><time>2026-02-10T18:45:59.000Z</time></trkpt>
        <trkpt lat="29.3789765" lon="105.2482246"><ele>348.87</ele><time>2026-02-10T18:46:05.000Z</time></trkpt>
        <trkpt lat="29.379068" lon="105.2482975"><ele>348.17</ele><time>2026-02-10T18:46:13.000Z</time></trkpt>
        <trkpt lat="29.3791577" lon="105.2483504"><ele>347.99</ele><time>2026-02-10T18:46:21.000Z</time></trkpt>
        <trkpt lat="29.3792483" lon="105.2483999"><ele>347.39</ele><time>2026-02-10T18:46:31.000Z</time></trkpt>
        <trkpt lat="29.3793322" lon="105.2484716"><ele>347.25</ele><time>2026-02-10T18:46:39.000Z</time></trkpt>
        <trkpt lat="29.3794184" lon="105.2485378"><ele>346.96</ele><time>2026-02-10T18:46:47.000Z</time></trkpt>
        <trkpt lat="29.3794982" lon="105.2485969"><ele>347.58</ele><time>2026-02-10T18:46:55.000Z</time></trkpt>
        <trkpt lat="29.3795738" lon="105.2487062"><ele>348.32</ele><time>2026-02-10T18:47:19.000Z</time></trkpt>
        <trkpt lat="29.3795978" lon="105.2488251"><ele>349.11</ele><time>2026-02-10T18:47:25.000Z</time></trkpt>
        <trkpt lat="29.3795726" lon="105.2489447"><ele>349.52</ele><time>2026-02-10T18:47:33.000Z</time></trkpt>
        <trkpt lat="29.3795485" lon="105.2490654"><ele>349.45</ele><time>2026-02-10T18:47:39.000Z</time></trkpt>
        <trkpt lat="29.3795502" lon="105.2491839"><ele>348.56</ele><time>2026-02-10T18:47:47.000Z</time></trkpt>
        <trkpt lat="29.3795847" lon="105.2493035"><ele>347.32</ele><time>2026-02-10T18:47:57.000Z</time></trkpt>
        <trkpt lat="29.3796499" lon="105.249384"><ele>345.83</ele><time>2026-02-10T18:48:03.000Z</time></trkpt>
        <trkpt lat="29.3797384" lon="105.2494706"><ele>345.02</ele><time>2026-02-10T18:48:09.000Z</time></trkpt>
        <trkpt lat="29.3797472" lon="105.2495992"><ele>344.31</ele><time>2026-02-10T18:48:15.000Z</time></trkpt>
        <trkpt lat="29.379808" lon="105.2497006"><ele>344.61</ele><time>2026-02-10T18:48:25.000Z</time></trkpt>
        <trkpt lat="29.3798876" lon="105.2497567"><ele>344.91</ele><time>2026-02-10T18:48:31.000Z</time></trkpt>
        <trkpt lat="29.3799957" lon="105.2498082"><ele>345.09</ele><time>2026-02-10T18:48:39.000Z</time></trkpt>
        <trkpt lat="29.3800976" lon="105.2498655"><ele>345.19</ele><time>2026-02-10T18:48:57.000Z</time></trkpt>
        <trkpt lat="29.3801775" lon="105.2498267"><ele>347.91</ele><time>2026-02-10T18:49:05.000Z</time></trkpt>
        <trkpt lat="29.380256" lon="105.249745"><ele>347.23</ele><time>2026-02-10T18:49:13.000Z</time></trkpt>
        <trkpt lat="29.3803301" lon="105.2496689"><ele>346.05</ele><time>2026-02-10T18:49:21.000Z</time></trkpt>
        <trkpt lat="29.3804085" lon="105.2496037"><ele>344.89</ele><time>2026-02-10T18:49:31.000Z</time></trkpt>
        <trkpt lat="29.3805007" lon="105.2496069"><ele>344.02</ele><time>2026-02-10T18:49:41.000Z</time></trkpt>
        <trkpt lat="29.3805972" lon="105.2496536"><ele>342.95</ele><time>2026-02-10T18:49:49.000Z</time></trkpt>
        <trkpt lat="29.3806917" lon="105.249721"><ele>342.04</ele><time>2026-02-10T18:49:57.000Z</time></trkpt>
        <trkpt lat="29.3807819" lon="105.2497889"><ele>341.36</ele><time>2026-02-10T18:50:07.000Z</time></trkpt>
        <trkpt lat="29.3808741" lon="105.2497884"><ele>341.17</ele><time>2026-02-10T18:50:17.000Z</time></trkpt>
        <trkpt lat="29.380919" lon="105.2497085"><ele>340.57</ele><time>2026-02-10T18:50:23.000Z</time></trkpt>
        <trkpt lat="29.3809835" lon="105.2496076"><ele>339.98</ele><time>2026-02-10T18:50:31.000Z</time></trkpt>
        <trkpt lat="29.3810739" lon="105.2495323"><ele>339.57</ele><time>2026-02-10T18:50:41.000Z</time></trkpt>
        <trkpt lat="29.3811637" lon="105.249484"><ele>339.22</ele><time>2026-02-10T18:50:47.000Z</time></trkpt>
        <trkpt lat="29.3812552" lon="105.2494482"><ele>338.76</ele><time>2026-02-10T18:50:53.000Z</time></trkpt>
        <trkpt lat="29.3813701" lon="105.2494434"><ele>338.29</ele><time>2026-02-10T18:51:01.000Z</time></trkpt>
        <trkpt lat="29.3814715" lon="105.2494224"><ele>337.57</ele><time>2026-02-10T18:51:13.000Z</time></trkpt>
        <trkpt lat="29.3815468" lon="105.2493405"><ele>337</ele><time>2026-02-10T18:51:23.000Z</time></trkpt>
        <trkpt lat="29.3816188" lon="105.2492455"><ele>336.42</ele><time>2026-02-10T18:51:33.000Z</time></trkpt>
        <trkpt lat="29.3816848" lon="105.2491592"><ele>336.07</ele><time>2026-02-10T18:51:41.000Z</time></trkpt>
        <trkpt lat="29.3817342" lon="105.2490662"><ele>335.88</ele><time>2026-02-10T18:51:49.000Z</time></trkpt>
        <trkpt lat="29.3817331" lon="105.2489514"><ele>335.07</ele><time>2026-02-10T18:52:07.000Z</time></trkpt>
        <trkpt lat="29.3817084" lon="105.2488336"><ele>335.04</ele><time>2026-02-10T18:52:25.000Z</time></trkpt>
        <trkpt lat="29.3816538" lon="105.2487287"><ele>334.54</ele><time>2026-02-10T18:52:37.000Z</time></trkpt>
        <trkpt lat="29.3816715" lon="105.2487883"><ele>334.42</ele><time>2026-02-10T18:53:21.000Z</time></trkpt>
        <trkpt lat="29.3817051" lon="105.248902"><ele>334.85</ele><time>2026-02-10T18:53:29.000Z</time></trkpt>
        <trkpt lat="29.3817478" lon="105.2490254"><ele>335.89</ele><time>2026-02-10T18:53:37.000Z</time></trkpt>
        <trkpt lat="29.3818115" lon="105.2491399"><ele>336.27</ele><time>2026-02-10T18:53:49.000Z</time></trkpt>
        <trkpt lat="29.3818825" lon="105.2492397"><ele>337.27</ele><time>2026-02-10T18:53:57.000Z</time></trkpt>
        <trkpt lat="29.3819467" lon="105.2493445"><ele>337.67</ele><time>2026-02-10T18:54:05.000Z</time></trkpt>
        <trkpt lat="29.3820288" lon="105.2494013"><ele>338.57</ele><time>2026-02-10T18:54:13.000Z</time></trkpt>
        <trkpt lat="29.3821292" lon="105.2494426"><ele>339.58</ele><time>2026-02-10T18:54:23.000Z</time></trkpt>
        <trkpt lat="29.3822139" lon="105.2495239"><ele>340.99</ele><time>2026-02-10T18:54:31.000Z</time></trkpt>
        <trkpt lat="29.3823056" lon="105.2495404"><ele>341.84</ele><time>2026-02-10T18:54:39.000Z</time></trkpt>
        <trkpt lat="29.3824033" lon="105.2494933"><ele>342.62</ele><time>2026-02-10T18:54:49.000Z</time></trkpt>
        <trkpt lat="29.382498" lon="105.2494552"><ele>342.87</ele><time>2026-02-10T18:54:57.000Z</time></trkpt>
        <trkpt lat="29.3825908" lon="105.2494177"><ele>343.21</ele><time>2026-02-10T18:55:03.000Z</time></trkpt>
        <trkpt lat="29.3826932" lon="105.2493816"><ele>343.34</ele><time>2026-02-10T18:55:11.000Z</time></trkpt>
        <trkpt lat="29.3827957" lon="105.2493533"><ele>343.86</ele><time>2026-02-10T18:55:19.000Z</time></trkpt>
        <trkpt lat="29.3829026" lon="105.2493177"><ele>344.91</ele><time>2026-02-10T18:55:29.000Z</time></trkpt>
        <trkpt lat="29.3829894" lon="105.2492689"><ele>345.56</ele><time>2026-02-10T18:55:37.000Z</time></trkpt>
        <trkpt lat="29.3830583" lon="105.2491952"><ele>346.13</ele><time>2026-02-10T18:55:45.000Z</time></trkpt>
        <trkpt lat="29.3831364" lon="105.2491299"><ele>346.12</ele><time>2026-02-10T18:55:53.000Z</time></trkpt>
        <trkpt lat="29.3832117" lon="105.2490437"><ele>345.48</ele><time>2026-02-10T18:56:01.000Z</time></trkpt>
        <trkpt lat="29.3832117" lon="105.2490437"><ele>345.48</ele><time>2026-02-10T18:56:17.000Z</time></trkpt>
        <trkpt lat="29.3832286" lon="105.2489381"><ele>344.94</ele><time>2026-02-10T18:56:20.000Z</time></trkpt>
        <trkpt lat="29.3832286" lon="105.2489381"><ele>344.94</ele><time>2026-02-10T18:56:57.000Z</time></trkpt>
        <trkpt lat="29.3832027" lon="105.2488292"><ele>345.28</ele><time>2026-02-10T18:57:03.000Z</time></trkpt>
        <trkpt lat="29.3831618" lon="105.2486983"><ele>345.12</ele><time>2026-02-10T18:57:11.000Z</time></trkpt>
        <trkpt lat="29.3831227" lon="105.2485761"><ele>343.95</ele><time>2026-02-10T18:57:19.000Z</time></trkpt>
        <trkpt lat="29.3830619" lon="105.2484695"><ele>342.49</ele><time>2026-02-10T18:57:29.000Z</time></trkpt>
        <trkpt lat="29.3829971" lon="105.2483863"><ele>341.53</ele><time>2026-02-10T18:57:37.000Z</time></trkpt>
        <trkpt lat="29.3829206" lon="105.248307"><ele>341.46</ele><time>2026-02-10T18:57:45.000Z</time></trkpt>
        <trkpt lat="29.3828543" lon="105.2482224"><ele>341.61</ele><time>2026-02-10T18:57:57.000Z</time></trkpt>
        <trkpt lat="29.3827964" lon="105.2481158"><ele>341.15</ele><time>2026-02-10T18:58:05.000Z</time></trkpt>
        <trkpt lat="29.3827291" lon="105.2480042"><ele>340.17</ele><time>2026-02-10T18:58:13.000Z</time></trkpt>
        <trkpt lat="29.3826819" lon="105.2478922"><ele>339.35</ele><time>2026-02-10T18:58:21.000Z</time></trkpt>
        <trkpt lat="29.3826804" lon="105.2477678"><ele>338.68</ele><time>2026-02-10T18:58:29.000Z</time></trkpt>
        <trkpt lat="29.3826984" lon="105.2476418"><ele>338.02</ele><time>2026-02-10T18:58:37.000Z</time></trkpt>
        <trkpt lat="29.3827247" lon="105.2475325"><ele>337.01</ele><time>2026-02-10T18:58:43.000Z</time></trkpt>
        <trkpt lat="29.3827245" lon="105.2474122"><ele>336.33</ele><time>2026-02-10T18:58:51.000Z</time></trkpt>
        <trkpt lat="29.382749" lon="105.2472853"><ele>336.2</ele><time>2026-02-10T18:59:01.000Z</time></trkpt>
        <trkpt lat="29.3828097" lon="105.2471801"><ele>336</ele><time>2026-02-10T18:59:13.000Z</time></trkpt>
        <trkpt lat="29.382877" lon="105.2470874"><ele>336.02</ele><time>2026-02-10T18:59:21.000Z</time></trkpt>
        <trkpt lat="29.3829461" lon="105.2469981"><ele>336.28</ele><time>2026-02-10T18:59:29.000Z</time></trkpt>
        <trkpt lat="29.3830274" lon="105.2469321"><ele>336.62</ele><time>2026-02-10T18:59:39.000Z</time></trkpt>
        <trkpt lat="29.3830274" lon="105.2469321"><ele>336.62</ele><time>2026-02-10T18:59:51.000Z</time></trkpt>
        <trkpt lat="29.3831343" lon="105.2469124"><ele>337.25</ele><time>2026-02-10T19:00:10.000Z</time></trkpt>
        <trkpt lat="29.3831343" lon="105.2469124"><ele>337.25</ele><time>2026-02-10T19:00:21.000Z</time></trkpt>
        <trkpt lat="29.3832507" lon="105.2469277"><ele>338.65</ele><time>2026-02-10T19:00:35.000Z</time></trkpt>
        <trkpt lat="29.3833371" lon="105.2468702"><ele>339.72</ele><time>2026-02-10T19:00:43.000Z</time></trkpt>
        <trkpt lat="29.3833864" lon="105.24678"><ele>339.92</ele><time>2026-02-10T19:00:49.000Z</time></trkpt>
        <trkpt lat="29.3834347" lon="105.2466718"><ele>339.91</ele><time>2026-02-10T19:00:55.000Z</time></trkpt>
        <trkpt lat="29.3834824" lon="105.2465553"><ele>339.42</ele><time>2026-02-10T19:01:01.000Z</time></trkpt>
        <trkpt lat="29.3835673" lon="105.2464715"><ele>338.41</ele><time>2026-02-10T19:01:09.000Z</time></trkpt>
        <trkpt lat="29.3836495" lon="105.2464046"><ele>338.17</ele><time>2026-02-10T19:01:17.000Z</time></trkpt>
        <trkpt lat="29.3837367" lon="105.2463288"><ele>338.09</ele><time>2026-02-10T19:01:23.000Z</time></trkpt>
        <trkpt lat="29.3838042" lon="105.2462304"><ele>338.05</ele><time>2026-02-10T19:01:29.000Z</time></trkpt>
        <trkpt lat="29.3838474" lon="105.246109"><ele>338.19</ele><time>2026-02-10T19:01:35.000Z</time></trkpt>
        <trkpt lat="29.3838961" lon="105.2459916"><ele>338.14</ele><time>2026-02-10T19:01:41.000Z</time></trkpt>
        <trkpt lat="29.383971" lon="105.2459332"><ele>338.39</ele><time>2026-02-10T19:01:47.000Z</time></trkpt>
        <trkpt lat="29.3840425" lon="105.2458722"><ele>339.03</ele><time>2026-02-10T19:01:53.000Z</time></trkpt>
        <trkpt lat="29.3840899" lon="105.2457545"><ele>339.45</ele><time>2026-02-10T19:02:01.000Z</time></trkpt>
        <trkpt lat="29.384087" lon="105.245616"><ele>339.6</ele><time>2026-02-10T19:02:09.000Z</time></trkpt>
        <trkpt lat="29.3840635" lon="105.2454952"><ele>339.43</ele><time>2026-02-10T19:02:15.000Z</time></trkpt>
        <trkpt lat="29.3840657" lon="105.2453686"><ele>339.7</ele><time>2026-02-10T19:02:23.000Z</time></trkpt>
        <trkpt lat="29.3841195" lon="105.2452786"><ele>339.83</ele><time>2026-02-10T19:02:33.000Z</time></trkpt>
        <trkpt lat="29.3840925" lon="105.2451859"><ele>339.86</ele><time>2026-02-10T19:02:41.000Z</time></trkpt>
        <trkpt lat="29.3840925" lon="105.2451859"><ele>339.86</ele><time>2026-02-10T19:02:55.000Z</time></trkpt>
        <trkpt lat="29.3840262" lon="105.2451099"><ele>339.89</ele><time>2026-02-10T19:02:56.000Z</time></trkpt>
        <trkpt lat="29.3840262" lon="105.2451099"><ele>339.89</ele><time>2026-02-10T19:03:09.000Z</time></trkpt>
        <trkpt lat="29.3839451" lon="105.2450419"><ele>340.15</ele><time>2026-02-10T19:03:15.000Z</time></trkpt>
        <trkpt lat="29.3838637" lon="105.2449822"><ele>340.63</ele><time>2026-02-10T19:03:21.000Z</time></trkpt>
        <trkpt lat="29.3837721" lon="105.2449392"><ele>341.22</ele><time>2026-02-10T19:03:29.000Z</time></trkpt>
        <trkpt lat="29.3836817" lon="105.2449017"><ele>342.16</ele><time>2026-02-10T19:03:37.000Z</time></trkpt>
        <trkpt lat="29.3835866" lon="105.2449148"><ele>343.07</ele><time>2026-02-10T19:03:45.000Z</time></trkpt>
        <trkpt lat="29.3834973" lon="105.2449913"><ele>343.4</ele><time>2026-02-10T19:03:53.000Z</time></trkpt>
        <trkpt lat="29.3834098" lon="105.2450712"><ele>343.45</ele><time>2026-02-10T19:04:01.000Z</time></trkpt>
        <trkpt lat="29.3833299" lon="105.2451611"><ele>343.56</ele><time>2026-02-10T19:04:17.000Z</time></trkpt>
        <trkpt lat="29.3832756" lon="105.2452577"><ele>342.38</ele><time>2026-02-10T19:04:25.000Z</time></trkpt>
        <trkpt lat="29.3832756" lon="105.2452577"><ele>342.38</ele><time>2026-02-10T19:04:45.000Z</time></trkpt>
        <trkpt lat="29.3833151" lon="105.2452177"><ele>341.69</ele><time>2026-02-10T19:04:54.000Z</time></trkpt>
        <trkpt lat="29.3833151" lon="105.2452177"><ele>341.69</ele><time>2026-02-10T19:05:03.000Z</time></trkpt>
        <trkpt lat="29.3833988" lon="105.2451323"><ele>341.84</ele><time>2026-02-10T19:05:13.000Z</time></trkpt>
        <trkpt lat="29.3834838" lon="105.2450445"><ele>342.18</ele><time>2026-02-10T19:05:21.000Z</time></trkpt>
        <trkpt lat="29.3835641" lon="105.2449642"><ele>342.5</ele><time>2026-02-10T19:05:29.000Z</time></trkpt>
        <trkpt lat="29.3836481" lon="105.2448821"><ele>342.62</ele><time>2026-02-10T19:05:37.000Z</time></trkpt>
        <trkpt lat="29.3837246" lon="105.244798"><ele>343.2</ele><time>2026-02-10T19:05:45.000Z</time></trkpt>
        <trkpt lat="29.3837863" lon="105.2446953"><ele>343.78</ele><time>2026-02-10T19:05:53.000Z</time></trkpt>
        <trkpt lat="29.3838274" lon="105.2445821"><ele>344.08</ele><time>2026-02-10T19:06:01.000Z</time></trkpt>
        <trkpt lat="29.3838391" lon="105.2444738"><ele>344.04</ele><time>2026-02-10T19:06:13.000Z</time></trkpt>
        <trkpt lat="29.3838391" lon="105.2444738"><ele>344.04</ele><time>2026-02-10T19:06:25.000Z</time></trkpt>
        <trkpt lat="29.3838211" lon="105.2445256"><ele>343.45</ele><time>2026-02-10T19:06:34.000Z</time></trkpt>
        <trkpt lat="29.3838211" lon="105.2445256"><ele>343.45</ele><time>2026-02-10T19:06:45.000Z</time></trkpt>
        <trkpt lat="29.3837816" lon="105.244648"><ele>343.02</ele><time>2026-02-10T19:06:53.000Z</time></trkpt>
        <trkpt lat="29.3837382" lon="105.2447728"><ele>343.06</ele><time>2026-02-10T19:07:01.000Z</time></trkpt>
        <trkpt lat="29.3836722" lon="105.2448757"><ele>342.87</ele><time>2026-02-10T19:07:09.000Z</time></trkpt>
        <trkpt lat="29.3835842" lon="105.244945"><ele>342.75</ele><time>2026-02-10T19:07:17.000Z</time></trkpt>
        <trkpt lat="29.3834813" lon="105.2450114"><ele>342.4</ele><time>2026-02-10T19:07:25.000Z</time></trkpt>
        <trkpt lat="29.3833957" lon="105.245106"><ele>342.19</ele><time>2026-02-10T19:07:33.000Z</time></trkpt>
        <trkpt lat="29.3833286" lon="105.24521"><ele>341.36</ele><time>2026-02-10T19:07:43.000Z</time></trkpt>
        <trkpt lat="29.383256" lon="105.2453054"><ele>340.42</ele><time>2026-02-10T19:07:51.000Z</time></trkpt>
        <trkpt lat="29.383187" lon="105.245399"><ele>339.95</ele><time>2026-02-10T19:07:57.000Z</time></trkpt>
        <trkpt lat="29.3831178" lon="105.2454722"><ele>339.58</ele><time>2026-02-10T19:08:03.000Z</time></trkpt>
        <trkpt lat="29.3830516" lon="105.2455421"><ele>339.39</ele><time>2026-02-10T19:08:09.000Z</time></trkpt>
        <trkpt lat="29.3829755" lon="105.2456151"><ele>339.37</ele><time>2026-02-10T19:08:17.000Z</time></trkpt>
        <trkpt lat="29.382889" lon="105.2456709"><ele>339.59</ele><time>2026-02-10T19:08:25.000Z</time></trkpt>
        <trkpt lat="29.3827965" lon="105.245662"><ele>340.59</ele><time>2026-02-10T19:08:33.000Z</time></trkpt>
        <trkpt lat="29.3827118" lon="105.2456092"><ele>341.72</ele><time>2026-02-10T19:08:39.000Z</time></trkpt>
        <trkpt lat="29.3826245" lon="105.2455305"><ele>342.68</ele><time>2026-02-10T19:08:47.000Z</time></trkpt>
        <trkpt lat="29.3825375" lon="105.2454381"><ele>343.66</ele><time>2026-02-10T19:08:55.000Z</time></trkpt>
        <trkpt lat="29.3824499" lon="105.2453412"><ele>343.68</ele><time>2026-02-10T19:09:03.000Z</time></trkpt>
        <trkpt lat="29.3823934" lon="105.2452217"><ele>343.77</ele><time>2026-02-10T19:09:11.000Z</time></trkpt>
        <trkpt lat="29.3823443" lon="105.2451105"><ele>343.56</ele><time>2026-02-10T19:09:17.000Z</time></trkpt>
        <trkpt lat="29.382297" lon="105.2450168"><ele>343.37</ele><time>2026-02-10T19:09:23.000Z</time></trkpt>
        <trkpt lat="29.3822378" lon="105.244913"><ele>343.35</ele><time>2026-02-10T19:09:31.000Z</time></trkpt>
        <trkpt lat="29.382169" lon="105.2448108"><ele>343.28</ele><time>2026-02-10T19:09:39.000Z</time></trkpt>
        <trkpt lat="29.3821046" lon="105.2447071"><ele>343.19</ele><time>2026-02-10T19:09:47.000Z</time></trkpt>
        <trkpt lat="29.3820494" lon="105.2446063"><ele>342.43</ele><time>2026-02-10T19:09:55.000Z</time></trkpt>
        <trkpt lat="29.3819991" lon="105.2445056"><ele>341.81</ele><time>2026-02-10T19:10:01.000Z</time></trkpt>
        <trkpt lat="29.381982" lon="105.2443903"><ele>341.43</ele><time>2026-02-10T19:10:07.000Z</time></trkpt>
        <trkpt lat="29.3819999" lon="105.2442817"><ele>340.95</ele><time>2026-02-10T19:10:13.000Z</time></trkpt>
        <trkpt lat="29.3820154" lon="105.2441676"><ele>340.27</ele><time>2026-02-10T19:10:19.000Z</time></trkpt>
        <trkpt lat="29.3820102" lon="105.2440535"><ele>339.63</ele><time>2026-02-10T19:10:25.000Z</time></trkpt>
        <trkpt lat="29.3819738" lon="105.2439343"><ele>338.66</ele><time>2026-02-10T19:10:33.000Z</time></trkpt>
        <trkpt lat="29.3819048" lon="105.243825"><ele>337.56</ele><time>2026-02-10T19:10:41.000Z</time></trkpt>
        <trkpt lat="29.3818395" lon="105.2437145"><ele>337.09</ele><time>2026-02-10T19:10:49.000Z</time></trkpt>
        <trkpt lat="29.3817892" lon="105.2436041"><ele>336.18</ele><time>2026-02-10T19:10:55.000Z</time></trkpt>
        <trkpt lat="29.3817644" lon="105.2434972"><ele>335.47</ele><time>2026-02-10T19:11:01.000Z</time></trkpt>
        <trkpt lat="29.3817585" lon="105.2433803"><ele>334.62</ele><time>2026-02-10T19:11:09.000Z</time></trkpt>
        <trkpt lat="29.3817613" lon="105.2432633"><ele>334.16</ele><time>2026-02-10T19:11:17.000Z</time></trkpt>
        <trkpt lat="29.381772" lon="105.2431457"><ele>333.76</ele><time>2026-02-10T19:11:25.000Z</time></trkpt>
        <trkpt lat="29.3817527" lon="105.2430386"><ele>333.64</ele><time>2026-02-10T19:11:33.000Z</time></trkpt>
        <trkpt lat="29.3817157" lon="105.2429347"><ele>332.56</ele><time>2026-02-10T19:11:39.000Z</time></trkpt>
        <trkpt lat="29.3816808" lon="105.2428349"><ele>331.55</ele><time>2026-02-10T19:11:45.000Z</time></trkpt>
        <trkpt lat="29.3816901" lon="105.2427132"><ele>330.84</ele><time>2026-02-10T19:11:53.000Z</time></trkpt>
        <trkpt lat="29.3817593" lon="105.2426313"><ele>330.82</ele><time>2026-02-10T19:12:01.000Z</time></trkpt>
        <trkpt lat="29.3818446" lon="105.2425663"><ele>331.62</ele><time>2026-02-10T19:12:09.000Z</time></trkpt>
        <trkpt lat="29.3819318" lon="105.2424985"><ele>332.71</ele><time>2026-02-10T19:12:17.000Z</time></trkpt>
        <trkpt lat="29.3819891" lon="105.2424019"><ele>333.68</ele><time>2026-02-10T19:12:25.000Z</time></trkpt>
        <trkpt lat="29.3820525" lon="105.2423223"><ele>334.11</ele><time>2026-02-10T19:12:31.000Z</time></trkpt>
        <trkpt lat="29.3821173" lon="105.2422409"><ele>334.25</ele><time>2026-02-10T19:12:39.000Z</time></trkpt>
        <trkpt lat="29.382192" lon="105.2421476"><ele>335.1</ele><time>2026-02-10T19:12:47.000Z</time></trkpt>
        <trkpt lat="29.3822744" lon="105.2420508"><ele>335.9</ele><time>2026-02-10T19:12:55.000Z</time></trkpt>
        <trkpt lat="29.382349" lon="105.2419733"><ele>336.45</ele><time>2026-02-10T19:13:01.000Z</time></trkpt>
        <trkpt lat="29.3824197" lon="105.2419057"><ele>336.63</ele><time>2026-02-10T19:13:07.000Z</time></trkpt>
        <trkpt lat="29.3824901" lon="105.2418263"><ele>337.19</ele><time>2026-02-10T19:13:15.000Z</time></trkpt>
        <trkpt lat="29.3825662" lon="105.2417526"><ele>337.71</ele><time>2026-02-10T19:13:21.000Z</time></trkpt>
        <trkpt lat="29.382656" lon="105.2416848"><ele>337.96</ele><time>2026-02-10T19:13:29.000Z</time></trkpt>
        <trkpt lat="29.382758" lon="105.2416276"><ele>338.11</ele><time>2026-02-10T19:13:37.000Z</time></trkpt>
        <trkpt lat="29.3828493" lon="105.2415681"><ele>338.96</ele><time>2026-02-10T19:13:43.000Z</time></trkpt>
        <trkpt lat="29.3829306" lon="105.2415149"><ele>339.84</ele><time>2026-02-10T19:13:51.000Z</time></trkpt>
        <trkpt lat="29.3830192" lon="105.2414603"><ele>339.91</ele><time>2026-02-10T19:13:59.000Z</time></trkpt>
        <trkpt lat="29.3831124" lon="105.2414079"><ele>339.59</ele><time>2026-02-10T19:14:07.000Z</time></trkpt>
        <trkpt lat="29.3832153" lon="105.2413633"><ele>339.24</ele><time>2026-02-10T19:14:15.000Z</time></trkpt>
        <trkpt lat="29.3833108" lon="105.2413335"><ele>339.06</ele><time>2026-02-10T19:14:19.000Z</time></trkpt>
        <trkpt lat="29.383416" lon="105.2413065"><ele>339.25</ele><time>2026-02-10T19:14:25.000Z</time></trkpt>
        <trkpt lat="29.3835188" lon="105.2412538"><ele>339.89</ele><time>2026-02-10T19:14:33.000Z</time></trkpt>
        <trkpt lat="29.383618" lon="105.2412029"><ele>339.27</ele><time>2026-02-10T19:14:41.000Z</time></trkpt>
        <trkpt lat="29.3837262" lon="105.241158"><ele>339.53</ele><time>2026-02-10T19:14:49.000Z</time></trkpt>
        <trkpt lat="29.3838276" lon="105.2411183"><ele>338.98</ele><time>2026-02-10T19:14:57.000Z</time></trkpt>
        <trkpt lat="29.3839312" lon="105.2410715"><ele>337.91</ele><time>2026-02-10T19:15:05.000Z</time></trkpt>
        <trkpt lat="29.3840206" lon="105.241031"><ele>336.32</ele><time>2026-02-10T19:15:17.000Z</time></trkpt>
        <trkpt lat="29.3841098" lon="105.2409868"><ele>335.19</ele><time>2026-02-10T19:15:27.000Z</time></trkpt>
        <trkpt lat="29.3841838" lon="105.2408965"><ele>334.75</ele><time>2026-02-10T19:15:35.000Z</time></trkpt>
        <trkpt lat="29.3842431" lon="105.2407983"><ele>333.99</ele><time>2026-02-10T19:15:43.000Z</time></trkpt>
        <trkpt lat="29.384311" lon="105.2407046"><ele>334</ele><time>2026-02-10T19:15:57.000Z</time></trkpt>
        <trkpt lat="29.384311" lon="105.2407046"><ele>334</ele><time>2026-02-10T19:16:21.000Z</time></trkpt>
        <trkpt lat="29.3843384" lon="105.2405847"><ele>333.93</ele><time>2026-02-10T19:16:24.000Z</time></trkpt>
        <trkpt lat="29.3843384" lon="105.2405847"><ele>333.93</ele><time>2026-02-10T19:16:33.000Z</time></trkpt>
        <trkpt lat="29.3843549" lon="105.2404568"><ele>334.64</ele><time>2026-02-10T19:16:41.000Z</time></trkpt>
        <trkpt lat="29.3843725" lon="105.2403429"><ele>335.15</ele><time>2026-02-10T19:16:49.000Z</time></trkpt>
        <trkpt lat="29.3843721" lon="105.240233"><ele>335.57</ele><time>2026-02-10T19:16:57.000Z</time></trkpt>
        <trkpt lat="29.3843682" lon="105.2401105"><ele>335.34</ele><time>2026-02-10T19:17:05.000Z</time></trkpt>
        <trkpt lat="29.3843651" lon="105.2399896"><ele>334.4</ele><time>2026-02-10T19:17:13.000Z</time></trkpt>
        <trkpt lat="29.3843634" lon="105.23987"><ele>333.29</ele><time>2026-02-10T19:17:19.000Z</time></trkpt>
        <trkpt lat="29.3843681" lon="105.2397524"><ele>332.22</ele><time>2026-02-10T19:17:53.000Z</time></trkpt>
        <trkpt lat="29.3843524" lon="105.2396374"><ele>331.88</ele><time>2026-02-10T19:18:01.000Z</time></trkpt>
        <trkpt lat="29.3843232" lon="105.2395234"><ele>331.52</ele><time>2026-02-10T19:18:13.000Z</time></trkpt>
        <trkpt lat="29.3843207" lon="105.2394021"><ele>330.98</ele><time>2026-02-10T19:18:25.000Z</time></trkpt>
        <trkpt lat="29.3843104" lon="105.239283"><ele>331.29</ele><time>2026-02-10T19:18:33.000Z</time></trkpt>
        <trkpt lat="29.3842967" lon="105.2391704"><ele>332.06</ele><time>2026-02-10T19:18:41.000Z</time></trkpt>
        <trkpt lat="29.3842919" lon="105.2390593"><ele>332.09</ele><time>2026-02-10T19:19:01.000Z</time></trkpt>
        <trkpt lat="29.3842786" lon="105.2389402"><ele>332.05</ele><time>2026-02-10T19:19:09.000Z</time></trkpt>
        <trkpt lat="29.3842722" lon="105.2388215"><ele>331.69</ele><time>2026-02-10T19:19:15.000Z</time></trkpt>
        <trkpt lat="29.384272" lon="105.2387076"><ele>331.61</ele><time>2026-02-10T19:19:21.000Z</time></trkpt>
        <trkpt lat="29.3842437" lon="105.2386017"><ele>331.57</ele><time>2026-02-10T19:19:41.000Z</time></trkpt>
        <trkpt lat="29.3842032" lon="105.2384909"><ele>330.77</ele><time>2026-02-10T19:19:49.000Z</time></trkpt>
        <trkpt lat="29.3841867" lon="105.2383798"><ele>329.65</ele><time>2026-02-10T19:19:55.000Z</time></trkpt>
        <trkpt lat="29.3841525" lon="105.2382729"><ele>328.38</ele><time>2026-02-10T19:20:01.000Z</time></trkpt>
        <trkpt lat="29.3841001" lon="105.2381689"><ele>327.49</ele><time>2026-02-10T19:20:07.000Z</time></trkpt>
        <trkpt lat="29.3840447" lon="105.238072"><ele>326.84</ele><time>2026-02-10T19:20:13.000Z</time></trkpt>
        <trkpt lat="29.3839899" lon="105.2379674"><ele>326.18</ele><time>2026-02-10T19:20:21.000Z</time></trkpt>
        <trkpt lat="29.3839317" lon="105.2378694"><ele>325.76</ele><time>2026-02-10T19:20:29.000Z</time></trkpt>
        <trkpt lat="29.3838665" lon="105.237793"><ele>325.1</ele><time>2026-02-10T19:20:37.000Z</time></trkpt>
        <trkpt lat="29.383782" lon="105.2377118"><ele>324.56</ele><time>2026-02-10T19:20:45.000Z</time></trkpt>
        <trkpt lat="29.3837014" lon="105.2376428"><ele>324.19</ele><time>2026-02-10T19:20:51.000Z</time></trkpt>
        <trkpt lat="29.3836302" lon="105.2375716"><ele>323.67</ele><time>2026-02-10T19:20:57.000Z</time></trkpt>
        <trkpt lat="29.3835485" lon="105.2374911"><ele>322.94</ele><time>2026-02-10T19:21:03.000Z</time></trkpt>
        <trkpt lat="29.3834631" lon="105.2374113"><ele>322.83</ele><time>2026-02-10T19:21:11.000Z</time></trkpt>
        <trkpt lat="29.3833806" lon="105.2373472"><ele>322.87</ele><time>2026-02-10T19:21:17.000Z</time></trkpt>
        <trkpt lat="29.3833068" lon="105.2372719"><ele>322.67</ele><time>2026-02-10T19:21:23.000Z</time></trkpt>
        <trkpt lat="29.3832377" lon="105.2372023"><ele>322.45</ele><time>2026-02-10T19:21:29.000Z</time></trkpt>
        <trkpt lat="29.3831527" lon="105.2371325"><ele>322.26</ele><time>2026-02-10T19:21:37.000Z</time></trkpt>
        <trkpt lat="29.3830851" lon="105.2370455"><ele>322.25</ele><time>2026-02-10T19:21:45.000Z</time></trkpt>
        <trkpt lat="29.3830276" lon="105.236957"><ele>322.14</ele><time>2026-02-10T19:21:51.000Z</time></trkpt>
        <trkpt lat="29.3829922" lon="105.2368598"><ele>321.59</ele><time>2026-02-10T19:21:57.000Z</time></trkpt>
        <trkpt lat="29.3829469" lon="105.2367394"><ele>320.95</ele><time>2026-02-10T19:22:05.000Z</time></trkpt>
        <trkpt lat="29.3829205" lon="105.2366185"><ele>320.46</ele><time>2026-02-10T19:22:13.000Z</time></trkpt>
        <trkpt lat="29.3829113" lon="105.236504"><ele>320.47</ele><time>2026-02-10T19:22:21.000Z</time></trkpt>
        <trkpt lat="29.3829297" lon="105.2363733"><ele>320.78</ele><time>2026-02-10T19:22:29.000Z</time></trkpt>
        <trkpt lat="29.3829533" lon="105.2362384"><ele>320.93</ele><time>2026-02-10T19:22:37.000Z</time></trkpt>
        <trkpt lat="29.3829881" lon="105.2361165"><ele>321.21</ele><time>2026-02-10T19:22:45.000Z</time></trkpt>
        <trkpt lat="29.3830435" lon="105.2360096"><ele>322.02</ele><time>2026-02-10T19:22:54.000Z</time></trkpt>
        <trkpt lat="29.3831258" lon="105.2359239"><ele>322.32</ele><time>2026-02-10T19:23:01.000Z</time></trkpt>
        <trkpt lat="29.3832121" lon="105.2358553"><ele>323.14</ele><time>2026-02-10T19:23:09.000Z</time></trkpt>
        <trkpt lat="29.3832875" lon="105.2357862"><ele>323.75</ele><time>2026-02-10T19:23:15.000Z</time></trkpt>
        <trkpt lat="29.3833711" lon="105.2357133"><ele>324.04</ele><time>2026-02-10T19:23:23.000Z</time></trkpt>
        <trkpt lat="29.3834638" lon="105.2356483"><ele>324.25</ele><time>2026-02-10T19:23:35.000Z</time></trkpt>
        <trkpt lat="29.3835553" lon="105.2355912"><ele>324.04</ele><time>2026-02-10T19:23:43.000Z</time></trkpt>
        <trkpt lat="29.3836456" lon="105.2355242"><ele>324.62</ele><time>2026-02-10T19:23:53.000Z</time></trkpt>
        <trkpt lat="29.3837263" lon="105.2354669"><ele>325.62</ele><time>2026-02-10T19:24:01.000Z</time></trkpt>
        <trkpt lat="29.3838106" lon="105.2353814"><ele>327.44</ele><time>2026-02-10T19:24:09.000Z</time></trkpt>
        <trkpt lat="29.3838929" lon="105.23528"><ele>328.9</ele><time>2026-02-10T19:24:17.000Z</time></trkpt>
        <trkpt lat="29.3839628" lon="105.2351765"><ele>329.69</ele><time>2026-02-10T19:24:23.000Z</time></trkpt>
        <trkpt lat="29.384007" lon="105.2350739"><ele>330.31</ele><time>2026-02-10T19:24:29.000Z</time></trkpt>
        <trkpt lat="29.3840438" lon="105.2349635"><ele>331.01</ele><time>2026-02-10T19:24:37.000Z</time></trkpt>
        <trkpt lat="29.384056" lon="105.2348566"><ele>331.46</ele><time>2026-02-10T19:24:45.000Z</time></trkpt>
        <trkpt lat="29.3840502" lon="105.2347325"><ele>332.09</ele><time>2026-02-10T19:24:53.000Z</time></trkpt>
        <trkpt lat="29.3840163" lon="105.2346196"><ele>333.11</ele><time>2026-02-10T19:24:59.000Z</time></trkpt>
        <trkpt lat="29.3839762" lon="105.2345176"><ele>333.58</ele><time>2026-02-10T19:25:05.000Z</time></trkpt>
        <trkpt lat="29.3839347" lon="105.2343996"><ele>333.12</ele><time>2026-02-10T19:25:13.000Z</time></trkpt>
        <trkpt lat="29.3838838" lon="105.2342844"><ele>332.31</ele><time>2026-02-10T19:25:21.000Z</time></trkpt>
        <trkpt lat="29.383842" lon="105.2341822"><ele>331.32</ele><time>2026-02-10T19:25:27.000Z</time></trkpt>
        <trkpt lat="29.3837991" lon="105.2340697"><ele>330.63</ele><time>2026-02-10T19:25:35.000Z</time></trkpt>
        <trkpt lat="29.3837569" lon="105.2339626"><ele>330.28</ele><time>2026-02-10T19:25:43.000Z</time></trkpt>
        <trkpt lat="29.3837165" lon="105.2338577"><ele>329.92</ele><time>2026-02-10T19:25:50.000Z</time></trkpt>
        <trkpt lat="29.3836794" lon="105.2337547"><ele>329.09</ele><time>2026-02-10T19:25:57.000Z</time></trkpt>
        <trkpt lat="29.3836523" lon="105.2336477"><ele>328.49</ele><time>2026-02-10T19:26:05.000Z</time></trkpt>
        <trkpt lat="29.3836145" lon="105.2335504"><ele>327.67</ele><time>2026-02-10T19:26:13.000Z</time></trkpt>
        <trkpt lat="29.3835566" lon="105.233462"><ele>327.27</ele><time>2026-02-10T19:26:21.000Z</time></trkpt>
        <trkpt lat="29.3835125" lon="105.2333558"><ele>327.3</ele><time>2026-02-10T19:26:29.000Z</time></trkpt>
        <trkpt lat="29.3834469" lon="105.2332577"><ele>327.26</ele><time>2026-02-10T19:26:37.000Z</time></trkpt>
        <trkpt lat="29.3834205" lon="105.2331472"><ele>327.65</ele><time>2026-02-10T19:26:47.000Z</time></trkpt>
        <trkpt lat="29.3833836" lon="105.2330381"><ele>327.49</ele><time>2026-02-10T19:26:55.000Z</time></trkpt>
        <trkpt lat="29.3833489" lon="105.2329278"><ele>327.61</ele><time>2026-02-10T19:27:03.000Z</time></trkpt>
        <trkpt lat="29.383304" lon="105.2328307"><ele>328.04</ele><time>2026-02-10T19:27:11.000Z</time></trkpt>
        <trkpt lat="29.3832684" lon="105.2327324"><ele>328.26</ele><time>2026-02-10T19:27:19.000Z</time></trkpt>
        <trkpt lat="29.3832254" lon="105.2326311"><ele>328.24</ele><time>2026-02-10T19:27:27.000Z</time></trkpt>
        <trkpt lat="29.3831801" lon="105.2325226"><ele>327.98</ele><time>2026-02-10T19:27:35.000Z</time></trkpt>
        <trkpt lat="29.3831592" lon="105.2324013"><ele>327.25</ele><time>2026-02-10T19:27:43.000Z</time></trkpt>
        <trkpt lat="29.3831476" lon="105.2322773"><ele>326.32</ele><time>2026-02-10T19:27:51.000Z</time></trkpt>
        <trkpt lat="29.3831587" lon="105.232157"><ele>325.63</ele><time>2026-02-10T19:27:59.000Z</time></trkpt>
        <trkpt lat="29.3831623" lon="105.2320424"><ele>324.97</ele><time>2026-02-10T19:28:07.000Z</time></trkpt>
        <trkpt lat="29.3831726" lon="105.2319293"><ele>324.52</ele><time>2026-02-10T19:28:15.000Z</time></trkpt>
        <trkpt lat="29.3831863" lon="105.2318136"><ele>325</ele><time>2026-02-10T19:28:23.000Z</time></trkpt>
        <trkpt lat="29.3831965" lon="105.2316995"><ele>325.94</ele><time>2026-02-10T19:28:31.000Z</time></trkpt>
        <trkpt lat="29.3832041" lon="105.2315933"><ele>326.93</ele><time>2026-02-10T19:28:39.000Z</time></trkpt>
        <trkpt lat="29.3832201" lon="105.2314794"><ele>327.48</ele><time>2026-02-10T19:28:47.000Z</time></trkpt>
        <trkpt lat="29.3832526" lon="105.2313628"><ele>327.97</ele><time>2026-02-10T19:28:55.000Z</time></trkpt>
        <trkpt lat="29.3832963" lon="105.2312404"><ele>329.03</ele><time>2026-02-10T19:29:03.000Z</time></trkpt>
        <trkpt lat="29.3833441" lon="105.231123"><ele>329.96</ele><time>2026-02-10T19:29:11.000Z</time></trkpt>
        <trkpt lat="29.383385" lon="105.2310041"><ele>330.35</ele><time>2026-02-10T19:29:19.000Z</time></trkpt>
        <trkpt lat="29.3834135" lon="105.2308903"><ele>330.96</ele><time>2026-02-10T19:29:27.000Z</time></trkpt>
        <trkpt lat="29.3834287" lon="105.2307859"><ele>331.3</ele><time>2026-02-10T19:29:35.000Z</time></trkpt>
        <trkpt lat="29.3834585" lon="105.2306704"><ele>332.41</ele><time>2026-02-10T19:29:43.000Z</time></trkpt>
        <trkpt lat="29.3834995" lon="105.2305601"><ele>332.85</ele><time>2026-02-10T19:29:51.000Z</time></trkpt>
        <trkpt lat="29.3835648" lon="105.2304432"><ele>332.69</ele><time>2026-02-10T19:30:13.000Z</time></trkpt>
        <trkpt lat="29.3836215" lon="105.2303353"><ele>332.8</ele><time>2026-02-10T19:30:21.000Z</time></trkpt>
        <trkpt lat="29.3836738" lon="105.2302218"><ele>333.06</ele><time>2026-02-10T19:30:31.000Z</time></trkpt>
        <trkpt lat="29.3837366" lon="105.2301178"><ele>333.33</ele><time>2026-02-10T19:30:39.000Z</time></trkpt>
        <trkpt lat="29.3838068" lon="105.230025"><ele>333.33</ele><time>2026-02-10T19:30:49.000Z</time></trkpt>
        <trkpt lat="29.3838757" lon="105.2299408"><ele>333.85</ele><time>2026-02-10T19:30:57.000Z</time></trkpt>
        <trkpt lat="29.3839493" lon="105.2298714"><ele>334.24</ele><time>2026-02-10T19:31:03.000Z</time></trkpt>
        <trkpt lat="29.3840122" lon="105.2297806"><ele>333.86</ele><time>2026-02-10T19:31:11.000Z</time></trkpt>
        <trkpt lat="29.3840719" lon="105.2296919"><ele>333.54</ele><time>2026-02-10T19:31:19.000Z</time></trkpt>
        <trkpt lat="29.3841444" lon="105.2296054"><ele>333.63</ele><time>2026-02-10T19:31:27.000Z</time></trkpt>
        <trkpt lat="29.3842222" lon="105.2295262"><ele>334.27</ele><time>2026-02-10T19:31:35.000Z</time></trkpt>
        <trkpt lat="29.3842983" lon="105.2294606"><ele>334.3</ele><time>2026-02-10T19:31:43.000Z</time></trkpt>
        <trkpt lat="29.3843691" lon="105.2293791"><ele>334.22</ele><time>2026-02-10T19:31:51.000Z</time></trkpt>
        <trkpt lat="29.3844356" lon="105.2293028"><ele>334.21</ele><time>2026-02-10T19:31:57.000Z</time></trkpt>
        <trkpt lat="29.3845129" lon="105.2292179"><ele>333.34</ele><time>2026-02-10T19:32:05.000Z</time></trkpt>
        <trkpt lat="29.3845821" lon="105.229126"><ele>332.23</ele><time>2026-02-10T19:32:13.000Z</time></trkpt>
        <trkpt lat="29.3846511" lon="105.2290484"><ele>331.73</ele><time>2026-02-10T19:32:19.000Z</time></trkpt>
        <trkpt lat="29.3847089" lon="105.2289624"><ele>331.43</ele><time>2026-02-10T19:32:27.000Z</time></trkpt>
        <trkpt lat="29.3847644" lon="105.2288764"><ele>331.66</ele><time>2026-02-10T19:32:35.000Z</time></trkpt>
        <trkpt lat="29.3848103" lon="105.2287674"><ele>332.01</ele><time>2026-02-10T19:32:45.000Z</time></trkpt>
        <trkpt lat="29.3848413" lon="105.2286557"><ele>331.97</ele><time>2026-02-10T19:32:53.000Z</time></trkpt>
        <trkpt lat="29.3848579" lon="105.2285439"><ele>331.93</ele><time>2026-02-10T19:33:01.000Z</time></trkpt>
        <trkpt lat="29.3848717" lon="105.228439"><ele>332.08</ele><time>2026-02-10T19:33:09.000Z</time></trkpt>
        <trkpt lat="29.384913" lon="105.2283355"><ele>332.27</ele><time>2026-02-10T19:33:17.000Z</time></trkpt>
        <trkpt lat="29.3849519" lon="105.2282355"><ele>331.99</ele><time>2026-02-10T19:33:23.000Z</time></trkpt>
        <trkpt lat="29.3849873" lon="105.2281126"><ele>332.1</ele><time>2026-02-10T19:33:31.000Z</time></trkpt>
        <trkpt lat="29.3850107" lon="105.2280039"><ele>332.19</ele><time>2026-02-10T19:33:37.000Z</time></trkpt>
        <trkpt lat="29.3850314" lon="105.2279007"><ele>332.3</ele><time>2026-02-10T19:33:43.000Z</time></trkpt>
        <trkpt lat="29.3850613" lon="105.2278006"><ele>332.43</ele><time>2026-02-10T19:33:51.000Z</time></trkpt>
        <trkpt lat="29.385092" lon="105.22769"><ele>332.85</ele><time>2026-02-10T19:33:59.000Z</time></trkpt>
        <trkpt lat="29.3851259" lon="105.2275776"><ele>333.04</ele><time>2026-02-10T19:34:07.000Z</time></trkpt>
        <trkpt lat="29.3851598" lon="105.227469"><ele>333.48</ele><time>2026-02-10T19:34:15.000Z</time></trkpt>
        <trkpt lat="29.3851728" lon="105.2273465"><ele>333.58</ele><time>2026-02-10T19:34:23.000Z</time></trkpt>
        <trkpt lat="29.3851789" lon="105.2272211"><ele>334.28</ele><time>2026-02-10T19:34:31.000Z</time></trkpt>
        <trkpt lat="29.3851648" lon="105.2271052"><ele>334.7</ele><time>2026-02-10T19:34:39.000Z</time></trkpt>
        <trkpt lat="29.3851427" lon="105.2269973"><ele>334.01</ele><time>2026-02-10T19:34:47.000Z</time></trkpt>
        <trkpt lat="29.3851076" lon="105.2268963"><ele>333.41</ele><time>2026-02-10T19:34:55.000Z</time></trkpt>
        <trkpt lat="29.3850497" lon="105.2267881"><ele>332.94</ele><time>2026-02-10T19:35:05.000Z</time></trkpt>
        <trkpt lat="29.3849788" lon="105.2266869"><ele>332.08</ele><time>2026-02-10T19:35:13.000Z</time></trkpt>
        <trkpt lat="29.3848948" lon="105.2266062"><ele>331.76</ele><time>2026-02-10T19:35:21.000Z</time></trkpt>
        <trkpt lat="29.384801" lon="105.2265448"><ele>331.68</ele><time>2026-02-10T19:35:31.000Z</time></trkpt>
        <trkpt lat="29.3847072" lon="105.2264916"><ele>331.67</ele><time>2026-02-10T19:35:39.000Z</time></trkpt>
        <trkpt lat="29.3846099" lon="105.2264281"><ele>330.19</ele><time>2026-02-10T19:35:53.000Z</time></trkpt>
        <trkpt lat="29.3845109" lon="105.2263619"><ele>330.85</ele><time>2026-02-10T19:36:01.000Z</time></trkpt>
        <trkpt lat="29.3844305" lon="105.2262682"><ele>331.75</ele><time>2026-02-10T19:36:09.000Z</time></trkpt>
        <trkpt lat="29.384376" lon="105.2261613"><ele>332.37</ele><time>2026-02-10T19:36:17.000Z</time></trkpt>
        <trkpt lat="29.3843387" lon="105.2260545"><ele>332.74</ele><time>2026-02-10T19:36:25.000Z</time></trkpt>
        <trkpt lat="29.3843395" lon="105.2259396"><ele>332.8</ele><time>2026-02-10T19:36:33.000Z</time></trkpt>
        <trkpt lat="29.3843487" lon="105.22581"><ele>332.84</ele><time>2026-02-10T19:36:41.000Z</time></trkpt>
        <trkpt lat="29.3843747" lon="105.225688"><ele>333.23</ele><time>2026-02-10T19:36:49.000Z</time></trkpt>
        <trkpt lat="29.3844012" lon="105.2255679"><ele>333.5</ele><time>2026-02-10T19:36:57.000Z</time></trkpt>
        <trkpt lat="29.3844298" lon="105.2254481"><ele>333.57</ele><time>2026-02-10T19:37:05.000Z</time></trkpt>
        <trkpt lat="29.3844503" lon="105.2253326"><ele>333.44</ele><time>2026-02-10T19:37:13.000Z</time></trkpt>
        <trkpt lat="29.3844759" lon="105.2252306"><ele>332.96</ele><time>2026-02-10T19:37:19.000Z</time></trkpt>
        <trkpt lat="29.3844854" lon="105.2251287"><ele>332.66</ele><time>2026-02-10T19:37:25.000Z</time></trkpt>
        <trkpt lat="29.3845032" lon="105.2250037"><ele>332.41</ele><time>2026-02-10T19:37:33.000Z</time></trkpt>
        <trkpt lat="29.3845228" lon="105.2248879"><ele>332.37</ele><time>2026-02-10T19:37:39.000Z</time></trkpt>
        <trkpt lat="29.3845478" lon="105.2247847"><ele>331.98</ele><time>2026-02-10T19:37:45.000Z</time></trkpt>
        <trkpt lat="29.3845801" lon="105.2246652"><ele>331.76</ele><time>2026-02-10T19:37:53.000Z</time></trkpt>
        <trkpt lat="29.3846063" lon="105.2245539"><ele>331.4</ele><time>2026-02-10T19:38:01.000Z</time></trkpt>
        <trkpt lat="29.3846358" lon="105.2244448"><ele>330.64</ele><time>2026-02-10T19:38:09.000Z</time></trkpt>
        <trkpt lat="29.3846735" lon="105.2243349"><ele>329.71</ele><time>2026-02-10T19:38:17.000Z</time></trkpt>
        <trkpt lat="29.3847229" lon="105.224236"><ele>329.18</ele><time>2026-02-10T19:38:23.000Z</time></trkpt>
        <trkpt lat="29.3847794" lon="105.2241484"><ele>328.46</ele><time>2026-02-10T19:38:29.000Z</time></trkpt>
        <trkpt lat="29.3848191" lon="105.2240462"><ele>327.84</ele><time>2026-02-10T19:38:37.000Z</time></trkpt>
        <trkpt lat="29.3848399" lon="105.223941"><ele>327.46</ele><time>2026-02-10T19:38:43.000Z</time></trkpt>
        <trkpt lat="29.3848479" lon="105.2238342"><ele>327.13</ele><time>2026-02-10T19:38:51.000Z</time></trkpt>
        <trkpt lat="29.3848481" lon="105.2237277"><ele>327.39</ele><time>2026-02-10T19:38:59.000Z</time></trkpt>
        <trkpt lat="29.3848471" lon="105.2236156"><ele>327.68</ele><time>2026-02-10T19:39:07.000Z</time></trkpt>
        <trkpt lat="29.3848519" lon="105.2234939"><ele>328.07</ele><time>2026-02-10T19:39:15.000Z</time></trkpt>
        <trkpt lat="29.3848667" lon="105.2233707"><ele>327.85</ele><time>2026-02-10T19:39:23.000Z</time></trkpt>
        <trkpt lat="29.3848722" lon="105.2232366"><ele>327.62</ele><time>2026-02-10T19:39:31.000Z</time></trkpt>
        <trkpt lat="29.3848799" lon="105.2231018"><ele>327.55</ele><time>2026-02-10T19:39:39.000Z</time></trkpt>
        <trkpt lat="29.3849046" lon="105.2229754"><ele>327.34</ele><time>2026-02-10T19:39:49.000Z</time></trkpt>
        <trkpt lat="29.384944" lon="105.2228572"><ele>327.28</ele><time>2026-02-10T19:39:57.000Z</time></trkpt>
        <trkpt lat="29.3850009" lon="105.222766"><ele>327.13</ele><time>2026-02-10T19:40:03.000Z</time></trkpt>
        <trkpt lat="29.3850696" lon="105.2226812"><ele>326.62</ele><time>2026-02-10T19:40:11.000Z</time></trkpt>
        <trkpt lat="29.3851339" lon="105.2225958"><ele>326.13</ele><time>2026-02-10T19:40:19.000Z</time></trkpt>
        <trkpt lat="29.3852076" lon="105.222505"><ele>325.73</ele><time>2026-02-10T19:40:29.000Z</time></trkpt>
        <trkpt lat="29.3852785" lon="105.2224185"><ele>325.96</ele><time>2026-02-10T19:40:35.000Z</time></trkpt>
        <trkpt lat="29.3853434" lon="105.2223298"><ele>325.97</ele><time>2026-02-10T19:40:43.000Z</time></trkpt>
        <trkpt lat="29.3854147" lon="105.2222485"><ele>325.61</ele><time>2026-02-10T19:40:51.000Z</time></trkpt>
        <trkpt lat="29.38549" lon="105.2221629"><ele>324.73</ele><time>2026-02-10T19:40:59.000Z</time></trkpt>
        <trkpt lat="29.3855571" lon="105.2220778"><ele>324.55</ele><time>2026-02-10T19:41:07.000Z</time></trkpt>
        <trkpt lat="29.3856204" lon="105.2219843"><ele>324.3</ele><time>2026-02-10T19:41:15.000Z</time></trkpt>
        <trkpt lat="29.3856649" lon="105.2219127"><ele>324.2</ele><time>2026-02-10T19:41:19.000Z</time></trkpt>
        <trkpt lat="29.3857126" lon="105.2218295"><ele>324.01</ele><time>2026-02-10T19:41:25.000Z</time></trkpt>
        <trkpt lat="29.3857584" lon="105.2217343"><ele>323.88</ele><time>2026-02-10T19:41:33.000Z</time></trkpt>
        <trkpt lat="29.385789" lon="105.2216281"><ele>324.12</ele><time>2026-02-10T19:41:41.000Z</time></trkpt>
        <trkpt lat="29.385826" lon="105.2215046"><ele>324.28</ele><time>2026-02-10T19:41:49.000Z</time></trkpt>
        <trkpt lat="29.3858678" lon="105.2214028"><ele>324.36</ele><time>2026-02-10T19:41:55.000Z</time></trkpt>
        <trkpt lat="29.385907" lon="105.221294"><ele>324.61</ele><time>2026-02-10T19:42:03.000Z</time></trkpt>
        <trkpt lat="29.3859486" lon="105.2211971"><ele>324.89</ele><time>2026-02-10T19:42:11.000Z</time></trkpt>
        <trkpt lat="29.3859791" lon="105.2210936"><ele>324.38</ele><time>2026-02-10T19:42:21.000Z</time></trkpt>
        <trkpt lat="29.3860315" lon="105.2209728"><ele>324.18</ele><time>2026-02-10T19:42:29.000Z</time></trkpt>
        <trkpt lat="29.386075" lon="105.2208576"><ele>324.19</ele><time>2026-02-10T19:42:37.000Z</time></trkpt>
        <trkpt lat="29.3861039" lon="105.2207463"><ele>324.44</ele><time>2026-02-10T19:42:45.000Z</time></trkpt>
        <trkpt lat="29.3861364" lon="105.220624"><ele>324.84</ele><time>2026-02-10T19:42:53.000Z</time></trkpt>
        <trkpt lat="29.3861621" lon="105.2205022"><ele>325.58</ele><time>2026-02-10T19:43:01.000Z</time></trkpt>
        <trkpt lat="29.3861787" lon="105.2203918"><ele>326.27</ele><time>2026-02-10T19:43:09.000Z</time></trkpt>
        <trkpt lat="29.3862157" lon="105.2202735"><ele>326.77</ele><time>2026-02-10T19:43:19.000Z</time></trkpt>
        <trkpt lat="29.3862545" lon="105.2201724"><ele>326.78</ele><time>2026-02-10T19:43:25.000Z</time></trkpt>
        <trkpt lat="29.3862972" lon="105.2200618"><ele>326.8</ele><time>2026-02-10T19:43:33.000Z</time></trkpt>
        <trkpt lat="29.3863323" lon="105.2199542"><ele>326.84</ele><time>2026-02-10T19:43:41.000Z</time></trkpt>
        <trkpt lat="29.3863646" lon="105.219853"><ele>327.36</ele><time>2026-02-10T19:43:47.000Z</time></trkpt>
        <trkpt lat="29.3863969" lon="105.2197552"><ele>327.83</ele><time>2026-02-10T19:43:53.000Z</time></trkpt>
        <trkpt lat="29.3864437" lon="105.2196562"><ele>327.91</ele><time>2026-02-10T19:44:01.000Z</time></trkpt>
        <trkpt lat="29.3865067" lon="105.2195537"><ele>327.8</ele><time>2026-02-10T19:44:09.000Z</time></trkpt>
        <trkpt lat="29.3865639" lon="105.2194466"><ele>327.08</ele><time>2026-02-10T19:44:17.000Z</time></trkpt>
        <trkpt lat="29.3866092" lon="105.2193493"><ele>326.47</ele><time>2026-02-10T19:44:23.000Z</time></trkpt>
        <trkpt lat="29.3866357" lon="105.2192447"><ele>326.34</ele><time>2026-02-10T19:44:31.000Z</time></trkpt>
        <trkpt lat="29.3866519" lon="105.2191415"><ele>326.22</ele><time>2026-02-10T19:44:39.000Z</time></trkpt>
        <trkpt lat="29.38669" lon="105.2190338"><ele>325.83</ele><time>2026-02-10T19:44:47.000Z</time></trkpt>
        <trkpt lat="29.3867354" lon="105.2189398"><ele>325.12</ele><time>2026-02-10T19:44:53.000Z</time></trkpt>
        <trkpt lat="29.386779" lon="105.2188467"><ele>324.21</ele><time>2026-02-10T19:44:59.000Z</time></trkpt>
        <trkpt lat="29.38681" lon="105.2187409"><ele>324.09</ele><time>2026-02-10T19:45:07.000Z</time></trkpt>
        <trkpt lat="29.3868579" lon="105.2186468"><ele>324.26</ele><time>2026-02-10T19:45:15.000Z</time></trkpt>
        <trkpt lat="29.3869131" lon="105.2185617"><ele>323.8</ele><time>2026-02-10T19:45:21.000Z</time></trkpt>
        <trkpt lat="29.3869668" lon="105.2184595"><ele>323.9</ele><time>2026-02-10T19:45:29.000Z</time></trkpt>
        <trkpt lat="29.3870182" lon="105.2183432"><ele>323.97</ele><time>2026-02-10T19:45:37.000Z</time></trkpt>
        <trkpt lat="29.387054" lon="105.2182247"><ele>324.15</ele><time>2026-02-10T19:45:45.000Z</time></trkpt>
        <trkpt lat="29.387087" lon="105.218121"><ele>325.54</ele><time>2026-02-10T19:45:51.000Z</time></trkpt>
        <trkpt lat="29.3871145" lon="105.2180123"><ele>326.78</ele><time>2026-02-10T19:45:59.000Z</time></trkpt>
        <trkpt lat="29.3871647" lon="105.2179122"><ele>327.9</ele><time>2026-02-10T19:46:07.000Z</time></trkpt>
        <trkpt lat="29.3872252" lon="105.2177983"><ele>328.84</ele><time>2026-02-10T19:46:15.000Z</time></trkpt>
        <trkpt lat="29.3872649" lon="105.2176901"><ele>329.51</ele><time>2026-02-10T19:46:23.000Z</time></trkpt>
        <trkpt lat="29.3872532" lon="105.217576"><ele>329.91</ele><time>2026-02-10T19:46:31.000Z</time></trkpt>
        <trkpt lat="29.3872398" lon="105.2174654"><ele>330.32</ele><time>2026-02-10T19:46:39.000Z</time></trkpt>
        <trkpt lat="29.3872109" lon="105.2173469"><ele>330.18</ele><time>2026-02-10T19:46:47.000Z</time></trkpt>
        <trkpt lat="29.3871775" lon="105.2172393"><ele>329.86</ele><time>2026-02-10T19:46:53.000Z</time></trkpt>
        <trkpt lat="29.3871627" lon="105.2171205"><ele>329.29</ele><time>2026-02-10T19:47:01.000Z</time></trkpt>
        <trkpt lat="29.3871482" lon="105.2169886"><ele>328.77</ele><time>2026-02-10T19:47:11.000Z</time></trkpt>
        <trkpt lat="29.3871346" lon="105.2168744"><ele>328.91</ele><time>2026-02-10T19:47:19.000Z</time></trkpt>
        <trkpt lat="29.3871115" lon="105.2167657"><ele>329.2</ele><time>2026-02-10T19:47:27.000Z</time></trkpt>
        <trkpt lat="29.3870724" lon="105.2166533"><ele>329.35</ele><time>2026-02-10T19:47:35.000Z</time></trkpt>
        <trkpt lat="29.3870597" lon="105.2165324"><ele>329.19</ele><time>2026-02-10T19:47:43.000Z</time></trkpt>
        <trkpt lat="29.3870379" lon="105.21641"><ele>328.87</ele><time>2026-02-10T19:47:51.000Z</time></trkpt>
        <trkpt lat="29.3870114" lon="105.2163009"><ele>328.69</ele><time>2026-02-10T19:47:59.000Z</time></trkpt>
        <trkpt lat="29.3869675" lon="105.2161912"><ele>329.05</ele><time>2026-02-10T19:48:07.000Z</time></trkpt>
        <trkpt lat="29.3869379" lon="105.2160619"><ele>329.62</ele><time>2026-02-10T19:48:15.000Z</time></trkpt>
        <trkpt lat="29.3869296" lon="105.2159405"><ele>330.22</ele><time>2026-02-10T19:48:21.000Z</time></trkpt>
        <trkpt lat="29.3869219" lon="105.2158309"><ele>330.66</ele><time>2026-02-10T19:48:29.000Z</time></trkpt>
        <trkpt lat="29.386905" lon="105.2157198"><ele>330.53</ele><time>2026-02-10T19:48:37.000Z</time></trkpt>
        <trkpt lat="29.386894" lon="105.2156076"><ele>330.72</ele><time>2026-02-10T19:48:45.000Z</time></trkpt>
        <trkpt lat="29.3869015" lon="105.2154927"><ele>330.93</ele><time>2026-02-10T19:48:53.000Z</time></trkpt>
        <trkpt lat="29.3869452" lon="105.2154003"><ele>330.88</ele><time>2026-02-10T19:49:01.000Z</time></trkpt>
        <trkpt lat="29.386956" lon="105.2152942"><ele>330.84</ele><time>2026-02-10T19:49:13.000Z</time></trkpt>
        <trkpt lat="29.3869503" lon="105.2151717"><ele>331.6</ele><time>2026-02-10T19:49:23.000Z</time></trkpt>
        <trkpt lat="29.3869312" lon="105.2150515"><ele>331.86</ele><time>2026-02-10T19:49:37.000Z</time></trkpt>
        <trkpt lat="29.386912" lon="105.2149409"><ele>333.77</ele><time>2026-02-10T19:49:47.000Z</time></trkpt>
        <trkpt lat="29.386912" lon="105.2149409"><ele>333.77</ele><time>2026-02-10T19:49:59.000Z</time></trkpt>
        <trkpt lat="29.386912" lon="105.2149409"><ele>333.77</ele><time>2026-02-10T19:50:10.000Z</time></trkpt>
        <trkpt lat="29.386912" lon="105.2149409"><ele>333.77</ele><time>2026-02-10T19:50:29.000Z</time></trkpt>
        <trkpt lat="29.386912" lon="105.2149409"><ele>333.77</ele><time>2026-02-10T19:50:32.000Z</time></trkpt>
        <trkpt lat="29.386912" lon="105.2149409"><ele>333.77</ele><time>2026-02-10T19:50:49.000Z</time></trkpt>
        <trkpt lat="29.386912" lon="105.2148234"><ele>335.83</ele><time>2026-02-10T19:50:52.000Z</time></trkpt>
        <trkpt lat="29.386912" lon="105.2148234"><ele>335.83</ele><time>2026-02-10T19:51:05.000Z</time></trkpt>
        <trkpt lat="29.3869667" lon="105.2147366"><ele>337.27</ele><time>2026-02-10T19:51:13.000Z</time></trkpt>
        <trkpt lat="29.3869768" lon="105.2146277"><ele>338.36</ele><time>2026-02-10T19:51:23.000Z</time></trkpt>
        <trkpt lat="29.386954" lon="105.2145217"><ele>337.83</ele><time>2026-02-10T19:51:33.000Z</time></trkpt>
        <trkpt lat="29.3869436" lon="105.2144163"><ele>337.31</ele><time>2026-02-10T19:51:41.000Z</time></trkpt>
        <trkpt lat="29.3869409" lon="105.2143108"><ele>336.13</ele><time>2026-02-10T19:51:47.000Z</time></trkpt>
        <trkpt lat="29.3869449" lon="105.2141956"><ele>335.65</ele><time>2026-02-10T19:51:57.000Z</time></trkpt>
        <trkpt lat="29.3869775" lon="105.2140715"><ele>335.98</ele><time>2026-02-10T19:52:11.000Z</time></trkpt>
        <trkpt lat="29.3869946" lon="105.2139589"><ele>337.57</ele><time>2026-02-10T19:54:45.000Z</time></trkpt>
        <trkpt lat="29.3870746" lon="105.2139093"><ele>341.9</ele><time>2026-02-10T19:55:45.000Z</time></trkpt>
        <trkpt lat="29.3871694" lon="105.2138658"><ele>345.02</ele><time>2026-02-10T19:55:53.000Z</time></trkpt>
        <trkpt lat="29.387213" lon="105.2137762"><ele>347.14</ele><time>2026-02-10T19:56:10.000Z</time></trkpt>
        <trkpt lat="29.387274" lon="105.2136921"><ele>348.04</ele><time>2026-02-10T19:56:17.000Z</time></trkpt>
        <trkpt lat="29.3873585" lon="105.2136072"><ele>349.02</ele><time>2026-02-10T19:56:25.000Z</time></trkpt>
        <trkpt lat="29.3874505" lon="105.21354"><ele>349.21</ele><time>2026-02-10T19:56:31.000Z</time></trkpt>
        <trkpt lat="29.3875493" lon="105.2135244"><ele>349.02</ele><time>2026-02-10T19:56:37.000Z</time></trkpt>
        <trkpt lat="29.3876537" lon="105.2134976"><ele>348.46</ele><time>2026-02-10T19:56:45.000Z</time></trkpt>
        <trkpt lat="29.3877648" lon="105.2134605"><ele>347.93</ele><time>2026-02-10T19:56:53.000Z</time></trkpt>
        <trkpt lat="29.3878797" lon="105.213436"><ele>347.69</ele><time>2026-02-10T19:57:01.000Z</time></trkpt>
        <trkpt lat="29.3879782" lon="105.213415"><ele>347.9</ele><time>2026-02-10T19:57:07.000Z</time></trkpt>
        <trkpt lat="29.388072" lon="105.2134109"><ele>348.03</ele><time>2026-02-10T19:57:13.000Z</time></trkpt>
        <trkpt lat="29.3881859" lon="105.213422"><ele>348.25</ele><time>2026-02-10T19:57:21.000Z</time></trkpt>
        <trkpt lat="29.3882949" lon="105.2134406"><ele>348.51</ele><time>2026-02-10T19:57:27.000Z</time></trkpt>
        <trkpt lat="29.3884064" lon="105.2134662"><ele>348.57</ele><time>2026-02-10T19:57:35.000Z</time></trkpt>
        <trkpt lat="29.3885103" lon="105.2134596"><ele>348.13</ele><time>2026-02-10T19:57:47.000Z</time></trkpt>
        <trkpt lat="29.3886106" lon="105.2134533"><ele>346.98</ele><time>2026-02-10T19:57:55.000Z</time></trkpt>
        <trkpt lat="29.38872" lon="105.2134459"><ele>346.36</ele><time>2026-02-10T19:58:03.000Z</time></trkpt>
        <trkpt lat="29.3888209" lon="105.2134619"><ele>345.56</ele><time>2026-02-10T19:58:09.000Z</time></trkpt>
        <trkpt lat="29.3889209" lon="105.2134906"><ele>344.83</ele><time>2026-02-10T19:58:15.000Z</time></trkpt>
        <trkpt lat="29.3890231" lon="105.2135255"><ele>343.54</ele><time>2026-02-10T19:58:23.000Z</time></trkpt>
        <trkpt lat="29.3891171" lon="105.2135664"><ele>343.31</ele><time>2026-02-10T19:58:29.000Z</time></trkpt>
        <trkpt lat="29.3892124" lon="105.213602"><ele>343.12</ele><time>2026-02-10T19:58:35.000Z</time></trkpt>
        <trkpt lat="29.3893134" lon="105.2136385"><ele>342.55</ele><time>2026-02-10T19:58:43.000Z</time></trkpt>
        <trkpt lat="29.3894069" lon="105.2136674"><ele>342.32</ele><time>2026-02-10T19:58:49.000Z</time></trkpt>
        <trkpt lat="29.3895154" lon="105.2136793"><ele>342.26</ele><time>2026-02-10T19:58:57.000Z</time></trkpt>
        <trkpt lat="29.3896336" lon="105.2136566"><ele>342.22</ele><time>2026-02-10T19:59:05.000Z</time></trkpt>
        <trkpt lat="29.3897474" lon="105.2136254"><ele>342.04</ele><time>2026-02-10T19:59:13.000Z</time></trkpt>
        <trkpt lat="29.3898445" lon="105.2135966"><ele>341.41</ele><time>2026-02-10T19:59:19.000Z</time></trkpt>
        <trkpt lat="29.3899386" lon="105.2135664"><ele>340.67</ele><time>2026-02-10T19:59:27.000Z</time></trkpt>
        <trkpt lat="29.3900417" lon="105.2135124"><ele>339.58</ele><time>2026-02-10T19:59:35.000Z</time></trkpt>
        <trkpt lat="29.3901291" lon="105.2134519"><ele>338.34</ele><time>2026-02-10T19:59:41.000Z</time></trkpt>
        <trkpt lat="29.3902207" lon="105.2133859"><ele>337.54</ele><time>2026-02-10T19:59:49.000Z</time></trkpt>
        <trkpt lat="29.3903116" lon="105.2133145"><ele>336.71</ele><time>2026-02-10T19:59:57.000Z</time></trkpt>
        <trkpt lat="29.3903899" lon="105.2132344"><ele>335.45</ele><time>2026-02-10T20:00:05.000Z</time></trkpt>
        <trkpt lat="29.390367" lon="105.2131432"><ele>334.35</ele><time>2026-02-10T20:00:37.000Z</time></trkpt>
        <trkpt lat="29.3903348" lon="105.2130248"><ele>334.08</ele><time>2026-02-10T20:00:47.000Z</time></trkpt>
        <trkpt lat="29.3903633" lon="105.2129095"><ele>333.31</ele><time>2026-02-10T20:02:19.000Z</time></trkpt>
        <trkpt lat="29.3904234" lon="105.2128246"><ele>338.13</ele><time>2026-02-10T20:02:29.000Z</time></trkpt>
        <trkpt lat="29.3905005" lon="105.212754"><ele>339.83</ele><time>2026-02-10T20:02:53.000Z</time></trkpt>
        <trkpt lat="29.3905692" lon="105.2126699"><ele>341</ele><time>2026-02-10T20:02:59.000Z</time></trkpt>
        <trkpt lat="29.3906479" lon="105.2125687"><ele>340.83</ele><time>2026-02-10T20:03:09.000Z</time></trkpt>
        <trkpt lat="29.3907211" lon="105.2124718"><ele>339.25</ele><time>2026-02-10T20:03:17.000Z</time></trkpt>
        <trkpt lat="29.3907211" lon="105.2124718"><ele>339.25</ele><time>2026-02-10T20:03:57.000Z</time></trkpt>
        <trkpt lat="29.3908089" lon="105.2124761"><ele>338.19</ele><time>2026-02-10T20:04:00.000Z</time></trkpt>
        <trkpt lat="29.3908089" lon="105.2124761"><ele>338.19</ele><time>2026-02-10T20:04:07.000Z</time></trkpt>
        <trkpt lat="29.390884" lon="105.2125411"><ele>335.71</ele><time>2026-02-10T20:04:27.000Z</time></trkpt>
        <trkpt lat="29.3909245" lon="105.2124863"><ele>333.54</ele><time>2026-02-10T20:04:41.000Z</time></trkpt>
        <trkpt lat="29.3909051" lon="105.2123789"><ele>331.6</ele><time>2026-02-10T20:04:51.000Z</time></trkpt>
        <trkpt lat="29.3908546" lon="105.2122315"><ele>330.26</ele><time>2026-02-10T20:04:57.000Z</time></trkpt>
        <trkpt lat="29.3908085" lon="105.2120981"><ele>329.5</ele><time>2026-02-10T20:05:01.000Z</time></trkpt>
        <trkpt lat="29.3908308" lon="105.2119635"><ele>329.38</ele><time>2026-02-10T20:05:07.000Z</time></trkpt>
        <trkpt lat="29.3908736" lon="105.2118261"><ele>331.41</ele><time>2026-02-10T20:05:13.000Z</time></trkpt>
        <trkpt lat="29.3909014" lon="105.2117016"><ele>332.56</ele><time>2026-02-10T20:05:19.000Z</time></trkpt>
        <trkpt lat="29.3909235" lon="105.211593"><ele>332.97</ele><time>2026-02-10T20:05:25.000Z</time></trkpt>
        <trkpt lat="29.390932" lon="105.2114712"><ele>332.93</ele><time>2026-02-10T20:05:33.000Z</time></trkpt>
        <trkpt lat="29.3909253" lon="105.2113605"><ele>332.73</ele><time>2026-02-10T20:05:39.000Z</time></trkpt>
        <trkpt lat="29.3909006" lon="105.2112484"><ele>332.41</ele><time>2026-02-10T20:05:47.000Z</time></trkpt>
        <trkpt lat="29.3908792" lon="105.2111384"><ele>331.62</ele><time>2026-02-10T20:05:55.000Z</time></trkpt>
        <trkpt lat="29.3908614" lon="105.2110263"><ele>330.33</ele><time>2026-02-10T20:06:03.000Z</time></trkpt>
        <trkpt lat="29.3908506" lon="105.2109037"><ele>329.63</ele><time>2026-02-10T20:06:11.000Z</time></trkpt>
        <trkpt lat="29.3908494" lon="105.2107896"><ele>328.89</ele><time>2026-02-10T20:06:19.000Z</time></trkpt>
        <trkpt lat="29.3908728" lon="105.2106831"><ele>328.39</ele><time>2026-02-10T20:06:25.000Z</time></trkpt>
        <trkpt lat="29.3909009" lon="105.2105769"><ele>327.93</ele><time>2026-02-10T20:06:33.000Z</time></trkpt>
        <trkpt lat="29.3909476" lon="105.2104805"><ele>328.43</ele><time>2026-02-10T20:06:41.000Z</time></trkpt>
        <trkpt lat="29.3910036" lon="105.2103861"><ele>328.96</ele><time>2026-02-10T20:06:49.000Z</time></trkpt>
        <trkpt lat="29.391075" lon="105.2102943"><ele>329.26</ele><time>2026-02-10T20:06:57.000Z</time></trkpt>
        <trkpt lat="29.3911485" lon="105.210193"><ele>329.19</ele><time>2026-02-10T20:07:05.000Z</time></trkpt>
        <trkpt lat="29.3912083" lon="105.2100729"><ele>329.5</ele><time>2026-02-10T20:07:13.000Z</time></trkpt>
        <trkpt lat="29.3912709" lon="105.2099614"><ele>329.81</ele><time>2026-02-10T20:07:21.000Z</time></trkpt>
        <trkpt lat="29.391333" lon="105.2098693"><ele>329.99</ele><time>2026-02-10T20:07:31.000Z</time></trkpt>
        <trkpt lat="29.3913885" lon="105.2097797"><ele>330.01</ele><time>2026-02-10T20:07:39.000Z</time></trkpt>
        <trkpt lat="29.3914236" lon="105.2096768"><ele>330.23</ele><time>2026-02-10T20:07:47.000Z</time></trkpt>
        <trkpt lat="29.3914619" lon="105.2095771"><ele>330.23</ele><time>2026-02-10T20:07:55.000Z</time></trkpt>
        <trkpt lat="29.3915071" lon="105.2094773"><ele>330.28</ele><time>2026-02-10T20:08:03.000Z</time></trkpt>
        <trkpt lat="29.3916003" lon="105.2094545"><ele>329.07</ele><time>2026-02-10T20:08:09.000Z</time></trkpt>
        <trkpt lat="29.3916747" lon="105.209398"><ele>327.27</ele><time>2026-02-10T20:08:17.000Z</time></trkpt>
        <trkpt lat="29.391722" lon="105.2093087"><ele>325.36</ele><time>2026-02-10T20:08:25.000Z</time></trkpt>
        <trkpt lat="29.3917353" lon="105.2092038"><ele>325.05</ele><time>2026-02-10T20:08:33.000Z</time></trkpt>
        <trkpt lat="29.3917425" lon="105.20908"><ele>325.54</ele><time>2026-02-10T20:08:39.000Z</time></trkpt>
        <trkpt lat="29.3917711" lon="105.2089568"><ele>327.61</ele><time>2026-02-10T20:08:47.000Z</time></trkpt>
        <trkpt lat="29.3918373" lon="105.2088406"><ele>329.45</ele><time>2026-02-10T20:08:53.000Z</time></trkpt>
        <trkpt lat="29.3918822" lon="105.2087618"><ele>329.06</ele><time>2026-02-10T20:08:57.000Z</time></trkpt>
        <trkpt lat="29.391923" lon="105.2086635"><ele>327.68</ele><time>2026-02-10T20:09:05.000Z</time></trkpt>
        <trkpt lat="29.3919667" lon="105.208556"><ele>326.2</ele><time>2026-02-10T20:09:15.000Z</time></trkpt>
        <trkpt lat="29.392005" lon="105.2084478"><ele>324.01</ele><time>2026-02-10T20:09:23.000Z</time></trkpt>
        <trkpt lat="29.3920495" lon="105.2083399"><ele>322.04</ele><time>2026-02-10T20:09:31.000Z</time></trkpt>
        <trkpt lat="29.3920875" lon="105.2082308"><ele>320.56</ele><time>2026-02-10T20:09:39.000Z</time></trkpt>
        <trkpt lat="29.3921217" lon="105.2081296"><ele>320.41</ele><time>2026-02-10T20:09:49.000Z</time></trkpt>
        <trkpt lat="29.3921632" lon="105.2080244"><ele>321.31</ele><time>2026-02-10T20:09:59.000Z</time></trkpt>
        <trkpt lat="29.3922108" lon="105.2079144"><ele>322.99</ele><time>2026-02-10T20:10:07.000Z</time></trkpt>
        <trkpt lat="29.3922726" lon="105.2078177"><ele>324.55</ele><time>2026-02-10T20:10:17.000Z</time></trkpt>
        <trkpt lat="29.3923465" lon="105.2077211"><ele>325.79</ele><time>2026-02-10T20:10:25.000Z</time></trkpt>
        <trkpt lat="29.3924125" lon="105.2076211"><ele>326.8</ele><time>2026-02-10T20:10:33.000Z</time></trkpt>
        <trkpt lat="29.3924788" lon="105.2075162"><ele>327.87</ele><time>2026-02-10T20:10:43.000Z</time></trkpt>
        <trkpt lat="29.3925534" lon="105.2074407"><ele>328.95</ele><time>2026-02-10T20:10:49.000Z</time></trkpt>
        <trkpt lat="29.3926368" lon="105.2073582"><ele>330.1</ele><time>2026-02-10T20:10:57.000Z</time></trkpt>
        <trkpt lat="29.3927189" lon="105.2072734"><ele>331.16</ele><time>2026-02-10T20:11:05.000Z</time></trkpt>
        <trkpt lat="29.3928055" lon="105.2071884"><ele>332.78</ele><time>2026-02-10T20:11:13.000Z</time></trkpt>
        <trkpt lat="29.3928911" lon="105.207099"><ele>334.08</ele><time>2026-02-10T20:11:23.000Z</time></trkpt>
        <trkpt lat="29.3929644" lon="105.2070112"><ele>335.62</ele><time>2026-02-10T20:11:31.000Z</time></trkpt>
        <trkpt lat="29.3930403" lon="105.2069227"><ele>336.86</ele><time>2026-02-10T20:11:39.000Z</time></trkpt>
        <trkpt lat="29.3931121" lon="105.2068489"><ele>337.61</ele><time>2026-02-10T20:11:45.000Z</time></trkpt>
        <trkpt lat="29.3931626" lon="105.2067554"><ele>338.28</ele><time>2026-02-10T20:11:53.000Z</time></trkpt>
        <trkpt lat="29.3932248" lon="105.2066469"><ele>338.21</ele><time>2026-02-10T20:12:01.000Z</time></trkpt>
        <trkpt lat="29.3932872" lon="105.2065431"><ele>338.51</ele><time>2026-02-10T20:12:09.000Z</time></trkpt>
        <trkpt lat="29.3933629" lon="105.2064567"><ele>338.96</ele><time>2026-02-10T20:12:17.000Z</time></trkpt>
        <trkpt lat="29.3934422" lon="105.206364"><ele>339.32</ele><time>2026-02-10T20:12:27.000Z</time></trkpt>
        <trkpt lat="29.3935174" lon="105.2062816"><ele>339.05</ele><time>2026-02-10T20:12:33.000Z</time></trkpt>
        <trkpt lat="29.3935893" lon="105.2062119"><ele>338.76</ele><time>2026-02-10T20:12:39.000Z</time></trkpt>
        <trkpt lat="29.3936536" lon="105.2061236"><ele>338.73</ele><time>2026-02-10T20:12:47.000Z</time></trkpt>
        <trkpt lat="29.3937255" lon="105.2060561"><ele>339.4</ele><time>2026-02-10T20:12:55.000Z</time></trkpt>
        <trkpt lat="29.3938064" lon="105.2060042"><ele>340.3</ele><time>2026-02-10T20:13:01.000Z</time></trkpt>
        <trkpt lat="29.393881" lon="105.2059183"><ele>340.89</ele><time>2026-02-10T20:13:07.000Z</time></trkpt>
        <trkpt lat="29.3939438" lon="105.2058215"><ele>340.76</ele><time>2026-02-10T20:13:13.000Z</time></trkpt>
        <trkpt lat="29.3940019" lon="105.2057446"><ele>341.11</ele><time>2026-02-10T20:13:19.000Z</time></trkpt>
        <trkpt lat="29.3940635" lon="105.2056474"><ele>341.64</ele><time>2026-02-10T20:13:29.000Z</time></trkpt>
        <trkpt lat="29.3941249" lon="105.2055548"><ele>341.82</ele><time>2026-02-10T20:13:39.000Z</time></trkpt>
        <trkpt lat="29.3941842" lon="105.2054509"><ele>341.41</ele><time>2026-02-10T20:13:47.000Z</time></trkpt>
        <trkpt lat="29.3942424" lon="105.2053444"><ele>340.8</ele><time>2026-02-10T20:13:55.000Z</time></trkpt>
        <trkpt lat="29.3943104" lon="105.2052511"><ele>340.66</ele><time>2026-02-10T20:14:03.000Z</time></trkpt>
        <trkpt lat="29.3943863" lon="105.2051499"><ele>339.61</ele><time>2026-02-10T20:14:13.000Z</time></trkpt>
        <trkpt lat="29.3944564" lon="105.205047"><ele>338.38</ele><time>2026-02-10T20:14:21.000Z</time></trkpt>
        <trkpt lat="29.3945324" lon="105.2049421"><ele>337.2</ele><time>2026-02-10T20:14:29.000Z</time></trkpt>
        <trkpt lat="29.3945925" lon="105.2048466"><ele>336.08</ele><time>2026-02-10T20:14:37.000Z</time></trkpt>
        <trkpt lat="29.3946553" lon="105.204759"><ele>335.46</ele><time>2026-02-10T20:14:45.000Z</time></trkpt>
        <trkpt lat="29.3947167" lon="105.2047227"><ele>335.23</ele><time>2026-02-10T20:15:09.000Z</time></trkpt>
        <trkpt lat="29.3947825" lon="105.2046557"><ele>335.5</ele><time>2026-02-10T20:15:31.000Z</time></trkpt>
        <trkpt lat="29.3948507" lon="105.2045797"><ele>335.38</ele><time>2026-02-10T20:15:41.000Z</time></trkpt>
        <trkpt lat="29.3948916" lon="105.2045643"><ele>334.89</ele><time>2026-02-10T20:15:45.000Z</time></trkpt>
        <trkpt lat="29.3948916" lon="105.2045643"><ele>334.89</ele><time>2026-02-10T20:16:13.000Z</time></trkpt>
        <trkpt lat="29.3948562" lon="105.2044649"><ele>334.05</ele><time>2026-02-10T20:16:14.000Z</time></trkpt>
        <trkpt lat="29.3948562" lon="105.2044649"><ele>334.05</ele><time>2026-02-10T20:17:33.000Z</time></trkpt>
        <trkpt lat="29.3949216" lon="105.2043282"><ele>334.46</ele><time>2026-02-10T20:17:37.000Z</time></trkpt>
        <trkpt lat="29.3949963" lon="105.2042321"><ele>334.48</ele><time>2026-02-10T20:17:53.000Z</time></trkpt>
        <trkpt lat="29.3951233" lon="105.2039269"><ele>333.32</ele><time>2026-02-10T20:17:59.000Z</time></trkpt>
        <trkpt lat="29.3952643" lon="105.203226"><ele>332.11</ele><time>2026-02-10T20:18:07.000Z</time></trkpt>
        <trkpt lat="29.3953235" lon="105.2028039"><ele>331.18</ele><time>2026-02-10T20:18:09.000Z</time></trkpt>
        <trkpt lat="29.3953511" lon="105.2025075"><ele>330.58</ele><time>2026-02-10T20:18:11.000Z</time></trkpt>
        <trkpt lat="29.3953763" lon="105.2022443"><ele>330.09</ele><time>2026-02-10T20:18:13.000Z</time></trkpt>
        <trkpt lat="29.3954017" lon="105.2019873"><ele>329.69</ele><time>2026-02-10T20:18:15.000Z</time></trkpt>
        <trkpt lat="29.3954514" lon="105.2017038"><ele>329.23</ele><time>2026-02-10T20:18:17.000Z</time></trkpt>
        <trkpt lat="29.3955052" lon="105.2014346"><ele>328.9</ele><time>2026-02-10T20:18:19.000Z</time></trkpt>
        <trkpt lat="29.3955704" lon="105.2011997"><ele>328.7</ele><time>2026-02-10T20:18:21.000Z</time></trkpt>
        <trkpt lat="29.3956664" lon="105.2009946"><ele>328.58</ele><time>2026-02-10T20:18:24.000Z</time></trkpt>
        <trkpt lat="29.3958115" lon="105.2008192"><ele>328.47</ele><time>2026-02-10T20:18:25.000Z</time></trkpt>
        <trkpt lat="29.3959726" lon="105.2006487"><ele>328.42</ele><time>2026-02-10T20:18:27.000Z</time></trkpt>
        <trkpt lat="29.396124" lon="105.2004664"><ele>328.4</ele><time>2026-02-10T20:18:29.000Z</time></trkpt>
        <trkpt lat="29.3962577" lon="105.2002639"><ele>328.37</ele><time>2026-02-10T20:18:31.000Z</time></trkpt>
        <trkpt lat="29.396339" lon="105.200039"><ele>328.19</ele><time>2026-02-10T20:18:33.000Z</time></trkpt>
        <trkpt lat="29.3963696" lon="105.1997862"><ele>327.98</ele><time>2026-02-10T20:18:35.000Z</time></trkpt>
        <trkpt lat="29.3963783" lon="105.1995186"><ele>327.86</ele><time>2026-02-10T20:18:37.000Z</time></trkpt>
        <trkpt lat="29.396393" lon="105.1992364"><ele>327.71</ele><time>2026-02-10T20:18:39.000Z</time></trkpt>
        <trkpt lat="29.3964186" lon="105.1989465"><ele>327.56</ele><time>2026-02-10T20:18:41.000Z</time></trkpt>
        <trkpt lat="29.3964555" lon="105.1986707"><ele>327.3</ele><time>2026-02-10T20:18:43.000Z</time></trkpt>
        <trkpt lat="29.3965195" lon="105.1984065"><ele>326.99</ele><time>2026-02-10T20:18:45.000Z</time></trkpt>
        <trkpt lat="29.3966219" lon="105.1981692"><ele>326.71</ele><time>2026-02-10T20:18:47.000Z</time></trkpt>
        <trkpt lat="29.3967676" lon="105.1979623"><ele>326.52</ele><time>2026-02-10T20:18:49.000Z</time></trkpt>
        <trkpt lat="29.3969439" lon="105.1977764"><ele>326.38</ele><time>2026-02-10T20:18:51.000Z</time></trkpt>
        <trkpt lat="29.3971175" lon="105.1975818"><ele>326.18</ele><time>2026-02-10T20:18:53.000Z</time></trkpt>
        <trkpt lat="29.3972825" lon="105.1973641"><ele>325.96</ele><time>2026-02-10T20:18:55.000Z</time></trkpt>
        <trkpt lat="29.3974494" lon="105.1971322"><ele>325.74</ele><time>2026-02-10T20:18:57.000Z</time></trkpt>
        <trkpt lat="29.3976203" lon="105.1968991"><ele>325.86</ele><time>2026-02-10T20:18:59.000Z</time></trkpt>
        <trkpt lat="29.3977954" lon="105.1966783"><ele>326.23</ele><time>2026-02-10T20:19:01.000Z</time></trkpt>
        <trkpt lat="29.3979769" lon="105.1964754"><ele>326.5</ele><time>2026-02-10T20:19:03.000Z</time></trkpt>
        <trkpt lat="29.3981683" lon="105.1962852"><ele>326.85</ele><time>2026-02-10T20:19:05.000Z</time></trkpt>
        <trkpt lat="29.3983721" lon="105.1961022"><ele>327.16</ele><time>2026-02-10T20:19:07.000Z</time></trkpt>
        <trkpt lat="29.3985845" lon="105.1959279"><ele>327.2</ele><time>2026-02-10T20:19:09.000Z</time></trkpt>
        <trkpt lat="29.3988036" lon="105.1957554"><ele>327.08</ele><time>2026-02-10T20:19:11.000Z</time></trkpt>
        <trkpt lat="29.39902" lon="105.1955935"><ele>326.94</ele><time>2026-02-10T20:19:13.000Z</time></trkpt>
        <trkpt lat="29.3992199" lon="105.1954381"><ele>327.06</ele><time>2026-02-10T20:19:15.000Z</time></trkpt>
        <trkpt lat="29.3993971" lon="105.1952944"><ele>327.44</ele><time>2026-02-10T20:19:17.000Z</time></trkpt>
        <trkpt lat="29.3995633" lon="105.195169"><ele>328.07</ele><time>2026-02-10T20:19:19.000Z</time></trkpt>
        <trkpt lat="29.3997269" lon="105.1950494"><ele>328.87</ele><time>2026-02-10T20:19:21.000Z</time></trkpt>
        <trkpt lat="29.3998963" lon="105.1949255"><ele>330.12</ele><time>2026-02-10T20:19:23.000Z</time></trkpt>
        <trkpt lat="29.4000737" lon="105.1947975"><ele>331.5</ele><time>2026-02-10T20:19:25.000Z</time></trkpt>
        <trkpt lat="29.4002638" lon="105.194658"><ele>332.5</ele><time>2026-02-10T20:19:27.000Z</time></trkpt>
        <trkpt lat="29.4004728" lon="105.1945038"><ele>333.14</ele><time>2026-02-10T20:19:29.000Z</time></trkpt>
        <trkpt lat="29.4007032" lon="105.1943508"><ele>333.63</ele><time>2026-02-10T20:19:31.000Z</time></trkpt>
        <trkpt lat="29.4009528" lon="105.1942109"><ele>334.38</ele><time>2026-02-10T20:19:33.000Z</time></trkpt>
        <trkpt lat="29.4012077" lon="105.1940619"><ele>335.48</ele><time>2026-02-10T20:19:35.000Z</time></trkpt>
        <trkpt lat="29.4014386" lon="105.1938747"><ele>336.77</ele><time>2026-02-10T20:19:37.000Z</time></trkpt>
        <trkpt lat="29.401609" lon="105.1936251"><ele>338.01</ele><time>2026-02-10T20:19:39.000Z</time></trkpt>
        <trkpt lat="29.4017155" lon="105.1933336"><ele>339.26</ele><time>2026-02-10T20:19:41.000Z</time></trkpt>
        <trkpt lat="29.4017712" lon="105.1930274"><ele>340.06</ele><time>2026-02-10T20:19:43.000Z</time></trkpt>
        <trkpt lat="29.4018183" lon="105.1927252"><ele>340.65</ele><time>2026-02-10T20:19:45.000Z</time></trkpt>
        <trkpt lat="29.4018796" lon="105.1924334"><ele>341.12</ele><time>2026-02-10T20:19:47.000Z</time></trkpt>
        <trkpt lat="29.401993" lon="105.1921479"><ele>341.49</ele><time>2026-02-10T20:19:49.000Z</time></trkpt>
        <trkpt lat="29.402147" lon="105.1918665"><ele>341.84</ele><time>2026-02-10T20:19:51.000Z</time></trkpt>
        <trkpt lat="29.402284" lon="105.1915915"><ele>342.27</ele><time>2026-02-10T20:19:53.000Z</time></trkpt>
        <trkpt lat="29.4023685" lon="105.1913205"><ele>342.59</ele><time>2026-02-10T20:19:55.000Z</time></trkpt>
        <trkpt lat="29.4024183" lon="105.1910704"><ele>343.07</ele><time>2026-02-10T20:19:57.000Z</time></trkpt>
        <trkpt lat="29.402471" lon="105.190841"><ele>343.72</ele><time>2026-02-10T20:19:59.000Z</time></trkpt>
        <trkpt lat="29.4025662" lon="105.1906751"><ele>344.46</ele><time>2026-02-10T20:20:01.000Z</time></trkpt>
        <trkpt lat="29.4027158" lon="105.19058"><ele>345.47</ele><time>2026-02-10T20:20:03.000Z</time></trkpt>
        <trkpt lat="29.4029055" lon="105.1905175"><ele>346.07</ele><time>2026-02-10T20:20:05.000Z</time></trkpt>
        <trkpt lat="29.4031027" lon="105.1904095"><ele>346.77</ele><time>2026-02-10T20:20:07.000Z</time></trkpt>
        <trkpt lat="29.4032678" lon="105.1902061"><ele>347.56</ele><time>2026-02-10T20:20:09.000Z</time></trkpt>
        <trkpt lat="29.4034107" lon="105.1899581"><ele>348.12</ele><time>2026-02-10T20:20:11.000Z</time></trkpt>
        <trkpt lat="29.4035644" lon="105.1896947"><ele>348.43</ele><time>2026-02-10T20:20:13.000Z</time></trkpt>
        <trkpt lat="29.4037581" lon="105.1894523"><ele>348.64</ele><time>2026-02-10T20:20:15.000Z</time></trkpt>
        <trkpt lat="29.4039671" lon="105.1892464"><ele>348.69</ele><time>2026-02-10T20:20:17.000Z</time></trkpt>
        <trkpt lat="29.4041731" lon="105.1890656"><ele>348.57</ele><time>2026-02-10T20:20:19.000Z</time></trkpt>
        <trkpt lat="29.4043719" lon="105.1888937"><ele>348.41</ele><time>2026-02-10T20:20:21.000Z</time></trkpt>
        <trkpt lat="29.4045495" lon="105.1887039"><ele>348.25</ele><time>2026-02-10T20:20:23.000Z</time></trkpt>
        <trkpt lat="29.4046771" lon="105.1884655"><ele>347.99</ele><time>2026-02-10T20:20:25.000Z</time></trkpt>
        <trkpt lat="29.4047585" lon="105.1881821"><ele>347.71</ele><time>2026-02-10T20:20:27.000Z</time></trkpt>
        <trkpt lat="29.4048228" lon="105.1878866"><ele>346.99</ele><time>2026-02-10T20:20:29.000Z</time></trkpt>
        <trkpt lat="29.4048919" lon="105.1876"><ele>345.99</ele><time>2026-02-10T20:20:31.000Z</time></trkpt>
        <trkpt lat="29.404989" lon="105.1873284"><ele>345.05</ele><time>2026-02-10T20:20:33.000Z</time></trkpt>
        <trkpt lat="29.4051443" lon="105.1870877"><ele>344.29</ele><time>2026-02-10T20:20:35.000Z</time></trkpt>
        <trkpt lat="29.4053519" lon="105.1868984"><ele>343.79</ele><time>2026-02-10T20:20:37.000Z</time></trkpt>
        <trkpt lat="29.40558" lon="105.1867177"><ele>343.52</ele><time>2026-02-10T20:20:39.000Z</time></trkpt>
        <trkpt lat="29.4057969" lon="105.1865026"><ele>343.24</ele><time>2026-02-10T20:20:41.000Z</time></trkpt>
        <trkpt lat="29.405993" lon="105.1862505"><ele>343.1</ele><time>2026-02-10T20:20:43.000Z</time></trkpt>
        <trkpt lat="29.4061734" lon="105.1859892"><ele>342.98</ele><time>2026-02-10T20:20:45.000Z</time></trkpt>
        <trkpt lat="29.4063445" lon="105.1857425"><ele>342.8</ele><time>2026-02-10T20:20:47.000Z</time></trkpt>
        <trkpt lat="29.4065168" lon="105.1855094"><ele>342.36</ele><time>2026-02-10T20:20:49.000Z</time></trkpt>
        <trkpt lat="29.4067122" lon="105.1852961"><ele>341.61</ele><time>2026-02-10T20:20:51.000Z</time></trkpt>
        <trkpt lat="29.4069417" lon="105.1850959"><ele>341</ele><time>2026-02-10T20:20:53.000Z</time></trkpt>
        <trkpt lat="29.4071859" lon="105.1849041"><ele>340.6</ele><time>2026-02-10T20:20:55.000Z</time></trkpt>
        <trkpt lat="29.4074246" lon="105.1847246"><ele>340.42</ele><time>2026-02-10T20:20:57.000Z</time></trkpt>
        <trkpt lat="29.407646" lon="105.1845567"><ele>340.49</ele><time>2026-02-10T20:20:59.000Z</time></trkpt>
        <trkpt lat="29.4078554" lon="105.1843885"><ele>340.76</ele><time>2026-02-10T20:21:01.000Z</time></trkpt>
        <trkpt lat="29.4080607" lon="105.1842221"><ele>341.03</ele><time>2026-02-10T20:21:03.000Z</time></trkpt>
        <trkpt lat="29.4082569" lon="105.1840568"><ele>341.26</ele><time>2026-02-10T20:21:05.000Z</time></trkpt>
        <trkpt lat="29.4084554" lon="105.1838826"><ele>341.35</ele><time>2026-02-10T20:21:07.000Z</time></trkpt>
        <trkpt lat="29.4086643" lon="105.1836856"><ele>341.28</ele><time>2026-02-10T20:21:09.000Z</time></trkpt>
        <trkpt lat="29.4088744" lon="105.1834722"><ele>341.07</ele><time>2026-02-10T20:21:11.000Z</time></trkpt>
        <trkpt lat="29.4090837" lon="105.1832514"><ele>340.77</ele><time>2026-02-10T20:21:13.000Z</time></trkpt>
        <trkpt lat="29.4092898" lon="105.1830296"><ele>340.34</ele><time>2026-02-10T20:21:15.000Z</time></trkpt>
        <trkpt lat="29.4094869" lon="105.1828088"><ele>339.73</ele><time>2026-02-10T20:21:17.000Z</time></trkpt>
        <trkpt lat="29.4096835" lon="105.182589"><ele>339.17</ele><time>2026-02-10T20:21:19.000Z</time></trkpt>
        <trkpt lat="29.4098911" lon="105.1823734"><ele>338.53</ele><time>2026-02-10T20:21:21.000Z</time></trkpt>
        <trkpt lat="29.4101093" lon="105.1821851"><ele>337.89</ele><time>2026-02-10T20:21:23.000Z</time></trkpt>
        <trkpt lat="29.4103429" lon="105.1820441"><ele>337.17</ele><time>2026-02-10T20:21:25.000Z</time></trkpt>
        <trkpt lat="29.410572" lon="105.1819185"><ele>336.42</ele><time>2026-02-10T20:21:27.000Z</time></trkpt>
        <trkpt lat="29.4107692" lon="105.1817506"><ele>335.85</ele><time>2026-02-10T20:21:29.000Z</time></trkpt>
        <trkpt lat="29.4109101" lon="105.1815108"><ele>335.62</ele><time>2026-02-10T20:21:31.000Z</time></trkpt>
        <trkpt lat="29.4110207" lon="105.1812275"><ele>335.35</ele><time>2026-02-10T20:21:33.000Z</time></trkpt>
        <trkpt lat="29.4111436" lon="105.1809488"><ele>334.9</ele><time>2026-02-10T20:21:35.000Z</time></trkpt>
        <trkpt lat="29.411303" lon="105.180689"><ele>334.53</ele><time>2026-02-10T20:21:37.000Z</time></trkpt>
        <trkpt lat="29.4114869" lon="105.1804712"><ele>334.4</ele><time>2026-02-10T20:21:39.000Z</time></trkpt>
        <trkpt lat="29.4116801" lon="105.18028"><ele>333.91</ele><time>2026-02-10T20:21:41.000Z</time></trkpt>
        <trkpt lat="29.4118682" lon="105.1800913"><ele>333.37</ele><time>2026-02-10T20:21:43.000Z</time></trkpt>
        <trkpt lat="29.4120569" lon="105.1798922"><ele>332.72</ele><time>2026-02-10T20:21:45.000Z</time></trkpt>
        <trkpt lat="29.4122532" lon="105.1796829"><ele>331.86</ele><time>2026-02-10T20:21:47.000Z</time></trkpt>
        <trkpt lat="29.4124554" lon="105.1794636"><ele>330.86</ele><time>2026-02-10T20:21:49.000Z</time></trkpt>
        <trkpt lat="29.412667" lon="105.1792355"><ele>329.99</ele><time>2026-02-10T20:21:51.000Z</time></trkpt>
        <trkpt lat="29.4128932" lon="105.1790134"><ele>329.36</ele><time>2026-02-10T20:21:53.000Z</time></trkpt>
        <trkpt lat="29.4131359" lon="105.1788274"><ele>328.8</ele><time>2026-02-10T20:21:55.000Z</time></trkpt>
        <trkpt lat="29.4133891" lon="105.1786829"><ele>328.21</ele><time>2026-02-10T20:21:57.000Z</time></trkpt>
        <trkpt lat="29.4136442" lon="105.178549"><ele>327.83</ele><time>2026-02-10T20:21:59.000Z</time></trkpt>
        <trkpt lat="29.4138915" lon="105.1784143"><ele>327.76</ele><time>2026-02-10T20:22:01.000Z</time></trkpt>
        <trkpt lat="29.414119" lon="105.1782596"><ele>327.88</ele><time>2026-02-10T20:22:03.000Z</time></trkpt>
        <trkpt lat="29.4143107" lon="105.1780651"><ele>328.15</ele><time>2026-02-10T20:22:05.000Z</time></trkpt>
        <trkpt lat="29.4144547" lon="105.1778066"><ele>328.2</ele><time>2026-02-10T20:22:07.000Z</time></trkpt>
        <trkpt lat="29.414563" lon="105.1775052"><ele>328.6</ele><time>2026-02-10T20:22:09.000Z</time></trkpt>
        <trkpt lat="29.4146574" lon="105.1771989"><ele>328.84</ele><time>2026-02-10T20:22:11.000Z</time></trkpt>
        <trkpt lat="29.4147702" lon="105.1769088"><ele>329.27</ele><time>2026-02-10T20:22:13.000Z</time></trkpt>
        <trkpt lat="29.414912" lon="105.1766523"><ele>329.99</ele><time>2026-02-10T20:22:15.000Z</time></trkpt>
        <trkpt lat="29.4150863" lon="105.176422"><ele>330.82</ele><time>2026-02-10T20:22:17.000Z</time></trkpt>
        <trkpt lat="29.4152422" lon="105.1762161"><ele>331.76</ele><time>2026-02-10T20:22:19.000Z</time></trkpt>
        <trkpt lat="29.4153128" lon="105.1760014"><ele>332.59</ele><time>2026-02-10T20:22:21.000Z</time></trkpt>
        <trkpt lat="29.4152593" lon="105.1757902"><ele>333.09</ele><time>2026-02-10T20:22:23.000Z</time></trkpt>
        <trkpt lat="29.415119" lon="105.1756133"><ele>333.84</ele><time>2026-02-10T20:22:25.000Z</time></trkpt>
        <trkpt lat="29.4149624" lon="105.1754525"><ele>334.77</ele><time>2026-02-10T20:22:27.000Z</time></trkpt>
        <trkpt lat="29.4148223" lon="105.1752943"><ele>335.86</ele><time>2026-02-10T20:22:29.000Z</time></trkpt>
        <trkpt lat="29.4147195" lon="105.1751183"><ele>336.34</ele><time>2026-02-10T20:22:31.000Z</time></trkpt>
        <trkpt lat="29.4147009" lon="105.1749175"><ele>336.92</ele><time>2026-02-10T20:22:33.000Z</time></trkpt>
        <trkpt lat="29.4147945" lon="105.1747018"><ele>337.48</ele><time>2026-02-10T20:22:35.000Z</time></trkpt>
        <trkpt lat="29.4149927" lon="105.1745048"><ele>338.05</ele><time>2026-02-10T20:22:37.000Z</time></trkpt>
        <trkpt lat="29.4152504" lon="105.1743363"><ele>338.48</ele><time>2026-02-10T20:22:39.000Z</time></trkpt>
        <trkpt lat="29.4155277" lon="105.174183"><ele>338.97</ele><time>2026-02-10T20:22:41.000Z</time></trkpt>
        <trkpt lat="29.4157743" lon="105.1740172"><ele>339.14</ele><time>2026-02-10T20:22:43.000Z</time></trkpt>
        <trkpt lat="29.4159669" lon="105.1737965"><ele>339.1</ele><time>2026-02-10T20:22:45.000Z</time></trkpt>
        <trkpt lat="29.4161016" lon="105.1735345"><ele>338.82</ele><time>2026-02-10T20:22:47.000Z</time></trkpt>
        <trkpt lat="29.4162237" lon="105.1732715"><ele>338.49</ele><time>2026-02-10T20:22:49.000Z</time></trkpt>
        <trkpt lat="29.4163474" lon="105.1730081"><ele>338.32</ele><time>2026-02-10T20:22:51.000Z</time></trkpt>
        <trkpt lat="29.4164719" lon="105.1727572"><ele>338.29</ele><time>2026-02-10T20:22:53.000Z</time></trkpt>
        <trkpt lat="29.4165921" lon="105.172525"><ele>338.11</ele><time>2026-02-10T20:22:55.000Z</time></trkpt>
        <trkpt lat="29.4167126" lon="105.1723061"><ele>337.95</ele><time>2026-02-10T20:22:57.000Z</time></trkpt>
        <trkpt lat="29.4168298" lon="105.172096"><ele>337.77</ele><time>2026-02-10T20:22:59.000Z</time></trkpt>
        <trkpt lat="29.4169478" lon="105.1718867"><ele>337.33</ele><time>2026-02-10T20:23:01.000Z</time></trkpt>
        <trkpt lat="29.4170714" lon="105.1716586"><ele>336.8</ele><time>2026-02-10T20:23:03.000Z</time></trkpt>
        <trkpt lat="29.4172039" lon="105.1714135"><ele>336</ele><time>2026-02-10T20:23:05.000Z</time></trkpt>
        <trkpt lat="29.4173367" lon="105.1711718"><ele>335.2</ele><time>2026-02-10T20:23:07.000Z</time></trkpt>
        <trkpt lat="29.4174654" lon="105.1709444"><ele>334.59</ele><time>2026-02-10T20:23:09.000Z</time></trkpt>
        <trkpt lat="29.4175756" lon="105.1707329"><ele>334.17</ele><time>2026-02-10T20:23:11.000Z</time></trkpt>
        <trkpt lat="29.4176684" lon="105.1705437"><ele>333.95</ele><time>2026-02-10T20:23:13.000Z</time></trkpt>
        <trkpt lat="29.4177396" lon="105.1703786"><ele>333.86</ele><time>2026-02-10T20:23:15.000Z</time></trkpt>
        <trkpt lat="29.4177895" lon="105.1702447"><ele>333.74</ele><time>2026-02-10T20:23:17.000Z</time></trkpt>
        <trkpt lat="29.4178389" lon="105.1701335"><ele>333.64</ele><time>2026-02-10T20:23:21.000Z</time></trkpt>
        <trkpt lat="29.4178981" lon="105.1700377"><ele>333.83</ele><time>2026-02-10T20:23:53.000Z</time></trkpt>
        <trkpt lat="29.4179501" lon="105.169929"><ele>333.97</ele><time>2026-02-10T20:23:55.000Z</time></trkpt>
        <trkpt lat="29.4180042" lon="105.1697808"><ele>334.06</ele><time>2026-02-10T20:23:57.000Z</time></trkpt>
        <trkpt lat="29.4180703" lon="105.169589"><ele>334.15</ele><time>2026-02-10T20:23:59.000Z</time></trkpt>
        <trkpt lat="29.4181479" lon="105.1693672"><ele>334.26</ele><time>2026-02-10T20:24:01.000Z</time></trkpt>
        <trkpt lat="29.4182286" lon="105.1691306"><ele>334.43</ele><time>2026-02-10T20:24:03.000Z</time></trkpt>
        <trkpt lat="29.4183166" lon="105.1688944"><ele>334.51</ele><time>2026-02-10T20:24:05.000Z</time></trkpt>
        <trkpt lat="29.4184079" lon="105.1686591"><ele>334.61</ele><time>2026-02-10T20:24:07.000Z</time></trkpt>
        <trkpt lat="29.4184959" lon="105.1684313"><ele>334.75</ele><time>2026-02-10T20:24:09.000Z</time></trkpt>
        <trkpt lat="29.4185747" lon="105.1682314"><ele>334.94</ele><time>2026-02-10T20:24:11.000Z</time></trkpt>
        <trkpt lat="29.4186403" lon="105.1680662"><ele>335.09</ele><time>2026-02-10T20:24:13.000Z</time></trkpt>
        <trkpt lat="29.4186875" lon="105.1679257"><ele>335.26</ele><time>2026-02-10T20:24:15.000Z</time></trkpt>
        <trkpt lat="29.4187319" lon="105.1677925"><ele>335.3</ele><time>2026-02-10T20:24:17.000Z</time></trkpt>
        <trkpt lat="29.4187889" lon="105.1676502"><ele>335.33</ele><time>2026-02-10T20:24:19.000Z</time></trkpt>
        <trkpt lat="29.4188551" lon="105.1674934"><ele>335.31</ele><time>2026-02-10T20:24:21.000Z</time></trkpt>
        <trkpt lat="29.4189126" lon="105.1673323"><ele>335.33</ele><time>2026-02-10T20:24:23.000Z</time></trkpt>
        <trkpt lat="29.4189638" lon="105.1671774"><ele>335.35</ele><time>2026-02-10T20:24:25.000Z</time></trkpt>
        <trkpt lat="29.419013" lon="105.167047"><ele>335.41</ele><time>2026-02-10T20:24:27.000Z</time></trkpt>
        <trkpt lat="29.4190585" lon="105.1668952"><ele>335.58</ele><time>2026-02-10T20:24:31.000Z</time></trkpt>
        <trkpt lat="29.4190323" lon="105.1667848"><ele>335.88</ele><time>2026-02-10T20:24:35.000Z</time></trkpt>
        <trkpt lat="29.4191022" lon="105.1667562"><ele>336.07</ele><time>2026-02-10T20:24:47.000Z</time></trkpt>
        <trkpt lat="29.4191882" lon="105.1667302"><ele>335.98</ele><time>2026-02-10T20:25:07.000Z</time></trkpt>
        <trkpt lat="29.4192421" lon="105.1666472"><ele>335.44</ele><time>2026-02-10T20:25:15.000Z</time></trkpt>
        <trkpt lat="29.4193031" lon="105.1665627"><ele>335.42</ele><time>2026-02-10T20:25:25.000Z</time></trkpt>
        <trkpt lat="29.4193291" lon="105.1664594"><ele>334.45</ele><time>2026-02-10T20:25:35.000Z</time></trkpt>
        <trkpt lat="29.4193679" lon="105.166362"><ele>333.02</ele><time>2026-02-10T20:25:43.000Z</time></trkpt>
        <trkpt lat="29.4194337" lon="105.1662854"><ele>332.13</ele><time>2026-02-10T20:25:51.000Z</time></trkpt>
        <trkpt lat="29.4195014" lon="105.1661999"><ele>331.49</ele><time>2026-02-10T20:26:01.000Z</time></trkpt>
        <trkpt lat="29.4195306" lon="105.166158"><ele>331.04</ele><time>2026-02-10T20:26:05.000Z</time></trkpt>
        <trkpt lat="29.4195548" lon="105.1660601"><ele>330.52</ele><time>2026-02-10T20:26:15.000Z</time></trkpt>
        <trkpt lat="29.4195875" lon="105.1659576"><ele>330.53</ele><time>2026-02-10T20:26:23.000Z</time></trkpt>
        <trkpt lat="29.4196125" lon="105.1658489"><ele>331.06</ele><time>2026-02-10T20:26:33.000Z</time></trkpt>
        <trkpt lat="29.4196254" lon="105.1657377"><ele>331.29</ele><time>2026-02-10T20:26:41.000Z</time></trkpt>
        <trkpt lat="29.4196734" lon="105.1656521"><ele>331.18</ele><time>2026-02-10T20:26:53.000Z</time></trkpt>
        <trkpt lat="29.4197485" lon="105.1655624"><ele>331.47</ele><time>2026-02-10T20:27:19.000Z</time></trkpt>
        <trkpt lat="29.4198271" lon="105.1654759"><ele>330.91</ele><time>2026-02-10T20:27:29.000Z</time></trkpt>
        <trkpt lat="29.4198831" lon="105.165384"><ele>330.64</ele><time>2026-02-10T20:27:47.000Z</time></trkpt>
        <trkpt lat="29.4199349" lon="105.165294"><ele>331.02</ele><time>2026-02-10T20:28:09.000Z</time></trkpt>
        <trkpt lat="29.4199796" lon="105.1651941"><ele>331.93</ele><time>2026-02-10T20:28:17.000Z</time></trkpt>
        <trkpt lat="29.4199843" lon="105.1650816"><ele>332.71</ele><time>2026-02-10T20:28:49.000Z</time></trkpt>
        <trkpt lat="29.4200179" lon="105.1649834"><ele>333.41</ele><time>2026-02-10T20:28:59.000Z</time></trkpt>
        <trkpt lat="29.4200179" lon="105.1649834"><ele>333.41</ele><time>2026-02-10T20:29:19.000Z</time></trkpt>
        <trkpt lat="29.4200733" lon="105.1648647"><ele>333.9</ele><time>2026-02-10T20:29:20.000Z</time></trkpt>
        <trkpt lat="29.4200733" lon="105.1648647"><ele>333.9</ele><time>2026-02-10T20:29:43.000Z</time></trkpt>
        <trkpt lat="29.420126" lon="105.1647464"><ele>334.4</ele><time>2026-02-10T20:29:51.000Z</time></trkpt>
        <trkpt lat="29.4201765" lon="105.1646311"><ele>335</ele><time>2026-02-10T20:30:01.000Z</time></trkpt>
        <trkpt lat="29.4202193" lon="105.1645224"><ele>335.38</ele><time>2026-02-10T20:30:11.000Z</time></trkpt>
        <trkpt lat="29.4202344" lon="105.164412"><ele>336.06</ele><time>2026-02-10T20:30:21.000Z</time></trkpt>
        <trkpt lat="29.4202613" lon="105.1642989"><ele>336.63</ele><time>2026-02-10T20:30:29.000Z</time></trkpt>
        <trkpt lat="29.4203231" lon="105.1641924"><ele>336.83</ele><time>2026-02-10T20:30:37.000Z</time></trkpt>
        <trkpt lat="29.4203957" lon="105.1640986"><ele>337.01</ele><time>2026-02-10T20:31:23.000Z</time></trkpt>
        <trkpt lat="29.4204599" lon="105.1640349"><ele>335.69</ele><time>2026-02-10T20:31:29.000Z</time></trkpt>
        <trkpt lat="29.4205425" lon="105.1639757"><ele>334.45</ele><time>2026-02-10T20:31:41.000Z</time></trkpt>
        <trkpt lat="29.4206321" lon="105.1639097"><ele>333.5</ele><time>2026-02-10T20:31:49.000Z</time></trkpt>
        <trkpt lat="29.4207264" lon="105.1638548"><ele>332.86</ele><time>2026-02-10T20:31:57.000Z</time></trkpt>
        <trkpt lat="29.4207947" lon="105.1637559"><ele>333.07</ele><time>2026-02-10T20:32:05.000Z</time></trkpt>
        <trkpt lat="29.4208946" lon="105.1636947"><ele>334.08</ele><time>2026-02-10T20:32:13.000Z</time></trkpt>
        <trkpt lat="29.4209893" lon="105.1636935"><ele>334.73</ele><time>2026-02-10T20:32:19.000Z</time></trkpt>
        <trkpt lat="29.421093" lon="105.1637275"><ele>335.04</ele><time>2026-02-10T20:32:27.000Z</time></trkpt>
        <trkpt lat="29.4211812" lon="105.1638126"><ele>334.83</ele><time>2026-02-10T20:32:35.000Z</time></trkpt>
        <trkpt lat="29.4212455" lon="105.1639141"><ele>333.86</ele><time>2026-02-10T20:32:43.000Z</time></trkpt>
        <trkpt lat="29.4212455" lon="105.1639141"><ele>333.86</ele><time>2026-02-10T20:33:03.000Z</time></trkpt>
        <trkpt lat="29.4212972" lon="105.1640165"><ele>332.87</ele><time>2026-02-10T20:33:08.000Z</time></trkpt>
        <trkpt lat="29.4212972" lon="105.1640165"><ele>332.87</ele><time>2026-02-10T20:33:47.000Z</time></trkpt>
        <trkpt lat="29.4212769" lon="105.1641364"><ele>332.52</ele><time>2026-02-10T20:34:03.000Z</time></trkpt>
        <trkpt lat="29.4212956" lon="105.1642536"><ele>332.22</ele><time>2026-02-10T20:34:13.000Z</time></trkpt>
        <trkpt lat="29.4213276" lon="105.1643661"><ele>331.64</ele><time>2026-02-10T20:34:27.000Z</time></trkpt>
        <trkpt lat="29.4213276" lon="105.1643661"><ele>331.64</ele><time>2026-02-10T20:34:45.000Z</time></trkpt>
        <trkpt lat="29.4212885" lon="105.1644482"><ele>332.1</ele><time>2026-02-10T20:34:48.000Z</time></trkpt>
        <trkpt lat="29.4212885" lon="105.1644482"><ele>332.1</ele><time>2026-02-10T20:34:49.000Z</time></trkpt>
        <trkpt lat="29.4212885" lon="105.1644482"><ele>332.1</ele><time>2026-02-10T20:34:57.000Z</time></trkpt>
        <trkpt lat="29.4213344" lon="105.1644977"><ele>332.9</ele><time>2026-02-10T20:35:00.000Z</time></trkpt>
        <trkpt lat="29.4213344" lon="105.1644977"><ele>332.9</ele><time>2026-02-10T20:35:19.000Z</time></trkpt>
        <trkpt lat="29.4213344" lon="105.1644977"><ele>332.9</ele><time>2026-02-10T20:35:29.000Z</time></trkpt>
        <trkpt lat="29.4213344" lon="105.1644977"><ele>332.9</ele><time>2026-02-10T20:35:34.000Z</time></trkpt>
        <trkpt lat="29.4213344" lon="105.1644977"><ele>332.9</ele><time>2026-02-10T20:35:45.000Z</time></trkpt>
        <trkpt lat="29.4212916" lon="105.1644694"><ele>333.13</ele><time>2026-02-10T20:35:48.000Z</time></trkpt>
        <trkpt lat="29.4212916" lon="105.1644694"><ele>333.13</ele><time>2026-02-10T20:36:07.000Z</time></trkpt>
        <trkpt lat="29.4212916" lon="105.1644694"><ele>333.13</ele><time>2026-02-10T20:36:23.000Z</time></trkpt>
        <trkpt lat="29.4212753" lon="105.1643693"><ele>333.41</ele><time>2026-02-10T20:36:28.000Z</time></trkpt>
        <trkpt lat="29.4212753" lon="105.1643693"><ele>333.41</ele><time>2026-02-10T20:36:51.000Z</time></trkpt>
        <trkpt lat="29.421271" lon="105.1642257"><ele>333.21</ele><time>2026-02-10T20:36:59.000Z</time></trkpt>
        <trkpt lat="29.421248" lon="105.1640812"><ele>332.85</ele><time>2026-02-10T20:37:07.000Z</time></trkpt>
        <trkpt lat="29.421216" lon="105.1639626"><ele>332.73</ele><time>2026-02-10T20:37:19.000Z</time></trkpt>
        <trkpt lat="29.4211539" lon="105.1638676"><ele>332.36</ele><time>2026-02-10T20:37:41.000Z</time></trkpt>
        <trkpt lat="29.4210714" lon="105.1637799"><ele>332.07</ele><time>2026-02-10T20:37:51.000Z</time></trkpt>
        <trkpt lat="29.4209839" lon="105.1637142"><ele>331.48</ele><time>2026-02-10T20:38:03.000Z</time></trkpt>
        <trkpt lat="29.420945" lon="105.1636127"><ele>330.52</ele><time>2026-02-10T20:38:13.000Z</time></trkpt>
        <trkpt lat="29.4208703" lon="105.1636285"><ele>329.8</ele><time>2026-02-10T20:38:33.000Z</time></trkpt>
        <trkpt lat="29.4207943" lon="105.1636996"><ele>334.16</ele><time>2026-02-10T20:38:41.000Z</time></trkpt>
        <trkpt lat="29.4207449" lon="105.1638002"><ele>338.33</ele><time>2026-02-10T20:39:05.000Z</time></trkpt>
        <trkpt lat="29.4207449" lon="105.1638002"><ele>338.33</ele><time>2026-02-10T20:39:15.000Z</time></trkpt>
        <trkpt lat="29.420662" lon="105.163882"><ele>340</ele><time>2026-02-10T20:39:20.000Z</time></trkpt>
        <trkpt lat="29.420662" lon="105.163882"><ele>340</ele><time>2026-02-10T20:39:27.000Z</time></trkpt>
        <trkpt lat="29.420598" lon="105.1639828"><ele>340.66</ele><time>2026-02-10T20:39:33.000Z</time></trkpt>
        <trkpt lat="29.4205134" lon="105.164009"><ele>340.93</ele><time>2026-02-10T20:39:41.000Z</time></trkpt>
        <trkpt lat="29.4204273" lon="105.1640473"><ele>341.27</ele><time>2026-02-10T20:39:47.000Z</time></trkpt>
        <trkpt lat="29.4203421" lon="105.1641158"><ele>340.99</ele><time>2026-02-10T20:39:55.000Z</time></trkpt>
        <trkpt lat="29.4203132" lon="105.1642136"><ele>340.76</ele><time>2026-02-10T20:40:09.000Z</time></trkpt>
        <trkpt lat="29.4202853" lon="105.1643296"><ele>340.48</ele><time>2026-02-10T20:40:39.000Z</time></trkpt>
        <trkpt lat="29.4202429" lon="105.1644438"><ele>341.91</ele><time>2026-02-10T20:40:45.000Z</time></trkpt>
        <trkpt lat="29.4202189" lon="105.1645531"><ele>341.47</ele><time>2026-02-10T20:40:51.000Z</time></trkpt>
        <trkpt lat="29.4201771" lon="105.1646553"><ele>340.94</ele><time>2026-02-10T20:41:01.000Z</time></trkpt>
        <trkpt lat="29.4201199" lon="105.1647447"><ele>340.93</ele><time>2026-02-10T20:41:05.000Z</time></trkpt>
        <trkpt lat="29.4200789" lon="105.1648465"><ele>341.38</ele><time>2026-02-10T20:41:11.000Z</time></trkpt>
        <trkpt lat="29.4200491" lon="105.1649578"><ele>342.19</ele><time>2026-02-10T20:41:23.000Z</time></trkpt>
        <trkpt lat="29.4200152" lon="105.1650622"><ele>342.36</ele><time>2026-02-10T20:41:31.000Z</time></trkpt>
        <trkpt lat="29.4199832" lon="105.1651659"><ele>342.12</ele><time>2026-02-10T20:41:41.000Z</time></trkpt>
        <trkpt lat="29.4199514" lon="105.1652757"><ele>342.11</ele><time>2026-02-10T20:41:47.000Z</time></trkpt>
        <trkpt lat="29.4199216" lon="105.1653784"><ele>342.59</ele><time>2026-02-10T20:41:53.000Z</time></trkpt>
        <trkpt lat="29.4198841" lon="105.1654917"><ele>342.7</ele><time>2026-02-10T20:42:01.000Z</time></trkpt>
        <trkpt lat="29.4198145" lon="105.1656053"><ele>342.4</ele><time>2026-02-10T20:42:09.000Z</time></trkpt>
        <trkpt lat="29.4197286" lon="105.165698"><ele>341.88</ele><time>2026-02-10T20:42:19.000Z</time></trkpt>
        <trkpt lat="29.4196394" lon="105.1657661"><ele>341.51</ele><time>2026-02-10T20:42:29.000Z</time></trkpt>
        <trkpt lat="29.4195486" lon="105.1657126"><ele>340.82</ele><time>2026-02-10T20:43:01.000Z</time></trkpt>
        <trkpt lat="29.419473" lon="105.1656084"><ele>337.81</ele><time>2026-02-10T20:43:09.000Z</time></trkpt>
        <trkpt lat="29.4194302" lon="105.1654902"><ele>336.13</ele><time>2026-02-10T20:43:17.000Z</time></trkpt>
        <trkpt lat="29.4193914" lon="105.1653835"><ele>335.24</ele><time>2026-02-10T20:43:25.000Z</time></trkpt>
        <trkpt lat="29.419336" lon="105.1652788"><ele>334.82</ele><time>2026-02-10T20:43:33.000Z</time></trkpt>
        <trkpt lat="29.4192776" lon="105.1651783"><ele>334.33</ele><time>2026-02-10T20:43:41.000Z</time></trkpt>
        <trkpt lat="29.4192185" lon="105.1650887"><ele>333.61</ele><time>2026-02-10T20:43:49.000Z</time></trkpt>
        <trkpt lat="29.4192175" lon="105.1649779"><ele>333.35</ele><time>2026-02-10T20:43:57.000Z</time></trkpt>
        <trkpt lat="29.4192484" lon="105.1648656"><ele>333.55</ele><time>2026-02-10T20:44:05.000Z</time></trkpt>
        <trkpt lat="29.4192594" lon="105.1647542"><ele>333.66</ele><time>2026-02-10T20:44:19.000Z</time></trkpt>
        <trkpt lat="29.4191945" lon="105.164687"><ele>333.51</ele><time>2026-02-10T20:44:29.000Z</time></trkpt>
        <trkpt lat="29.4191183" lon="105.1645935"><ele>333.08</ele><time>2026-02-10T20:44:37.000Z</time></trkpt>
        <trkpt lat="29.4190314" lon="105.1645354"><ele>332.79</ele><time>2026-02-10T20:44:43.000Z</time></trkpt>
        <trkpt lat="29.4189346" lon="105.1644811"><ele>333.08</ele><time>2026-02-10T20:44:51.000Z</time></trkpt>
        <trkpt lat="29.4188377" lon="105.1644192"><ele>333.98</ele><time>2026-02-10T20:44:59.000Z</time></trkpt>
        <trkpt lat="29.4187363" lon="105.164386"><ele>334.68</ele><time>2026-02-10T20:45:11.000Z</time></trkpt>
        <trkpt lat="29.4186397" lon="105.1643654"><ele>334.63</ele><time>2026-02-10T20:45:31.000Z</time></trkpt>
        <trkpt lat="29.4185818" lon="105.1642784"><ele>334.57</ele><time>2026-02-10T20:45:43.000Z</time></trkpt>
        <trkpt lat="29.4185461" lon="105.1641754"><ele>333.34</ele><time>2026-02-10T20:45:55.000Z</time></trkpt>
        <trkpt lat="29.4184925" lon="105.164083"><ele>332.48</ele><time>2026-02-10T20:46:03.000Z</time></trkpt>
        <trkpt lat="29.4184089" lon="105.1640196"><ele>331.88</ele><time>2026-02-10T20:46:11.000Z</time></trkpt>
        <trkpt lat="29.4183165" lon="105.1640146"><ele>331.89</ele><time>2026-02-10T20:46:19.000Z</time></trkpt>
        <trkpt lat="29.41823" lon="105.1640718"><ele>331.94</ele><time>2026-02-10T20:46:27.000Z</time></trkpt>
        <trkpt lat="29.4181599" lon="105.1641571"><ele>331.45</ele><time>2026-02-10T20:46:35.000Z</time></trkpt>
        <trkpt lat="29.4180713" lon="105.1642067"><ele>330.5</ele><time>2026-02-10T20:46:43.000Z</time></trkpt>
        <trkpt lat="29.4179791" lon="105.1642371"><ele>329.95</ele><time>2026-02-10T20:46:51.000Z</time></trkpt>
        <trkpt lat="29.4178804" lon="105.1642599"><ele>329.75</ele><time>2026-02-10T20:46:59.000Z</time></trkpt>
        <trkpt lat="29.4177764" lon="105.1642923"><ele>329.64</ele><time>2026-02-10T20:47:09.000Z</time></trkpt>
        <trkpt lat="29.4176809" lon="105.164319"><ele>329.71</ele><time>2026-02-10T20:47:17.000Z</time></trkpt>
        <trkpt lat="29.4175798" lon="105.1643504"><ele>329.72</ele><time>2026-02-10T20:47:25.000Z</time></trkpt>
        <trkpt lat="29.417478" lon="105.1643871"><ele>329.63</ele><time>2026-02-10T20:47:33.000Z</time></trkpt>
        <trkpt lat="29.4173718" lon="105.1644128"><ele>329.9</ele><time>2026-02-10T20:47:43.000Z</time></trkpt>
        <trkpt lat="29.4172593" lon="105.1644402"><ele>330.64</ele><time>2026-02-10T20:47:51.000Z</time></trkpt>
        <trkpt lat="29.4171724" lon="105.1643951"><ele>331.2</ele><time>2026-02-10T20:47:59.000Z</time></trkpt>
        <trkpt lat="29.4171174" lon="105.1642872"><ele>331.38</ele><time>2026-02-10T20:48:07.000Z</time></trkpt>
        <trkpt lat="29.4170678" lon="105.1641693"><ele>331.17</ele><time>2026-02-10T20:48:17.000Z</time></trkpt>
        <trkpt lat="29.4169815" lon="105.1640975"><ele>330.75</ele><time>2026-02-10T20:48:27.000Z</time></trkpt>
        <trkpt lat="29.4168895" lon="105.1640142"><ele>330.32</ele><time>2026-02-10T20:48:35.000Z</time></trkpt>
        <trkpt lat="29.4168188" lon="105.1639228"><ele>330.21</ele><time>2026-02-10T20:48:45.000Z</time></trkpt>
        <trkpt lat="29.4167948" lon="105.1638956"><ele>329.76</ele><time>2026-02-10T20:48:51.000Z</time></trkpt>
        <trkpt lat="29.4167535" lon="105.1638298"><ele>329.21</ele><time>2026-02-10T20:49:09.000Z</time></trkpt>
        <trkpt lat="29.416689" lon="105.1637469"><ele>329.16</ele><time>2026-02-10T20:49:19.000Z</time></trkpt>
        <trkpt lat="29.4166103" lon="105.1636685"><ele>329.03</ele><time>2026-02-10T20:49:33.000Z</time></trkpt>
        <trkpt lat="29.4165159" lon="105.1636686"><ele>328.75</ele><time>2026-02-10T20:49:41.000Z</time></trkpt>
        <trkpt lat="29.4164214" lon="105.1637041"><ele>329.18</ele><time>2026-02-10T20:49:49.000Z</time></trkpt>
        <trkpt lat="29.4163284" lon="105.1637415"><ele>329.9</ele><time>2026-02-10T20:49:59.000Z</time></trkpt>
        <trkpt lat="29.4162311" lon="105.1637559"><ele>330.56</ele><time>2026-02-10T20:50:09.000Z</time></trkpt>
        <trkpt lat="29.4161421" lon="105.1637344"><ele>330.46</ele><time>2026-02-10T20:50:15.000Z</time></trkpt>
        <trkpt lat="29.416055" lon="105.1636925"><ele>330.3</ele><time>2026-02-10T20:50:21.000Z</time></trkpt>
        <trkpt lat="29.4159572" lon="105.1636559"><ele>330.49</ele><time>2026-02-10T20:50:29.000Z</time></trkpt>
        <trkpt lat="29.4158622" lon="105.1636387"><ele>331.67</ele><time>2026-02-10T20:50:37.000Z</time></trkpt>
        <trkpt lat="29.4157574" lon="105.1636308"><ele>332.67</ele><time>2026-02-10T20:50:47.000Z</time></trkpt>
        <trkpt lat="29.4156586" lon="105.1635978"><ele>333.12</ele><time>2026-02-10T20:51:11.000Z</time></trkpt>
        <trkpt lat="29.4155645" lon="105.1635432"><ele>334.22</ele><time>2026-02-10T20:51:19.000Z</time></trkpt>
        <trkpt lat="29.4154865" lon="105.1634645"><ele>334.74</ele><time>2026-02-10T20:51:27.000Z</time></trkpt>
        <trkpt lat="29.4154066" lon="105.1633844"><ele>334.83</ele><time>2026-02-10T20:51:35.000Z</time></trkpt>
        <trkpt lat="29.4153303" lon="105.163302"><ele>335.37</ele><time>2026-02-10T20:51:43.000Z</time></trkpt>
        <trkpt lat="29.4152567" lon="105.1632287"><ele>335.99</ele><time>2026-02-10T20:51:51.000Z</time></trkpt>
        <trkpt lat="29.4151599" lon="105.1631861"><ele>336.25</ele><time>2026-02-10T20:52:01.000Z</time></trkpt>
        <trkpt lat="29.4150554" lon="105.1632024"><ele>336.32</ele><time>2026-02-10T20:52:09.000Z</time></trkpt>
        <trkpt lat="29.4149527" lon="105.1632291"><ele>336.78</ele><time>2026-02-10T20:52:17.000Z</time></trkpt>
        <trkpt lat="29.4148586" lon="105.1632195"><ele>337.39</ele><time>2026-02-10T20:52:25.000Z</time></trkpt>
        <trkpt lat="29.4147643" lon="105.1631823"><ele>337.81</ele><time>2026-02-10T20:52:35.000Z</time></trkpt>
        <trkpt lat="29.4146763" lon="105.1631304"><ele>338.29</ele><time>2026-02-10T20:52:43.000Z</time></trkpt>
        <trkpt lat="29.4145916" lon="105.1630708"><ele>339</ele><time>2026-02-10T20:52:51.000Z</time></trkpt>
        <trkpt lat="29.4145128" lon="105.1630064"><ele>339.57</ele><time>2026-02-10T20:52:59.000Z</time></trkpt>
        <trkpt lat="29.4145128" lon="105.1630064"><ele>339.57</ele><time>2026-02-10T20:53:09.000Z</time></trkpt>
        <trkpt lat="29.4145128" lon="105.1630064"><ele>339.57</ele><time>2026-02-10T20:53:24.000Z</time></trkpt>
        <trkpt lat="29.4145128" lon="105.1630064"><ele>339.57</ele><time>2026-02-10T20:53:35.000Z</time></trkpt>
        <trkpt lat="29.4145128" lon="105.1630064"><ele>339.57</ele><time>2026-02-10T20:54:02.000Z</time></trkpt>
        <trkpt lat="29.4145128" lon="105.1630064"><ele>339.57</ele><time>2026-02-10T20:54:19.000Z</time></trkpt>
        <trkpt lat="29.4144077" lon="105.1629521"><ele>340.12</ele><time>2026-02-10T20:54:30.000Z</time></trkpt>
        <trkpt lat="29.4144077" lon="105.1629521"><ele>340.12</ele><time>2026-02-10T20:54:47.000Z</time></trkpt>
        <trkpt lat="29.4143131" lon="105.1629337"><ele>340.16</ele><time>2026-02-10T20:54:53.000Z</time></trkpt>
        <trkpt lat="29.4142173" lon="105.1629531"><ele>340.63</ele><time>2026-02-10T20:55:01.000Z</time></trkpt>
        <trkpt lat="29.4141205" lon="105.163013"><ele>341.65</ele><time>2026-02-10T20:55:09.000Z</time></trkpt>
        <trkpt lat="29.4141205" lon="105.163013"><ele>341.65</ele><time>2026-02-10T20:55:41.000Z</time></trkpt>
        <trkpt lat="29.4140283" lon="105.1630303"><ele>341.94</ele><time>2026-02-10T20:55:44.000Z</time></trkpt>
        <trkpt lat="29.4140283" lon="105.1630303"><ele>341.94</ele><time>2026-02-10T20:55:47.000Z</time></trkpt>
        <trkpt lat="29.4139242" lon="105.1630078"><ele>342.02</ele><time>2026-02-10T20:55:55.000Z</time></trkpt>
        <trkpt lat="29.413822" lon="105.1629886"><ele>342.26</ele><time>2026-02-10T20:56:03.000Z</time></trkpt>
        <trkpt lat="29.4137163" lon="105.1629983"><ele>341.93</ele><time>2026-02-10T20:56:11.000Z</time></trkpt>
        <trkpt lat="29.4136238" lon="105.1630485"><ele>341.4</ele><time>2026-02-10T20:56:17.000Z</time></trkpt>
        <trkpt lat="29.4135335" lon="105.1630798"><ele>341.28</ele><time>2026-02-10T20:56:25.000Z</time></trkpt>
        <trkpt lat="29.4134506" lon="105.163046"><ele>340.55</ele><time>2026-02-10T20:56:33.000Z</time></trkpt>
        <trkpt lat="29.413379" lon="105.1629734"><ele>339.56</ele><time>2026-02-10T20:56:41.000Z</time></trkpt>
        <trkpt lat="29.4132885" lon="105.162924"><ele>338.16</ele><time>2026-02-10T20:56:53.000Z</time></trkpt>
        <trkpt lat="29.4131888" lon="105.1628977"><ele>337.13</ele><time>2026-02-10T20:57:01.000Z</time></trkpt>
        <trkpt lat="29.4130943" lon="105.1628839"><ele>336.57</ele><time>2026-02-10T20:57:07.000Z</time></trkpt>
        <trkpt lat="29.4129907" lon="105.1629003"><ele>336</ele><time>2026-02-10T20:57:15.000Z</time></trkpt>
        <trkpt lat="29.4128794" lon="105.1629268"><ele>335.65</ele><time>2026-02-10T20:57:23.000Z</time></trkpt>
        <trkpt lat="29.4127658" lon="105.16295"><ele>335.86</ele><time>2026-02-10T20:57:31.000Z</time></trkpt>
        <trkpt lat="29.4126666" lon="105.1629723"><ele>336.01</ele><time>2026-02-10T20:57:39.000Z</time></trkpt>
        <trkpt lat="29.4125738" lon="105.1629658"><ele>335.62</ele><time>2026-02-10T20:57:47.000Z</time></trkpt>
        <trkpt lat="29.4124799" lon="105.1629581"><ele>335.27</ele><time>2026-02-10T20:57:55.000Z</time></trkpt>
        <trkpt lat="29.4123859" lon="105.1629293"><ele>334.91</ele><time>2026-02-10T20:58:03.000Z</time></trkpt>
        <trkpt lat="29.412282" lon="105.1628903"><ele>334.69</ele><time>2026-02-10T20:58:11.000Z</time></trkpt>
        <trkpt lat="29.4121875" lon="105.1628467"><ele>334.76</ele><time>2026-02-10T20:58:20.000Z</time></trkpt>
        <trkpt lat="29.4120831" lon="105.1628414"><ele>335.71</ele><time>2026-02-10T20:58:29.000Z</time></trkpt>
        <trkpt lat="29.4119779" lon="105.1628705"><ele>336.8</ele><time>2026-02-10T20:58:39.000Z</time></trkpt>
        <trkpt lat="29.4118715" lon="105.1628886"><ele>336.85</ele><time>2026-02-10T20:58:49.000Z</time></trkpt>
        <trkpt lat="29.4117632" lon="105.1628966"><ele>336.53</ele><time>2026-02-10T20:58:59.000Z</time></trkpt>
        <trkpt lat="29.4116629" lon="105.1628602"><ele>335.96</ele><time>2026-02-10T20:59:09.000Z</time></trkpt>
        <trkpt lat="29.4115876" lon="105.1627938"><ele>335.68</ele><time>2026-02-10T20:59:17.000Z</time></trkpt>
        <trkpt lat="29.4115104" lon="105.1627066"><ele>335.59</ele><time>2026-02-10T20:59:27.000Z</time></trkpt>
        <trkpt lat="29.411415" lon="105.1626497"><ele>335.36</ele><time>2026-02-10T20:59:37.000Z</time></trkpt>
        <trkpt lat="29.4113216" lon="105.162628"><ele>335.2</ele><time>2026-02-10T20:59:45.000Z</time></trkpt>
        <trkpt lat="29.4112196" lon="105.1626655"><ele>334.85</ele><time>2026-02-10T20:59:55.000Z</time></trkpt>
        <trkpt lat="29.411113" lon="105.1627201"><ele>334.38</ele><time>2026-02-10T21:00:07.000Z</time></trkpt>
        <trkpt lat="29.4110032" lon="105.1627425"><ele>333.73</ele><time>2026-02-10T21:00:15.000Z</time></trkpt>
        <trkpt lat="29.4108948" lon="105.1627186"><ele>332.9</ele><time>2026-02-10T21:00:23.000Z</time></trkpt>
        <trkpt lat="29.4107962" lon="105.1626673"><ele>332</ele><time>2026-02-10T21:00:31.000Z</time></trkpt>
        <trkpt lat="29.4107054" lon="105.1626183"><ele>331.52</ele><time>2026-02-10T21:00:39.000Z</time></trkpt>
        <trkpt lat="29.410603" lon="105.162572"><ele>330.92</ele><time>2026-02-10T21:00:47.000Z</time></trkpt>
        <trkpt lat="29.410509" lon="105.1625385"><ele>331.06</ele><time>2026-02-10T21:00:55.000Z</time></trkpt>
        <trkpt lat="29.4104132" lon="105.1625639"><ele>330.91</ele><time>2026-02-10T21:01:05.000Z</time></trkpt>
        <trkpt lat="29.4103396" lon="105.1626323"><ele>331.24</ele><time>2026-02-10T21:01:13.000Z</time></trkpt>
        <trkpt lat="29.4102946" lon="105.1627389"><ele>331.27</ele><time>2026-02-10T21:01:21.000Z</time></trkpt>
        <trkpt lat="29.4102464" lon="105.1628383"><ele>330.44</ele><time>2026-02-10T21:01:29.000Z</time></trkpt>
        <trkpt lat="29.410183" lon="105.1629349"><ele>330.2</ele><time>2026-02-10T21:01:39.000Z</time></trkpt>
        <trkpt lat="29.4101143" lon="105.1630098"><ele>329.59</ele><time>2026-02-10T21:01:47.000Z</time></trkpt>
        <trkpt lat="29.4100297" lon="105.1630737"><ele>329.61</ele><time>2026-02-10T21:01:55.000Z</time></trkpt>
        <trkpt lat="29.4099373" lon="105.1631114"><ele>329.6</ele><time>2026-02-10T21:02:03.000Z</time></trkpt>
        <trkpt lat="29.4098364" lon="105.1631225"><ele>329.81</ele><time>2026-02-10T21:02:11.000Z</time></trkpt>
        <trkpt lat="29.4097386" lon="105.1631052"><ele>330.25</ele><time>2026-02-10T21:02:19.000Z</time></trkpt>
        <trkpt lat="29.4096475" lon="105.1630513"><ele>330.28</ele><time>2026-02-10T21:02:27.000Z</time></trkpt>
        <trkpt lat="29.4095664" lon="105.1629847"><ele>330.1</ele><time>2026-02-10T21:02:35.000Z</time></trkpt>
        <trkpt lat="29.4094701" lon="105.162957"><ele>329.4</ele><time>2026-02-10T21:02:43.000Z</time></trkpt>
        <trkpt lat="29.4093577" lon="105.1629483"><ele>328.13</ele><time>2026-02-10T21:02:51.000Z</time></trkpt>
        <trkpt lat="29.4092473" lon="105.1629603"><ele>328.31</ele><time>2026-02-10T21:02:59.000Z</time></trkpt>
        <trkpt lat="29.4091485" lon="105.1629423"><ele>328.52</ele><time>2026-02-10T21:03:09.000Z</time></trkpt>
        <trkpt lat="29.4090981" lon="105.1628624"><ele>328.92</ele><time>2026-02-10T21:03:25.000Z</time></trkpt>
        <trkpt lat="29.4090349" lon="105.1627832"><ele>329.22</ele><time>2026-02-10T21:03:55.000Z</time></trkpt>
        <trkpt lat="29.4089406" lon="105.1627561"><ele>328.92</ele><time>2026-02-10T21:04:03.000Z</time></trkpt>
        <trkpt lat="29.4088757" lon="105.1626876"><ele>328.87</ele><time>2026-02-10T21:04:17.000Z</time></trkpt>
        <trkpt lat="29.4088568" lon="105.1626631"><ele>329.27</ele><time>2026-02-10T21:04:21.000Z</time></trkpt>
        <trkpt lat="29.4088568" lon="105.1626631"><ele>329.27</ele><time>2026-02-10T21:05:05.000Z</time></trkpt>
        <trkpt lat="29.4088568" lon="105.1626631"><ele>329.27</ele><time>2026-02-10T21:05:12.000Z</time></trkpt>
        <trkpt lat="29.4088568" lon="105.1626631"><ele>329.27</ele><time>2026-02-10T21:05:23.000Z</time></trkpt>
        <trkpt lat="29.4088392" lon="105.1625667"><ele>329.67</ele><time>2026-02-10T21:05:34.000Z</time></trkpt>
        <trkpt lat="29.4088392" lon="105.1625667"><ele>329.67</ele><time>2026-02-10T21:05:43.000Z</time></trkpt>
        <trkpt lat="29.4089023" lon="105.1626421"><ele>331.67</ele><time>2026-02-10T21:06:45.000Z</time></trkpt>
        <trkpt lat="29.4088359" lon="105.1627687"><ele>333.48</ele><time>2026-02-10T21:07:43.000Z</time></trkpt>
        <trkpt lat="29.4088988" lon="105.1627509"><ele>337.14</ele><time>2026-02-10T21:08:01.000Z</time></trkpt>
        <trkpt lat="29.408962" lon="105.1626482"><ele>338.46</ele><time>2026-02-10T21:08:19.000Z</time></trkpt>
        <trkpt lat="29.4090326" lon="105.1625529"><ele>338.44</ele><time>2026-02-10T21:08:29.000Z</time></trkpt>
        <trkpt lat="29.4091094" lon="105.1624715"><ele>337.6</ele><time>2026-02-10T21:08:43.000Z</time></trkpt>
        <trkpt lat="29.4091705" lon="105.1623711"><ele>335.26</ele><time>2026-02-10T21:08:53.000Z</time></trkpt>
        <trkpt lat="29.4092401" lon="105.1622827"><ele>332.92</ele><time>2026-02-10T21:09:05.000Z</time></trkpt>
        <trkpt lat="29.4093177" lon="105.1622163"><ele>331.79</ele><time>2026-02-10T21:09:17.000Z</time></trkpt>
        <trkpt lat="29.4094023" lon="105.1621694"><ele>331.01</ele><time>2026-02-10T21:09:31.000Z</time></trkpt>
        <trkpt lat="29.4093691" lon="105.1621034"><ele>330.04</ele><time>2026-02-10T21:09:41.000Z</time></trkpt>
        <trkpt lat="29.4092895" lon="105.1620382"><ele>329.56</ele><time>2026-02-10T21:09:49.000Z</time></trkpt>
        <trkpt lat="29.4092014" lon="105.1619492"><ele>329.74</ele><time>2026-02-10T21:10:05.000Z</time></trkpt>
        <trkpt lat="29.4091316" lon="105.1618595"><ele>330.43</ele><time>2026-02-10T21:10:13.000Z</time></trkpt>
        <trkpt lat="29.4090947" lon="105.1617508"><ele>330.76</ele><time>2026-02-10T21:10:23.000Z</time></trkpt>
        <trkpt lat="29.4090729" lon="105.161627"><ele>330.42</ele><time>2026-02-10T21:10:31.000Z</time></trkpt>
        <trkpt lat="29.4090638" lon="105.1615008"><ele>330.47</ele><time>2026-02-10T21:10:39.000Z</time></trkpt>
        <trkpt lat="29.4090394" lon="105.1613932"><ele>330.55</ele><time>2026-02-10T21:10:47.000Z</time></trkpt>
        <trkpt lat="29.4090185" lon="105.161279"><ele>330.27</ele><time>2026-02-10T21:10:57.000Z</time></trkpt>
        <trkpt lat="29.4089746" lon="105.1611849"><ele>330.06</ele><time>2026-02-10T21:11:07.000Z</time></trkpt>
        <trkpt lat="29.4089051" lon="105.1611151"><ele>329.72</ele><time>2026-02-10T21:11:15.000Z</time></trkpt>
        <trkpt lat="29.4088396" lon="105.1610413"><ele>329.01</ele><time>2026-02-10T21:11:21.000Z</time></trkpt>
        <trkpt lat="29.4087994" lon="105.1609508"><ele>328.1</ele><time>2026-02-10T21:11:27.000Z</time></trkpt>
        <trkpt lat="29.4087608" lon="105.1608388"><ele>327.27</ele><time>2026-02-10T21:11:35.000Z</time></trkpt>
        <trkpt lat="29.4088085" lon="105.1607597"><ele>326.27</ele><time>2026-02-10T21:11:47.000Z</time></trkpt>
        <trkpt lat="29.4088442" lon="105.1606586"><ele>326.06</ele><time>2026-02-10T21:11:55.000Z</time></trkpt>
        <trkpt lat="29.4088668" lon="105.1605505"><ele>325.62</ele><time>2026-02-10T21:12:03.000Z</time></trkpt>
        <trkpt lat="29.4089023" lon="105.1604421"><ele>325.49</ele><time>2026-02-10T21:12:11.000Z</time></trkpt>
        <trkpt lat="29.4089349" lon="105.1603281"><ele>325.15</ele><time>2026-02-10T21:12:19.000Z</time></trkpt>
        <trkpt lat="29.4089326" lon="105.1602021"><ele>324.98</ele><time>2026-02-10T21:12:29.000Z</time></trkpt>
        <trkpt lat="29.4089441" lon="105.1600801"><ele>324.92</ele><time>2026-02-10T21:12:37.000Z</time></trkpt>
        <trkpt lat="29.4090045" lon="105.1599889"><ele>324.75</ele><time>2026-02-10T21:12:51.000Z</time></trkpt>
        <trkpt lat="29.4091016" lon="105.159973"><ele>324.78</ele><time>2026-02-10T21:13:05.000Z</time></trkpt>
        <trkpt lat="29.4090834" lon="105.1599198"><ele>324.9</ele><time>2026-02-10T21:13:19.000Z</time></trkpt>
        <trkpt lat="29.4091076" lon="105.1598319"><ele>324.78</ele><time>2026-02-10T21:13:27.000Z</time></trkpt>
        <trkpt lat="29.4091821" lon="105.159788"><ele>324.63</ele><time>2026-02-10T21:13:35.000Z</time></trkpt>
        <trkpt lat="29.409276" lon="105.1597846"><ele>324.72</ele><time>2026-02-10T21:13:43.000Z</time></trkpt>
        <trkpt lat="29.4093806" lon="105.1597712"><ele>324.59</ele><time>2026-02-10T21:13:51.000Z</time></trkpt>
        <trkpt lat="29.4094838" lon="105.1597859"><ele>324.71</ele><time>2026-02-10T21:14:01.000Z</time></trkpt>
        <trkpt lat="29.4094838" lon="105.1597859"><ele>324.71</ele><time>2026-02-10T21:14:23.000Z</time></trkpt>
        <trkpt lat="29.4094838" lon="105.1597859"><ele>324.71</ele><time>2026-02-10T21:15:12.000Z</time></trkpt>
        <trkpt lat="29.4094838" lon="105.1597859"><ele>324.71</ele><time>2026-02-10T21:15:25.000Z</time></trkpt>
        <trkpt lat="29.4094838" lon="105.1597859"><ele>324.71</ele><time>2026-02-10T21:15:28.000Z</time></trkpt>
        <trkpt lat="29.4094838" lon="105.1597859"><ele>324.71</ele><time>2026-02-10T21:16:05.000Z</time></trkpt>
        <trkpt lat="29.4094838" lon="105.1597859"><ele>324.71</ele><time>2026-02-10T21:16:22.000Z</time></trkpt>
        <trkpt lat="29.4094838" lon="105.1597859"><ele>324.71</ele><time>2026-02-10T21:17:15.000Z</time></trkpt>
        <trkpt lat="29.4094838" lon="105.1597859"><ele>324.71</ele><time>2026-02-10T21:17:20.000Z</time></trkpt>
        <trkpt lat="29.4094838" lon="105.1597859"><ele>324.71</ele><time>2026-02-10T21:17:29.000Z</time></trkpt>
        <trkpt lat="29.4094838" lon="105.1597859"><ele>324.71</ele><time>2026-02-10T21:17:40.000Z</time></trkpt>
        <trkpt lat="29.4094838" lon="105.1597859"><ele>324.71</ele><time>2026-02-10T21:18:05.000Z</time></trkpt>
        <trkpt lat="29.4094838" lon="105.1597859"><ele>324.71</ele><time>2026-02-10T21:18:08.000Z</time></trkpt>
        <trkpt lat="29.4094838" lon="105.1597859"><ele>324.71</ele><time>2026-02-10T21:18:17.000Z</time></trkpt>
        <trkpt lat="29.4094838" lon="105.1597859"><ele>324.71</ele><time>2026-02-10T21:18:40.000Z</time></trkpt>
        <trkpt lat="29.4094838" lon="105.1597859"><ele>324.71</ele><time>2026-02-10T21:18:49.000Z</time></trkpt>
        <trkpt lat="29.4094838" lon="105.1597859"><ele>324.71</ele><time>2026-02-10T21:18:56.000Z</time></trkpt>
        <trkpt lat="29.4094838" lon="105.1597859"><ele>324.71</ele><time>2026-02-10T21:19:15.000Z</time></trkpt>
        <trkpt lat="29.4094838" lon="105.1597859"><ele>324.71</ele><time>2026-02-10T21:19:26.000Z</time></trkpt>
        <trkpt lat="29.4094838" lon="105.1597859"><ele>324.71</ele><time>2026-02-10T21:19:55.000Z</time></trkpt>
        <trkpt lat="29.4094838" lon="105.1597859"><ele>324.71</ele><time>2026-02-10T21:19:56.000Z</time></trkpt>
        <trkpt lat="29.4094838" lon="105.1597859"><ele>324.71</ele><time>2026-02-10T21:20:27.000Z</time></trkpt>
        <trkpt lat="29.4096065" lon="105.1598335"><ele>324.15</ele><time>2026-02-10T21:20:32.000Z</time></trkpt>
        <trkpt lat="29.4096065" lon="105.1598335"><ele>324.15</ele><time>2026-02-10T21:21:11.000Z</time></trkpt>
        <trkpt lat="29.4096931" lon="105.1598696"><ele>322.95</ele><time>2026-02-10T21:21:19.000Z</time></trkpt>
        <trkpt lat="29.4097926" lon="105.1599017"><ele>323.24</ele><time>2026-02-10T21:21:27.000Z</time></trkpt>
        <trkpt lat="29.4098815" lon="105.1599512"><ele>323.89</ele><time>2026-02-10T21:21:35.000Z</time></trkpt>
        <trkpt lat="29.4099759" lon="105.1599813"><ele>324.59</ele><time>2026-02-10T21:21:51.000Z</time></trkpt>
        <trkpt lat="29.4100671" lon="105.1600148"><ele>324.98</ele><time>2026-02-10T21:21:57.000Z</time></trkpt>
        <trkpt lat="29.4101742" lon="105.1600243"><ele>325.25</ele><time>2026-02-10T21:22:05.000Z</time></trkpt>
        <trkpt lat="29.4102707" lon="105.160024"><ele>325</ele><time>2026-02-10T21:22:13.000Z</time></trkpt>
        <trkpt lat="29.4103643" lon="105.1600383"><ele>324.45</ele><time>2026-02-10T21:22:21.000Z</time></trkpt>
        <trkpt lat="29.4104542" lon="105.1600777"><ele>324.34</ele><time>2026-02-10T21:22:29.000Z</time></trkpt>
        <trkpt lat="29.4105402" lon="105.1601323"><ele>324.17</ele><time>2026-02-10T21:22:37.000Z</time></trkpt>
        <trkpt lat="29.4106403" lon="105.1601731"><ele>323.86</ele><time>2026-02-10T21:22:45.000Z</time></trkpt>
        <trkpt lat="29.4107368" lon="105.1602134"><ele>323.92</ele><time>2026-02-10T21:22:53.000Z</time></trkpt>
        <trkpt lat="29.4108278" lon="105.1602121"><ele>323.35</ele><time>2026-02-10T21:23:01.000Z</time></trkpt>
        <trkpt lat="29.4109308" lon="105.1601868"><ele>323.3</ele><time>2026-02-10T21:23:09.000Z</time></trkpt>
        <trkpt lat="29.4110296" lon="105.1601449"><ele>323.74</ele><time>2026-02-10T21:23:17.000Z</time></trkpt>
        <trkpt lat="29.4111166" lon="105.1600803"><ele>324.25</ele><time>2026-02-10T21:23:25.000Z</time></trkpt>
        <trkpt lat="29.4111948" lon="105.160017"><ele>324.5</ele><time>2026-02-10T21:23:31.000Z</time></trkpt>
        <trkpt lat="29.4112754" lon="105.1599621"><ele>324.75</ele><time>2026-02-10T21:23:39.000Z</time></trkpt>
        <trkpt lat="29.4113594" lon="105.1599209"><ele>324.74</ele><time>2026-02-10T21:23:47.000Z</time></trkpt>
        <trkpt lat="29.4114464" lon="105.1598736"><ele>324.83</ele><time>2026-02-10T21:23:55.000Z</time></trkpt>
        <trkpt lat="29.4115395" lon="105.1598296"><ele>324.56</ele><time>2026-02-10T21:24:05.000Z</time></trkpt>
        <trkpt lat="29.4116317" lon="105.1597718"><ele>323.9</ele><time>2026-02-10T21:24:13.000Z</time></trkpt>
        <trkpt lat="29.4117162" lon="105.1597049"><ele>322.83</ele><time>2026-02-10T21:24:21.000Z</time></trkpt>
        <trkpt lat="29.4118126" lon="105.1596489"><ele>322.19</ele><time>2026-02-10T21:24:29.000Z</time></trkpt>
        <trkpt lat="29.4118526" lon="105.1597207"><ele>322.16</ele><time>2026-02-10T21:24:55.000Z</time></trkpt>
        <trkpt lat="29.4118252" lon="105.1598308"><ele>322.79</ele><time>2026-02-10T21:25:03.000Z</time></trkpt>
        <trkpt lat="29.4117865" lon="105.1599483"><ele>323.15</ele><time>2026-02-10T21:25:11.000Z</time></trkpt>
        <trkpt lat="29.4117666" lon="105.1600715"><ele>323.47</ele><time>2026-02-10T21:25:19.000Z</time></trkpt>
        <trkpt lat="29.4117807" lon="105.1601981"><ele>323.79</ele><time>2026-02-10T21:25:27.000Z</time></trkpt>
        <trkpt lat="29.4118194" lon="105.1603092"><ele>324.32</ele><time>2026-02-10T21:25:37.000Z</time></trkpt>
        <trkpt lat="29.4118512" lon="105.1604209"><ele>324.96</ele><time>2026-02-10T21:25:45.000Z</time></trkpt>
        <trkpt lat="29.4118635" lon="105.1605385"><ele>325.1</ele><time>2026-02-10T21:25:55.000Z</time></trkpt>
        <trkpt lat="29.4118621" lon="105.1606666"><ele>325.48</ele><time>2026-02-10T21:26:05.000Z</time></trkpt>
        <trkpt lat="29.4118602" lon="105.1607873"><ele>325.16</ele><time>2026-02-10T21:26:13.000Z</time></trkpt>
        <trkpt lat="29.411878" lon="105.1609037"><ele>324.95</ele><time>2026-02-10T21:26:23.000Z</time></trkpt>
        <trkpt lat="29.4119447" lon="105.1609895"><ele>325.35</ele><time>2026-02-10T21:26:33.000Z</time></trkpt>
        <trkpt lat="29.4120221" lon="105.1610672"><ele>325.53</ele><time>2026-02-10T21:26:43.000Z</time></trkpt>
        <trkpt lat="29.4121007" lon="105.1611552"><ele>325.77</ele><time>2026-02-10T21:26:53.000Z</time></trkpt>
        <trkpt lat="29.4121579" lon="105.1612602"><ele>325.83</ele><time>2026-02-10T21:27:01.000Z</time></trkpt>
        <trkpt lat="29.4122158" lon="105.1613496"><ele>326.38</ele><time>2026-02-10T21:27:09.000Z</time></trkpt>
        <trkpt lat="29.4122973" lon="105.1614219"><ele>327.01</ele><time>2026-02-10T21:27:19.000Z</time></trkpt>
        <trkpt lat="29.4123765" lon="105.1614842"><ele>327.42</ele><time>2026-02-10T21:27:27.000Z</time></trkpt>
        <trkpt lat="29.4124376" lon="105.1615657"><ele>327.88</ele><time>2026-02-10T21:27:37.000Z</time></trkpt>
        <trkpt lat="29.4124878" lon="105.1616559"><ele>328.65</ele><time>2026-02-10T21:27:47.000Z</time></trkpt>
        <trkpt lat="29.4125254" lon="105.1617532"><ele>329.41</ele><time>2026-02-10T21:27:57.000Z</time></trkpt>
        <trkpt lat="29.4125992" lon="105.1617882"><ele>330.77</ele><time>2026-02-10T21:28:07.000Z</time></trkpt>
        <trkpt lat="29.4125438" lon="105.1618022"><ele>332.13</ele><time>2026-02-10T21:28:29.000Z</time></trkpt>
        <trkpt lat="29.412502" lon="105.1618847"><ele>334.96</ele><time>2026-02-10T21:28:59.000Z</time></trkpt>
        <trkpt lat="29.4124773" lon="105.1619878"><ele>336.63</ele><time>2026-02-10T21:29:11.000Z</time></trkpt>
        <trkpt lat="29.4124518" lon="105.1621043"><ele>338.24</ele><time>2026-02-10T21:29:33.000Z</time></trkpt>
        <trkpt lat="29.4124073" lon="105.1622029"><ele>339.57</ele><time>2026-02-10T21:29:53.000Z</time></trkpt>
        <trkpt lat="29.4124141" lon="105.1620886"><ele>340.59</ele><time>2026-02-10T21:31:09.000Z</time></trkpt>
        <trkpt lat="29.4123724" lon="105.1620666"><ele>341.94</ele><time>2026-02-10T21:31:15.000Z</time></trkpt>
        <trkpt lat="29.4122984" lon="105.1620042"><ele>342.83</ele><time>2026-02-10T21:31:39.000Z</time></trkpt>
        <trkpt lat="29.4122162" lon="105.1620381"><ele>341.94</ele><time>2026-02-10T21:31:51.000Z</time></trkpt>
        <trkpt lat="29.4121808" lon="105.16213"><ele>341.33</ele><time>2026-02-10T21:31:59.000Z</time></trkpt>
        <trkpt lat="29.4121828" lon="105.1622431"><ele>340.43</ele><time>2026-02-10T21:32:07.000Z</time></trkpt>
        <trkpt lat="29.4121701" lon="105.1623641"><ele>339.15</ele><time>2026-02-10T21:32:25.000Z</time></trkpt>
        <trkpt lat="29.4121606" lon="105.1624786"><ele>338.8</ele><time>2026-02-10T21:32:39.000Z</time></trkpt>
        <trkpt lat="29.4121651" lon="105.1625908"><ele>338.2</ele><time>2026-02-10T21:32:53.000Z</time></trkpt>
        <trkpt lat="29.4121599" lon="105.1627125"><ele>337.09</ele><time>2026-02-10T21:32:59.000Z</time></trkpt>
        <trkpt lat="29.4122043" lon="105.1628182"><ele>335.84</ele><time>2026-02-10T21:33:07.000Z</time></trkpt>
        <trkpt lat="29.4122911" lon="105.1628748"><ele>334.84</ele><time>2026-02-10T21:33:15.000Z</time></trkpt>
        <trkpt lat="29.4123817" lon="105.1629329"><ele>333.92</ele><time>2026-02-10T21:33:23.000Z</time></trkpt>
        <trkpt lat="29.4124802" lon="105.1629757"><ele>332.71</ele><time>2026-02-10T21:33:31.000Z</time></trkpt>
        <trkpt lat="29.412582" lon="105.1629808"><ele>331.75</ele><time>2026-02-10T21:33:39.000Z</time></trkpt>
        <trkpt lat="29.4126906" lon="105.162951"><ele>330.91</ele><time>2026-02-10T21:33:49.000Z</time></trkpt>
        <trkpt lat="29.4128022" lon="105.1629158"><ele>330.37</ele><time>2026-02-10T21:33:57.000Z</time></trkpt>
        <trkpt lat="29.4129082" lon="105.1629103"><ele>330.4</ele><time>2026-02-10T21:34:05.000Z</time></trkpt>
        <trkpt lat="29.4130078" lon="105.162906"><ele>330.07</ele><time>2026-02-10T21:34:13.000Z</time></trkpt>
        <trkpt lat="29.4131128" lon="105.1628971"><ele>329.38</ele><time>2026-02-10T21:34:23.000Z</time></trkpt>
        <trkpt lat="29.4132239" lon="105.1629017"><ele>328.77</ele><time>2026-02-10T21:34:31.000Z</time></trkpt>
        <trkpt lat="29.4133213" lon="105.1629211"><ele>328.53</ele><time>2026-02-10T21:34:41.000Z</time></trkpt>
        <trkpt lat="29.4134086" lon="105.1629662"><ele>328.31</ele><time>2026-02-10T21:34:51.000Z</time></trkpt>
        <trkpt lat="29.4134993" lon="105.1630273"><ele>328.56</ele><time>2026-02-10T21:34:59.000Z</time></trkpt>
        <trkpt lat="29.4135897" lon="105.1630696"><ele>328.43</ele><time>2026-02-10T21:35:07.000Z</time></trkpt>
        <trkpt lat="29.4136854" lon="105.1630545"><ele>328.51</ele><time>2026-02-10T21:35:17.000Z</time></trkpt>
        <trkpt lat="29.4137733" lon="105.1630103"><ele>328.77</ele><time>2026-02-10T21:35:25.000Z</time></trkpt>
        <trkpt lat="29.4138641" lon="105.1629936"><ele>328.83</ele><time>2026-02-10T21:35:33.000Z</time></trkpt>
        <trkpt lat="29.4139644" lon="105.1630001"><ele>328.88</ele><time>2026-02-10T21:35:41.000Z</time></trkpt>
        <trkpt lat="29.4140703" lon="105.1630026"><ele>329.05</ele><time>2026-02-10T21:35:51.000Z</time></trkpt>
        <trkpt lat="29.4141687" lon="105.1629674"><ele>329.12</ele><time>2026-02-10T21:36:01.000Z</time></trkpt>
        <trkpt lat="29.414275" lon="105.1629336"><ele>328.99</ele><time>2026-02-10T21:36:11.000Z</time></trkpt>
        <trkpt lat="29.4143833" lon="105.1629323"><ele>329.35</ele><time>2026-02-10T21:36:19.000Z</time></trkpt>
        <trkpt lat="29.4144869" lon="105.1629749"><ele>329.61</ele><time>2026-02-10T21:36:27.000Z</time></trkpt>
        <trkpt lat="29.4145762" lon="105.1630252"><ele>329.9</ele><time>2026-02-10T21:36:33.000Z</time></trkpt>
        <trkpt lat="29.4146535" lon="105.1630868"><ele>330.16</ele><time>2026-02-10T21:36:41.000Z</time></trkpt>
        <trkpt lat="29.4147307" lon="105.1631592"><ele>330.51</ele><time>2026-02-10T21:36:59.000Z</time></trkpt>
        <trkpt lat="29.4148154" lon="105.1631954"><ele>330.27</ele><time>2026-02-10T21:37:05.000Z</time></trkpt>
        <trkpt lat="29.4149064" lon="105.1632196"><ele>329.74</ele><time>2026-02-10T21:37:13.000Z</time></trkpt>
        <trkpt lat="29.4150138" lon="105.16321"><ele>329.37</ele><time>2026-02-10T21:37:23.000Z</time></trkpt>
        <trkpt lat="29.4151138" lon="105.163196"><ele>329.9</ele><time>2026-02-10T21:37:47.000Z</time></trkpt>
        <trkpt lat="29.4152088" lon="105.1632021"><ele>330.7</ele><time>2026-02-10T21:37:55.000Z</time></trkpt>
        <trkpt lat="29.4153019" lon="105.1632575"><ele>330.89</ele><time>2026-02-10T21:38:05.000Z</time></trkpt>
        <trkpt lat="29.4153796" lon="105.163332"><ele>331.18</ele><time>2026-02-10T21:38:13.000Z</time></trkpt>
        <trkpt lat="29.4154571" lon="105.1634081"><ele>331.6</ele><time>2026-02-10T21:38:21.000Z</time></trkpt>
        <trkpt lat="29.4155371" lon="105.1635004"><ele>331.89</ele><time>2026-02-10T21:38:29.000Z</time></trkpt>
        <trkpt lat="29.4156195" lon="105.1635689"><ele>332.74</ele><time>2026-02-10T21:38:37.000Z</time></trkpt>
        <trkpt lat="29.4156977" lon="105.1636273"><ele>333.68</ele><time>2026-02-10T21:38:45.000Z</time></trkpt>
        <trkpt lat="29.4157882" lon="105.1636438"><ele>334</ele><time>2026-02-10T21:38:53.000Z</time></trkpt>
        <trkpt lat="29.4158955" lon="105.1636605"><ele>334.11</ele><time>2026-02-10T21:39:01.000Z</time></trkpt>
        <trkpt lat="29.4160002" lon="105.1636798"><ele>334.17</ele><time>2026-02-10T21:39:09.000Z</time></trkpt>
        <trkpt lat="29.4161072" lon="105.1637004"><ele>334.45</ele><time>2026-02-10T21:39:21.000Z</time></trkpt>
        <trkpt lat="29.4162209" lon="105.1637133"><ele>334.21</ele><time>2026-02-10T21:39:29.000Z</time></trkpt>
        <trkpt lat="29.4163206" lon="105.1637077"><ele>334.09</ele><time>2026-02-10T21:39:35.000Z</time></trkpt>
        <trkpt lat="29.4164225" lon="105.1636838"><ele>333.92</ele><time>2026-02-10T21:39:45.000Z</time></trkpt>
        <trkpt lat="29.4165174" lon="105.1636696"><ele>333.25</ele><time>2026-02-10T21:39:53.000Z</time></trkpt>
        <trkpt lat="29.4166147" lon="105.1636555"><ele>332.88</ele><time>2026-02-10T21:40:01.000Z</time></trkpt>
        <trkpt lat="29.4167064" lon="105.1636554"><ele>332.7</ele><time>2026-02-10T21:40:07.000Z</time></trkpt>
        <trkpt lat="29.4167664" lon="105.163721"><ele>332.56</ele><time>2026-02-10T21:40:15.000Z</time></trkpt>
        <trkpt lat="29.4168121" lon="105.1638323"><ele>332.21</ele><time>2026-02-10T21:40:23.000Z</time></trkpt>
        <trkpt lat="29.4168453" lon="105.1639303"><ele>331.77</ele><time>2026-02-10T21:40:29.000Z</time></trkpt>
        <trkpt lat="29.4168833" lon="105.1640577"><ele>331.39</ele><time>2026-02-10T21:40:39.000Z</time></trkpt>
        <trkpt lat="29.4169417" lon="105.1641655"><ele>330.25</ele><time>2026-02-10T21:40:47.000Z</time></trkpt>
        <trkpt lat="29.4170137" lon="105.1642665"><ele>329.36</ele><time>2026-02-10T21:40:55.000Z</time></trkpt>
        <trkpt lat="29.4170863" lon="105.1643624"><ele>328.91</ele><time>2026-02-10T21:41:03.000Z</time></trkpt>
        <trkpt lat="29.4171532" lon="105.1644536"><ele>328.85</ele><time>2026-02-10T21:41:11.000Z</time></trkpt>
        <trkpt lat="29.4172067" lon="105.1645527"><ele>328.24</ele><time>2026-02-10T21:41:19.000Z</time></trkpt>
        <trkpt lat="29.4172569" lon="105.1646594"><ele>327.52</ele><time>2026-02-10T21:41:29.000Z</time></trkpt>
        <trkpt lat="29.4173091" lon="105.1647502"><ele>326.89</ele><time>2026-02-10T21:41:37.000Z</time></trkpt>
        <trkpt lat="29.4173695" lon="105.1648414"><ele>326.52</ele><time>2026-02-10T21:41:45.000Z</time></trkpt>
        <trkpt lat="29.4174287" lon="105.1649385"><ele>326.26</ele><time>2026-02-10T21:41:53.000Z</time></trkpt>
        <trkpt lat="29.4174808" lon="105.1650322"><ele>325.86</ele><time>2026-02-10T21:42:01.000Z</time></trkpt>
        <trkpt lat="29.4175376" lon="105.1651326"><ele>325.32</ele><time>2026-02-10T21:42:09.000Z</time></trkpt>
        <trkpt lat="29.4175962" lon="105.165222"><ele>324.89</ele><time>2026-02-10T21:42:17.000Z</time></trkpt>
        <trkpt lat="29.4176523" lon="105.1653168"><ele>324.41</ele><time>2026-02-10T21:42:27.000Z</time></trkpt>
        <trkpt lat="29.4177265" lon="105.1653798"><ele>324.02</ele><time>2026-02-10T21:42:37.000Z</time></trkpt>
        <trkpt lat="29.4178018" lon="105.1654464"><ele>323.01</ele><time>2026-02-10T21:42:45.000Z</time></trkpt>
        <trkpt lat="29.4178714" lon="105.1655262"><ele>322.05</ele><time>2026-02-10T21:42:53.000Z</time></trkpt>
        <trkpt lat="29.4179373" lon="105.1656036"><ele>321.34</ele><time>2026-02-10T21:43:01.000Z</time></trkpt>
        <trkpt lat="29.4180031" lon="105.1656868"><ele>320.91</ele><time>2026-02-10T21:43:09.000Z</time></trkpt>
        <trkpt lat="29.4180705" lon="105.165773"><ele>320.37</ele><time>2026-02-10T21:43:17.000Z</time></trkpt>
        <trkpt lat="29.4181309" lon="105.1658632"><ele>320.43</ele><time>2026-02-10T21:43:25.000Z</time></trkpt>
        <trkpt lat="29.4182088" lon="105.1659408"><ele>320.53</ele><time>2026-02-10T21:43:33.000Z</time></trkpt>
        <trkpt lat="29.4182892" lon="105.166007"><ele>320.42</ele><time>2026-02-10T21:43:41.000Z</time></trkpt>
        <trkpt lat="29.4183679" lon="105.1660766"><ele>320.43</ele><time>2026-02-10T21:43:49.000Z</time></trkpt>
        <trkpt lat="29.4184368" lon="105.1661635"><ele>320.21</ele><time>2026-02-10T21:43:57.000Z</time></trkpt>
        <trkpt lat="29.4185078" lon="105.1662368"><ele>320.17</ele><time>2026-02-10T21:44:05.000Z</time></trkpt>
        <trkpt lat="29.418592" lon="105.1662976"><ele>320.25</ele><time>2026-02-10T21:44:13.000Z</time></trkpt>
        <trkpt lat="29.4186763" lon="105.1663596"><ele>320.14</ele><time>2026-02-10T21:44:21.000Z</time></trkpt>
        <trkpt lat="29.4187503" lon="105.1664371"><ele>320.06</ele><time>2026-02-10T21:44:31.000Z</time></trkpt>
        <trkpt lat="29.418826" lon="105.1665022"><ele>319.94</ele><time>2026-02-10T21:44:39.000Z</time></trkpt>
        <trkpt lat="29.4189007" lon="105.1665862"><ele>320.13</ele><time>2026-02-10T21:44:49.000Z</time></trkpt>
        <trkpt lat="29.4189767" lon="105.1666608"><ele>319.96</ele><time>2026-02-10T21:44:57.000Z</time></trkpt>
        <trkpt lat="29.4190621" lon="105.1667145"><ele>319.52</ele><time>2026-02-10T21:45:07.000Z</time></trkpt>
        <trkpt lat="29.4191515" lon="105.1667078"><ele>319.82</ele><time>2026-02-10T21:45:19.000Z</time></trkpt>
        <trkpt lat="29.4192062" lon="105.1666242"><ele>320.27</ele><time>2026-02-10T21:45:29.000Z</time></trkpt>
        <trkpt lat="29.4192447" lon="105.1665058"><ele>320.43</ele><time>2026-02-10T21:45:39.000Z</time></trkpt>
        <trkpt lat="29.4192952" lon="105.1663954"><ele>321.37</ele><time>2026-02-10T21:45:47.000Z</time></trkpt>
        <trkpt lat="29.4193676" lon="105.1663121"><ele>321.86</ele><time>2026-02-10T21:45:55.000Z</time></trkpt>
        <trkpt lat="29.4194536" lon="105.1662376"><ele>322.43</ele><time>2026-02-10T21:46:03.000Z</time></trkpt>
        <trkpt lat="29.4195374" lon="105.1661683"><ele>322.77</ele><time>2026-02-10T21:46:31.000Z</time></trkpt>
        <trkpt lat="29.4196328" lon="105.1661175"><ele>323.74</ele><time>2026-02-10T21:46:41.000Z</time></trkpt>
        <trkpt lat="29.4197341" lon="105.1660629"><ele>324.31</ele><time>2026-02-10T21:47:33.000Z</time></trkpt>
        <trkpt lat="29.4198353" lon="105.166037"><ele>327.56</ele><time>2026-02-10T21:47:41.000Z</time></trkpt>
        <trkpt lat="29.4199312" lon="105.1659925"><ele>329.94</ele><time>2026-02-10T21:47:49.000Z</time></trkpt>
        <trkpt lat="29.42002" lon="105.165951"><ele>331.43</ele><time>2026-02-10T21:47:57.000Z</time></trkpt>
        <trkpt lat="29.4201194" lon="105.1659398"><ele>333.07</ele><time>2026-02-10T21:48:11.000Z</time></trkpt>
        <trkpt lat="29.4202184" lon="105.1659184"><ele>334.67</ele><time>2026-02-10T21:48:19.000Z</time></trkpt>
        <trkpt lat="29.4203112" lon="105.1659018"><ele>336.07</ele><time>2026-02-10T21:48:29.000Z</time></trkpt>
        <trkpt lat="29.4203971" lon="105.1658699"><ele>336.54</ele><time>2026-02-10T21:48:37.000Z</time></trkpt>
        <trkpt lat="29.4204448" lon="105.1657879"><ele>336.93</ele><time>2026-02-10T21:48:47.000Z</time></trkpt>
        <trkpt lat="29.4204487" lon="105.1656762"><ele>337.21</ele><time>2026-02-10T21:49:09.000Z</time></trkpt>
        <trkpt lat="29.4204357" lon="105.165737"><ele>336.84</ele><time>2026-02-10T21:49:49.000Z</time></trkpt>
        <trkpt lat="29.420476" lon="105.1658437"><ele>335.86</ele><time>2026-02-10T21:49:59.000Z</time></trkpt>
        <trkpt lat="29.4205659" lon="105.1658616"><ele>334.12</ele><time>2026-02-10T21:50:07.000Z</time></trkpt>
        <trkpt lat="29.4206649" lon="105.1658298"><ele>332.9</ele><time>2026-02-10T21:50:13.000Z</time></trkpt>
        <trkpt lat="29.4207516" lon="105.165772"><ele>332.82</ele><time>2026-02-10T21:50:21.000Z</time></trkpt>
        <trkpt lat="29.4208506" lon="105.1657017"><ele>333.07</ele><time>2026-02-10T21:50:31.000Z</time></trkpt>
        <trkpt lat="29.4209395" lon="105.1656417"><ele>332.79</ele><time>2026-02-10T21:50:37.000Z</time></trkpt>
        <trkpt lat="29.4210322" lon="105.1655719"><ele>332.35</ele><time>2026-02-10T21:50:45.000Z</time></trkpt>
        <trkpt lat="29.4211052" lon="105.165498"><ele>332.52</ele><time>2026-02-10T21:50:53.000Z</time></trkpt>
        <trkpt lat="29.4211825" lon="105.1654107"><ele>332.35</ele><time>2026-02-10T21:51:01.000Z</time></trkpt>
        <trkpt lat="29.4212621" lon="105.1653251"><ele>331.94</ele><time>2026-02-10T21:51:09.000Z</time></trkpt>
        <trkpt lat="29.4213337" lon="105.1652472"><ele>331.96</ele><time>2026-02-10T21:51:17.000Z</time></trkpt>
        <trkpt lat="29.4214071" lon="105.1651754"><ele>331.47</ele><time>2026-02-10T21:51:28.000Z</time></trkpt>
        <trkpt lat="29.4214933" lon="105.1650994"><ele>330.76</ele><time>2026-02-10T21:51:37.000Z</time></trkpt>
        <trkpt lat="29.4215835" lon="105.1650293"><ele>329.97</ele><time>2026-02-10T21:51:45.000Z</time></trkpt>
        <trkpt lat="29.4216652" lon="105.1649521"><ele>329.67</ele><time>2026-02-10T21:51:55.000Z</time></trkpt>
        <trkpt lat="29.4217416" lon="105.1648823"><ele>329.92</ele><time>2026-02-10T21:52:05.000Z</time></trkpt>
        <trkpt lat="29.421804" lon="105.1648066"><ele>330.49</ele><time>2026-02-10T21:52:11.000Z</time></trkpt>
        <trkpt lat="29.4218601" lon="105.1647271"><ele>330.51</ele><time>2026-02-10T21:52:19.000Z</time></trkpt>
        <trkpt lat="29.4219449" lon="105.1646547"><ele>330.55</ele><time>2026-02-10T21:52:41.000Z</time></trkpt>
        <trkpt lat="29.4220208" lon="105.1645754"><ele>330.67</ele><time>2026-02-10T21:52:49.000Z</time></trkpt>
        <trkpt lat="29.4220899" lon="105.1644916"><ele>330.24</ele><time>2026-02-10T21:52:57.000Z</time></trkpt>
        <trkpt lat="29.4221462" lon="105.1644045"><ele>330.1</ele><time>2026-02-10T21:53:11.000Z</time></trkpt>
        <trkpt lat="29.4222433" lon="105.1643398"><ele>329.92</ele><time>2026-02-10T21:53:21.000Z</time></trkpt>
        <trkpt lat="29.4223268" lon="105.1642662"><ele>329.52</ele><time>2026-02-10T21:53:29.000Z</time></trkpt>
        <trkpt lat="29.4224081" lon="105.164174"><ele>329.12</ele><time>2026-02-10T21:53:37.000Z</time></trkpt>
        <trkpt lat="29.422486" lon="105.1640766"><ele>329.36</ele><time>2026-02-10T21:53:47.000Z</time></trkpt>
        <trkpt lat="29.4225552" lon="105.163983"><ele>329.85</ele><time>2026-02-10T21:53:55.000Z</time></trkpt>
        <trkpt lat="29.4226365" lon="105.1639009"><ele>329.83</ele><time>2026-02-10T21:54:05.000Z</time></trkpt>
        <trkpt lat="29.4227199" lon="105.1638334"><ele>329.46</ele><time>2026-02-10T21:54:11.000Z</time></trkpt>
        <trkpt lat="29.4228148" lon="105.1637685"><ele>329.14</ele><time>2026-02-10T21:54:19.000Z</time></trkpt>
        <trkpt lat="29.4229056" lon="105.1637109"><ele>329.13</ele><time>2026-02-10T21:54:27.000Z</time></trkpt>
        <trkpt lat="29.4230075" lon="105.1636694"><ele>329.03</ele><time>2026-02-10T21:54:35.000Z</time></trkpt>
        <trkpt lat="29.4231123" lon="105.163625"><ele>329.03</ele><time>2026-02-10T21:54:45.000Z</time></trkpt>
        <trkpt lat="29.4232064" lon="105.163596"><ele>328.6</ele><time>2026-02-10T21:54:53.000Z</time></trkpt>
        <trkpt lat="29.4233027" lon="105.1635801"><ele>328.04</ele><time>2026-02-10T21:55:01.000Z</time></trkpt>
        <trkpt lat="29.4234056" lon="105.1635534"><ele>327.58</ele><time>2026-02-10T21:55:09.000Z</time></trkpt>
        <trkpt lat="29.4235103" lon="105.1635321"><ele>327.34</ele><time>2026-02-10T21:55:17.000Z</time></trkpt>
        <trkpt lat="29.4236126" lon="105.1635118"><ele>327.4</ele><time>2026-02-10T21:55:25.000Z</time></trkpt>
        <trkpt lat="29.4237125" lon="105.1634896"><ele>327.8</ele><time>2026-02-10T21:55:33.000Z</time></trkpt>
        <trkpt lat="29.4238206" lon="105.1634776"><ele>328.17</ele><time>2026-02-10T21:55:41.000Z</time></trkpt>
        <trkpt lat="29.4239255" lon="105.1634508"><ele>327.94</ele><time>2026-02-10T21:55:49.000Z</time></trkpt>
        <trkpt lat="29.4240224" lon="105.1634284"><ele>328.09</ele><time>2026-02-10T21:55:57.000Z</time></trkpt>
        <trkpt lat="29.4241086" lon="105.1634126"><ele>328.09</ele><time>2026-02-10T21:56:03.000Z</time></trkpt>
        <trkpt lat="29.424206" lon="105.1633825"><ele>327.94</ele><time>2026-02-10T21:56:13.000Z</time></trkpt>
        <trkpt lat="29.4242966" lon="105.163347"><ele>327.49</ele><time>2026-02-10T21:56:21.000Z</time></trkpt>
        <trkpt lat="29.4243852" lon="105.1633053"><ele>326.18</ele><time>2026-02-10T21:56:29.000Z</time></trkpt>
        <trkpt lat="29.4244904" lon="105.1632651"><ele>325.19</ele><time>2026-02-10T21:56:37.000Z</time></trkpt>
        <trkpt lat="29.4245976" lon="105.1632277"><ele>324.77</ele><time>2026-02-10T21:56:45.000Z</time></trkpt>
        <trkpt lat="29.4246929" lon="105.1631709"><ele>324.72</ele><time>2026-02-10T21:56:53.000Z</time></trkpt>
        <trkpt lat="29.4247956" lon="105.1631235"><ele>324.87</ele><time>2026-02-10T21:57:01.000Z</time></trkpt>
        <trkpt lat="29.4248979" lon="105.1630673"><ele>324.08</ele><time>2026-02-10T21:57:09.000Z</time></trkpt>
        <trkpt lat="29.4249825" lon="105.163007"><ele>323.44</ele><time>2026-02-10T21:57:17.000Z</time></trkpt>
        <trkpt lat="29.4250753" lon="105.1629541"><ele>323.29</ele><time>2026-02-10T21:57:25.000Z</time></trkpt>
        <trkpt lat="29.4251725" lon="105.1628974"><ele>323.49</ele><time>2026-02-10T21:57:35.000Z</time></trkpt>
        <trkpt lat="29.4252782" lon="105.1628605"><ele>323.63</ele><time>2026-02-10T21:57:43.000Z</time></trkpt>
        <trkpt lat="29.4253852" lon="105.1628112"><ele>324.19</ele><time>2026-02-10T21:57:51.000Z</time></trkpt>
        <trkpt lat="29.4254769" lon="105.1627601"><ele>324.85</ele><time>2026-02-10T21:57:59.000Z</time></trkpt>
        <trkpt lat="29.4255669" lon="105.1627199"><ele>325.26</ele><time>2026-02-10T21:58:07.000Z</time></trkpt>
        <trkpt lat="29.4256702" lon="105.162689"><ele>325.54</ele><time>2026-02-10T21:58:15.000Z</time></trkpt>
        <trkpt lat="29.4257696" lon="105.1626363"><ele>325.44</ele><time>2026-02-10T21:58:23.000Z</time></trkpt>
        <trkpt lat="29.4258592" lon="105.1625849"><ele>324.63</ele><time>2026-02-10T21:58:31.000Z</time></trkpt>
        <trkpt lat="29.4259515" lon="105.1625276"><ele>324.26</ele><time>2026-02-10T21:58:39.000Z</time></trkpt>
        <trkpt lat="29.426053" lon="105.1624779"><ele>324.51</ele><time>2026-02-10T21:58:47.000Z</time></trkpt>
        <trkpt lat="29.426153" lon="105.1624226"><ele>325.13</ele><time>2026-02-10T21:58:57.000Z</time></trkpt>
        <trkpt lat="29.4262483" lon="105.1623687"><ele>325.61</ele><time>2026-02-10T21:59:05.000Z</time></trkpt>
        <trkpt lat="29.4263506" lon="105.162348"><ele>325.73</ele><time>2026-02-10T21:59:21.000Z</time></trkpt>
        <trkpt lat="29.4264434" lon="105.1622955"><ele>326.26</ele><time>2026-02-10T21:59:27.000Z</time></trkpt>
        <trkpt lat="29.4265471" lon="105.1622651"><ele>326.99</ele><time>2026-02-10T21:59:35.000Z</time></trkpt>
        <trkpt lat="29.4266582" lon="105.1622267"><ele>326.98</ele><time>2026-02-10T21:59:47.000Z</time></trkpt>
        <trkpt lat="29.4267614" lon="105.1621994"><ele>326.82</ele><time>2026-02-10T21:59:53.000Z</time></trkpt>
        <trkpt lat="29.426869" lon="105.1621719"><ele>327.02</ele><time>2026-02-10T22:00:01.000Z</time></trkpt>
        <trkpt lat="29.4269707" lon="105.1621426"><ele>327.51</ele><time>2026-02-10T22:00:11.000Z</time></trkpt>
        <trkpt lat="29.427065" lon="105.1621058"><ele>327.85</ele><time>2026-02-10T22:00:19.000Z</time></trkpt>
        <trkpt lat="29.4271594" lon="105.162045"><ele>328.15</ele><time>2026-02-10T22:00:29.000Z</time></trkpt>
        <trkpt lat="29.4272566" lon="105.1619914"><ele>328.13</ele><time>2026-02-10T22:00:37.000Z</time></trkpt>
        <trkpt lat="29.4273668" lon="105.1619677"><ele>328.48</ele><time>2026-02-10T22:00:45.000Z</time></trkpt>
        <trkpt lat="29.4274653" lon="105.1619495"><ele>328.27</ele><time>2026-02-10T22:00:53.000Z</time></trkpt>
        <trkpt lat="29.4275597" lon="105.1619356"><ele>327.84</ele><time>2026-02-10T22:01:01.000Z</time></trkpt>
        <trkpt lat="29.427659" lon="105.1619148"><ele>327.82</ele><time>2026-02-10T22:01:09.000Z</time></trkpt>
        <trkpt lat="29.4277537" lon="105.1618868"><ele>327.88</ele><time>2026-02-10T22:01:17.000Z</time></trkpt>
        <trkpt lat="29.4278518" lon="105.161851"><ele>328.49</ele><time>2026-02-10T22:01:25.000Z</time></trkpt>
        <trkpt lat="29.427958" lon="105.1618263"><ele>329.19</ele><time>2026-02-10T22:01:33.000Z</time></trkpt>
        <trkpt lat="29.4280514" lon="105.1617944"><ele>329.94</ele><time>2026-02-10T22:01:43.000Z</time></trkpt>
        <trkpt lat="29.4281503" lon="105.1617577"><ele>330.04</ele><time>2026-02-10T22:01:55.000Z</time></trkpt>
        <trkpt lat="29.4282543" lon="105.1617193"><ele>330.3</ele><time>2026-02-10T22:02:05.000Z</time></trkpt>
        <trkpt lat="29.4283549" lon="105.161685"><ele>330.29</ele><time>2026-02-10T22:02:15.000Z</time></trkpt>
        <trkpt lat="29.428438" lon="105.1616287"><ele>330.25</ele><time>2026-02-10T22:02:23.000Z</time></trkpt>
        <trkpt lat="29.4285349" lon="105.1615738"><ele>330.3</ele><time>2026-02-10T22:02:31.000Z</time></trkpt>
        <trkpt lat="29.4286046" lon="105.1614946"><ele>330.28</ele><time>2026-02-10T22:02:57.000Z</time></trkpt>
        <trkpt lat="29.4286878" lon="105.1614396"><ele>330.53</ele><time>2026-02-10T22:03:03.000Z</time></trkpt>
        <trkpt lat="29.4287638" lon="105.161374"><ele>331.06</ele><time>2026-02-10T22:03:09.000Z</time></trkpt>
        <trkpt lat="29.42885" lon="105.1613036"><ele>331.85</ele><time>2026-02-10T22:03:19.000Z</time></trkpt>
        <trkpt lat="29.4289232" lon="105.16123"><ele>333.26</ele><time>2026-02-10T22:03:27.000Z</time></trkpt>
        <trkpt lat="29.4290093" lon="105.1611826"><ele>334.3</ele><time>2026-02-10T22:03:35.000Z</time></trkpt>
        <trkpt lat="29.4290868" lon="105.1611275"><ele>335.14</ele><time>2026-02-10T22:03:45.000Z</time></trkpt>
        <trkpt lat="29.4291508" lon="105.1610427"><ele>336</ele><time>2026-02-10T22:03:53.000Z</time></trkpt>
        <trkpt lat="29.4292153" lon="105.1609532"><ele>336.22</ele><time>2026-02-10T22:04:01.000Z</time></trkpt>
        <trkpt lat="29.4292735" lon="105.1608679"><ele>336.07</ele><time>2026-02-10T22:04:09.000Z</time></trkpt>
        <trkpt lat="29.4293437" lon="105.1607645"><ele>336.03</ele><time>2026-02-10T22:04:17.000Z</time></trkpt>
        <trkpt lat="29.4294132" lon="105.1606571"><ele>336.43</ele><time>2026-02-10T22:04:25.000Z</time></trkpt>
        <trkpt lat="29.4294934" lon="105.1605626"><ele>336.89</ele><time>2026-02-10T22:04:35.000Z</time></trkpt>
        <trkpt lat="29.4295473" lon="105.1604551"><ele>337.47</ele><time>2026-02-10T22:04:45.000Z</time></trkpt>
        <trkpt lat="29.4296257" lon="105.1603858"><ele>338.17</ele><time>2026-02-10T22:04:53.000Z</time></trkpt>
        <trkpt lat="29.4297254" lon="105.1603423"><ele>338.95</ele><time>2026-02-10T22:05:03.000Z</time></trkpt>
        <trkpt lat="29.4298369" lon="105.1603237"><ele>339.3</ele><time>2026-02-10T22:05:11.000Z</time></trkpt>
        <trkpt lat="29.42995" lon="105.1603018"><ele>338.74</ele><time>2026-02-10T22:05:19.000Z</time></trkpt>
        <trkpt lat="29.4300606" lon="105.160309"><ele>339.16</ele><time>2026-02-10T22:05:29.000Z</time></trkpt>
        <trkpt lat="29.4301637" lon="105.1603284"><ele>338.55</ele><time>2026-02-10T22:05:37.000Z</time></trkpt>
        <trkpt lat="29.4302559" lon="105.1603501"><ele>337.83</ele><time>2026-02-10T22:05:43.000Z</time></trkpt>
        <trkpt lat="29.4303543" lon="105.1603245"><ele>337.62</ele><time>2026-02-10T22:05:51.000Z</time></trkpt>
        <trkpt lat="29.430458" lon="105.1602693"><ele>337.97</ele><time>2026-02-10T22:05:59.000Z</time></trkpt>
        <trkpt lat="29.4305588" lon="105.1601927"><ele>338.95</ele><time>2026-02-10T22:06:07.000Z</time></trkpt>
        <trkpt lat="29.430649" lon="105.1601221"><ele>340.34</ele><time>2026-02-10T22:06:15.000Z</time></trkpt>
        <trkpt lat="29.4307326" lon="105.1600419"><ele>341.99</ele><time>2026-02-10T22:06:23.000Z</time></trkpt>
        <trkpt lat="29.4308141" lon="105.1599688"><ele>343.25</ele><time>2026-02-10T22:06:31.000Z</time></trkpt>
        <trkpt lat="29.4308913" lon="105.159899"><ele>344.27</ele><time>2026-02-10T22:06:39.000Z</time></trkpt>
        <trkpt lat="29.43096" lon="105.159819"><ele>344.59</ele><time>2026-02-10T22:06:47.000Z</time></trkpt>
        <trkpt lat="29.4310369" lon="105.1597321"><ele>344.9</ele><time>2026-02-10T22:06:57.000Z</time></trkpt>
        <trkpt lat="29.4311183" lon="105.1596457"><ele>345.13</ele><time>2026-02-10T22:07:07.000Z</time></trkpt>
        <trkpt lat="29.4311934" lon="105.1595661"><ele>345.47</ele><time>2026-02-10T22:07:15.000Z</time></trkpt>
        <trkpt lat="29.4312743" lon="105.1594923"><ele>345.84</ele><time>2026-02-10T22:07:23.000Z</time></trkpt>
        <trkpt lat="29.4313502" lon="105.1594059"><ele>345.83</ele><time>2026-02-10T22:07:31.000Z</time></trkpt>
        <trkpt lat="29.4314294" lon="105.1593113"><ele>346.18</ele><time>2026-02-10T22:07:39.000Z</time></trkpt>
        <trkpt lat="29.4314948" lon="105.1592052"><ele>346.86</ele><time>2026-02-10T22:07:47.000Z</time></trkpt>
        <trkpt lat="29.4315574" lon="105.159112"><ele>347.27</ele><time>2026-02-10T22:07:55.000Z</time></trkpt>
        <trkpt lat="29.4316318" lon="105.1590236"><ele>347.99</ele><time>2026-02-10T22:08:05.000Z</time></trkpt>
        <trkpt lat="29.4317027" lon="105.1589431"><ele>348.45</ele><time>2026-02-10T22:08:13.000Z</time></trkpt>
        <trkpt lat="29.4317704" lon="105.1588691"><ele>348.67</ele><time>2026-02-10T22:08:21.000Z</time></trkpt>
        <trkpt lat="29.4318406" lon="105.1587994"><ele>348.68</ele><time>2026-02-10T22:08:29.000Z</time></trkpt>
        <trkpt lat="29.4319152" lon="105.1587379"><ele>348.53</ele><time>2026-02-10T22:08:37.000Z</time></trkpt>
        <trkpt lat="29.4320033" lon="105.1586693"><ele>347.76</ele><time>2026-02-10T22:08:45.000Z</time></trkpt>
        <trkpt lat="29.4320849" lon="105.1586068"><ele>346.71</ele><time>2026-02-10T22:08:53.000Z</time></trkpt>
        <trkpt lat="29.4321683" lon="105.1585326"><ele>345.37</ele><time>2026-02-10T22:09:01.000Z</time></trkpt>
        <trkpt lat="29.4322461" lon="105.158462"><ele>344.35</ele><time>2026-02-10T22:09:07.000Z</time></trkpt>
        <trkpt lat="29.4323291" lon="105.1583886"><ele>343.78</ele><time>2026-02-10T22:09:15.000Z</time></trkpt>
        <trkpt lat="29.432423" lon="105.1583234"><ele>343.73</ele><time>2026-02-10T22:09:23.000Z</time></trkpt>
        <trkpt lat="29.4325153" lon="105.15826"><ele>343.02</ele><time>2026-02-10T22:09:31.000Z</time></trkpt>
        <trkpt lat="29.4326026" lon="105.1581943"><ele>343.18</ele><time>2026-02-10T22:09:39.000Z</time></trkpt>
        <trkpt lat="29.4326923" lon="105.1581259"><ele>343.52</ele><time>2026-02-10T22:09:47.000Z</time></trkpt>
        <trkpt lat="29.4327748" lon="105.158061"><ele>343.58</ele><time>2026-02-10T22:09:55.000Z</time></trkpt>
        <trkpt lat="29.4328561" lon="105.1580001"><ele>344.43</ele><time>2026-02-10T22:10:03.000Z</time></trkpt>
        <trkpt lat="29.4329444" lon="105.1579479"><ele>344.98</ele><time>2026-02-10T22:10:11.000Z</time></trkpt>
        <trkpt lat="29.4330254" lon="105.1578801"><ele>344.76</ele><time>2026-02-10T22:10:19.000Z</time></trkpt>
        <trkpt lat="29.4331192" lon="105.1578124"><ele>344.4</ele><time>2026-02-10T22:10:27.000Z</time></trkpt>
        <trkpt lat="29.433212" lon="105.1577419"><ele>344.33</ele><time>2026-02-10T22:10:35.000Z</time></trkpt>
        <trkpt lat="29.4333055" lon="105.1576734"><ele>344.29</ele><time>2026-02-10T22:10:43.000Z</time></trkpt>
        <trkpt lat="29.4333901" lon="105.1576022"><ele>344.19</ele><time>2026-02-10T22:10:51.000Z</time></trkpt>
        <trkpt lat="29.4334649" lon="105.157535"><ele>343.87</ele><time>2026-02-10T22:10:59.000Z</time></trkpt>
        <trkpt lat="29.4335487" lon="105.1574543"><ele>343.79</ele><time>2026-02-10T22:11:07.000Z</time></trkpt>
        <trkpt lat="29.4336339" lon="105.1573798"><ele>343.8</ele><time>2026-02-10T22:11:15.000Z</time></trkpt>
        <trkpt lat="29.4337172" lon="105.1573116"><ele>343.62</ele><time>2026-02-10T22:11:23.000Z</time></trkpt>
        <trkpt lat="29.4338017" lon="105.1572389"><ele>343.08</ele><time>2026-02-10T22:11:31.000Z</time></trkpt>
        <trkpt lat="29.4338849" lon="105.1571714"><ele>343.36</ele><time>2026-02-10T22:11:39.000Z</time></trkpt>
        <trkpt lat="29.4339713" lon="105.1570936"><ele>343.78</ele><time>2026-02-10T22:11:53.000Z</time></trkpt>
        <trkpt lat="29.4340533" lon="105.1570165"><ele>343.99</ele><time>2026-02-10T22:12:01.000Z</time></trkpt>
        <trkpt lat="29.4341316" lon="105.1569318"><ele>343.99</ele><time>2026-02-10T22:12:09.000Z</time></trkpt>
        <trkpt lat="29.4342057" lon="105.1568502"><ele>343.96</ele><time>2026-02-10T22:12:17.000Z</time></trkpt>
        <trkpt lat="29.4342757" lon="105.156762"><ele>344.15</ele><time>2026-02-10T22:12:25.000Z</time></trkpt>
        <trkpt lat="29.4343349" lon="105.1566791"><ele>344.25</ele><time>2026-02-10T22:12:33.000Z</time></trkpt>
        <trkpt lat="29.4343856" lon="105.1565845"><ele>343.95</ele><time>2026-02-10T22:12:41.000Z</time></trkpt>
        <trkpt lat="29.4344348" lon="105.1564751"><ele>343.56</ele><time>2026-02-10T22:12:49.000Z</time></trkpt>
        <trkpt lat="29.4344936" lon="105.1563653"><ele>343.45</ele><time>2026-02-10T22:12:57.000Z</time></trkpt>
        <trkpt lat="29.4345475" lon="105.1562666"><ele>343.9</ele><time>2026-02-10T22:13:05.000Z</time></trkpt>
        <trkpt lat="29.4345958" lon="105.1561733"><ele>344.68</ele><time>2026-02-10T22:13:13.000Z</time></trkpt>
        <trkpt lat="29.4346412" lon="105.1560685"><ele>344.93</ele><time>2026-02-10T22:13:23.000Z</time></trkpt>
        <trkpt lat="29.4346923" lon="105.1559652"><ele>345.14</ele><time>2026-02-10T22:13:31.000Z</time></trkpt>
        <trkpt lat="29.4347373" lon="105.1558619"><ele>345.5</ele><time>2026-02-10T22:13:39.000Z</time></trkpt>
        <trkpt lat="29.4347783" lon="105.1557631"><ele>345.54</ele><time>2026-02-10T22:13:47.000Z</time></trkpt>
        <trkpt lat="29.4348241" lon="105.1556608"><ele>345.14</ele><time>2026-02-10T22:13:55.000Z</time></trkpt>
        <trkpt lat="29.4348701" lon="105.1555404"><ele>344.67</ele><time>2026-02-10T22:14:03.000Z</time></trkpt>
        <trkpt lat="29.434902" lon="105.1554168"><ele>344.28</ele><time>2026-02-10T22:14:11.000Z</time></trkpt>
        <trkpt lat="29.4349288" lon="105.1553061"><ele>344.63</ele><time>2026-02-10T22:14:19.000Z</time></trkpt>
        <trkpt lat="29.4349546" lon="105.1551956"><ele>344.63</ele><time>2026-02-10T22:14:27.000Z</time></trkpt>
        <trkpt lat="29.4349713" lon="105.1550757"><ele>344.78</ele><time>2026-02-10T22:14:35.000Z</time></trkpt>
        <trkpt lat="29.4349824" lon="105.1549655"><ele>345.24</ele><time>2026-02-10T22:14:43.000Z</time></trkpt>
        <trkpt lat="29.4349741" lon="105.1548467"><ele>345.23</ele><time>2026-02-10T22:14:53.000Z</time></trkpt>
        <trkpt lat="29.4349651" lon="105.1547319"><ele>344.88</ele><time>2026-02-10T22:15:01.000Z</time></trkpt>
        <trkpt lat="29.434954" lon="105.154617"><ele>345.34</ele><time>2026-02-10T22:15:09.000Z</time></trkpt>
        <trkpt lat="29.4349383" lon="105.1545008"><ele>346.08</ele><time>2026-02-10T22:15:17.000Z</time></trkpt>
        <trkpt lat="29.4349379" lon="105.1543903"><ele>345.66</ele><time>2026-02-10T22:15:25.000Z</time></trkpt>
        <trkpt lat="29.4349385" lon="105.1542702"><ele>344.49</ele><time>2026-02-10T22:15:35.000Z</time></trkpt>
        <trkpt lat="29.4349279" lon="105.1541476"><ele>343.53</ele><time>2026-02-10T22:15:43.000Z</time></trkpt>
        <trkpt lat="29.4349404" lon="105.1540221"><ele>342.91</ele><time>2026-02-10T22:15:53.000Z</time></trkpt>
        <trkpt lat="29.4349954" lon="105.1539274"><ele>342.32</ele><time>2026-02-10T22:15:57.000Z</time></trkpt>
        <trkpt lat="29.4350374" lon="105.1538132"><ele>341.68</ele><time>2026-02-10T22:16:05.000Z</time></trkpt>
        <trkpt lat="29.4350679" lon="105.1537085"><ele>341.24</ele><time>2026-02-10T22:16:11.000Z</time></trkpt>
        <trkpt lat="29.4351145" lon="105.1536148"><ele>340.91</ele><time>2026-02-10T22:16:17.000Z</time></trkpt>
        <trkpt lat="29.4351847" lon="105.1535182"><ele>340.44</ele><time>2026-02-10T22:16:25.000Z</time></trkpt>
        <trkpt lat="29.4352558" lon="105.1534385"><ele>340.05</ele><time>2026-02-10T22:16:33.000Z</time></trkpt>
        <trkpt lat="29.4353227" lon="105.1533608"><ele>339.55</ele><time>2026-02-10T22:16:41.000Z</time></trkpt>
        <trkpt lat="29.4353943" lon="105.1532695"><ele>339.16</ele><time>2026-02-10T22:16:49.000Z</time></trkpt>
        <trkpt lat="29.4354727" lon="105.1531812"><ele>339.08</ele><time>2026-02-10T22:16:57.000Z</time></trkpt>
        <trkpt lat="29.4355445" lon="105.1530808"><ele>339.26</ele><time>2026-02-10T22:17:05.000Z</time></trkpt>
        <trkpt lat="29.4356115" lon="105.1529978"><ele>339.44</ele><time>2026-02-10T22:17:15.000Z</time></trkpt>
        <trkpt lat="29.4356801" lon="105.152905"><ele>339.02</ele><time>2026-02-10T22:17:23.000Z</time></trkpt>
        <trkpt lat="29.43574" lon="105.1528191"><ele>338.3</ele><time>2026-02-10T22:17:29.000Z</time></trkpt>
        <trkpt lat="29.4358048" lon="105.1527247"><ele>338.05</ele><time>2026-02-10T22:17:37.000Z</time></trkpt>
        <trkpt lat="29.4358922" lon="105.1526473"><ele>338.2</ele><time>2026-02-10T22:17:45.000Z</time></trkpt>
        <trkpt lat="29.4359817" lon="105.1525564"><ele>337.89</ele><time>2026-02-10T22:17:53.000Z</time></trkpt>
        <trkpt lat="29.4360584" lon="105.1524608"><ele>337.88</ele><time>2026-02-10T22:18:01.000Z</time></trkpt>
        <trkpt lat="29.4361393" lon="105.1523664"><ele>337.9</ele><time>2026-02-10T22:18:09.000Z</time></trkpt>
        <trkpt lat="29.436197" lon="105.1522739"><ele>338.1</ele><time>2026-02-10T22:18:17.000Z</time></trkpt>
        <trkpt lat="29.4362546" lon="105.1521845"><ele>337.93</ele><time>2026-02-10T22:18:45.000Z</time></trkpt>
        <trkpt lat="29.4363123" lon="105.1521024"><ele>338.03</ele><time>2026-02-10T22:18:55.000Z</time></trkpt>
        <trkpt lat="29.4364002" lon="105.1520295"><ele>338.34</ele><time>2026-02-10T22:19:05.000Z</time></trkpt>
        <trkpt lat="29.4364745" lon="105.1519371"><ele>339.2</ele><time>2026-02-10T22:19:13.000Z</time></trkpt>
        <trkpt lat="29.43654" lon="105.1518415"><ele>339.64</ele><time>2026-02-10T22:19:21.000Z</time></trkpt>
        <trkpt lat="29.4366012" lon="105.1517473"><ele>339.93</ele><time>2026-02-10T22:19:29.000Z</time></trkpt>
        <trkpt lat="29.4366677" lon="105.1516591"><ele>339.89</ele><time>2026-02-10T22:19:37.000Z</time></trkpt>
        <trkpt lat="29.4367356" lon="105.1515803"><ele>339.67</ele><time>2026-02-10T22:19:45.000Z</time></trkpt>
        <trkpt lat="29.436814" lon="105.1514863"><ele>339.24</ele><time>2026-02-10T22:19:53.000Z</time></trkpt>
        <trkpt lat="29.4368789" lon="105.1513993"><ele>339.44</ele><time>2026-02-10T22:19:59.000Z</time></trkpt>
        <trkpt lat="29.4369578" lon="105.1513025"><ele>339.84</ele><time>2026-02-10T22:20:07.000Z</time></trkpt>
        <trkpt lat="29.4370328" lon="105.1512183"><ele>340.1</ele><time>2026-02-10T22:20:15.000Z</time></trkpt>
        <trkpt lat="29.4370973" lon="105.1511402"><ele>340.46</ele><time>2026-02-10T22:20:23.000Z</time></trkpt>
        <trkpt lat="29.4371721" lon="105.1510573"><ele>340.01</ele><time>2026-02-10T22:20:31.000Z</time></trkpt>
        <trkpt lat="29.4372557" lon="105.1509829"><ele>340.04</ele><time>2026-02-10T22:20:39.000Z</time></trkpt>
        <trkpt lat="29.4373482" lon="105.1509157"><ele>340.47</ele><time>2026-02-10T22:20:47.000Z</time></trkpt>
        <trkpt lat="29.4374397" lon="105.1508448"><ele>341.12</ele><time>2026-02-10T22:20:55.000Z</time></trkpt>
        <trkpt lat="29.4375268" lon="105.150768"><ele>342.16</ele><time>2026-02-10T22:21:05.000Z</time></trkpt>
        <trkpt lat="29.4376123" lon="105.1507231"><ele>344.03</ele><time>2026-02-10T22:21:11.000Z</time></trkpt>
        <trkpt lat="29.4377135" lon="105.1506635"><ele>345.42</ele><time>2026-02-10T22:21:21.000Z</time></trkpt>
        <trkpt lat="29.4378052" lon="105.1505799"><ele>346.03</ele><time>2026-02-10T22:21:29.000Z</time></trkpt>
        <trkpt lat="29.4379" lon="105.1504992"><ele>345.73</ele><time>2026-02-10T22:21:37.000Z</time></trkpt>
        <trkpt lat="29.4379893" lon="105.1504314"><ele>345.48</ele><time>2026-02-10T22:21:43.000Z</time></trkpt>
        <trkpt lat="29.4380884" lon="105.1503692"><ele>345.75</ele><time>2026-02-10T22:21:51.000Z</time></trkpt>
        <trkpt lat="29.4381834" lon="105.1503059"><ele>346.51</ele><time>2026-02-10T22:22:01.000Z</time></trkpt>
        <trkpt lat="29.4382786" lon="105.1502411"><ele>346.84</ele><time>2026-02-10T22:22:09.000Z</time></trkpt>
        <trkpt lat="29.4383682" lon="105.1501965"><ele>346.33</ele><time>2026-02-10T22:22:15.000Z</time></trkpt>
        <trkpt lat="29.4384628" lon="105.1501451"><ele>346.1</ele><time>2026-02-10T22:22:23.000Z</time></trkpt>
        <trkpt lat="29.4385588" lon="105.1500892"><ele>345.83</ele><time>2026-02-10T22:22:31.000Z</time></trkpt>
        <trkpt lat="29.4386519" lon="105.1500414"><ele>345.98</ele><time>2026-02-10T22:22:39.000Z</time></trkpt>
        <trkpt lat="29.4387526" lon="105.1499895"><ele>345.96</ele><time>2026-02-10T22:22:47.000Z</time></trkpt>
        <trkpt lat="29.4388511" lon="105.1499429"><ele>346.42</ele><time>2026-02-10T22:22:55.000Z</time></trkpt>
        <trkpt lat="29.4389405" lon="105.1499063"><ele>346.67</ele><time>2026-02-10T22:23:01.000Z</time></trkpt>
        <trkpt lat="29.4390391" lon="105.1498643"><ele>346.83</ele><time>2026-02-10T22:23:09.000Z</time></trkpt>
        <trkpt lat="29.4391396" lon="105.1498146"><ele>346.9</ele><time>2026-02-10T22:23:17.000Z</time></trkpt>
        <trkpt lat="29.4392417" lon="105.1497754"><ele>346.89</ele><time>2026-02-10T22:23:25.000Z</time></trkpt>
        <trkpt lat="29.4393479" lon="105.1497568"><ele>347.3</ele><time>2026-02-10T22:23:33.000Z</time></trkpt>
        <trkpt lat="29.4394483" lon="105.1497343"><ele>347.95</ele><time>2026-02-10T22:23:41.000Z</time></trkpt>
        <trkpt lat="29.4395419" lon="105.1496902"><ele>348.03</ele><time>2026-02-10T22:23:47.000Z</time></trkpt>
        <trkpt lat="29.4396388" lon="105.1496562"><ele>348.55</ele><time>2026-02-10T22:24:01.000Z</time></trkpt>
        <trkpt lat="29.4397376" lon="105.1496361"><ele>349.32</ele><time>2026-02-10T22:24:09.000Z</time></trkpt>
        <trkpt lat="29.43984" lon="105.1496317"><ele>349.82</ele><time>2026-02-10T22:24:15.000Z</time></trkpt>
        <trkpt lat="29.4399355" lon="105.1496151"><ele>350.12</ele><time>2026-02-10T22:24:21.000Z</time></trkpt>
        <trkpt lat="29.4400229" lon="105.1495666"><ele>349.99</ele><time>2026-02-10T22:24:29.000Z</time></trkpt>
        <trkpt lat="29.4401216" lon="105.1495294"><ele>350.45</ele><time>2026-02-10T22:24:37.000Z</time></trkpt>
        <trkpt lat="29.4402164" lon="105.1494971"><ele>351.11</ele><time>2026-02-10T22:24:45.000Z</time></trkpt>
        <trkpt lat="29.4403228" lon="105.1494763"><ele>351.11</ele><time>2026-02-10T22:24:53.000Z</time></trkpt>
        <trkpt lat="29.4404289" lon="105.149405"><ele>350.88</ele><time>2026-02-10T22:25:01.000Z</time></trkpt>
        <trkpt lat="29.4405298" lon="105.1493333"><ele>350.55</ele><time>2026-02-10T22:25:09.000Z</time></trkpt>
        <trkpt lat="29.4406298" lon="105.1492904"><ele>350.4</ele><time>2026-02-10T22:25:17.000Z</time></trkpt>
        <trkpt lat="29.440718" lon="105.1492531"><ele>350.44</ele><time>2026-02-10T22:25:23.000Z</time></trkpt>
        <trkpt lat="29.4408077" lon="105.1492252"><ele>350.41</ele><time>2026-02-10T22:25:31.000Z</time></trkpt>
        <trkpt lat="29.4409005" lon="105.1492197"><ele>350.33</ele><time>2026-02-10T22:25:39.000Z</time></trkpt>
        <trkpt lat="29.4409985" lon="105.1492016"><ele>349.33</ele><time>2026-02-10T22:25:47.000Z</time></trkpt>
        <trkpt lat="29.4411101" lon="105.1491974"><ele>348.12</ele><time>2026-02-10T22:25:55.000Z</time></trkpt>
        <trkpt lat="29.4412127" lon="105.1491858"><ele>347.29</ele><time>2026-02-10T22:26:05.000Z</time></trkpt>
        <trkpt lat="29.4413046" lon="105.1491659"><ele>346.37</ele><time>2026-02-10T22:26:13.000Z</time></trkpt>
        <trkpt lat="29.4414081" lon="105.1491362"><ele>345.72</ele><time>2026-02-10T22:26:21.000Z</time></trkpt>
        <trkpt lat="29.4415215" lon="105.1491111"><ele>344.94</ele><time>2026-02-10T22:26:27.000Z</time></trkpt>
        <trkpt lat="29.4416179" lon="105.1490866"><ele>345.02</ele><time>2026-02-10T22:26:33.000Z</time></trkpt>
        <trkpt lat="29.4417045" lon="105.1490533"><ele>345.28</ele><time>2026-02-10T22:26:41.000Z</time></trkpt>
        <trkpt lat="29.4417836" lon="105.1490011"><ele>345.87</ele><time>2026-02-10T22:26:49.000Z</time></trkpt>
        <trkpt lat="29.4418632" lon="105.1489197"><ele>346.43</ele><time>2026-02-10T22:26:57.000Z</time></trkpt>
        <trkpt lat="29.4419208" lon="105.1488259"><ele>347.12</ele><time>2026-02-10T22:27:05.000Z</time></trkpt>
        <trkpt lat="29.4419753" lon="105.1487161"><ele>347.87</ele><time>2026-02-10T22:27:15.000Z</time></trkpt>
        <trkpt lat="29.4420232" lon="105.1485976"><ele>348.56</ele><time>2026-02-10T22:27:23.000Z</time></trkpt>
        <trkpt lat="29.4420755" lon="105.1485045"><ele>349.39</ele><time>2026-02-10T22:27:31.000Z</time></trkpt>
        <trkpt lat="29.4421313" lon="105.1484179"><ele>350.18</ele><time>2026-02-10T22:27:39.000Z</time></trkpt>
        <trkpt lat="29.4421882" lon="105.148332"><ele>350.63</ele><time>2026-02-10T22:27:47.000Z</time></trkpt>
        <trkpt lat="29.4422467" lon="105.1482441"><ele>351.07</ele><time>2026-02-10T22:27:55.000Z</time></trkpt>
        <trkpt lat="29.4422932" lon="105.1481295"><ele>351.26</ele><time>2026-02-10T22:28:05.000Z</time></trkpt>
        <trkpt lat="29.4423436" lon="105.1480122"><ele>351.12</ele><time>2026-02-10T22:28:13.000Z</time></trkpt>
        <trkpt lat="29.442399" lon="105.147905"><ele>350.89</ele><time>2026-02-10T22:28:21.000Z</time></trkpt>
        <trkpt lat="29.4424778" lon="105.1478211"><ele>350.66</ele><time>2026-02-10T22:28:29.000Z</time></trkpt>
        <trkpt lat="29.4425588" lon="105.1477433"><ele>350.44</ele><time>2026-02-10T22:28:37.000Z</time></trkpt>
        <trkpt lat="29.442647" lon="105.1477028"><ele>349.8</ele><time>2026-02-10T22:28:43.000Z</time></trkpt>
        <trkpt lat="29.4427528" lon="105.1476867"><ele>349.31</ele><time>2026-02-10T22:28:47.000Z</time></trkpt>
        <trkpt lat="29.442862" lon="105.1476434"><ele>349.2</ele><time>2026-02-10T22:28:53.000Z</time></trkpt>
        <trkpt lat="29.4429602" lon="105.1475871"><ele>349.25</ele><time>2026-02-10T22:29:01.000Z</time></trkpt>
        <trkpt lat="29.4430562" lon="105.1475616"><ele>348.57</ele><time>2026-02-10T22:29:09.000Z</time></trkpt>
        <trkpt lat="29.4431639" lon="105.147535"><ele>348.11</ele><time>2026-02-10T22:29:17.000Z</time></trkpt>
        <trkpt lat="29.4432756" lon="105.1475083"><ele>347.96</ele><time>2026-02-10T22:29:25.000Z</time></trkpt>
        <trkpt lat="29.4433725" lon="105.1474927"><ele>347.79</ele><time>2026-02-10T22:29:31.000Z</time></trkpt>
        <trkpt lat="29.4434763" lon="105.1474783"><ele>347.43</ele><time>2026-02-10T22:29:39.000Z</time></trkpt>
        <trkpt lat="29.44357" lon="105.1474435"><ele>347.34</ele><time>2026-02-10T22:29:47.000Z</time></trkpt>
        <trkpt lat="29.4436901" lon="105.147401"><ele>346.72</ele><time>2026-02-10T22:29:55.000Z</time></trkpt>
        <trkpt lat="29.4437998" lon="105.1473678"><ele>345.9</ele><time>2026-02-10T22:29:59.000Z</time></trkpt>
        <trkpt lat="29.4439029" lon="105.1473482"><ele>345.43</ele><time>2026-02-10T22:30:03.000Z</time></trkpt>
        <trkpt lat="29.4440281" lon="105.1473289"><ele>345.27</ele><time>2026-02-10T22:30:09.000Z</time></trkpt>
        <trkpt lat="29.4441536" lon="105.1473075"><ele>344.98</ele><time>2026-02-10T22:30:15.000Z</time></trkpt>
        <trkpt lat="29.4442666" lon="105.1473004"><ele>344.99</ele><time>2026-02-10T22:30:21.000Z</time></trkpt>
        <trkpt lat="29.4443666" lon="105.1472924"><ele>344.94</ele><time>2026-02-10T22:30:27.000Z</time></trkpt>
        <trkpt lat="29.4444864" lon="105.1472732"><ele>344.87</ele><time>2026-02-10T22:30:33.000Z</time></trkpt>
        <trkpt lat="29.4445959" lon="105.1472675"><ele>344.62</ele><time>2026-02-10T22:30:39.000Z</time></trkpt>
        <trkpt lat="29.4447033" lon="105.1472736"><ele>344.32</ele><time>2026-02-10T22:30:47.000Z</time></trkpt>
        <trkpt lat="29.4448079" lon="105.1472753"><ele>343.62</ele><time>2026-02-10T22:30:55.000Z</time></trkpt>
        <trkpt lat="29.4449056" lon="105.1472369"><ele>342.97</ele><time>2026-02-10T22:31:03.000Z</time></trkpt>
        <trkpt lat="29.445017" lon="105.1472285"><ele>342.34</ele><time>2026-02-10T22:31:11.000Z</time></trkpt>
        <trkpt lat="29.4451257" lon="105.1472242"><ele>342.12</ele><time>2026-02-10T22:31:19.000Z</time></trkpt>
        <trkpt lat="29.4452306" lon="105.1472085"><ele>342.03</ele><time>2026-02-10T22:31:29.000Z</time></trkpt>
        <trkpt lat="29.4453341" lon="105.1471809"><ele>341.72</ele><time>2026-02-10T22:31:37.000Z</time></trkpt>
        <trkpt lat="29.4454312" lon="105.1471489"><ele>341.47</ele><time>2026-02-10T22:31:43.000Z</time></trkpt>
        <trkpt lat="29.4455301" lon="105.1471367"><ele>340.83</ele><time>2026-02-10T22:31:49.000Z</time></trkpt>
        <trkpt lat="29.4456087" lon="105.1470736"><ele>340</ele><time>2026-02-10T22:32:01.000Z</time></trkpt>
        <trkpt lat="29.4456806" lon="105.1470068"><ele>339.29</ele><time>2026-02-10T22:32:09.000Z</time></trkpt>
        <trkpt lat="29.4457521" lon="105.1469365"><ele>338.79</ele><time>2026-02-10T22:32:17.000Z</time></trkpt>
        <trkpt lat="29.4458038" lon="105.1468336"><ele>338.2</ele><time>2026-02-10T22:32:25.000Z</time></trkpt>
        <trkpt lat="29.4458706" lon="105.1467391"><ele>337.12</ele><time>2026-02-10T22:32:31.000Z</time></trkpt>
        <trkpt lat="29.4459108" lon="105.1466233"><ele>336.91</ele><time>2026-02-10T22:32:39.000Z</time></trkpt>
        <trkpt lat="29.4459264" lon="105.1465014"><ele>336.76</ele><time>2026-02-10T22:32:47.000Z</time></trkpt>
        <trkpt lat="29.4459352" lon="105.1463706"><ele>336.69</ele><time>2026-02-10T22:32:55.000Z</time></trkpt>
        <trkpt lat="29.4459298" lon="105.1462394"><ele>337.64</ele><time>2026-02-10T22:33:03.000Z</time></trkpt>
        <trkpt lat="29.4459034" lon="105.1461319"><ele>339.82</ele><time>2026-02-10T22:33:09.000Z</time></trkpt>
        <trkpt lat="29.4458518" lon="105.146024"><ele>340.97</ele><time>2026-02-10T22:33:17.000Z</time></trkpt>
        <trkpt lat="29.4457751" lon="105.1459271"><ele>341.53</ele><time>2026-02-10T22:33:25.000Z</time></trkpt>
        <trkpt lat="29.4457148" lon="105.1458289"><ele>341.16</ele><time>2026-02-10T22:33:33.000Z</time></trkpt>
        <trkpt lat="29.4456707" lon="105.1457215"><ele>340.68</ele><time>2026-02-10T22:33:41.000Z</time></trkpt>
        <trkpt lat="29.4456333" lon="105.1456215"><ele>340.45</ele><time>2026-02-10T22:34:03.000Z</time></trkpt>
        <trkpt lat="29.4455861" lon="105.1455183"><ele>339.31</ele><time>2026-02-10T22:34:11.000Z</time></trkpt>
        <trkpt lat="29.4455472" lon="105.1454108"><ele>338.04</ele><time>2026-02-10T22:34:19.000Z</time></trkpt>
        <trkpt lat="29.4455501" lon="105.145298"><ele>336.58</ele><time>2026-02-10T22:34:27.000Z</time></trkpt>
        <trkpt lat="29.4455523" lon="105.1451831"><ele>334.78</ele><time>2026-02-10T22:34:35.000Z</time></trkpt>
        <trkpt lat="29.4455923" lon="105.1450864"><ele>332.55</ele><time>2026-02-10T22:34:47.000Z</time></trkpt>
        <trkpt lat="29.4456903" lon="105.1450766"><ele>330.58</ele><time>2026-02-10T22:34:55.000Z</time></trkpt>
        <trkpt lat="29.4458025" lon="105.1451047"><ele>329.31</ele><time>2026-02-10T22:35:01.000Z</time></trkpt>
        <trkpt lat="29.4459081" lon="105.1451117"><ele>329.68</ele><time>2026-02-10T22:35:11.000Z</time></trkpt>
        <trkpt lat="29.4460012" lon="105.145078"><ele>330.37</ele><time>2026-02-10T22:35:19.000Z</time></trkpt>
        <trkpt lat="29.44605" lon="105.1449849"><ele>329.78</ele><time>2026-02-10T22:35:29.000Z</time></trkpt>
        <trkpt lat="29.4461217" lon="105.1448764"><ele>328.59</ele><time>2026-02-10T22:35:51.000Z</time></trkpt>
        <trkpt lat="29.4461715" lon="105.1447621"><ele>331.05</ele><time>2026-02-10T22:36:03.000Z</time></trkpt>
        <trkpt lat="29.4461931" lon="105.1446483"><ele>334.35</ele><time>2026-02-10T22:36:11.000Z</time></trkpt>
        <trkpt lat="29.446216" lon="105.1445411"><ele>335.82</ele><time>2026-02-10T22:36:21.000Z</time></trkpt>
        <trkpt lat="29.4462451" lon="105.1444298"><ele>336.2</ele><time>2026-02-10T22:36:31.000Z</time></trkpt>
        <trkpt lat="29.4462731" lon="105.1443224"><ele>336.71</ele><time>2026-02-10T22:36:39.000Z</time></trkpt>
        <trkpt lat="29.4463147" lon="105.1442145"><ele>336.9</ele><time>2026-02-10T22:36:47.000Z</time></trkpt>
        <trkpt lat="29.4463763" lon="105.1441131"><ele>336.53</ele><time>2026-02-10T22:36:55.000Z</time></trkpt>
        <trkpt lat="29.4464471" lon="105.1440196"><ele>336.16</ele><time>2026-02-10T22:37:05.000Z</time></trkpt>
        <trkpt lat="29.446506" lon="105.1439293"><ele>335.47</ele><time>2026-02-10T22:37:13.000Z</time></trkpt>
        <trkpt lat="29.4465591" lon="105.1438423"><ele>334.53</ele><time>2026-02-10T22:37:21.000Z</time></trkpt>
        <trkpt lat="29.4466054" lon="105.1437525"><ele>333.77</ele><time>2026-02-10T22:37:31.000Z</time></trkpt>
        <trkpt lat="29.446662" lon="105.1436534"><ele>333.41</ele><time>2026-02-10T22:37:39.000Z</time></trkpt>
        <trkpt lat="29.4467344" lon="105.1435751"><ele>333.45</ele><time>2026-02-10T22:37:49.000Z</time></trkpt>
        <trkpt lat="29.4468176" lon="105.1435099"><ele>333.88</ele><time>2026-02-10T22:37:59.000Z</time></trkpt>
        <trkpt lat="29.4468906" lon="105.1434279"><ele>334</ele><time>2026-02-10T22:38:07.000Z</time></trkpt>
        <trkpt lat="29.4469802" lon="105.1433666"><ele>333.68</ele><time>2026-02-10T22:38:15.000Z</time></trkpt>
        <trkpt lat="29.4470682" lon="105.1433883"><ele>333.04</ele><time>2026-02-10T22:38:33.000Z</time></trkpt>
        <trkpt lat="29.4471549" lon="105.1434368"><ele>331.48</ele><time>2026-02-10T22:38:43.000Z</time></trkpt>
        <trkpt lat="29.4472457" lon="105.1435106"><ele>329.33</ele><time>2026-02-10T22:38:51.000Z</time></trkpt>
        <trkpt lat="29.4473225" lon="105.143584"><ele>327.78</ele><time>2026-02-10T22:38:59.000Z</time></trkpt>
        <trkpt lat="29.4474072" lon="105.1436696"><ele>326.52</ele><time>2026-02-10T22:39:09.000Z</time></trkpt>
        <trkpt lat="29.4474642" lon="105.1437626"><ele>325.5</ele><time>2026-02-10T22:39:17.000Z</time></trkpt>
        <trkpt lat="29.4475265" lon="105.1438425"><ele>325.43</ele><time>2026-02-10T22:39:25.000Z</time></trkpt>
        <trkpt lat="29.4476015" lon="105.1439295"><ele>325.38</ele><time>2026-02-10T22:39:35.000Z</time></trkpt>
        <trkpt lat="29.4475853" lon="105.1438834"><ele>324.84</ele><time>2026-02-10T22:39:49.000Z</time></trkpt>
        <trkpt lat="29.4475216" lon="105.1437954"><ele>326.72</ele><time>2026-02-10T22:39:55.000Z</time></trkpt>
        <trkpt lat="29.4474384" lon="105.1436993"><ele>328.16</ele><time>2026-02-10T22:40:03.000Z</time></trkpt>
        <trkpt lat="29.4473515" lon="105.1436116"><ele>328.82</ele><time>2026-02-10T22:40:11.000Z</time></trkpt>
        <trkpt lat="29.4472696" lon="105.143533"><ele>328.72</ele><time>2026-02-10T22:40:19.000Z</time></trkpt>
        <trkpt lat="29.447182" lon="105.1434793"><ele>328.38</ele><time>2026-02-10T22:40:27.000Z</time></trkpt>
        <trkpt lat="29.4471178" lon="105.143406"><ele>327.25</ele><time>2026-02-10T22:40:33.000Z</time></trkpt>
        <trkpt lat="29.4470638" lon="105.143316"><ele>326.23</ele><time>2026-02-10T22:40:43.000Z</time></trkpt>
        <trkpt lat="29.4469952" lon="105.1432394"><ele>325.15</ele><time>2026-02-10T22:40:51.000Z</time></trkpt>
        <trkpt lat="29.4469151" lon="105.1431677"><ele>324.79</ele><time>2026-02-10T22:40:59.000Z</time></trkpt>
        <trkpt lat="29.4468491" lon="105.143089"><ele>325.25</ele><time>2026-02-10T22:41:09.000Z</time></trkpt>
        <trkpt lat="29.4467569" lon="105.1430622"><ele>326.28</ele><time>2026-02-10T22:41:15.000Z</time></trkpt>
        <trkpt lat="29.4466527" lon="105.1430462"><ele>327.23</ele><time>2026-02-10T22:41:37.000Z</time></trkpt>
        <trkpt lat="29.4465835" lon="105.1429675"><ele>330.89</ele><time>2026-02-10T22:41:43.000Z</time></trkpt>
        <trkpt lat="29.4465835" lon="105.1429675"><ele>330.89</ele><time>2026-02-10T22:42:17.000Z</time></trkpt>
        <trkpt lat="29.446632" lon="105.142983"><ele>332.61</ele><time>2026-02-10T22:42:18.000Z</time></trkpt>
        <trkpt lat="29.446632" lon="105.142983"><ele>332.61</ele><time>2026-02-10T22:42:37.000Z</time></trkpt>
        <trkpt lat="29.4466675" lon="105.14299"><ele>333.64</ele><time>2026-02-10T22:42:45.000Z</time></trkpt>
        <trkpt lat="29.4466066" lon="105.1430594"><ele>334.26</ele><time>2026-02-10T22:42:49.000Z</time></trkpt>
        <trkpt lat="29.4464953" lon="105.1430967"><ele>334.61</ele><time>2026-02-10T22:42:55.000Z</time></trkpt>
        <trkpt lat="29.4464459" lon="105.1430188"><ele>334.81</ele><time>2026-02-10T22:43:05.000Z</time></trkpt>
        <trkpt lat="29.4464459" lon="105.1430188"><ele>334.81</ele><time>2026-02-10T22:43:47.000Z</time></trkpt>
        <trkpt lat="29.4464459" lon="105.1430188"><ele>334.81</ele><time>2026-02-10T22:44:20.000Z</time></trkpt>
        <trkpt lat="29.4464459" lon="105.1430188"><ele>334.81</ele><time>2026-02-10T22:44:41.000Z</time></trkpt>
        <trkpt lat="29.4464459" lon="105.1430188"><ele>334.81</ele><time>2026-02-10T22:44:42.000Z</time></trkpt>
        <trkpt lat="29.4464459" lon="105.1430188"><ele>334.81</ele><time>2026-02-10T22:45:35.000Z</time></trkpt>
        <trkpt lat="29.4464459" lon="105.1430188"><ele>334.81</ele><time>2026-02-10T22:45:38.000Z</time></trkpt>
        <trkpt lat="29.4464459" lon="105.1430188"><ele>334.81</ele><time>2026-02-10T22:45:49.000Z</time></trkpt>
        <trkpt lat="29.4464459" lon="105.1430188"><ele>334.81</ele><time>2026-02-10T22:45:50.000Z</time></trkpt>
        <trkpt lat="29.4464459" lon="105.1430188"><ele>334.81</ele><time>2026-02-10T22:46:19.000Z</time></trkpt>
        <trkpt lat="29.4464459" lon="105.1430188"><ele>334.81</ele><time>2026-02-10T22:48:38.000Z</time></trkpt>
        <trkpt lat="29.4464459" lon="105.1430188"><ele>334.81</ele><time>2026-02-10T22:48:49.000Z</time></trkpt>
        <trkpt lat="29.4464459" lon="105.1430188"><ele>334.81</ele><time>2026-02-10T23:02:27.000Z</time></trkpt>
        <trkpt lat="29.4464459" lon="105.1430188"><ele>334.81</ele><time>2026-02-10T23:02:35.000Z</time></trkpt>
        <trkpt lat="29.4464459" lon="105.1430188"><ele>334.81</ele><time>2026-02-10T23:02:36.000Z</time></trkpt>
        <trkpt lat="29.4464459" lon="105.1430188"><ele>334.81</ele><time>2026-02-10T23:02:47.000Z</time></trkpt>
        <trkpt lat="29.4464459" lon="105.1430188"><ele>334.81</ele><time>2026-02-10T23:06:54.000Z</time></trkpt>
        <trkpt lat="29.4464459" lon="105.1430188"><ele>334.81</ele><time>2026-02-10T23:07:13.000Z</time></trkpt>
        <trkpt lat="29.4464459" lon="105.1430188"><ele>334.81</ele><time>2026-02-10T23:08:20.000Z</time></trkpt>
        <trkpt lat="29.4464459" lon="105.1430188"><ele>334.81</ele><time>2026-02-10T23:08:37.000Z</time></trkpt>
        <trkpt lat="29.4464459" lon="105.1430188"><ele>334.81</ele><time>2026-02-10T23:08:44.000Z</time></trkpt>
        <trkpt lat="29.4464459" lon="105.1430188"><ele>334.81</ele><time>2026-02-10T23:09:39.000Z</time></trkpt>
        <trkpt lat="29.4464459" lon="105.1430188"><ele>334.81</ele><time>2026-02-10T23:10:58.000Z</time></trkpt>
        <trkpt lat="29.4464459" lon="105.1430188"><ele>334.81</ele><time>2026-02-10T23:11:17.000Z</time></trkpt>
        <trkpt lat="29.4464459" lon="105.1430188"><ele>334.81</ele><time>2026-02-10T23:15:00.000Z</time></trkpt>
        <trkpt lat="29.4464459" lon="105.1430188"><ele>334.81</ele><time>2026-02-10T23:15:21.000Z</time></trkpt>
        <trkpt lat="29.4467153" lon="105.1430995"><ele>334.93</ele><time>2026-02-10T23:15:36.000Z</time></trkpt>
        <trkpt lat="29.4467153" lon="105.1430995"><ele>334.93</ele><time>2026-02-10T23:16:01.000Z</time></trkpt>
        <trkpt lat="29.4467876" lon="105.1431811"><ele>327.66</ele><time>2026-02-10T23:16:09.000Z</time></trkpt>
        <trkpt lat="29.4469066" lon="105.1431297"><ele>327.48</ele><time>2026-02-10T23:16:19.000Z</time></trkpt>
        <trkpt lat="29.4469874" lon="105.1430443"><ele>331.09</ele><time>2026-02-10T23:16:39.000Z</time></trkpt>
        <trkpt lat="29.4470489" lon="105.1429518"><ele>332.07</ele><time>2026-02-10T23:16:49.000Z</time></trkpt>
        <trkpt lat="29.4470898" lon="105.142845"><ele>331.99</ele><time>2026-02-10T23:16:57.000Z</time></trkpt>
        <trkpt lat="29.4471384" lon="105.1427487"><ele>331.65</ele><time>2026-02-10T23:17:05.000Z</time></trkpt>
        <trkpt lat="29.4471626" lon="105.1426405"><ele>331.77</ele><time>2026-02-10T23:17:13.000Z</time></trkpt>
        <trkpt lat="29.4471725" lon="105.142524"><ele>331.76</ele><time>2026-02-10T23:17:21.000Z</time></trkpt>
        <trkpt lat="29.4472209" lon="105.1424326"><ele>331.87</ele><time>2026-02-10T23:17:29.000Z</time></trkpt>
        <trkpt lat="29.4473082" lon="105.1423855"><ele>332.26</ele><time>2026-02-10T23:17:37.000Z</time></trkpt>
        <trkpt lat="29.4474095" lon="105.1423581"><ele>332.63</ele><time>2026-02-10T23:17:47.000Z</time></trkpt>
        <trkpt lat="29.4475086" lon="105.142332"><ele>333.1</ele><time>2026-02-10T23:17:57.000Z</time></trkpt>
        <trkpt lat="29.4475985" lon="105.1422822"><ele>333.45</ele><time>2026-02-10T23:18:07.000Z</time></trkpt>
        <trkpt lat="29.4476847" lon="105.1422127"><ele>334.13</ele><time>2026-02-10T23:18:17.000Z</time></trkpt>
        <trkpt lat="29.4477752" lon="105.1421388"><ele>334.75</ele><time>2026-02-10T23:18:27.000Z</time></trkpt>
        <trkpt lat="29.447856" lon="105.1420761"><ele>334.52</ele><time>2026-02-10T23:18:37.000Z</time></trkpt>
        <trkpt lat="29.4479171" lon="105.1421295"><ele>334.6</ele><time>2026-02-10T23:18:45.000Z</time></trkpt>
        <trkpt lat="29.4479835" lon="105.1422184"><ele>334.01</ele><time>2026-02-10T23:18:53.000Z</time></trkpt>
        <trkpt lat="29.4480673" lon="105.142256"><ele>332.75</ele><time>2026-02-10T23:19:03.000Z</time></trkpt>
        <trkpt lat="29.448166" lon="105.1422274"><ele>332.5</ele><time>2026-02-10T23:19:21.000Z</time></trkpt>
        <trkpt lat="29.4482646" lon="105.142182"><ele>331.74</ele><time>2026-02-10T23:19:31.000Z</time></trkpt>
        <trkpt lat="29.4483388" lon="105.1421048"><ele>331.07</ele><time>2026-02-10T23:20:27.000Z</time></trkpt>
        <trkpt lat="29.4483388" lon="105.1421048"><ele>331.07</ele><time>2026-02-10T23:21:17.000Z</time></trkpt>
        <trkpt lat="29.448427" lon="105.1420825"><ele>330.69</ele><time>2026-02-10T23:21:24.000Z</time></trkpt>
        <trkpt lat="29.448427" lon="105.1420825"><ele>330.69</ele><time>2026-02-10T23:22:21.000Z</time></trkpt>
        <trkpt lat="29.4484862" lon="105.1419809"><ele>331.46</ele><time>2026-02-10T23:23:05.000Z</time></trkpt>
        <trkpt lat="29.4485445" lon="105.1418925"><ele>331.66</ele><time>2026-02-10T23:24:15.000Z</time></trkpt>
        <trkpt lat="29.4485374" lon="105.1417805"><ele>331.61</ele><time>2026-02-10T23:24:25.000Z</time></trkpt>
        <trkpt lat="29.4485269" lon="105.1416745"><ele>331.75</ele><time>2026-02-10T23:24:45.000Z</time></trkpt>
        <trkpt lat="29.4485269" lon="105.1416745"><ele>331.75</ele><time>2026-02-10T23:25:03.000Z</time></trkpt>
        <trkpt lat="29.4485983" lon="105.1416277"><ele>331.18</ele><time>2026-02-10T23:25:04.000Z</time></trkpt>
        <trkpt lat="29.4485983" lon="105.1416277"><ele>331.18</ele><time>2026-02-10T23:25:21.000Z</time></trkpt>
        <trkpt lat="29.4486698" lon="105.1415585"><ele>330.36</ele><time>2026-02-10T23:25:35.000Z</time></trkpt>
        <trkpt lat="29.4487559" lon="105.1414963"><ele>329.35</ele><time>2026-02-10T23:25:49.000Z</time></trkpt>
        <trkpt lat="29.4488466" lon="105.1414296"><ele>327.91</ele><time>2026-02-10T23:25:57.000Z</time></trkpt>
        <trkpt lat="29.4489017" lon="105.1413421"><ele>327</ele><time>2026-02-10T23:26:07.000Z</time></trkpt>
        <trkpt lat="29.4489648" lon="105.1412623"><ele>327.2</ele><time>2026-02-10T23:26:21.000Z</time></trkpt>
        <trkpt lat="29.4490376" lon="105.1411928"><ele>328.3</ele><time>2026-02-10T23:26:31.000Z</time></trkpt>
        <trkpt lat="29.449093" lon="105.1411047"><ele>328.47</ele><time>2026-02-10T23:26:53.000Z</time></trkpt>
        <trkpt lat="29.4491474" lon="105.1410012"><ele>328.82</ele><time>2026-02-10T23:27:03.000Z</time></trkpt>
        <trkpt lat="29.4491735" lon="105.1408841"><ele>329.23</ele><time>2026-02-10T23:27:13.000Z</time></trkpt>
        <trkpt lat="29.4491634" lon="105.1407667"><ele>329.26</ele><time>2026-02-10T23:27:23.000Z</time></trkpt>
        <trkpt lat="29.4491333" lon="105.1406585"><ele>329.63</ele><time>2026-02-10T23:27:33.000Z</time></trkpt>
        <trkpt lat="29.4491265" lon="105.1405438"><ele>329.95</ele><time>2026-02-10T23:27:41.000Z</time></trkpt>
        <trkpt lat="29.4491414" lon="105.1404312"><ele>330.51</ele><time>2026-02-10T23:27:49.000Z</time></trkpt>
        <trkpt lat="29.4491598" lon="105.1403217"><ele>330.92</ele><time>2026-02-10T23:27:57.000Z</time></trkpt>
        <trkpt lat="29.449162" lon="105.1402128"><ele>331.34</ele><time>2026-02-10T23:28:05.000Z</time></trkpt>
        <trkpt lat="29.4491587" lon="105.1400986"><ele>331.44</ele><time>2026-02-10T23:28:13.000Z</time></trkpt>
        <trkpt lat="29.4491595" lon="105.1399887"><ele>331.45</ele><time>2026-02-10T23:28:19.000Z</time></trkpt>
        <trkpt lat="29.4491444" lon="105.1398784"><ele>331.12</ele><time>2026-02-10T23:28:27.000Z</time></trkpt>
        <trkpt lat="29.4491444" lon="105.1398784"><ele>331.12</ele><time>2026-02-10T23:28:53.000Z</time></trkpt>
        <trkpt lat="29.4491444" lon="105.1398784"><ele>331.12</ele><time>2026-02-10T23:29:00.000Z</time></trkpt>
        <trkpt lat="29.4491444" lon="105.1398784"><ele>331.12</ele><time>2026-02-10T23:29:23.000Z</time></trkpt>
        <trkpt lat="29.4491359" lon="105.1397623"><ele>331.37</ele><time>2026-02-10T23:29:26.000Z</time></trkpt>
        <trkpt lat="29.4491359" lon="105.1397623"><ele>331.37</ele><time>2026-02-10T23:29:33.000Z</time></trkpt>
        <trkpt lat="29.449093" lon="105.1396528"><ele>331.62</ele><time>2026-02-10T23:29:55.000Z</time></trkpt>
        <trkpt lat="29.4491538" lon="105.1395937"><ele>330.96</ele><time>2026-02-10T23:30:03.000Z</time></trkpt>
        <trkpt lat="29.4492452" lon="105.1395525"><ele>330.88</ele><time>2026-02-10T23:30:11.000Z</time></trkpt>
        <trkpt lat="29.4493411" lon="105.1395023"><ele>330.83</ele><time>2026-02-10T23:30:19.000Z</time></trkpt>
        <trkpt lat="29.4493411" lon="105.1395023"><ele>330.83</ele><time>2026-02-10T23:30:37.000Z</time></trkpt>
        <trkpt lat="29.4494284" lon="105.139451"><ele>330.7</ele><time>2026-02-10T23:30:46.000Z</time></trkpt>
        <trkpt lat="29.4494284" lon="105.139451"><ele>330.7</ele><time>2026-02-10T23:30:53.000Z</time></trkpt>
        <trkpt lat="29.4495066" lon="105.1393896"><ele>331.42</ele><time>2026-02-10T23:31:01.000Z</time></trkpt>
        <trkpt lat="29.4495955" lon="105.1393607"><ele>332.36</ele><time>2026-02-10T23:31:09.000Z</time></trkpt>
        <trkpt lat="29.4496873" lon="105.139329"><ele>333.65</ele><time>2026-02-10T23:31:17.000Z</time></trkpt>
        <trkpt lat="29.4497795" lon="105.1392963"><ele>335.29</ele><time>2026-02-10T23:31:25.000Z</time></trkpt>
        <trkpt lat="29.4498626" lon="105.1392508"><ele>336.5</ele><time>2026-02-10T23:31:33.000Z</time></trkpt>
        <trkpt lat="29.4499458" lon="105.1391869"><ele>337.74</ele><time>2026-02-10T23:31:41.000Z</time></trkpt>
        <trkpt lat="29.4500249" lon="105.1391296"><ele>339.12</ele><time>2026-02-10T23:31:49.000Z</time></trkpt>
        <trkpt lat="29.450103" lon="105.1390616"><ele>340.36</ele><time>2026-02-10T23:32:01.000Z</time></trkpt>
        <trkpt lat="29.4501798" lon="105.1389707"><ele>340.93</ele><time>2026-02-10T23:32:11.000Z</time></trkpt>
        <trkpt lat="29.450266" lon="105.138886"><ele>341.15</ele><time>2026-02-10T23:32:19.000Z</time></trkpt>
        <trkpt lat="29.4503509" lon="105.1388055"><ele>341.31</ele><time>2026-02-10T23:32:29.000Z</time></trkpt>
        <trkpt lat="29.4504314" lon="105.1387419"><ele>340.88</ele><time>2026-02-10T23:32:37.000Z</time></trkpt>
        <trkpt lat="29.4505141" lon="105.1386731"><ele>340.76</ele><time>2026-02-10T23:32:47.000Z</time></trkpt>
        <trkpt lat="29.4505844" lon="105.1385955"><ele>340.88</ele><time>2026-02-10T23:32:55.000Z</time></trkpt>
        <trkpt lat="29.4506612" lon="105.1385209"><ele>340.42</ele><time>2026-02-10T23:33:03.000Z</time></trkpt>
        <trkpt lat="29.4507333" lon="105.1384464"><ele>339.69</ele><time>2026-02-10T23:33:11.000Z</time></trkpt>
        <trkpt lat="29.4508195" lon="105.1383799"><ele>339</ele><time>2026-02-10T23:33:19.000Z</time></trkpt>
        <trkpt lat="29.4508995" lon="105.1383119"><ele>338.81</ele><time>2026-02-10T23:33:29.000Z</time></trkpt>
        <trkpt lat="29.4509933" lon="105.1382751"><ele>338.75</ele><time>2026-02-10T23:33:37.000Z</time></trkpt>
        <trkpt lat="29.4510896" lon="105.1382578"><ele>338.81</ele><time>2026-02-10T23:33:43.000Z</time></trkpt>
        <trkpt lat="29.4511907" lon="105.1382288"><ele>339.05</ele><time>2026-02-10T23:33:51.000Z</time></trkpt>
        <trkpt lat="29.451286" lon="105.1381806"><ele>339.28</ele><time>2026-02-10T23:33:59.000Z</time></trkpt>
        <trkpt lat="29.4513743" lon="105.1381194"><ele>339.03</ele><time>2026-02-10T23:34:07.000Z</time></trkpt>
        <trkpt lat="29.4515103" lon="105.1380618"><ele>339.23</ele><time>2026-02-10T23:34:15.000Z</time></trkpt>
        <trkpt lat="29.4516203" lon="105.1380498"><ele>338.86</ele><time>2026-02-10T23:34:23.000Z</time></trkpt>
        <trkpt lat="29.4517315" lon="105.1380708"><ele>337.76</ele><time>2026-02-10T23:34:43.000Z</time></trkpt>
        <trkpt lat="29.4518118" lon="105.1380238"><ele>336.97</ele><time>2026-02-10T23:34:49.000Z</time></trkpt>
        <trkpt lat="29.4518965" lon="105.1379706"><ele>336.3</ele><time>2026-02-10T23:34:57.000Z</time></trkpt>
        <trkpt lat="29.4519655" lon="105.1378716"><ele>336.12</ele><time>2026-02-10T23:35:01.000Z</time></trkpt>
        <trkpt lat="29.4520386" lon="105.137767"><ele>335.5</ele><time>2026-02-10T23:35:07.000Z</time></trkpt>
        <trkpt lat="29.4521172" lon="105.1376878"><ele>335.06</ele><time>2026-02-10T23:35:15.000Z</time></trkpt>
        <trkpt lat="29.4522191" lon="105.1376296"><ele>334.77</ele><time>2026-02-10T23:35:21.000Z</time></trkpt>
        <trkpt lat="29.4522865" lon="105.1375512"><ele>334.26</ele><time>2026-02-10T23:35:27.000Z</time></trkpt>
        <trkpt lat="29.4523512" lon="105.1374593"><ele>334.33</ele><time>2026-02-10T23:35:35.000Z</time></trkpt>
        <trkpt lat="29.452426" lon="105.1373736"><ele>334.51</ele><time>2026-02-10T23:35:43.000Z</time></trkpt>
        <trkpt lat="29.4525029" lon="105.1372923"><ele>334.68</ele><time>2026-02-10T23:35:49.000Z</time></trkpt>
        <trkpt lat="29.4525863" lon="105.1372118"><ele>334.72</ele><time>2026-02-10T23:35:57.000Z</time></trkpt>
        <trkpt lat="29.4526546" lon="105.1371307"><ele>334.81</ele><time>2026-02-10T23:36:03.000Z</time></trkpt>
        <trkpt lat="29.4527151" lon="105.137036"><ele>334.96</ele><time>2026-02-10T23:36:11.000Z</time></trkpt>
        <trkpt lat="29.4527827" lon="105.1369386"><ele>334.88</ele><time>2026-02-10T23:36:17.000Z</time></trkpt>
        <trkpt lat="29.4528556" lon="105.136851"><ele>335.6</ele><time>2026-02-10T23:36:25.000Z</time></trkpt>
        <trkpt lat="29.4529175" lon="105.1367593"><ele>335.94</ele><time>2026-02-10T23:36:33.000Z</time></trkpt>
        <trkpt lat="29.4529873" lon="105.1366625"><ele>336.42</ele><time>2026-02-10T23:36:41.000Z</time></trkpt>
        <trkpt lat="29.4530546" lon="105.1365638"><ele>337.37</ele><time>2026-02-10T23:36:51.000Z</time></trkpt>
        <trkpt lat="29.4531426" lon="105.1364848"><ele>338.2</ele><time>2026-02-10T23:36:59.000Z</time></trkpt>
        <trkpt lat="29.4532373" lon="105.1364303"><ele>338.39</ele><time>2026-02-10T23:37:07.000Z</time></trkpt>
        <trkpt lat="29.4533426" lon="105.1364743"><ele>338.14</ele><time>2026-02-10T23:37:15.000Z</time></trkpt>
        <trkpt lat="29.4534273" lon="105.1365538"><ele>337.27</ele><time>2026-02-10T23:37:21.000Z</time></trkpt>
        <trkpt lat="29.4533805" lon="105.1365527"><ele>334.7</ele><time>2026-02-10T23:37:29.000Z</time></trkpt>
        <trkpt lat="29.4532993" lon="105.1364883"><ele>332.71</ele><time>2026-02-10T23:37:35.000Z</time></trkpt>
        <trkpt lat="29.4532795" lon="105.1363661"><ele>331.54</ele><time>2026-02-10T23:37:43.000Z</time></trkpt>
        <trkpt lat="29.4533283" lon="105.1362391"><ele>330.52</ele><time>2026-02-10T23:37:51.000Z</time></trkpt>
        <trkpt lat="29.4533831" lon="105.1361248"><ele>330.96</ele><time>2026-02-10T23:37:57.000Z</time></trkpt>
        <trkpt lat="29.4534693" lon="105.1360628"><ele>331.71</ele><time>2026-02-10T23:38:05.000Z</time></trkpt>
        <trkpt lat="29.4535611" lon="105.1360003"><ele>332.49</ele><time>2026-02-10T23:38:11.000Z</time></trkpt>
        <trkpt lat="29.4536487" lon="105.135922"><ele>333.04</ele><time>2026-02-10T23:38:17.000Z</time></trkpt>
        <trkpt lat="29.4537082" lon="105.1358358"><ele>333.37</ele><time>2026-02-10T23:38:23.000Z</time></trkpt>
        <trkpt lat="29.4537534" lon="105.135732"><ele>333.45</ele><time>2026-02-10T23:38:29.000Z</time></trkpt>
        <trkpt lat="29.4538204" lon="105.1356238"><ele>332.55</ele><time>2026-02-10T23:38:35.000Z</time></trkpt>
        <trkpt lat="29.4539001" lon="105.1355393"><ele>332.02</ele><time>2026-02-10T23:38:39.000Z</time></trkpt>
        <trkpt lat="29.4539839" lon="105.1354855"><ele>331.96</ele><time>2026-02-10T23:38:43.000Z</time></trkpt>
        <trkpt lat="29.4540629" lon="105.1354298"><ele>331.95</ele><time>2026-02-10T23:38:47.000Z</time></trkpt>
        <trkpt lat="29.4541564" lon="105.1353536"><ele>332.12</ele><time>2026-02-10T23:38:55.000Z</time></trkpt>
        <trkpt lat="29.4542496" lon="105.1352756"><ele>332.75</ele><time>2026-02-10T23:39:01.000Z</time></trkpt>
        <trkpt lat="29.454327" lon="105.1351873"><ele>332.99</ele><time>2026-02-10T23:39:07.000Z</time></trkpt>
        <trkpt lat="29.4543968" lon="105.135081"><ele>333.29</ele><time>2026-02-10T23:39:13.000Z</time></trkpt>
        <trkpt lat="29.4544777" lon="105.1349685"><ele>333.35</ele><time>2026-02-10T23:39:17.000Z</time></trkpt>
        <trkpt lat="29.4545463" lon="105.1348822"><ele>333.82</ele><time>2026-02-10T23:39:21.000Z</time></trkpt>
        <trkpt lat="29.4546172" lon="105.1347842"><ele>334.11</ele><time>2026-02-10T23:39:27.000Z</time></trkpt>
        <trkpt lat="29.4546716" lon="105.1346837"><ele>334.43</ele><time>2026-02-10T23:39:35.000Z</time></trkpt>
        <trkpt lat="29.4547144" lon="105.1345861"><ele>334.71</ele><time>2026-02-10T23:39:43.000Z</time></trkpt>
        <trkpt lat="29.4547644" lon="105.1344911"><ele>335</ele><time>2026-02-10T23:39:51.000Z</time></trkpt>
        <trkpt lat="29.4548175" lon="105.1343968"><ele>334.87</ele><time>2026-02-10T23:39:59.000Z</time></trkpt>
        <trkpt lat="29.4548991" lon="105.1343052"><ele>334.74</ele><time>2026-02-10T23:40:07.000Z</time></trkpt>
        <trkpt lat="29.4549931" lon="105.1342331"><ele>334.7</ele><time>2026-02-10T23:40:13.000Z</time></trkpt>
        <trkpt lat="29.4550639" lon="105.1341502"><ele>334.8</ele><time>2026-02-10T23:40:19.000Z</time></trkpt>
        <trkpt lat="29.4550982" lon="105.1340445"><ele>334.83</ele><time>2026-02-10T23:40:27.000Z</time></trkpt>
        <trkpt lat="29.4551446" lon="105.1339405"><ele>335.14</ele><time>2026-02-10T23:40:35.000Z</time></trkpt>
        <trkpt lat="29.4552087" lon="105.1338425"><ele>335.58</ele><time>2026-02-10T23:40:43.000Z</time></trkpt>
        <trkpt lat="29.4552792" lon="105.1337608"><ele>336.05</ele><time>2026-02-10T23:40:49.000Z</time></trkpt>
        <trkpt lat="29.4553405" lon="105.1336785"><ele>336.31</ele><time>2026-02-10T23:40:57.000Z</time></trkpt>
        <trkpt lat="29.4553791" lon="105.133585"><ele>336.54</ele><time>2026-02-10T23:41:03.000Z</time></trkpt>
        <trkpt lat="29.4554279" lon="105.1334944"><ele>335.91</ele><time>2026-02-10T23:41:09.000Z</time></trkpt>
        <trkpt lat="29.4554822" lon="105.1334"><ele>335.35</ele><time>2026-02-10T23:41:15.000Z</time></trkpt>
        <trkpt lat="29.4555385" lon="105.1333059"><ele>335.19</ele><time>2026-02-10T23:41:23.000Z</time></trkpt>
        <trkpt lat="29.4556097" lon="105.1332241"><ele>335.25</ele><time>2026-02-10T23:41:31.000Z</time></trkpt>
        <trkpt lat="29.4556741" lon="105.1331417"><ele>335.17</ele><time>2026-02-10T23:41:39.000Z</time></trkpt>
        <trkpt lat="29.4557336" lon="105.1330376"><ele>335.13</ele><time>2026-02-10T23:41:47.000Z</time></trkpt>
        <trkpt lat="29.4557925" lon="105.1329434"><ele>334.57</ele><time>2026-02-10T23:41:53.000Z</time></trkpt>
        <trkpt lat="29.4558656" lon="105.1328517"><ele>334.15</ele><time>2026-02-10T23:42:01.000Z</time></trkpt>
        <trkpt lat="29.455909" lon="105.1327558"><ele>333.92</ele><time>2026-02-10T23:42:07.000Z</time></trkpt>
        <trkpt lat="29.4559434" lon="105.1326537"><ele>333.81</ele><time>2026-02-10T23:42:17.000Z</time></trkpt>
        <trkpt lat="29.4559845" lon="105.1325591"><ele>334.8</ele><time>2026-02-10T23:42:25.000Z</time></trkpt>
        <trkpt lat="29.4560308" lon="105.132455"><ele>335.47</ele><time>2026-02-10T23:42:33.000Z</time></trkpt>
        <trkpt lat="29.4560731" lon="105.1323411"><ele>335.43</ele><time>2026-02-10T23:42:41.000Z</time></trkpt>
        <trkpt lat="29.4561092" lon="105.1322187"><ele>335.07</ele><time>2026-02-10T23:42:49.000Z</time></trkpt>
        <trkpt lat="29.4561178" lon="105.1320996"><ele>334.78</ele><time>2026-02-10T23:42:55.000Z</time></trkpt>
        <trkpt lat="29.4561034" lon="105.1319758"><ele>333.42</ele><time>2026-02-10T23:43:03.000Z</time></trkpt>
        <trkpt lat="29.456085" lon="105.1318476"><ele>331.85</ele><time>2026-02-10T23:43:11.000Z</time></trkpt>
        <trkpt lat="29.4560754" lon="105.1317239"><ele>330.86</ele><time>2026-02-10T23:43:19.000Z</time></trkpt>
        <trkpt lat="29.4560556" lon="105.1315844"><ele>330.08</ele><time>2026-02-10T23:43:27.000Z</time></trkpt>
        <trkpt lat="29.4560344" lon="105.1314678"><ele>328.58</ele><time>2026-02-10T23:43:33.000Z</time></trkpt>
        <trkpt lat="29.4560283" lon="105.1313477"><ele>327.36</ele><time>2026-02-10T23:43:43.000Z</time></trkpt>
        <trkpt lat="29.4560177" lon="105.1312368"><ele>326.37</ele><time>2026-02-10T23:43:51.000Z</time></trkpt>
        <trkpt lat="29.4559917" lon="105.1311135"><ele>325.67</ele><time>2026-02-10T23:43:57.000Z</time></trkpt>
        <trkpt lat="29.4559667" lon="105.1309815"><ele>324.31</ele><time>2026-02-10T23:44:05.000Z</time></trkpt>
        <trkpt lat="29.4559643" lon="105.1308652"><ele>323.82</ele><time>2026-02-10T23:44:13.000Z</time></trkpt>
        <trkpt lat="29.4559453" lon="105.1307604"><ele>324.4</ele><time>2026-02-10T23:44:21.000Z</time></trkpt>
        <trkpt lat="29.4559304" lon="105.1306497"><ele>324.69</ele><time>2026-02-10T23:44:29.000Z</time></trkpt>
        <trkpt lat="29.4559165" lon="105.1305445"><ele>324.77</ele><time>2026-02-10T23:44:35.000Z</time></trkpt>
        <trkpt lat="29.455908" lon="105.1304188"><ele>324.75</ele><time>2026-02-10T23:44:43.000Z</time></trkpt>
        <trkpt lat="29.4558817" lon="105.1302968"><ele>323.3</ele><time>2026-02-10T23:44:53.000Z</time></trkpt>
        <trkpt lat="29.4558962" lon="105.1301746"><ele>321.85</ele><time>2026-02-10T23:45:01.000Z</time></trkpt>
        <trkpt lat="29.4559257" lon="105.1300656"><ele>322.43</ele><time>2026-02-10T23:45:09.000Z</time></trkpt>
        <trkpt lat="29.4559691" lon="105.129957"><ele>323.67</ele><time>2026-02-10T23:45:17.000Z</time></trkpt>
        <trkpt lat="29.4560104" lon="105.1298532"><ele>324.92</ele><time>2026-02-10T23:45:25.000Z</time></trkpt>
        <trkpt lat="29.4560514" lon="105.1297357"><ele>325.73</ele><time>2026-02-10T23:45:35.000Z</time></trkpt>
        <trkpt lat="29.456097" lon="105.1296199"><ele>326.79</ele><time>2026-02-10T23:45:43.000Z</time></trkpt>
        <trkpt lat="29.456148" lon="105.1295161"><ele>327.48</ele><time>2026-02-10T23:45:51.000Z</time></trkpt>
        <trkpt lat="29.4562064" lon="105.1294306"><ele>327.98</ele><time>2026-02-10T23:45:59.000Z</time></trkpt>
        <trkpt lat="29.4562779" lon="105.1293582"><ele>327.66</ele><time>2026-02-10T23:46:07.000Z</time></trkpt>
        <trkpt lat="29.4563511" lon="105.1292879"><ele>327.07</ele><time>2026-02-10T23:46:15.000Z</time></trkpt>
        <trkpt lat="29.4564267" lon="105.1292227"><ele>326.51</ele><time>2026-02-10T23:46:23.000Z</time></trkpt>
        <trkpt lat="29.4565168" lon="105.129156"><ele>326.15</ele><time>2026-02-10T23:46:31.000Z</time></trkpt>
        <trkpt lat="29.4566064" lon="105.1290788"><ele>325.42</ele><time>2026-02-10T23:46:39.000Z</time></trkpt>
        <trkpt lat="29.4566988" lon="105.1290258"><ele>324.42</ele><time>2026-02-10T23:46:47.000Z</time></trkpt>
        <trkpt lat="29.4568025" lon="105.1289832"><ele>323.8</ele><time>2026-02-10T23:46:55.000Z</time></trkpt>
        <trkpt lat="29.4568811" lon="105.1288929"><ele>323.74</ele><time>2026-02-10T23:47:03.000Z</time></trkpt>
        <trkpt lat="29.4569371" lon="105.1287969"><ele>323.65</ele><time>2026-02-10T23:47:09.000Z</time></trkpt>
        <trkpt lat="29.4569965" lon="105.128704"><ele>323.63</ele><time>2026-02-10T23:47:17.000Z</time></trkpt>
        <trkpt lat="29.4570651" lon="105.1286117"><ele>324.03</ele><time>2026-02-10T23:47:27.000Z</time></trkpt>
        <trkpt lat="29.4571316" lon="105.1285154"><ele>324.11</ele><time>2026-02-10T23:47:37.000Z</time></trkpt>
        <trkpt lat="29.4571647" lon="105.1284121"><ele>323.66</ele><time>2026-02-10T23:47:45.000Z</time></trkpt>
        <trkpt lat="29.4571841" lon="105.128309"><ele>322.58</ele><time>2026-02-10T23:47:51.000Z</time></trkpt>
        <trkpt lat="29.4572133" lon="105.1282099"><ele>321.08</ele><time>2026-02-10T23:47:59.000Z</time></trkpt>
        <trkpt lat="29.4572269" lon="105.1281078"><ele>319.7</ele><time>2026-02-10T23:48:07.000Z</time></trkpt>
        <trkpt lat="29.4572371" lon="105.1279866"><ele>318.19</ele><time>2026-02-10T23:48:15.000Z</time></trkpt>
        <trkpt lat="29.4572521" lon="105.1278599"><ele>317.26</ele><time>2026-02-10T23:48:23.000Z</time></trkpt>
        <trkpt lat="29.4572884" lon="105.1277552"><ele>316.71</ele><time>2026-02-10T23:48:31.000Z</time></trkpt>
        <trkpt lat="29.4573346" lon="105.1276404"><ele>316.51</ele><time>2026-02-10T23:48:39.000Z</time></trkpt>
        <trkpt lat="29.4573789" lon="105.1275411"><ele>316.27</ele><time>2026-02-10T23:48:45.000Z</time></trkpt>
        <trkpt lat="29.4574482" lon="105.1274528"><ele>316.21</ele><time>2026-02-10T23:48:53.000Z</time></trkpt>
        <trkpt lat="29.457525" lon="105.1273675"><ele>316.24</ele><time>2026-02-10T23:49:01.000Z</time></trkpt>
        <trkpt lat="29.4576032" lon="105.1272927"><ele>315.92</ele><time>2026-02-10T23:49:09.000Z</time></trkpt>
        <trkpt lat="29.4576759" lon="105.1272249"><ele>315.42</ele><time>2026-02-10T23:49:15.000Z</time></trkpt>
        <trkpt lat="29.4577542" lon="105.1271552"><ele>314.32</ele><time>2026-02-10T23:49:23.000Z</time></trkpt>
        <trkpt lat="29.4578214" lon="105.1270698"><ele>312.9</ele><time>2026-02-10T23:49:31.000Z</time></trkpt>
        <trkpt lat="29.4578801" lon="105.1269831"><ele>311.66</ele><time>2026-02-10T23:49:39.000Z</time></trkpt>
        <trkpt lat="29.4579399" lon="105.1268997"><ele>310.89</ele><time>2026-02-10T23:49:47.000Z</time></trkpt>
        <trkpt lat="29.4580197" lon="105.1268082"><ele>310.75</ele><time>2026-02-10T23:49:55.000Z</time></trkpt>
        <trkpt lat="29.4581011" lon="105.1267414"><ele>311.18</ele><time>2026-02-10T23:50:01.000Z</time></trkpt>
        <trkpt lat="29.4581943" lon="105.1267212"><ele>311.87</ele><time>2026-02-10T23:50:13.000Z</time></trkpt>
        <trkpt lat="29.4581943" lon="105.1267212"><ele>311.87</ele><time>2026-02-10T23:50:31.000Z</time></trkpt>
        <trkpt lat="29.4582865" lon="105.1266785"><ele>311.23</ele><time>2026-02-10T23:50:40.000Z</time></trkpt>
        <trkpt lat="29.4582865" lon="105.1266785"><ele>311.23</ele><time>2026-02-10T23:50:51.000Z</time></trkpt>
        <trkpt lat="29.4583776" lon="105.1266404"><ele>309.84</ele><time>2026-02-10T23:50:59.000Z</time></trkpt>
        <trkpt lat="29.4584789" lon="105.1266078"><ele>309.4</ele><time>2026-02-10T23:51:09.000Z</time></trkpt>
        <trkpt lat="29.458587" lon="105.126585"><ele>309.18</ele><time>2026-02-10T23:51:15.000Z</time></trkpt>
        <trkpt lat="29.4586913" lon="105.1265632"><ele>308.91</ele><time>2026-02-10T23:51:23.000Z</time></trkpt>
        <trkpt lat="29.4587864" lon="105.1265438"><ele>308.89</ele><time>2026-02-10T23:51:31.000Z</time></trkpt>
        <trkpt lat="29.4588821" lon="105.1265323"><ele>309.47</ele><time>2026-02-10T23:51:39.000Z</time></trkpt>
        <trkpt lat="29.4589722" lon="105.1265167"><ele>310.05</ele><time>2026-02-10T23:51:47.000Z</time></trkpt>
        <trkpt lat="29.4590602" lon="105.1264933"><ele>310.44</ele><time>2026-02-10T23:51:55.000Z</time></trkpt>
        <trkpt lat="29.4591519" lon="105.1264491"><ele>310.32</ele><time>2026-02-10T23:52:03.000Z</time></trkpt>
        <trkpt lat="29.4592408" lon="105.1264164"><ele>309.73</ele><time>2026-02-10T23:52:09.000Z</time></trkpt>
        <trkpt lat="29.4593424" lon="105.1263911"><ele>309.29</ele><time>2026-02-10T23:52:17.000Z</time></trkpt>
        <trkpt lat="29.4594521" lon="105.1263558"><ele>308.9</ele><time>2026-02-10T23:52:25.000Z</time></trkpt>
        <trkpt lat="29.4595628" lon="105.1263168"><ele>308.54</ele><time>2026-02-10T23:52:33.000Z</time></trkpt>
        <trkpt lat="29.4596636" lon="105.1262805"><ele>308.46</ele><time>2026-02-10T23:52:41.000Z</time></trkpt>
        <trkpt lat="29.4597614" lon="105.1262359"><ele>308.62</ele><time>2026-02-10T23:52:49.000Z</time></trkpt>
        <trkpt lat="29.4598474" lon="105.1261931"><ele>308.85</ele><time>2026-02-10T23:52:55.000Z</time></trkpt>
        <trkpt lat="29.4599376" lon="105.1261527"><ele>309.04</ele><time>2026-02-10T23:53:05.000Z</time></trkpt>
        <trkpt lat="29.4600262" lon="105.126103"><ele>309.4</ele><time>2026-02-10T23:53:15.000Z</time></trkpt>
        <trkpt lat="29.4601178" lon="105.1260546"><ele>310.15</ele><time>2026-02-10T23:53:23.000Z</time></trkpt>
        <trkpt lat="29.4602199" lon="105.126002"><ele>310.61</ele><time>2026-02-10T23:53:31.000Z</time></trkpt>
        <trkpt lat="29.4603192" lon="105.1259616"><ele>311.01</ele><time>2026-02-10T23:53:39.000Z</time></trkpt>
        <trkpt lat="29.4604193" lon="105.1259166"><ele>311.35</ele><time>2026-02-10T23:53:47.000Z</time></trkpt>
        <trkpt lat="29.4605284" lon="105.1258786"><ele>311.85</ele><time>2026-02-10T23:53:55.000Z</time></trkpt>
        <trkpt lat="29.4606301" lon="105.1258323"><ele>312.07</ele><time>2026-02-10T23:54:03.000Z</time></trkpt>
        <trkpt lat="29.4607252" lon="105.1257789"><ele>312.36</ele><time>2026-02-10T23:54:13.000Z</time></trkpt>
        <trkpt lat="29.4608249" lon="105.1257333"><ele>312.57</ele><time>2026-02-10T23:54:21.000Z</time></trkpt>
        <trkpt lat="29.4609184" lon="105.1256788"><ele>312.66</ele><time>2026-02-10T23:54:31.000Z</time></trkpt>
        <trkpt lat="29.4610337" lon="105.1256226"><ele>312.67</ele><time>2026-02-10T23:54:41.000Z</time></trkpt>
        <trkpt lat="29.4611352" lon="105.1255775"><ele>314.37</ele><time>2026-02-10T23:54:49.000Z</time></trkpt>
        <trkpt lat="29.4612201" lon="105.1255252"><ele>314.88</ele><time>2026-02-10T23:54:55.000Z</time></trkpt>
        <trkpt lat="29.4613107" lon="105.1255208"><ele>314.7</ele><time>2026-02-10T23:55:01.000Z</time></trkpt>
        <trkpt lat="29.461412" lon="105.1254929"><ele>314.29</ele><time>2026-02-10T23:55:09.000Z</time></trkpt>
        <trkpt lat="29.4614722" lon="105.1254123"><ele>314.98</ele><time>2026-02-10T23:55:19.000Z</time></trkpt>
        <trkpt lat="29.4615138" lon="105.1253154"><ele>315.19</ele><time>2026-02-10T23:55:29.000Z</time></trkpt>
        <trkpt lat="29.461548" lon="105.1252062"><ele>314.87</ele><time>2026-02-10T23:55:37.000Z</time></trkpt>
        <trkpt lat="29.4615657" lon="105.1250801"><ele>315.08</ele><time>2026-02-10T23:55:47.000Z</time></trkpt>
        <trkpt lat="29.4615744" lon="105.1249539"><ele>315.25</ele><time>2026-02-10T23:55:57.000Z</time></trkpt>
        <trkpt lat="29.4615744" lon="105.1249539"><ele>315.25</ele><time>2026-02-10T23:56:23.000Z</time></trkpt>
        <trkpt lat="29.4615744" lon="105.1249539"><ele>315.25</ele><time>2026-02-10T23:56:28.000Z</time></trkpt>
        <trkpt lat="29.4615744" lon="105.1249539"><ele>315.25</ele><time>2026-02-10T23:56:43.000Z</time></trkpt>
        <trkpt lat="29.4615744" lon="105.1249539"><ele>315.25</ele><time>2026-02-10T23:56:50.000Z</time></trkpt>
        <trkpt lat="29.4615744" lon="105.1249539"><ele>315.25</ele><time>2026-02-10T23:57:09.000Z</time></trkpt>
        <trkpt lat="29.4616527" lon="105.1249945"><ele>315.11</ele><time>2026-02-10T23:57:18.000Z</time></trkpt>
        <trkpt lat="29.4616527" lon="105.1249945"><ele>315.11</ele><time>2026-02-10T23:57:25.000Z</time></trkpt>
        <trkpt lat="29.4617562" lon="105.125045"><ele>315.77</ele><time>2026-02-10T23:57:33.000Z</time></trkpt>
        <trkpt lat="29.4618292" lon="105.1251117"><ele>315.96</ele><time>2026-02-10T23:57:41.000Z</time></trkpt>
        <trkpt lat="29.461915" lon="105.1251504"><ele>316.27</ele><time>2026-02-10T23:57:51.000Z</time></trkpt>
        <trkpt lat="29.4620031" lon="105.1251868"><ele>316.15</ele><time>2026-02-10T23:58:01.000Z</time></trkpt>
        <trkpt lat="29.4621119" lon="105.1252151"><ele>315.78</ele><time>2026-02-10T23:58:09.000Z</time></trkpt>
        <trkpt lat="29.4622175" lon="105.1252605"><ele>315.91</ele><time>2026-02-10T23:58:19.000Z</time></trkpt>
        <trkpt lat="29.4623026" lon="105.1253155"><ele>316.07</ele><time>2026-02-10T23:58:27.000Z</time></trkpt>
        <trkpt lat="29.4623757" lon="105.1253867"><ele>315.78</ele><time>2026-02-10T23:58:35.000Z</time></trkpt>
        <trkpt lat="29.4624611" lon="105.1254473"><ele>315.49</ele><time>2026-02-10T23:58:43.000Z</time></trkpt>
        <trkpt lat="29.4625394" lon="105.1255104"><ele>315.57</ele><time>2026-02-10T23:58:53.000Z</time></trkpt>
        <trkpt lat="29.4625493" lon="105.1254393"><ele>315.99</ele><time>2026-02-10T23:59:07.000Z</time></trkpt>
        <trkpt lat="29.4625616" lon="105.1253311"><ele>316.45</ele><time>2026-02-10T23:59:13.000Z</time></trkpt>
        <trkpt lat="29.4625787" lon="105.1252068"><ele>316.57</ele><time>2026-02-10T23:59:21.000Z</time></trkpt>
        <trkpt lat="29.4626027" lon="105.1250725"><ele>316.86</ele><time>2026-02-10T23:59:31.000Z</time></trkpt>
        <trkpt lat="29.4626541" lon="105.1249579"><ele>316.79</ele><time>2026-02-10T23:59:39.000Z</time></trkpt>
        <trkpt lat="29.4627277" lon="105.1248772"><ele>316.58</ele><time>2026-02-10T23:59:51.000Z</time></trkpt>
        <trkpt lat="29.462824" lon="105.124827"><ele>317.44</ele><time>2026-02-10T23:59:59.000Z</time></trkpt>
        <trkpt lat="29.4629038" lon="105.1247504"><ele>318.89</ele><time>2026-02-11T00:00:07.000Z</time></trkpt>
        <trkpt lat="29.4629618" lon="105.124654"><ele>320.24</ele><time>2026-02-11T00:00:15.000Z</time></trkpt>
        <trkpt lat="29.4629986" lon="105.1245505"><ele>321</ele><time>2026-02-11T00:00:31.000Z</time></trkpt>
        <trkpt lat="29.4630275" lon="105.1244375"><ele>321.99</ele><time>2026-02-11T00:00:39.000Z</time></trkpt>
        <trkpt lat="29.463071" lon="105.12433"><ele>323.81</ele><time>2026-02-11T00:00:49.000Z</time></trkpt>
        <trkpt lat="29.4631311" lon="105.1242429"><ele>325.45</ele><time>2026-02-11T00:01:03.000Z</time></trkpt>
        <trkpt lat="29.4632167" lon="105.12423"><ele>326.42</ele><time>2026-02-11T00:01:11.000Z</time></trkpt>
        <trkpt lat="29.4633207" lon="105.1242342"><ele>327.66</ele><time>2026-02-11T00:01:19.000Z</time></trkpt>
        <trkpt lat="29.4634278" lon="105.1242625"><ele>328.61</ele><time>2026-02-11T00:01:31.000Z</time></trkpt>
        <trkpt lat="29.4634606" lon="105.1243536"><ele>329.11</ele><time>2026-02-11T00:02:07.000Z</time></trkpt>
        <trkpt lat="29.463468" lon="105.1244809"><ele>329.33</ele><time>2026-02-11T00:02:17.000Z</time></trkpt>
        <trkpt lat="29.4634773" lon="105.1246076"><ele>329.72</ele><time>2026-02-11T00:02:27.000Z</time></trkpt>
        <trkpt lat="29.4634967" lon="105.1247269"><ele>330.03</ele><time>2026-02-11T00:02:35.000Z</time></trkpt>
        <trkpt lat="29.4635229" lon="105.1248512"><ele>329.95</ele><time>2026-02-11T00:02:47.000Z</time></trkpt>
        <trkpt lat="29.4635402" lon="105.1249629"><ele>329.87</ele><time>2026-02-11T00:02:55.000Z</time></trkpt>
        <trkpt lat="29.4635622" lon="105.1250708"><ele>329.42</ele><time>2026-02-11T00:03:03.000Z</time></trkpt>
        <trkpt lat="29.463602" lon="105.1251832"><ele>328.7</ele><time>2026-02-11T00:03:11.000Z</time></trkpt>
        <trkpt lat="29.4636584" lon="105.1252876"><ele>328.16</ele><time>2026-02-11T00:03:21.000Z</time></trkpt>
        <trkpt lat="29.4637317" lon="105.1253738"><ele>328.04</ele><time>2026-02-11T00:03:31.000Z</time></trkpt>
        <trkpt lat="29.4638104" lon="105.1254446"><ele>327.39</ele><time>2026-02-11T00:03:39.000Z</time></trkpt>
        <trkpt lat="29.4638977" lon="105.1255129"><ele>326.49</ele><time>2026-02-11T00:03:49.000Z</time></trkpt>
        <trkpt lat="29.46398" lon="105.1255795"><ele>325.72</ele><time>2026-02-11T00:03:57.000Z</time></trkpt>
        <trkpt lat="29.4640713" lon="105.1256351"><ele>324.95</ele><time>2026-02-11T00:04:05.000Z</time></trkpt>
        <trkpt lat="29.4641468" lon="105.1256996"><ele>324.07</ele><time>2026-02-11T00:04:13.000Z</time></trkpt>
        <trkpt lat="29.4642246" lon="105.1257576"><ele>323.21</ele><time>2026-02-11T00:04:21.000Z</time></trkpt>
        <trkpt lat="29.4643198" lon="105.1258059"><ele>322.5</ele><time>2026-02-11T00:04:29.000Z</time></trkpt>
        <trkpt lat="29.4644115" lon="105.125863"><ele>322.48</ele><time>2026-02-11T00:04:37.000Z</time></trkpt>
        <trkpt lat="29.4644983" lon="105.1259119"><ele>322.73</ele><time>2026-02-11T00:04:45.000Z</time></trkpt>
        <trkpt lat="29.4645881" lon="105.1259102"><ele>322.43</ele><time>2026-02-11T00:05:01.000Z</time></trkpt>
        <trkpt lat="29.4646898" lon="105.1258812"><ele>321.28</ele><time>2026-02-11T00:05:09.000Z</time></trkpt>
        <trkpt lat="29.4647944" lon="105.1258823"><ele>320.74</ele><time>2026-02-11T00:05:17.000Z</time></trkpt>
        <trkpt lat="29.4648993" lon="105.1259155"><ele>320.17</ele><time>2026-02-11T00:05:25.000Z</time></trkpt>
        <trkpt lat="29.4649843" lon="105.1259862"><ele>319.69</ele><time>2026-02-11T00:05:33.000Z</time></trkpt>
        <trkpt lat="29.4650662" lon="105.1260625"><ele>319.35</ele><time>2026-02-11T00:05:43.000Z</time></trkpt>
        <trkpt lat="29.4651532" lon="105.126139"><ele>319.13</ele><time>2026-02-11T00:05:53.000Z</time></trkpt>
        <trkpt lat="29.4652415" lon="105.1261909"><ele>318.62</ele><time>2026-02-11T00:06:01.000Z</time></trkpt>
        <trkpt lat="29.4653396" lon="105.1262274"><ele>318.22</ele><time>2026-02-11T00:06:09.000Z</time></trkpt>
        <trkpt lat="29.4654375" lon="105.1262588"><ele>317.62</ele><time>2026-02-11T00:06:17.000Z</time></trkpt>
        <trkpt lat="29.4655309" lon="105.1263034"><ele>317.64</ele><time>2026-02-11T00:06:27.000Z</time></trkpt>
        <trkpt lat="29.4656365" lon="105.1263445"><ele>317.85</ele><time>2026-02-11T00:06:35.000Z</time></trkpt>
        <trkpt lat="29.4657104" lon="105.1264113"><ele>318.37</ele><time>2026-02-11T00:06:41.000Z</time></trkpt>
        <trkpt lat="29.4657817" lon="105.1264835"><ele>319.02</ele><time>2026-02-11T00:06:51.000Z</time></trkpt>
        <trkpt lat="29.4658639" lon="105.1265567"><ele>319.8</ele><time>2026-02-11T00:07:01.000Z</time></trkpt>
        <trkpt lat="29.4659562" lon="105.1266191"><ele>320.8</ele><time>2026-02-11T00:07:09.000Z</time></trkpt>
        <trkpt lat="29.4660492" lon="105.1266783"><ele>321.74</ele><time>2026-02-11T00:07:17.000Z</time></trkpt>
        <trkpt lat="29.4661476" lon="105.1267037"><ele>322.39</ele><time>2026-02-11T00:07:25.000Z</time></trkpt>
        <trkpt lat="29.466253" lon="105.1267114"><ele>322.5</ele><time>2026-02-11T00:07:33.000Z</time></trkpt>
        <trkpt lat="29.4663578" lon="105.1267272"><ele>322.46</ele><time>2026-02-11T00:07:43.000Z</time></trkpt>
        <trkpt lat="29.4664668" lon="105.126734"><ele>321.94</ele><time>2026-02-11T00:07:53.000Z</time></trkpt>
        <trkpt lat="29.4665745" lon="105.1267171"><ele>321.07</ele><time>2026-02-11T00:08:01.000Z</time></trkpt>
        <trkpt lat="29.4666755" lon="105.126681"><ele>319.56</ele><time>2026-02-11T00:08:09.000Z</time></trkpt>
        <trkpt lat="29.4667697" lon="105.1266439"><ele>318.42</ele><time>2026-02-11T00:08:17.000Z</time></trkpt>
        <trkpt lat="29.4668653" lon="105.1266343"><ele>317.3</ele><time>2026-02-11T00:08:25.000Z</time></trkpt>
        <trkpt lat="29.4669651" lon="105.1266431"><ele>316.29</ele><time>2026-02-11T00:08:33.000Z</time></trkpt>
        <trkpt lat="29.4670645" lon="105.1266716"><ele>315.49</ele><time>2026-02-11T00:08:41.000Z</time></trkpt>
        <trkpt lat="29.4671643" lon="105.126681"><ele>315.34</ele><time>2026-02-11T00:08:51.000Z</time></trkpt>
        <trkpt lat="29.467258" lon="105.1266614"><ele>314.28</ele><time>2026-02-11T00:08:57.000Z</time></trkpt>
        <trkpt lat="29.4673581" lon="105.1266291"><ele>313.46</ele><time>2026-02-11T00:09:05.000Z</time></trkpt>
        <trkpt lat="29.4674539" lon="105.1265651"><ele>312.59</ele><time>2026-02-11T00:09:13.000Z</time></trkpt>
        <trkpt lat="29.4675446" lon="105.1264901"><ele>311.35</ele><time>2026-02-11T00:09:23.000Z</time></trkpt>
        <trkpt lat="29.4676372" lon="105.1264121"><ele>310.33</ele><time>2026-02-11T00:09:33.000Z</time></trkpt>
        <trkpt lat="29.4677193" lon="105.1263312"><ele>308.63</ele><time>2026-02-11T00:09:41.000Z</time></trkpt>
        <trkpt lat="29.4677956" lon="105.1262473"><ele>307.1</ele><time>2026-02-11T00:09:51.000Z</time></trkpt>
        <trkpt lat="29.4678783" lon="105.1261941"><ele>305.93</ele><time>2026-02-11T00:10:01.000Z</time></trkpt>
        <trkpt lat="29.4679699" lon="105.1261479"><ele>305.6</ele><time>2026-02-11T00:10:13.000Z</time></trkpt>
        <trkpt lat="29.4680726" lon="105.1261293"><ele>305.26</ele><time>2026-02-11T00:10:23.000Z</time></trkpt>
        <trkpt lat="29.468177" lon="105.1261439"><ele>304.8</ele><time>2026-02-11T00:10:31.000Z</time></trkpt>
        <trkpt lat="29.4682682" lon="105.1261824"><ele>304.02</ele><time>2026-02-11T00:10:43.000Z</time></trkpt>
        <trkpt lat="29.468316" lon="105.1262707"><ele>303.49</ele><time>2026-02-11T00:10:51.000Z</time></trkpt>
        <trkpt lat="29.4683732" lon="105.1263598"><ele>303.3</ele><time>2026-02-11T00:11:01.000Z</time></trkpt>
        <trkpt lat="29.4684595" lon="105.1264056"><ele>302.64</ele><time>2026-02-11T00:11:09.000Z</time></trkpt>
        <trkpt lat="29.4685588" lon="105.1264014"><ele>302.04</ele><time>2026-02-11T00:11:17.000Z</time></trkpt>
        <trkpt lat="29.4686466" lon="105.1263201"><ele>301.74</ele><time>2026-02-11T00:11:25.000Z</time></trkpt>
        <trkpt lat="29.4687137" lon="105.1262102"><ele>301.3</ele><time>2026-02-11T00:11:35.000Z</time></trkpt>
        <trkpt lat="29.468783" lon="105.1260876"><ele>300.71</ele><time>2026-02-11T00:11:45.000Z</time></trkpt>
        <trkpt lat="29.468864" lon="105.1259862"><ele>300.02</ele><time>2026-02-11T00:11:53.000Z</time></trkpt>
        <trkpt lat="29.4689566" lon="105.1259912"><ele>299.43</ele><time>2026-02-11T00:12:01.000Z</time></trkpt>
        <trkpt lat="29.4690428" lon="105.1260513"><ele>299.45</ele><time>2026-02-11T00:12:09.000Z</time></trkpt>
        <trkpt lat="29.4691409" lon="105.1260968"><ele>299.52</ele><time>2026-02-11T00:12:29.000Z</time></trkpt>
        <trkpt lat="29.4692346" lon="105.1260724"><ele>299.78</ele><time>2026-02-11T00:12:37.000Z</time></trkpt>
        <trkpt lat="29.4693174" lon="105.1260022"><ele>300.02</ele><time>2026-02-11T00:12:45.000Z</time></trkpt>
        <trkpt lat="29.469404" lon="105.1259373"><ele>300.03</ele><time>2026-02-11T00:12:53.000Z</time></trkpt>
        <trkpt lat="29.4695053" lon="105.1258965"><ele>300.14</ele><time>2026-02-11T00:13:03.000Z</time></trkpt>
        <trkpt lat="29.4696126" lon="105.1258742"><ele>299.21</ele><time>2026-02-11T00:13:11.000Z</time></trkpt>
        <trkpt lat="29.4697263" lon="105.1258644"><ele>298.24</ele><time>2026-02-11T00:13:19.000Z</time></trkpt>
        <trkpt lat="29.4698384" lon="105.1258628"><ele>298.38</ele><time>2026-02-11T00:13:29.000Z</time></trkpt>
        <trkpt lat="29.4699494" lon="105.1258717"><ele>299.02</ele><time>2026-02-11T00:13:37.000Z</time></trkpt>
        <trkpt lat="29.4700608" lon="105.1259034"><ele>299.09</ele><time>2026-02-11T00:13:45.000Z</time></trkpt>
        <trkpt lat="29.4701477" lon="105.1259561"><ele>299.06</ele><time>2026-02-11T00:13:53.000Z</time></trkpt>
        <trkpt lat="29.4702428" lon="105.1260151"><ele>299.3</ele><time>2026-02-11T00:14:03.000Z</time></trkpt>
        <trkpt lat="29.4703298" lon="105.1260648"><ele>299.1</ele><time>2026-02-11T00:14:11.000Z</time></trkpt>
        <trkpt lat="29.4704161" lon="105.1260998"><ele>299.35</ele><time>2026-02-11T00:14:19.000Z</time></trkpt>
        <trkpt lat="29.4705116" lon="105.1261423"><ele>299.15</ele><time>2026-02-11T00:14:27.000Z</time></trkpt>
        <trkpt lat="29.470605" lon="105.1262016"><ele>298.82</ele><time>2026-02-11T00:14:37.000Z</time></trkpt>
        <trkpt lat="29.4707" lon="105.126233"><ele>298.19</ele><time>2026-02-11T00:14:49.000Z</time></trkpt>
        <trkpt lat="29.4707991" lon="105.1262165"><ele>297.83</ele><time>2026-02-11T00:14:57.000Z</time></trkpt>
        <trkpt lat="29.4708969" lon="105.1261789"><ele>297.32</ele><time>2026-02-11T00:15:05.000Z</time></trkpt>
        <trkpt lat="29.4709864" lon="105.1261279"><ele>296.79</ele><time>2026-02-11T00:15:13.000Z</time></trkpt>
        <trkpt lat="29.4710663" lon="105.1260592"><ele>297.06</ele><time>2026-02-11T00:15:21.000Z</time></trkpt>
        <trkpt lat="29.4711521" lon="105.1260322"><ele>297.73</ele><time>2026-02-11T00:15:27.000Z</time></trkpt>
        <trkpt lat="29.4712412" lon="105.1260589"><ele>298.85</ele><time>2026-02-11T00:15:35.000Z</time></trkpt>
        <trkpt lat="29.4713376" lon="105.1260923"><ele>300.44</ele><time>2026-02-11T00:15:43.000Z</time></trkpt>
        <trkpt lat="29.4714211" lon="105.1260643"><ele>301.79</ele><time>2026-02-11T00:15:55.000Z</time></trkpt>
        <trkpt lat="29.4714704" lon="105.1261247"><ele>303.6</ele><time>2026-02-11T00:16:41.000Z</time></trkpt>
        <trkpt lat="29.4715442" lon="105.1262111"><ele>303.34</ele><time>2026-02-11T00:16:51.000Z</time></trkpt>
        <trkpt lat="29.4716358" lon="105.1262947"><ele>303.23</ele><time>2026-02-11T00:17:01.000Z</time></trkpt>
        <trkpt lat="29.4717291" lon="105.1263621"><ele>303.44</ele><time>2026-02-11T00:17:09.000Z</time></trkpt>
        <trkpt lat="29.4718292" lon="105.1264226"><ele>303.27</ele><time>2026-02-11T00:17:19.000Z</time></trkpt>
        <trkpt lat="29.4719238" lon="105.1264955"><ele>303.18</ele><time>2026-02-11T00:17:29.000Z</time></trkpt>
        <trkpt lat="29.4719948" lon="105.1265835"><ele>302.59</ele><time>2026-02-11T00:17:39.000Z</time></trkpt>
        <trkpt lat="29.4720539" lon="105.1266753"><ele>302</ele><time>2026-02-11T00:17:49.000Z</time></trkpt>
        <trkpt lat="29.4721094" lon="105.1267775"><ele>301.57</ele><time>2026-02-11T00:17:59.000Z</time></trkpt>
        <trkpt lat="29.4721742" lon="105.1268693"><ele>301.47</ele><time>2026-02-11T00:18:11.000Z</time></trkpt>
        <trkpt lat="29.4722436" lon="105.1269418"><ele>300.98</ele><time>2026-02-11T00:18:21.000Z</time></trkpt>
        <trkpt lat="29.472325" lon="105.1269966"><ele>300.43</ele><time>2026-02-11T00:18:29.000Z</time></trkpt>
        <trkpt lat="29.4723998" lon="105.1270612"><ele>299.93</ele><time>2026-02-11T00:18:37.000Z</time></trkpt>
        <trkpt lat="29.4724593" lon="105.1271448"><ele>299.81</ele><time>2026-02-11T00:18:45.000Z</time></trkpt>
        <trkpt lat="29.4725044" lon="105.1272392"><ele>299.68</ele><time>2026-02-11T00:18:53.000Z</time></trkpt>
        <trkpt lat="29.4725751" lon="105.1273307"><ele>299.22</ele><time>2026-02-11T00:19:01.000Z</time></trkpt>
        <trkpt lat="29.4726752" lon="105.1273703"><ele>298.45</ele><time>2026-02-11T00:19:11.000Z</time></trkpt>
        <trkpt lat="29.4727693" lon="105.1273252"><ele>297.57</ele><time>2026-02-11T00:19:25.000Z</time></trkpt>
        <trkpt lat="29.4728674" lon="105.1272764"><ele>296.29</ele><time>2026-02-11T00:19:31.000Z</time></trkpt>
        <trkpt lat="29.4729588" lon="105.1272327"><ele>295.39</ele><time>2026-02-11T00:19:37.000Z</time></trkpt>
        <trkpt lat="29.4730517" lon="105.1271937"><ele>294.83</ele><time>2026-02-11T00:19:45.000Z</time></trkpt>
        <trkpt lat="29.4731483" lon="105.127203"><ele>294.33</ele><time>2026-02-11T00:20:07.000Z</time></trkpt>
        <trkpt lat="29.4732478" lon="105.1272344"><ele>294.06</ele><time>2026-02-11T00:20:15.000Z</time></trkpt>
        <trkpt lat="29.4733342" lon="105.127306"><ele>294.48</ele><time>2026-02-11T00:20:23.000Z</time></trkpt>
        <trkpt lat="29.4734054" lon="105.1273889"><ele>294.91</ele><time>2026-02-11T00:20:29.000Z</time></trkpt>
        <trkpt lat="29.4734647" lon="105.1274751"><ele>295.54</ele><time>2026-02-11T00:20:35.000Z</time></trkpt>
        <trkpt lat="29.4735291" lon="105.1275614"><ele>296.33</ele><time>2026-02-11T00:20:43.000Z</time></trkpt>
        <trkpt lat="29.4735925" lon="105.127642"><ele>296.94</ele><time>2026-02-11T00:20:49.000Z</time></trkpt>
        <trkpt lat="29.4736669" lon="105.1277266"><ele>297.85</ele><time>2026-02-11T00:20:57.000Z</time></trkpt>
        <trkpt lat="29.4737496" lon="105.127809"><ele>298.73</ele><time>2026-02-11T00:21:05.000Z</time></trkpt>
        <trkpt lat="29.4738456" lon="105.1278577"><ele>299.86</ele><time>2026-02-11T00:21:15.000Z</time></trkpt>
        <trkpt lat="29.4739522" lon="105.1278547"><ele>300.87</ele><time>2026-02-11T00:21:25.000Z</time></trkpt>
        <trkpt lat="29.4740623" lon="105.1278212"><ele>301.59</ele><time>2026-02-11T00:21:33.000Z</time></trkpt>
        <trkpt lat="29.4741519" lon="105.1277489"><ele>301.81</ele><time>2026-02-11T00:21:41.000Z</time></trkpt>
        <trkpt lat="29.4742358" lon="105.1276705"><ele>301.87</ele><time>2026-02-11T00:21:51.000Z</time></trkpt>
        <trkpt lat="29.4743035" lon="105.1275877"><ele>301.61</ele><time>2026-02-11T00:21:59.000Z</time></trkpt>
        <trkpt lat="29.4743743" lon="105.127501"><ele>300.78</ele><time>2026-02-11T00:22:09.000Z</time></trkpt>
        <trkpt lat="29.4744638" lon="105.127431"><ele>300.05</ele><time>2026-02-11T00:22:19.000Z</time></trkpt>
        <trkpt lat="29.4745512" lon="105.1273679"><ele>299.07</ele><time>2026-02-11T00:22:29.000Z</time></trkpt>
        <trkpt lat="29.4746376" lon="105.1273204"><ele>298.13</ele><time>2026-02-11T00:22:39.000Z</time></trkpt>
        <trkpt lat="29.4747234" lon="105.1272644"><ele>297.31</ele><time>2026-02-11T00:22:49.000Z</time></trkpt>
        <trkpt lat="29.4748113" lon="105.1272041"><ele>296.91</ele><time>2026-02-11T00:22:59.000Z</time></trkpt>
        <trkpt lat="29.4748869" lon="105.1271286"><ele>296.64</ele><time>2026-02-11T00:23:07.000Z</time></trkpt>
        <trkpt lat="29.4749319" lon="105.12702"><ele>296.06</ele><time>2026-02-11T00:23:17.000Z</time></trkpt>
        <trkpt lat="29.4749533" lon="105.1269052"><ele>295.72</ele><time>2026-02-11T00:23:23.000Z</time></trkpt>
        <trkpt lat="29.4749993" lon="105.1267999"><ele>295.38</ele><time>2026-02-11T00:23:31.000Z</time></trkpt>
        <trkpt lat="29.4750816" lon="105.1267468"><ele>295.3</ele><time>2026-02-11T00:23:39.000Z</time></trkpt>
        <trkpt lat="29.475183" lon="105.1267265"><ele>294.95</ele><time>2026-02-11T00:24:01.000Z</time></trkpt>
        <trkpt lat="29.4752825" lon="105.1267492"><ele>294.24</ele><time>2026-02-11T00:24:09.000Z</time></trkpt>
        <trkpt lat="29.4753771" lon="105.1267397"><ele>293.94</ele><time>2026-02-11T00:24:17.000Z</time></trkpt>
        <trkpt lat="29.4754744" lon="105.1267172"><ele>293.62</ele><time>2026-02-11T00:24:25.000Z</time></trkpt>
        <trkpt lat="29.475565" lon="105.1266736"><ele>293.29</ele><time>2026-02-11T00:24:33.000Z</time></trkpt>
        <trkpt lat="29.4756685" lon="105.1266255"><ele>293.19</ele><time>2026-02-11T00:24:43.000Z</time></trkpt>
        <trkpt lat="29.4757691" lon="105.1266166"><ele>292.96</ele><time>2026-02-11T00:24:51.000Z</time></trkpt>
        <trkpt lat="29.4758766" lon="105.1266459"><ele>292.52</ele><time>2026-02-11T00:24:59.000Z</time></trkpt>
        <trkpt lat="29.4759874" lon="105.1266719"><ele>292.79</ele><time>2026-02-11T00:25:07.000Z</time></trkpt>
        <trkpt lat="29.4760953" lon="105.1266563"><ele>292.44</ele><time>2026-02-11T00:25:15.000Z</time></trkpt>
        <trkpt lat="29.4761679" lon="105.1267074"><ele>291.68</ele><time>2026-02-11T00:25:23.000Z</time></trkpt>
        <trkpt lat="29.4761972" lon="105.1268065"><ele>291.34</ele><time>2026-02-11T00:25:31.000Z</time></trkpt>
        <trkpt lat="29.4761974" lon="105.1269203"><ele>291.57</ele><time>2026-02-11T00:25:37.000Z</time></trkpt>
        <trkpt lat="29.4762175" lon="105.1270477"><ele>291.5</ele><time>2026-02-11T00:25:45.000Z</time></trkpt>
        <trkpt lat="29.4762745" lon="105.1271345"><ele>291.29</ele><time>2026-02-11T00:25:55.000Z</time></trkpt>
        <trkpt lat="29.4763723" lon="105.1271648"><ele>291.57</ele><time>2026-02-11T00:26:05.000Z</time></trkpt>
        <trkpt lat="29.4764816" lon="105.1271719"><ele>292.45</ele><time>2026-02-11T00:26:15.000Z</time></trkpt>
        <trkpt lat="29.4765851" lon="105.1271771"><ele>293.78</ele><time>2026-02-11T00:26:23.000Z</time></trkpt>
        <trkpt lat="29.4766735" lon="105.1272252"><ele>294.8</ele><time>2026-02-11T00:26:33.000Z</time></trkpt>
        <trkpt lat="29.476737" lon="105.127305"><ele>295.76</ele><time>2026-02-11T00:26:41.000Z</time></trkpt>
        <trkpt lat="29.4767859" lon="105.1274016"><ele>296.65</ele><time>2026-02-11T00:26:51.000Z</time></trkpt>
        <trkpt lat="29.476829" lon="105.1275135"><ele>297.64</ele><time>2026-02-11T00:27:01.000Z</time></trkpt>
        <trkpt lat="29.476885" lon="105.1276144"><ele>298.03</ele><time>2026-02-11T00:27:09.000Z</time></trkpt>
        <trkpt lat="29.4769549" lon="105.1277003"><ele>298.43</ele><time>2026-02-11T00:27:17.000Z</time></trkpt>
        <trkpt lat="29.4770126" lon="105.1278003"><ele>298.84</ele><time>2026-02-11T00:27:25.000Z</time></trkpt>
        <trkpt lat="29.4770713" lon="105.1278983"><ele>299.1</ele><time>2026-02-11T00:27:33.000Z</time></trkpt>
        <trkpt lat="29.477101" lon="105.1280062"><ele>299.3</ele><time>2026-02-11T00:27:41.000Z</time></trkpt>
        <trkpt lat="29.4771179" lon="105.1281137"><ele>300.19</ele><time>2026-02-11T00:27:49.000Z</time></trkpt>
        <trkpt lat="29.4771141" lon="105.1282284"><ele>300.9</ele><time>2026-02-11T00:27:57.000Z</time></trkpt>
        <trkpt lat="29.4770966" lon="105.1283476"><ele>300.84</ele><time>2026-02-11T00:28:05.000Z</time></trkpt>
        <trkpt lat="29.4770807" lon="105.1284681"><ele>300.34</ele><time>2026-02-11T00:28:11.000Z</time></trkpt>
        <trkpt lat="29.4771473" lon="105.128563"><ele>300.08</ele><time>2026-02-11T00:28:19.000Z</time></trkpt>
        <trkpt lat="29.4772381" lon="105.128621"><ele>299.96</ele><time>2026-02-11T00:28:25.000Z</time></trkpt>
        <trkpt lat="29.4773337" lon="105.1286481"><ele>299.94</ele><time>2026-02-11T00:28:31.000Z</time></trkpt>
        <trkpt lat="29.4774339" lon="105.1286755"><ele>300.1</ele><time>2026-02-11T00:28:41.000Z</time></trkpt>
        <trkpt lat="29.4775328" lon="105.1286584"><ele>300.94</ele><time>2026-02-11T00:28:51.000Z</time></trkpt>
        <trkpt lat="29.4776243" lon="105.1285923"><ele>301.79</ele><time>2026-02-11T00:29:11.000Z</time></trkpt>
        <trkpt lat="29.4777127" lon="105.1285243"><ele>302.91</ele><time>2026-02-11T00:29:17.000Z</time></trkpt>
        <trkpt lat="29.4777963" lon="105.1284663"><ele>303.46</ele><time>2026-02-11T00:29:25.000Z</time></trkpt>
        <trkpt lat="29.4778895" lon="105.1284204"><ele>304.26</ele><time>2026-02-11T00:29:35.000Z</time></trkpt>
        <trkpt lat="29.4779805" lon="105.1284242"><ele>305.23</ele><time>2026-02-11T00:29:43.000Z</time></trkpt>
        <trkpt lat="29.4780787" lon="105.1284744"><ele>306.04</ele><time>2026-02-11T00:29:53.000Z</time></trkpt>
        <trkpt lat="29.4781877" lon="105.1285426"><ele>306.6</ele><time>2026-02-11T00:30:07.000Z</time></trkpt>
        <trkpt lat="29.4782762" lon="105.128603"><ele>306.95</ele><time>2026-02-11T00:30:13.000Z</time></trkpt>
        <trkpt lat="29.4783704" lon="105.1286594"><ele>306.43</ele><time>2026-02-11T00:30:23.000Z</time></trkpt>
        <trkpt lat="29.4784638" lon="105.1287296"><ele>305.45</ele><time>2026-02-11T00:30:31.000Z</time></trkpt>
        <trkpt lat="29.4785474" lon="105.1287897"><ele>305.29</ele><time>2026-02-11T00:30:39.000Z</time></trkpt>
        <trkpt lat="29.4786212" lon="105.1288795"><ele>305</ele><time>2026-02-11T00:30:47.000Z</time></trkpt>
        <trkpt lat="29.4786613" lon="105.1289854"><ele>303.95</ele><time>2026-02-11T00:31:15.000Z</time></trkpt>
        <trkpt lat="29.4786529" lon="105.1291027"><ele>302.71</ele><time>2026-02-11T00:31:23.000Z</time></trkpt>
        <trkpt lat="29.4786266" lon="105.1292119"><ele>302.58</ele><time>2026-02-11T00:31:29.000Z</time></trkpt>
        <trkpt lat="29.4785884" lon="105.1293182"><ele>303.17</ele><time>2026-02-11T00:31:37.000Z</time></trkpt>
        <trkpt lat="29.4785464" lon="105.1294208"><ele>303.97</ele><time>2026-02-11T00:31:45.000Z</time></trkpt>
        <trkpt lat="29.478528" lon="105.1295346"><ele>304.72</ele><time>2026-02-11T00:31:53.000Z</time></trkpt>
        <trkpt lat="29.4785237" lon="105.1296589"><ele>305.45</ele><time>2026-02-11T00:32:03.000Z</time></trkpt>
        <trkpt lat="29.4785232" lon="105.1297851"><ele>306.64</ele><time>2026-02-11T00:32:15.000Z</time></trkpt>
        <trkpt lat="29.4784801" lon="105.1298857"><ele>308.2</ele><time>2026-02-11T00:32:25.000Z</time></trkpt>
        <trkpt lat="29.4783783" lon="105.1298955"><ele>310.3</ele><time>2026-02-11T00:32:31.000Z</time></trkpt>
        <trkpt lat="29.4782737" lon="105.129878"><ele>311.6</ele><time>2026-02-11T00:32:37.000Z</time></trkpt>
        <trkpt lat="29.4781635" lon="105.1298182"><ele>312.68</ele><time>2026-02-11T00:32:45.000Z</time></trkpt>
        <trkpt lat="29.4780659" lon="105.1297662"><ele>313.84</ele><time>2026-02-11T00:32:53.000Z</time></trkpt>
        <trkpt lat="29.4779993" lon="105.1298333"><ele>313.84</ele><time>2026-02-11T00:33:01.000Z</time></trkpt>
        <trkpt lat="29.4779192" lon="105.1298369"><ele>311.9</ele><time>2026-02-11T00:33:15.000Z</time></trkpt>
        <trkpt lat="29.4778338" lon="105.1298753"><ele>312.38</ele><time>2026-02-11T00:33:43.000Z</time></trkpt>
        <trkpt lat="29.4778338" lon="105.1298753"><ele>312.38</ele><time>2026-02-11T00:33:59.000Z</time></trkpt>
        <trkpt lat="29.47788" lon="105.1298754"><ele>307.3</ele><time>2026-02-11T00:34:00.000Z</time></trkpt>
        <trkpt lat="29.47788" lon="105.1298754"><ele>307.3</ele><time>2026-02-11T00:34:19.000Z</time></trkpt>
        <trkpt lat="29.4779742" lon="105.1298919"><ele>301.97</ele><time>2026-02-11T00:34:25.000Z</time></trkpt>
        <trkpt lat="29.4780526" lon="105.1298344"><ele>299.05</ele><time>2026-02-11T00:34:33.000Z</time></trkpt>
        <trkpt lat="29.4781197" lon="105.1297483"><ele>297.36</ele><time>2026-02-11T00:34:43.000Z</time></trkpt>
        <trkpt lat="29.4781568" lon="105.1297996"><ele>296.3</ele><time>2026-02-11T00:35:13.000Z</time></trkpt>
        <trkpt lat="29.4782281" lon="105.1298573"><ele>296.76</ele><time>2026-02-11T00:35:21.000Z</time></trkpt>
        <trkpt lat="29.4783213" lon="105.1298861"><ele>298.23</ele><time>2026-02-11T00:35:29.000Z</time></trkpt>
        <trkpt lat="29.4784239" lon="105.1298978"><ele>300.21</ele><time>2026-02-11T00:35:39.000Z</time></trkpt>
        <trkpt lat="29.4785022" lon="105.1298348"><ele>303.23</ele><time>2026-02-11T00:35:49.000Z</time></trkpt>
        <trkpt lat="29.4785796" lon="105.1297549"><ele>306.03</ele><time>2026-02-11T00:35:57.000Z</time></trkpt>
        <trkpt lat="29.478548" lon="105.1296615"><ele>308.49</ele><time>2026-02-11T00:36:17.000Z</time></trkpt>
        <trkpt lat="29.4785333" lon="105.129536"><ele>310.85</ele><time>2026-02-11T00:36:25.000Z</time></trkpt>
        <trkpt lat="29.4785404" lon="105.1294068"><ele>311.99</ele><time>2026-02-11T00:36:33.000Z</time></trkpt>
        <trkpt lat="29.4785614" lon="105.1292794"><ele>312.55</ele><time>2026-02-11T00:36:41.000Z</time></trkpt>
        <trkpt lat="29.4785952" lon="105.1291682"><ele>312.7</ele><time>2026-02-11T00:36:50.000Z</time></trkpt>
        <trkpt lat="29.4786182" lon="105.1290538"><ele>312.34</ele><time>2026-02-11T00:36:57.000Z</time></trkpt>
        <trkpt lat="29.4786128" lon="105.1289371"><ele>312.19</ele><time>2026-02-11T00:37:07.000Z</time></trkpt>
        <trkpt lat="29.4785723" lon="105.128821"><ele>311.87</ele><time>2026-02-11T00:37:15.000Z</time></trkpt>
        <trkpt lat="29.4786256" lon="105.1287485"><ele>311.3</ele><time>2026-02-11T00:37:25.000Z</time></trkpt>
        <trkpt lat="29.4787053" lon="105.1286858"><ele>310.46</ele><time>2026-02-11T00:37:33.000Z</time></trkpt>
        <trkpt lat="29.4787908" lon="105.1286087"><ele>309.31</ele><time>2026-02-11T00:37:41.000Z</time></trkpt>
        <trkpt lat="29.4788478" lon="105.1285106"><ele>308.19</ele><time>2026-02-11T00:37:49.000Z</time></trkpt>
        <trkpt lat="29.4788047" lon="105.1284038"><ele>307.82</ele><time>2026-02-11T00:39:01.000Z</time></trkpt>
        <trkpt lat="29.4787111" lon="105.1283051"><ele>307.16</ele><time>2026-02-11T00:39:11.000Z</time></trkpt>
        <trkpt lat="29.478659" lon="105.1282117"><ele>306.16</ele><time>2026-02-11T00:39:17.000Z</time></trkpt>
        <trkpt lat="29.4786061" lon="105.1280964"><ele>305.16</ele><time>2026-02-11T00:39:25.000Z</time></trkpt>
        <trkpt lat="29.4785574" lon="105.1280012"><ele>304.22</ele><time>2026-02-11T00:39:31.000Z</time></trkpt>
        <trkpt lat="29.4785346" lon="105.1278988"><ele>303.49</ele><time>2026-02-11T00:39:39.000Z</time></trkpt>
        <trkpt lat="29.4785646" lon="105.1277998"><ele>303.65</ele><time>2026-02-11T00:40:07.000Z</time></trkpt>
        <trkpt lat="29.4786193" lon="105.127705"><ele>303.02</ele><time>2026-02-11T00:40:19.000Z</time></trkpt>
        <trkpt lat="29.4787021" lon="105.127612"><ele>303.22</ele><time>2026-02-11T00:40:45.000Z</time></trkpt>
        <trkpt lat="29.4787568" lon="105.1275121"><ele>303.52</ele><time>2026-02-11T00:40:53.000Z</time></trkpt>
        <trkpt lat="29.4787529" lon="105.1273979"><ele>304.05</ele><time>2026-02-11T00:41:03.000Z</time></trkpt>
        <trkpt lat="29.4786895" lon="105.1273064"><ele>305.31</ele><time>2026-02-11T00:41:15.000Z</time></trkpt>
        <trkpt lat="29.4785943" lon="105.1272734"><ele>307.49</ele><time>2026-02-11T00:41:21.000Z</time></trkpt>
        <trkpt lat="29.4784781" lon="105.1272682"><ele>309.59</ele><time>2026-02-11T00:41:31.000Z</time></trkpt>
        <trkpt lat="29.4783774" lon="105.1272288"><ele>311.82</ele><time>2026-02-11T00:41:39.000Z</time></trkpt>
        <trkpt lat="29.4782864" lon="105.1271785"><ele>313.7</ele><time>2026-02-11T00:41:45.000Z</time></trkpt>
        <trkpt lat="29.4781789" lon="105.1271145"><ele>314.52</ele><time>2026-02-11T00:41:51.000Z</time></trkpt>
        <trkpt lat="29.4780687" lon="105.1270277"><ele>314.97</ele><time>2026-02-11T00:41:57.000Z</time></trkpt>
        <trkpt lat="29.4779894" lon="105.1269437"><ele>315.02</ele><time>2026-02-11T00:42:03.000Z</time></trkpt>
        <trkpt lat="29.477903" lon="105.1268814"><ele>314.9</ele><time>2026-02-11T00:42:11.000Z</time></trkpt>
        <trkpt lat="29.477831" lon="105.1268009"><ele>314.93</ele><time>2026-02-11T00:42:19.000Z</time></trkpt>
        <trkpt lat="29.4777603" lon="105.1267126"><ele>314.92</ele><time>2026-02-11T00:42:27.000Z</time></trkpt>
        <trkpt lat="29.4777072" lon="105.1266128"><ele>315.11</ele><time>2026-02-11T00:42:35.000Z</time></trkpt>
        <trkpt lat="29.477624" lon="105.1266458"><ele>315.36</ele><time>2026-02-11T00:42:43.000Z</time></trkpt>
        <trkpt lat="29.4775905" lon="105.1265884"><ele>315.91</ele><time>2026-02-11T00:42:51.000Z</time></trkpt>
        <trkpt lat="29.477556" lon="105.1264886"><ele>315.39</ele><time>2026-02-11T00:43:01.000Z</time></trkpt>
        <trkpt lat="29.4774901" lon="105.1263815"><ele>315.37</ele><time>2026-02-11T00:43:09.000Z</time></trkpt>
        <trkpt lat="29.4774217" lon="105.1262745"><ele>314.12</ele><time>2026-02-11T00:43:27.000Z</time></trkpt>
        <trkpt lat="29.4774117" lon="105.1261535"><ele>312.33</ele><time>2026-02-11T00:43:37.000Z</time></trkpt>
        <trkpt lat="29.4774808" lon="105.1260535"><ele>310.08</ele><time>2026-02-11T00:43:43.000Z</time></trkpt>
        <trkpt lat="29.4775693" lon="105.1259641"><ele>308.26</ele><time>2026-02-11T00:43:51.000Z</time></trkpt>
        <trkpt lat="29.4776446" lon="105.1258694"><ele>305.97</ele><time>2026-02-11T00:43:59.000Z</time></trkpt>
        <trkpt lat="29.4776911" lon="105.1257493"><ele>303.53</ele><time>2026-02-11T00:44:07.000Z</time></trkpt>
        <trkpt lat="29.4776854" lon="105.1256382"><ele>301.58</ele><time>2026-02-11T00:44:13.000Z</time></trkpt>
        <trkpt lat="29.477624" lon="105.1255537"><ele>300.08</ele><time>2026-02-11T00:44:19.000Z</time></trkpt>
        <trkpt lat="29.4775558" lon="105.1254621"><ele>299.09</ele><time>2026-02-11T00:44:27.000Z</time></trkpt>
        <trkpt lat="29.4774879" lon="105.1253708"><ele>299.34</ele><time>2026-02-11T00:44:35.000Z</time></trkpt>
        <trkpt lat="29.4774368" lon="105.1252739"><ele>300.17</ele><time>2026-02-11T00:44:43.000Z</time></trkpt>
        <trkpt lat="29.4773756" lon="105.1251805"><ele>300.76</ele><time>2026-02-11T00:44:51.000Z</time></trkpt>
        <trkpt lat="29.4773347" lon="105.1250683"><ele>301.32</ele><time>2026-02-11T00:45:01.000Z</time></trkpt>
        <trkpt lat="29.4772907" lon="105.12497"><ele>301.54</ele><time>2026-02-11T00:45:09.000Z</time></trkpt>
        <trkpt lat="29.4772326" lon="105.1248809"><ele>301.67</ele><time>2026-02-11T00:45:17.000Z</time></trkpt>
        <trkpt lat="29.4771453" lon="105.1248888"><ele>301.89</ele><time>2026-02-11T00:45:25.000Z</time></trkpt>
        <trkpt lat="29.477062" lon="105.1249636"><ele>301.56</ele><time>2026-02-11T00:45:33.000Z</time></trkpt>
        <trkpt lat="29.4769883" lon="105.1250485"><ele>300.74</ele><time>2026-02-11T00:45:41.000Z</time></trkpt>
        <trkpt lat="29.4769021" lon="105.1251167"><ele>299.88</ele><time>2026-02-11T00:45:49.000Z</time></trkpt>
        <trkpt lat="29.4767948" lon="105.125136"><ele>298.97</ele><time>2026-02-11T00:45:59.000Z</time></trkpt>
        <trkpt lat="29.4767472" lon="105.1252147"><ele>298.22</ele><time>2026-02-11T00:46:07.000Z</time></trkpt>
        <trkpt lat="29.4767477" lon="105.1253306"><ele>297.78</ele><time>2026-02-11T00:46:15.000Z</time></trkpt>
        <trkpt lat="29.4767892" lon="105.1254383"><ele>297.47</ele><time>2026-02-11T00:46:23.000Z</time></trkpt>
        <trkpt lat="29.4768565" lon="105.1255472"><ele>297.19</ele><time>2026-02-11T00:46:31.000Z</time></trkpt>
        <trkpt lat="29.4769137" lon="105.1256568"><ele>297.22</ele><time>2026-02-11T00:46:39.000Z</time></trkpt>
        <trkpt lat="29.4769526" lon="105.125763"><ele>297</ele><time>2026-02-11T00:46:47.000Z</time></trkpt>
        <trkpt lat="29.4769483" lon="105.1258702"><ele>296.06</ele><time>2026-02-11T00:46:57.000Z</time></trkpt>
        <trkpt lat="29.4769146" lon="105.1259809"><ele>294.67</ele><time>2026-02-11T00:47:07.000Z</time></trkpt>
        <trkpt lat="29.4768717" lon="105.1260978"><ele>293.64</ele><time>2026-02-11T00:47:15.000Z</time></trkpt>
        <trkpt lat="29.4768069" lon="105.1261908"><ele>293.05</ele><time>2026-02-11T00:47:23.000Z</time></trkpt>
        <trkpt lat="29.4767343" lon="105.126272"><ele>292.76</ele><time>2026-02-11T00:47:32.000Z</time></trkpt>
        <trkpt lat="29.4766691" lon="105.1263615"><ele>293.07</ele><time>2026-02-11T00:47:41.000Z</time></trkpt>
        <trkpt lat="29.4765934" lon="105.1264542"><ele>292.5</ele><time>2026-02-11T00:47:49.000Z</time></trkpt>
        <trkpt lat="29.4765003" lon="105.1265066"><ele>291.81</ele><time>2026-02-11T00:47:59.000Z</time></trkpt>
        <trkpt lat="29.476398" lon="105.1265306"><ele>291.69</ele><time>2026-02-11T00:48:09.000Z</time></trkpt>
        <trkpt lat="29.4762909" lon="105.1265584"><ele>292.68</ele><time>2026-02-11T00:48:17.000Z</time></trkpt>
        <trkpt lat="29.4761889" lon="105.1265998"><ele>293.52</ele><time>2026-02-11T00:48:27.000Z</time></trkpt>
        <trkpt lat="29.4760859" lon="105.1266075"><ele>294.11</ele><time>2026-02-11T00:49:01.000Z</time></trkpt>
        <trkpt lat="29.4759748" lon="105.1266017"><ele>295.01</ele><time>2026-02-11T00:49:37.000Z</time></trkpt>
        <trkpt lat="29.4758647" lon="105.1265737"><ele>295.33</ele><time>2026-02-11T00:49:45.000Z</time></trkpt>
        <trkpt lat="29.4757518" lon="105.1265538"><ele>295.71</ele><time>2026-02-11T00:49:53.000Z</time></trkpt>
        <trkpt lat="29.4756444" lon="105.1265857"><ele>296.38</ele><time>2026-02-11T00:50:01.000Z</time></trkpt>
        <trkpt lat="29.4755375" lon="105.1266272"><ele>297</ele><time>2026-02-11T00:50:11.000Z</time></trkpt>
        <trkpt lat="29.4754339" lon="105.1266773"><ele>296.93</ele><time>2026-02-11T00:50:19.000Z</time></trkpt>
        <trkpt lat="29.4753304" lon="105.1267092"><ele>296.98</ele><time>2026-02-11T00:50:27.000Z</time></trkpt>
        <trkpt lat="29.475231" lon="105.1267184"><ele>297.52</ele><time>2026-02-11T00:50:35.000Z</time></trkpt>
        <trkpt lat="29.4751257" lon="105.1267219"><ele>297.97</ele><time>2026-02-11T00:50:45.000Z</time></trkpt>
        <trkpt lat="29.4750395" lon="105.1267671"><ele>298.02</ele><time>2026-02-11T00:51:01.000Z</time></trkpt>
        <trkpt lat="29.4749744" lon="105.1268654"><ele>298.96</ele><time>2026-02-11T00:51:11.000Z</time></trkpt>
        <trkpt lat="29.4749441" lon="105.1269855"><ele>299.25</ele><time>2026-02-11T00:51:19.000Z</time></trkpt>
        <trkpt lat="29.4749016" lon="105.1270846"><ele>297.88</ele><time>2026-02-11T00:51:27.000Z</time></trkpt>
        <trkpt lat="29.4748208" lon="105.1271676"><ele>296.77</ele><time>2026-02-11T00:51:35.000Z</time></trkpt>
        <trkpt lat="29.4747253" lon="105.1272352"><ele>296</ele><time>2026-02-11T00:51:43.000Z</time></trkpt>
        <trkpt lat="29.4746375" lon="105.1273002"><ele>295.99</ele><time>2026-02-11T00:51:51.000Z</time></trkpt>
        <trkpt lat="29.4745398" lon="105.1273526"><ele>296.4</ele><time>2026-02-11T00:51:59.000Z</time></trkpt>
        <trkpt lat="29.4744425" lon="105.1274063"><ele>296.76</ele><time>2026-02-11T00:52:07.000Z</time></trkpt>
        <trkpt lat="29.4743522" lon="105.1274573"><ele>297.01</ele><time>2026-02-11T00:52:15.000Z</time></trkpt>
        <trkpt lat="29.4742707" lon="105.1275258"><ele>297.02</ele><time>2026-02-11T00:52:23.000Z</time></trkpt>
        <trkpt lat="29.474199" lon="105.1276124"><ele>297.92</ele><time>2026-02-11T00:52:31.000Z</time></trkpt>
        <trkpt lat="29.4741338" lon="105.1276995"><ele>298.92</ele><time>2026-02-11T00:52:39.000Z</time></trkpt>
        <trkpt lat="29.4740546" lon="105.1277595"><ele>299.8</ele><time>2026-02-11T00:52:47.000Z</time></trkpt>
        <trkpt lat="29.4739626" lon="105.1278027"><ele>299.98</ele><time>2026-02-11T00:52:57.000Z</time></trkpt>
        <trkpt lat="29.4738524" lon="105.1278248"><ele>299.63</ele><time>2026-02-11T00:53:07.000Z</time></trkpt>
        <trkpt lat="29.4737731" lon="105.1277632"><ele>299.99</ele><time>2026-02-11T00:53:17.000Z</time></trkpt>
        <trkpt lat="29.4737613" lon="105.1276417"><ele>301.59</ele><time>2026-02-11T00:53:29.000Z</time></trkpt>
        <trkpt lat="29.4737505" lon="105.1275121"><ele>303.44</ele><time>2026-02-11T00:53:37.000Z</time></trkpt>
        <trkpt lat="29.4737475" lon="105.1273908"><ele>305.57</ele><time>2026-02-11T00:53:45.000Z</time></trkpt>
        <trkpt lat="29.4737314" lon="105.1272694"><ele>307.2</ele><time>2026-02-11T00:53:53.000Z</time></trkpt>
        <trkpt lat="29.4737316" lon="105.1271589"><ele>308.89</ele><time>2026-02-11T00:54:03.000Z</time></trkpt>
        <trkpt lat="29.473714" lon="105.1270559"><ele>310.22</ele><time>2026-02-11T00:54:13.000Z</time></trkpt>
        <trkpt lat="29.4736841" lon="105.1269418"><ele>311.34</ele><time>2026-02-11T00:54:23.000Z</time></trkpt>
        <trkpt lat="29.4736672" lon="105.1268322"><ele>313.03</ele><time>2026-02-11T00:54:33.000Z</time></trkpt>
        <trkpt lat="29.4736818" lon="105.1267186"><ele>314.45</ele><time>2026-02-11T00:54:43.000Z</time></trkpt>
        <trkpt lat="29.4737164" lon="105.1266182"><ele>315.57</ele><time>2026-02-11T00:54:51.000Z</time></trkpt>
        <trkpt lat="29.4737706" lon="105.1265217"><ele>316.6</ele><time>2026-02-11T00:55:01.000Z</time></trkpt>
        <trkpt lat="29.473852" lon="105.1264564"><ele>318.34</ele><time>2026-02-11T00:55:09.000Z</time></trkpt>
        <trkpt lat="29.4739505" lon="105.1264388"><ele>319.49</ele><time>2026-02-11T00:55:17.000Z</time></trkpt>
        <trkpt lat="29.4739505" lon="105.1264388"><ele>319.49</ele><time>2026-02-11T00:55:39.000Z</time></trkpt>
        <trkpt lat="29.4740663" lon="105.1263907"><ele>320.63</ele><time>2026-02-11T00:56:06.000Z</time></trkpt>
        <trkpt lat="29.4740663" lon="105.1263907"><ele>320.63</ele><time>2026-02-11T00:56:25.000Z</time></trkpt>
        <trkpt lat="29.4741572" lon="105.1263307"><ele>321.51</ele><time>2026-02-11T00:56:33.000Z</time></trkpt>
        <trkpt lat="29.4742299" lon="105.1262303"><ele>321.6</ele><time>2026-02-11T00:56:41.000Z</time></trkpt>
        <trkpt lat="29.474274" lon="105.1261217"><ele>322.05</ele><time>2026-02-11T00:56:51.000Z</time></trkpt>
        <trkpt lat="29.4742193" lon="105.1260485"><ele>321.71</ele><time>2026-02-11T00:56:59.000Z</time></trkpt>
        <trkpt lat="29.4741333" lon="105.1259779"><ele>321.86</ele><time>2026-02-11T00:57:05.000Z</time></trkpt>
        <trkpt lat="29.4740265" lon="105.1258852"><ele>321.68</ele><time>2026-02-11T00:57:11.000Z</time></trkpt>
        <trkpt lat="29.4740024" lon="105.1257677"><ele>321.3</ele><time>2026-02-11T00:57:19.000Z</time></trkpt>
        <trkpt lat="29.4739981" lon="105.1256359"><ele>320.31</ele><time>2026-02-11T00:57:27.000Z</time></trkpt>
        <trkpt lat="29.4739913" lon="105.1255099"><ele>319.37</ele><time>2026-02-11T00:57:35.000Z</time></trkpt>
        <trkpt lat="29.4739697" lon="105.1253914"><ele>318.45</ele><time>2026-02-11T00:57:43.000Z</time></trkpt>
        <trkpt lat="29.4739599" lon="105.1252627"><ele>317.73</ele><time>2026-02-11T00:57:51.000Z</time></trkpt>
        <trkpt lat="29.47397" lon="105.1251429"><ele>316.64</ele><time>2026-02-11T00:57:59.000Z</time></trkpt>
        <trkpt lat="29.4739969" lon="105.125027"><ele>315.62</ele><time>2026-02-11T00:58:07.000Z</time></trkpt>
        <trkpt lat="29.4740458" lon="105.1249264"><ele>314.53</ele><time>2026-02-11T00:58:41.000Z</time></trkpt>
        <trkpt lat="29.474093" lon="105.1248286"><ele>313</ele><time>2026-02-11T00:58:49.000Z</time></trkpt>
        <trkpt lat="29.4741401" lon="105.1247192"><ele>311.85</ele><time>2026-02-11T00:58:57.000Z</time></trkpt>
        <trkpt lat="29.4741978" lon="105.1246183"><ele>310.94</ele><time>2026-02-11T00:59:05.000Z</time></trkpt>
        <trkpt lat="29.4742797" lon="105.1245301"><ele>310.53</ele><time>2026-02-11T00:59:13.000Z</time></trkpt>
        <trkpt lat="29.4743344" lon="105.1244389"><ele>310.07</ele><time>2026-02-11T00:59:19.000Z</time></trkpt>
        <trkpt lat="29.4743399" lon="105.1243186"><ele>309.57</ele><time>2026-02-11T00:59:33.000Z</time></trkpt>
        <trkpt lat="29.4743137" lon="105.1241923"><ele>308.59</ele><time>2026-02-11T00:59:41.000Z</time></trkpt>
        <trkpt lat="29.4742732" lon="105.1240655"><ele>308.3</ele><time>2026-02-11T00:59:49.000Z</time></trkpt>
        <trkpt lat="29.4742314" lon="105.1239514"><ele>308.41</ele><time>2026-02-11T01:00:07.000Z</time></trkpt>
        <trkpt lat="29.4742091" lon="105.1238306"><ele>308.96</ele><time>2026-02-11T01:00:15.000Z</time></trkpt>
        <trkpt lat="29.4741981" lon="105.1237099"><ele>310.35</ele><time>2026-02-11T01:00:23.000Z</time></trkpt>
        <trkpt lat="29.4741847" lon="105.1235999"><ele>311</ele><time>2026-02-11T01:00:31.000Z</time></trkpt>
        <trkpt lat="29.474163" lon="105.1234787"><ele>311.36</ele><time>2026-02-11T01:00:41.000Z</time></trkpt>
        <trkpt lat="29.4741113" lon="105.1233843"><ele>311.07</ele><time>2026-02-11T01:01:09.000Z</time></trkpt>
        <trkpt lat="29.4740191" lon="105.123343"><ele>310.49</ele><time>2026-02-11T01:01:17.000Z</time></trkpt>
        <trkpt lat="29.4739404" lon="105.1232734"><ele>310.8</ele><time>2026-02-11T01:01:25.000Z</time></trkpt>
        <trkpt lat="29.4738943" lon="105.1231666"><ele>311.84</ele><time>2026-02-11T01:01:33.000Z</time></trkpt>
        <trkpt lat="29.4738856" lon="105.1230485"><ele>312.78</ele><time>2026-02-11T01:01:41.000Z</time></trkpt>
        <trkpt lat="29.4738757" lon="105.122937"><ele>313.01</ele><time>2026-02-11T01:01:49.000Z</time></trkpt>
        <trkpt lat="29.4738467" lon="105.1228313"><ele>313.07</ele><time>2026-02-11T01:01:59.000Z</time></trkpt>
        <trkpt lat="29.4738467" lon="105.1228313"><ele>313.07</ele><time>2026-02-11T01:02:09.000Z</time></trkpt>
        <trkpt lat="29.4737851" lon="105.1227433"><ele>312.86</ele><time>2026-02-11T01:02:10.000Z</time></trkpt>
        <trkpt lat="29.4737851" lon="105.1227433"><ele>312.86</ele><time>2026-02-11T01:02:17.000Z</time></trkpt>
        <trkpt lat="29.473718" lon="105.1226655"><ele>313.3</ele><time>2026-02-11T01:02:23.000Z</time></trkpt>
        <trkpt lat="29.4736274" lon="105.1226301"><ele>314.35</ele><time>2026-02-11T01:02:31.000Z</time></trkpt>
        <trkpt lat="29.4736807" lon="105.1226623"><ele>315.28</ele><time>2026-02-11T01:03:01.000Z</time></trkpt>
        <trkpt lat="29.4737853" lon="105.1227568"><ele>313.96</ele><time>2026-02-11T01:03:09.000Z</time></trkpt>
        <trkpt lat="29.4738698" lon="105.1228597"><ele>312.57</ele><time>2026-02-11T01:03:17.000Z</time></trkpt>
        <trkpt lat="29.473909" lon="105.1229837"><ele>311.75</ele><time>2026-02-11T01:03:25.000Z</time></trkpt>
        <trkpt lat="29.4739231" lon="105.1231034"><ele>311.03</ele><time>2026-02-11T01:03:33.000Z</time></trkpt>
        <trkpt lat="29.4739242" lon="105.1232229"><ele>311.02</ele><time>2026-02-11T01:03:41.000Z</time></trkpt>
        <trkpt lat="29.4739705" lon="105.1233325"><ele>310.64</ele><time>2026-02-11T01:03:51.000Z</time></trkpt>
        <trkpt lat="29.4740606" lon="105.1233869"><ele>310.79</ele><time>2026-02-11T01:03:59.000Z</time></trkpt>
        <trkpt lat="29.4741551" lon="105.1233535"><ele>310.71</ele><time>2026-02-11T01:04:07.000Z</time></trkpt>
        <trkpt lat="29.4742186" lon="105.1232599"><ele>310.43</ele><time>2026-02-11T01:04:15.000Z</time></trkpt>
        <trkpt lat="29.4742696" lon="105.1231317"><ele>310.27</ele><time>2026-02-11T01:04:25.000Z</time></trkpt>
        <trkpt lat="29.4743175" lon="105.1230112"><ele>310.26</ele><time>2026-02-11T01:04:33.000Z</time></trkpt>
        <trkpt lat="29.474382" lon="105.1229127"><ele>310.29</ele><time>2026-02-11T01:04:41.000Z</time></trkpt>
        <trkpt lat="29.4744455" lon="105.122827"><ele>310.34</ele><time>2026-02-11T01:04:47.000Z</time></trkpt>
        <trkpt lat="29.4745126" lon="105.1227384"><ele>310.04</ele><time>2026-02-11T01:04:55.000Z</time></trkpt>
        <trkpt lat="29.4745813" lon="105.1226338"><ele>309.73</ele><time>2026-02-11T01:05:05.000Z</time></trkpt>
        <trkpt lat="29.4746252" lon="105.1225139"><ele>309.67</ele><time>2026-02-11T01:05:13.000Z</time></trkpt>
        <trkpt lat="29.4746435" lon="105.1224015"><ele>310.09</ele><time>2026-02-11T01:05:21.000Z</time></trkpt>
        <trkpt lat="29.4746437" lon="105.1222906"><ele>310.64</ele><time>2026-02-11T01:05:29.000Z</time></trkpt>
        <trkpt lat="29.4746366" lon="105.1221819"><ele>310.73</ele><time>2026-02-11T01:05:37.000Z</time></trkpt>
        <trkpt lat="29.4746214" lon="105.12207"><ele>311</ele><time>2026-02-11T01:05:45.000Z</time></trkpt>
        <trkpt lat="29.474604" lon="105.1219607"><ele>311.38</ele><time>2026-02-11T01:05:51.000Z</time></trkpt>
        <trkpt lat="29.4745835" lon="105.1218485"><ele>311.43</ele><time>2026-02-11T01:05:59.000Z</time></trkpt>
        <trkpt lat="29.4745571" lon="105.1217458"><ele>310.92</ele><time>2026-02-11T01:06:05.000Z</time></trkpt>
        <trkpt lat="29.4744994" lon="105.1216461"><ele>310.44</ele><time>2026-02-11T01:06:13.000Z</time></trkpt>
        <trkpt lat="29.4744287" lon="105.1215372"><ele>310.96</ele><time>2026-02-11T01:06:21.000Z</time></trkpt>
        <trkpt lat="29.4743555" lon="105.1214226"><ele>311.53</ele><time>2026-02-11T01:06:29.000Z</time></trkpt>
        <trkpt lat="29.4742838" lon="105.1213136"><ele>312.15</ele><time>2026-02-11T01:06:37.000Z</time></trkpt>
        <trkpt lat="29.4742637" lon="105.1211957"><ele>312.34</ele><time>2026-02-11T01:06:45.000Z</time></trkpt>
        <trkpt lat="29.4743083" lon="105.1211053"><ele>312.18</ele><time>2026-02-11T01:06:53.000Z</time></trkpt>
        <trkpt lat="29.4743912" lon="105.1210341"><ele>312.35</ele><time>2026-02-11T01:07:01.000Z</time></trkpt>
        <trkpt lat="29.4744678" lon="105.120956"><ele>312.12</ele><time>2026-02-11T01:07:09.000Z</time></trkpt>
        <trkpt lat="29.4745344" lon="105.1208651"><ele>312.08</ele><time>2026-02-11T01:07:17.000Z</time></trkpt>
        <trkpt lat="29.4745895" lon="105.1207639"><ele>311.66</ele><time>2026-02-11T01:07:25.000Z</time></trkpt>
        <trkpt lat="29.4746223" lon="105.1206545"><ele>311.14</ele><time>2026-02-11T01:07:33.000Z</time></trkpt>
        <trkpt lat="29.4746434" lon="105.1205252"><ele>310.84</ele><time>2026-02-11T01:07:41.000Z</time></trkpt>
        <trkpt lat="29.474665" lon="105.1204039"><ele>310.13</ele><time>2026-02-11T01:07:47.000Z</time></trkpt>
        <trkpt lat="29.4746859" lon="105.1202794"><ele>308.57</ele><time>2026-02-11T01:07:55.000Z</time></trkpt>
        <trkpt lat="29.4747265" lon="105.1201651"><ele>307.59</ele><time>2026-02-11T01:08:03.000Z</time></trkpt>
        <trkpt lat="29.4747657" lon="105.120066"><ele>307.08</ele><time>2026-02-11T01:08:09.000Z</time></trkpt>
        <trkpt lat="29.4748108" lon="105.1199682"><ele>306.55</ele><time>2026-02-11T01:08:15.000Z</time></trkpt>
        <trkpt lat="29.4748402" lon="105.119863"><ele>306.01</ele><time>2026-02-11T01:08:23.000Z</time></trkpt>
        <trkpt lat="29.4748849" lon="105.1197483"><ele>305.55</ele><time>2026-02-11T01:08:35.000Z</time></trkpt>
        <trkpt lat="29.4749186" lon="105.1196355"><ele>305.1</ele><time>2026-02-11T01:08:43.000Z</time></trkpt>
        <trkpt lat="29.4749195" lon="105.1195177"><ele>304.63</ele><time>2026-02-11T01:08:51.000Z</time></trkpt>
        <trkpt lat="29.4748798" lon="105.1193981"><ele>304.09</ele><time>2026-02-11T01:08:59.000Z</time></trkpt>
        <trkpt lat="29.4748034" lon="105.1192904"><ele>304.04</ele><time>2026-02-11T01:09:07.000Z</time></trkpt>
        <trkpt lat="29.474728" lon="105.1191947"><ele>304.01</ele><time>2026-02-11T01:09:17.000Z</time></trkpt>
        <trkpt lat="29.4746665" lon="105.1190929"><ele>304.67</ele><time>2026-02-11T01:09:29.000Z</time></trkpt>
        <trkpt lat="29.4746327" lon="105.1189848"><ele>305.59</ele><time>2026-02-11T01:09:37.000Z</time></trkpt>
        <trkpt lat="29.4746202" lon="105.1188746"><ele>306.15</ele><time>2026-02-11T01:09:45.000Z</time></trkpt>
        <trkpt lat="29.4746426" lon="105.1187523"><ele>306.57</ele><time>2026-02-11T01:09:53.000Z</time></trkpt>
        <trkpt lat="29.4746818" lon="105.1186475"><ele>306.52</ele><time>2026-02-11T01:09:59.000Z</time></trkpt>
        <trkpt lat="29.4746947" lon="105.1185301"><ele>306.7</ele><time>2026-02-11T01:10:33.000Z</time></trkpt>
        <trkpt lat="29.4746624" lon="105.1184179"><ele>309.57</ele><time>2026-02-11T01:10:45.000Z</time></trkpt>
        <trkpt lat="29.474637" lon="105.118303"><ele>310.87</ele><time>2026-02-11T01:10:53.000Z</time></trkpt>
        <trkpt lat="29.4746148" lon="105.1181844"><ele>311.45</ele><time>2026-02-11T01:11:01.000Z</time></trkpt>
        <trkpt lat="29.4745879" lon="105.1180772"><ele>311.74</ele><time>2026-02-11T01:11:07.000Z</time></trkpt>
        <trkpt lat="29.4745699" lon="105.1179519"><ele>311.87</ele><time>2026-02-11T01:11:15.000Z</time></trkpt>
        <trkpt lat="29.4745583" lon="105.1178296"><ele>311.7</ele><time>2026-02-11T01:11:23.000Z</time></trkpt>
        <trkpt lat="29.4745579" lon="105.1177012"><ele>311.96</ele><time>2026-02-11T01:11:31.000Z</time></trkpt>
        <trkpt lat="29.4745893" lon="105.11759"><ele>313.38</ele><time>2026-02-11T01:11:39.000Z</time></trkpt>
        <trkpt lat="29.4746668" lon="105.1175025"><ele>314.23</ele><time>2026-02-11T01:11:47.000Z</time></trkpt>
        <trkpt lat="29.4747328" lon="105.1174084"><ele>313.91</ele><time>2026-02-11T01:11:55.000Z</time></trkpt>
        <trkpt lat="29.4747868" lon="105.1173026"><ele>313.51</ele><time>2026-02-11T01:12:03.000Z</time></trkpt>
        <trkpt lat="29.4748155" lon="105.1171837"><ele>313.56</ele><time>2026-02-11T01:12:11.000Z</time></trkpt>
        <trkpt lat="29.4748558" lon="105.1170807"><ele>313.89</ele><time>2026-02-11T01:12:19.000Z</time></trkpt>
        <trkpt lat="29.4749286" lon="105.1170163"><ele>314.24</ele><time>2026-02-11T01:12:27.000Z</time></trkpt>
        <trkpt lat="29.4750169" lon="105.1169728"><ele>314.14</ele><time>2026-02-11T01:12:37.000Z</time></trkpt>
        <trkpt lat="29.475105" lon="105.1169231"><ele>313.74</ele><time>2026-02-11T01:12:45.000Z</time></trkpt>
        <trkpt lat="29.4751817" lon="105.1168585"><ele>313.29</ele><time>2026-02-11T01:12:51.000Z</time></trkpt>
        <trkpt lat="29.475255" lon="105.1167629"><ele>312.61</ele><time>2026-02-11T01:12:59.000Z</time></trkpt>
        <trkpt lat="29.4753233" lon="105.1166731"><ele>312.17</ele><time>2026-02-11T01:13:07.000Z</time></trkpt>
        <trkpt lat="29.4754092" lon="105.116602"><ele>311.95</ele><time>2026-02-11T01:13:17.000Z</time></trkpt>
        <trkpt lat="29.4754997" lon="105.1165386"><ele>311.84</ele><time>2026-02-11T01:13:25.000Z</time></trkpt>
        <trkpt lat="29.475604" lon="105.1164808"><ele>311.52</ele><time>2026-02-11T01:13:33.000Z</time></trkpt>
        <trkpt lat="29.4756731" lon="105.1163815"><ele>310.69</ele><time>2026-02-11T01:13:41.000Z</time></trkpt>
        <trkpt lat="29.4757287" lon="105.1162905"><ele>310.06</ele><time>2026-02-11T01:13:47.000Z</time></trkpt>
        <trkpt lat="29.4757825" lon="105.116199"><ele>309.4</ele><time>2026-02-11T01:13:55.000Z</time></trkpt>
        <trkpt lat="29.4758549" lon="105.1161273"><ele>309.07</ele><time>2026-02-11T01:14:03.000Z</time></trkpt>
        <trkpt lat="29.4759399" lon="105.1160717"><ele>308.71</ele><time>2026-02-11T01:14:09.000Z</time></trkpt>
        <trkpt lat="29.476043" lon="105.1160165"><ele>308.46</ele><time>2026-02-11T01:14:17.000Z</time></trkpt>
        <trkpt lat="29.4761323" lon="105.1159613"><ele>308.11</ele><time>2026-02-11T01:14:23.000Z</time></trkpt>
        <trkpt lat="29.476234" lon="105.1159343"><ele>307.88</ele><time>2026-02-11T01:14:31.000Z</time></trkpt>
        <trkpt lat="29.476336" lon="105.1159242"><ele>308.33</ele><time>2026-02-11T01:14:39.000Z</time></trkpt>
        <trkpt lat="29.4764304" lon="105.1159022"><ele>309.21</ele><time>2026-02-11T01:14:49.000Z</time></trkpt>
        <trkpt lat="29.4765062" lon="105.1158393"><ele>309.68</ele><time>2026-02-11T01:14:57.000Z</time></trkpt>
        <trkpt lat="29.4765804" lon="105.1157751"><ele>310.47</ele><time>2026-02-11T01:15:05.000Z</time></trkpt>
        <trkpt lat="29.476674" lon="105.1157231"><ele>311.32</ele><time>2026-02-11T01:15:13.000Z</time></trkpt>
        <trkpt lat="29.4767666" lon="105.1156575"><ele>311.96</ele><time>2026-02-11T01:15:21.000Z</time></trkpt>
        <trkpt lat="29.4768591" lon="105.1156343"><ele>312.97</ele><time>2026-02-11T01:15:29.000Z</time></trkpt>
        <trkpt lat="29.4769571" lon="105.1156018"><ele>313.47</ele><time>2026-02-11T01:15:39.000Z</time></trkpt>
        <trkpt lat="29.4770672" lon="105.1155918"><ele>314.02</ele><time>2026-02-11T01:15:49.000Z</time></trkpt>
        <trkpt lat="29.4771803" lon="105.1155847"><ele>313.82</ele><time>2026-02-11T01:15:57.000Z</time></trkpt>
        <trkpt lat="29.4772831" lon="105.1155749"><ele>313.54</ele><time>2026-02-11T01:16:05.000Z</time></trkpt>
        <trkpt lat="29.4773797" lon="105.1155591"><ele>313.02</ele><time>2026-02-11T01:16:11.000Z</time></trkpt>
        <trkpt lat="29.4774802" lon="105.1155358"><ele>312.13</ele><time>2026-02-11T01:16:19.000Z</time></trkpt>
        <trkpt lat="29.4775701" lon="105.1154679"><ele>311.4</ele><time>2026-02-11T01:16:27.000Z</time></trkpt>
        <trkpt lat="29.4775966" lon="105.1153632"><ele>310.75</ele><time>2026-02-11T01:16:35.000Z</time></trkpt>
        <trkpt lat="29.4775882" lon="105.1152436"><ele>310.96</ele><time>2026-02-11T01:16:43.000Z</time></trkpt>
        <trkpt lat="29.4775588" lon="105.1151194"><ele>310.69</ele><time>2026-02-11T01:16:51.000Z</time></trkpt>
        <trkpt lat="29.4775283" lon="105.1149967"><ele>310.95</ele><time>2026-02-11T01:16:59.000Z</time></trkpt>
        <trkpt lat="29.4774865" lon="105.1148791"><ele>311.25</ele><time>2026-02-11T01:17:07.000Z</time></trkpt>
        <trkpt lat="29.477458" lon="105.1147552"><ele>311.1</ele><time>2026-02-11T01:17:15.000Z</time></trkpt>
        <trkpt lat="29.4774551" lon="105.1146355"><ele>311.73</ele><time>2026-02-11T01:17:25.000Z</time></trkpt>
        <trkpt lat="29.477477" lon="105.1145207"><ele>311.91</ele><time>2026-02-11T01:17:33.000Z</time></trkpt>
        <trkpt lat="29.4775114" lon="105.1144151"><ele>311.74</ele><time>2026-02-11T01:17:43.000Z</time></trkpt>
        <trkpt lat="29.4775114" lon="105.1144151"><ele>311.74</ele><time>2026-02-11T01:18:01.000Z</time></trkpt>
        <trkpt lat="29.4775966" lon="105.1143421"><ele>311.15</ele><time>2026-02-11T01:18:30.000Z</time></trkpt>
        <trkpt lat="29.4775966" lon="105.1143421"><ele>311.15</ele><time>2026-02-11T01:18:43.000Z</time></trkpt>
        <trkpt lat="29.477676" lon="105.1142764"><ele>310.23</ele><time>2026-02-11T01:18:49.000Z</time></trkpt>
        <trkpt lat="29.477762" lon="105.1142059"><ele>309.44</ele><time>2026-02-11T01:18:57.000Z</time></trkpt>
        <trkpt lat="29.4778469" lon="105.1141493"><ele>308.94</ele><time>2026-02-11T01:19:03.000Z</time></trkpt>
        <trkpt lat="29.4779338" lon="105.1140904"><ele>308.7</ele><time>2026-02-11T01:19:11.000Z</time></trkpt>
        <trkpt lat="29.4780224" lon="105.1140201"><ele>308.68</ele><time>2026-02-11T01:19:19.000Z</time></trkpt>
        <trkpt lat="29.478119" lon="105.1139773"><ele>308.62</ele><time>2026-02-11T01:19:27.000Z</time></trkpt>
        <trkpt lat="29.4782212" lon="105.1139469"><ele>308.56</ele><time>2026-02-11T01:19:35.000Z</time></trkpt>
        <trkpt lat="29.4783169" lon="105.1139006"><ele>308.27</ele><time>2026-02-11T01:19:43.000Z</time></trkpt>
        <trkpt lat="29.4783949" lon="105.1138408"><ele>308.18</ele><time>2026-02-11T01:19:49.000Z</time></trkpt>
        <trkpt lat="29.4784682" lon="105.113775"><ele>308.02</ele><time>2026-02-11T01:19:55.000Z</time></trkpt>
        <trkpt lat="29.4785565" lon="105.1137191"><ele>307.9</ele><time>2026-02-11T01:20:01.000Z</time></trkpt>
        <trkpt lat="29.4786472" lon="105.1136548"><ele>307.8</ele><time>2026-02-11T01:20:07.000Z</time></trkpt>
        <trkpt lat="29.4787368" lon="105.1135718"><ele>307.46</ele><time>2026-02-11T01:20:13.000Z</time></trkpt>
        <trkpt lat="29.4788197" lon="105.1134774"><ele>307.41</ele><time>2026-02-11T01:20:17.000Z</time></trkpt>
        <trkpt lat="29.4789089" lon="105.1133819"><ele>307.33</ele><time>2026-02-11T01:20:21.000Z</time></trkpt>
        <trkpt lat="29.4789944" lon="105.1132903"><ele>307.12</ele><time>2026-02-11T01:20:25.000Z</time></trkpt>
        <trkpt lat="29.4790676" lon="105.1131954"><ele>307.66</ele><time>2026-02-11T01:20:29.000Z</time></trkpt>
        <trkpt lat="29.4791345" lon="105.1131095"><ele>308.16</ele><time>2026-02-11T01:20:33.000Z</time></trkpt>
        <trkpt lat="29.4792044" lon="105.1130356"><ele>308.19</ele><time>2026-02-11T01:20:37.000Z</time></trkpt>
        <trkpt lat="29.4792722" lon="105.1129575"><ele>308.02</ele><time>2026-02-11T01:20:47.000Z</time></trkpt>
        <trkpt lat="29.479292" lon="105.1128552"><ele>307.36</ele><time>2026-02-11T01:20:53.000Z</time></trkpt>
        <trkpt lat="29.479292" lon="105.1128552"><ele>307.36</ele><time>2026-02-11T01:21:27.000Z</time></trkpt>
        <trkpt lat="29.479292" lon="105.1128552"><ele>307.36</ele><time>2026-02-11T01:21:30.000Z</time></trkpt>
        <trkpt lat="29.479292" lon="105.1128552"><ele>307.36</ele><time>2026-02-11T01:22:03.000Z</time></trkpt>
        <trkpt lat="29.4792935" lon="105.1127374"><ele>307.25</ele><time>2026-02-11T01:22:06.000Z</time></trkpt>
        <trkpt lat="29.4792935" lon="105.1127374"><ele>307.25</ele><time>2026-02-11T01:22:37.000Z</time></trkpt>
        <trkpt lat="29.4792526" lon="105.1126322"><ele>307.45</ele><time>2026-02-11T01:22:43.000Z</time></trkpt>
        <trkpt lat="29.4792356" lon="105.1125234"><ele>308.23</ele><time>2026-02-11T01:22:51.000Z</time></trkpt>
        <trkpt lat="29.4792333" lon="105.112397"><ele>308.66</ele><time>2026-02-11T01:22:59.000Z</time></trkpt>
        <trkpt lat="29.4792446" lon="105.1122649"><ele>309</ele><time>2026-02-11T01:23:07.000Z</time></trkpt>
        <trkpt lat="29.4793005" lon="105.1121701"><ele>309.44</ele><time>2026-02-11T01:23:19.000Z</time></trkpt>
        <trkpt lat="29.4793538" lon="105.1120254"><ele>308.8</ele><time>2026-02-11T01:23:25.000Z</time></trkpt>
        <trkpt lat="29.4793875" lon="105.1118956"><ele>308.28</ele><time>2026-02-11T01:23:31.000Z</time></trkpt>
        <trkpt lat="29.4794182" lon="105.1117826"><ele>307.93</ele><time>2026-02-11T01:23:37.000Z</time></trkpt>
        <trkpt lat="29.4794304" lon="105.1116728"><ele>307.82</ele><time>2026-02-11T01:23:45.000Z</time></trkpt>
        <trkpt lat="29.4793917" lon="105.1115614"><ele>306.57</ele><time>2026-02-11T01:23:53.000Z</time></trkpt>
        <trkpt lat="29.4793227" lon="105.1114531"><ele>306.83</ele><time>2026-02-11T01:24:03.000Z</time></trkpt>
        <trkpt lat="29.4792525" lon="105.1113694"><ele>306.43</ele><time>2026-02-11T01:24:09.000Z</time></trkpt>
        <trkpt lat="29.4791903" lon="105.1112708"><ele>306.18</ele><time>2026-02-11T01:24:17.000Z</time></trkpt>
        <trkpt lat="29.4791596" lon="105.1111509"><ele>306.51</ele><time>2026-02-11T01:24:27.000Z</time></trkpt>
        <trkpt lat="29.4791668" lon="105.1110294"><ele>307.18</ele><time>2026-02-11T01:24:37.000Z</time></trkpt>
        <trkpt lat="29.4791785" lon="105.1109157"><ele>307.89</ele><time>2026-02-11T01:24:47.000Z</time></trkpt>
        <trkpt lat="29.4791788" lon="105.1107965"><ele>308.03</ele><time>2026-02-11T01:24:55.000Z</time></trkpt>
        <trkpt lat="29.4791651" lon="105.1106905"><ele>308.64</ele><time>2026-02-11T01:25:03.000Z</time></trkpt>
        <trkpt lat="29.4791225" lon="105.1105815"><ele>308.72</ele><time>2026-02-11T01:25:13.000Z</time></trkpt>
        <trkpt lat="29.4790898" lon="105.1104576"><ele>308.09</ele><time>2026-02-11T01:25:21.000Z</time></trkpt>
        <trkpt lat="29.4790921" lon="105.1103367"><ele>307.6</ele><time>2026-02-11T01:25:25.000Z</time></trkpt>
        <trkpt lat="29.479106" lon="105.1102118"><ele>307.16</ele><time>2026-02-11T01:25:31.000Z</time></trkpt>
        <trkpt lat="29.4791311" lon="105.1100912"><ele>307.22</ele><time>2026-02-11T01:25:35.000Z</time></trkpt>
        <trkpt lat="29.4791513" lon="105.1099826"><ele>307.16</ele><time>2026-02-11T01:25:39.000Z</time></trkpt>
        <trkpt lat="29.4791753" lon="105.1098756"><ele>306.81</ele><time>2026-02-11T01:25:45.000Z</time></trkpt>
        <trkpt lat="29.4792124" lon="105.1097608"><ele>306.41</ele><time>2026-02-11T01:25:53.000Z</time></trkpt>
        <trkpt lat="29.4792618" lon="105.1096628"><ele>305.82</ele><time>2026-02-11T01:25:57.000Z</time></trkpt>
        <trkpt lat="29.4793302" lon="105.1095788"><ele>303.75</ele><time>2026-02-11T01:26:05.000Z</time></trkpt>
        <trkpt lat="29.4794254" lon="105.10955"><ele>302.87</ele><time>2026-02-11T01:26:13.000Z</time></trkpt>
        <trkpt lat="29.4795405" lon="105.1095602"><ele>302.54</ele><time>2026-02-11T01:26:23.000Z</time></trkpt>
        <trkpt lat="29.4796317" lon="105.1095302"><ele>301.31</ele><time>2026-02-11T01:26:29.000Z</time></trkpt>
        <trkpt lat="29.4797125" lon="105.1094452"><ele>300.32</ele><time>2026-02-11T01:26:37.000Z</time></trkpt>
        <trkpt lat="29.4798004" lon="105.1093581"><ele>299.01</ele><time>2026-02-11T01:26:45.000Z</time></trkpt>
        <trkpt lat="29.4798875" lon="105.1093105"><ele>297.81</ele><time>2026-02-11T01:26:51.000Z</time></trkpt>
        <trkpt lat="29.4799386" lon="105.1092287"><ele>297.31</ele><time>2026-02-11T01:27:17.000Z</time></trkpt>
        <trkpt lat="29.4799612" lon="105.1091289"><ele>298.07</ele><time>2026-02-11T01:27:27.000Z</time></trkpt>
        <trkpt lat="29.4800109" lon="105.1090472"><ele>298.12</ele><time>2026-02-11T01:27:49.000Z</time></trkpt>
        <trkpt lat="29.4800515" lon="105.1091173"><ele>298.26</ele><time>2026-02-11T01:27:57.000Z</time></trkpt>
        <trkpt lat="29.4801348" lon="105.1091933"><ele>296.54</ele><time>2026-02-11T01:28:03.000Z</time></trkpt>
        <trkpt lat="29.4802088" lon="105.1092813"><ele>294.23</ele><time>2026-02-11T01:28:15.000Z</time></trkpt>
        <trkpt lat="29.4802673" lon="105.1093765"><ele>292.63</ele><time>2026-02-11T01:28:23.000Z</time></trkpt>
        <trkpt lat="29.4803371" lon="105.1094635"><ele>291.9</ele><time>2026-02-11T01:28:31.000Z</time></trkpt>
        <trkpt lat="29.4804169" lon="105.1095259"><ele>291.66</ele><time>2026-02-11T01:28:35.000Z</time></trkpt>
        <trkpt lat="29.4805159" lon="105.1095708"><ele>291.9</ele><time>2026-02-11T01:28:39.000Z</time></trkpt>
        <trkpt lat="29.480618" lon="105.1095904"><ele>292.45</ele><time>2026-02-11T01:28:43.000Z</time></trkpt>
        <trkpt lat="29.4807347" lon="105.1096061"><ele>292.87</ele><time>2026-02-11T01:28:47.000Z</time></trkpt>
        <trkpt lat="29.4808586" lon="105.1096215"><ele>292.99</ele><time>2026-02-11T01:28:51.000Z</time></trkpt>
        <trkpt lat="29.4809758" lon="105.1096187"><ele>292.74</ele><time>2026-02-11T01:28:55.000Z</time></trkpt>
        <trkpt lat="29.4810861" lon="105.1095973"><ele>292.41</ele><time>2026-02-11T01:28:59.000Z</time></trkpt>
        <trkpt lat="29.4811773" lon="105.1095544"><ele>292.27</ele><time>2026-02-11T01:29:05.000Z</time></trkpt>
        <trkpt lat="29.4812664" lon="105.1094725"><ele>292.15</ele><time>2026-02-11T01:29:15.000Z</time></trkpt>
        <trkpt lat="29.4813574" lon="105.1094244"><ele>292.01</ele><time>2026-02-11T01:29:21.000Z</time></trkpt>
        <trkpt lat="29.4814554" lon="105.1094312"><ele>291.78</ele><time>2026-02-11T01:29:27.000Z</time></trkpt>
        <trkpt lat="29.4815656" lon="105.1094428"><ele>291.4</ele><time>2026-02-11T01:29:31.000Z</time></trkpt>
        <trkpt lat="29.4816799" lon="105.1094638"><ele>290.99</ele><time>2026-02-11T01:29:35.000Z</time></trkpt>
        <trkpt lat="29.4817783" lon="105.109442"><ele>290.6</ele><time>2026-02-11T01:29:43.000Z</time></trkpt>
        <trkpt lat="29.4818662" lon="105.1093888"><ele>291.07</ele><time>2026-02-11T01:29:51.000Z</time></trkpt>
        <trkpt lat="29.4819625" lon="105.1093569"><ele>289.61</ele><time>2026-02-11T01:29:57.000Z</time></trkpt>
        <trkpt lat="29.4820651" lon="105.1093187"><ele>288.4</ele><time>2026-02-11T01:30:03.000Z</time></trkpt>
        <trkpt lat="29.4821364" lon="105.1092443"><ele>288.3</ele><time>2026-02-11T01:30:11.000Z</time></trkpt>
        <trkpt lat="29.4821719" lon="105.1091447"><ele>287.8</ele><time>2026-02-11T01:30:19.000Z</time></trkpt>
        <trkpt lat="29.4822117" lon="105.1090478"><ele>287.01</ele><time>2026-02-11T01:30:27.000Z</time></trkpt>
        <trkpt lat="29.4822643" lon="105.1089483"><ele>286.22</ele><time>2026-02-11T01:30:35.000Z</time></trkpt>
        <trkpt lat="29.482335" lon="105.1088777"><ele>285.89</ele><time>2026-02-11T01:30:53.000Z</time></trkpt>
        <trkpt lat="29.4824218" lon="105.1088199"><ele>285.23</ele><time>2026-02-11T01:31:01.000Z</time></trkpt>
        <trkpt lat="29.4824954" lon="105.1087507"><ele>284.83</ele><time>2026-02-11T01:31:09.000Z</time></trkpt>
        <trkpt lat="29.4825742" lon="105.1086689"><ele>284.83</ele><time>2026-02-11T01:31:17.000Z</time></trkpt>
        <trkpt lat="29.4826581" lon="105.1086128"><ele>284.98</ele><time>2026-02-11T01:31:23.000Z</time></trkpt>
        <trkpt lat="29.4827325" lon="105.1085217"><ele>285.84</ele><time>2026-02-11T01:31:33.000Z</time></trkpt>
        <trkpt lat="29.4827892" lon="105.108417"><ele>286.06</ele><time>2026-02-11T01:31:41.000Z</time></trkpt>
        <trkpt lat="29.4828061" lon="105.1083086"><ele>286.8</ele><time>2026-02-11T01:31:49.000Z</time></trkpt>
        <trkpt lat="29.4827895" lon="105.108203"><ele>287.54</ele><time>2026-02-11T01:31:57.000Z</time></trkpt>
        <trkpt lat="29.4827509" lon="105.1080897"><ele>288.63</ele><time>2026-02-11T01:32:07.000Z</time></trkpt>
        <trkpt lat="29.4827067" lon="105.1079826"><ele>289.96</ele><time>2026-02-11T01:32:15.000Z</time></trkpt>
        <trkpt lat="29.4826604" lon="105.1078847"><ele>292.17</ele><time>2026-02-11T01:32:23.000Z</time></trkpt>
        <trkpt lat="29.4826113" lon="105.1077896"><ele>294.74</ele><time>2026-02-11T01:32:31.000Z</time></trkpt>
        <trkpt lat="29.4825714" lon="105.1076816"><ele>296.89</ele><time>2026-02-11T01:32:39.000Z</time></trkpt>
        <trkpt lat="29.4825323" lon="105.1075743"><ele>298.47</ele><time>2026-02-11T01:32:47.000Z</time></trkpt>
        <trkpt lat="29.4825191" lon="105.1074528"><ele>299.73</ele><time>2026-02-11T01:32:55.000Z</time></trkpt>
        <trkpt lat="29.4825237" lon="105.1073321"><ele>301.1</ele><time>2026-02-11T01:33:03.000Z</time></trkpt>
        <trkpt lat="29.48254" lon="105.1072164"><ele>301.42</ele><time>2026-02-11T01:33:13.000Z</time></trkpt>
        <trkpt lat="29.4825508" lon="105.1071065"><ele>302.21</ele><time>2026-02-11T01:33:27.000Z</time></trkpt>
        <trkpt lat="29.4825694" lon="105.107002"><ele>302.66</ele><time>2026-02-11T01:33:35.000Z</time></trkpt>
        <trkpt lat="29.4825705" lon="105.1068841"><ele>302.33</ele><time>2026-02-11T01:33:43.000Z</time></trkpt>
        <trkpt lat="29.48257" lon="105.1067709"><ele>301.77</ele><time>2026-02-11T01:33:51.000Z</time></trkpt>
        <trkpt lat="29.4825429" lon="105.1066608"><ele>301.04</ele><time>2026-02-11T01:33:59.000Z</time></trkpt>
        <trkpt lat="29.4825007" lon="105.1065538"><ele>300.47</ele><time>2026-02-11T01:34:07.000Z</time></trkpt>
        <trkpt lat="29.4824361" lon="105.1064462"><ele>300.56</ele><time>2026-02-11T01:34:15.000Z</time></trkpt>
        <trkpt lat="29.4823824" lon="105.106346"><ele>300.52</ele><time>2026-02-11T01:34:23.000Z</time></trkpt>
        <trkpt lat="29.4823246" lon="105.1062414"><ele>300.06</ele><time>2026-02-11T01:34:31.000Z</time></trkpt>
        <trkpt lat="29.482232" lon="105.1061804"><ele>299.46</ele><time>2026-02-11T01:34:41.000Z</time></trkpt>
        <trkpt lat="29.4821391" lon="105.1061958"><ele>298.83</ele><time>2026-02-11T01:34:49.000Z</time></trkpt>
        <trkpt lat="29.4820495" lon="105.1062643"><ele>298.27</ele><time>2026-02-11T01:34:57.000Z</time></trkpt>
        <trkpt lat="29.481956" lon="105.1062888"><ele>297.82</ele><time>2026-02-11T01:35:07.000Z</time></trkpt>
        <trkpt lat="29.4818409" lon="105.106305"><ele>298.57</ele><time>2026-02-11T01:35:13.000Z</time></trkpt>
        <trkpt lat="29.4817318" lon="105.10626"><ele>299.17</ele><time>2026-02-11T01:35:21.000Z</time></trkpt>
        <trkpt lat="29.4816377" lon="105.1061862"><ele>299.4</ele><time>2026-02-11T01:35:29.000Z</time></trkpt>
        <trkpt lat="29.4815766" lon="105.1060668"><ele>298.86</ele><time>2026-02-11T01:35:37.000Z</time></trkpt>
        <trkpt lat="29.4815683" lon="105.1059327"><ele>298.62</ele><time>2026-02-11T01:35:45.000Z</time></trkpt>
        <trkpt lat="29.4815866" lon="105.1058064"><ele>298.34</ele><time>2026-02-11T01:35:53.000Z</time></trkpt>
        <trkpt lat="29.4816272" lon="105.1056935"><ele>297.33</ele><time>2026-02-11T01:35:57.000Z</time></trkpt>
        <trkpt lat="29.4816676" lon="105.1055904"><ele>296.9</ele><time>2026-02-11T01:36:01.000Z</time></trkpt>
        <trkpt lat="29.4817193" lon="105.1054696"><ele>296.79</ele><time>2026-02-11T01:36:07.000Z</time></trkpt>
        <trkpt lat="29.4817327" lon="105.1053457"><ele>296.48</ele><time>2026-02-11T01:36:15.000Z</time></trkpt>
        <trkpt lat="29.4816746" lon="105.1052392"><ele>295.97</ele><time>2026-02-11T01:36:21.000Z</time></trkpt>
        <trkpt lat="29.4815807" lon="105.1051329"><ele>295.74</ele><time>2026-02-11T01:36:27.000Z</time></trkpt>
        <trkpt lat="29.4814936" lon="105.1050438"><ele>295.63</ele><time>2026-02-11T01:36:33.000Z</time></trkpt>
        <trkpt lat="29.4814074" lon="105.1049821"><ele>295.56</ele><time>2026-02-11T01:36:39.000Z</time></trkpt>
        <trkpt lat="29.4813138" lon="105.1049036"><ele>295.52</ele><time>2026-02-11T01:36:45.000Z</time></trkpt>
        <trkpt lat="29.4812648" lon="105.1047984"><ele>295.5</ele><time>2026-02-11T01:36:49.000Z</time></trkpt>
        <trkpt lat="29.4811626" lon="105.104613"><ele>295.71</ele><time>2026-02-11T01:36:54.000Z</time></trkpt>
        <trkpt lat="29.4811296" lon="105.1044654"><ele>300.23</ele><time>2026-02-11T01:37:02.000Z</time></trkpt>
        <trkpt lat="29.4811502" lon="105.1043436"><ele>300.24</ele><time>2026-02-11T01:37:10.000Z</time></trkpt>
        <trkpt lat="29.4812301" lon="105.104275"><ele>298.55</ele><time>2026-02-11T01:37:18.000Z</time></trkpt>
        <trkpt lat="29.4813104" lon="105.1042088"><ele>296.42</ele><time>2026-02-11T01:37:27.000Z</time></trkpt>
        <trkpt lat="29.4813752" lon="105.1041128"><ele>294.82</ele><time>2026-02-11T01:37:32.000Z</time></trkpt>
        <trkpt lat="29.4814456" lon="105.104018"><ele>293.42</ele><time>2026-02-11T01:37:36.000Z</time></trkpt>
        <trkpt lat="29.4815141" lon="105.1039301"><ele>292.3</ele><time>2026-02-11T01:37:40.000Z</time></trkpt>
        <trkpt lat="29.4815757" lon="105.1038492"><ele>291.63</ele><time>2026-02-11T01:37:45.000Z</time></trkpt>
        <trkpt lat="29.4816016" lon="105.1037438"><ele>290.78</ele><time>2026-02-11T01:37:51.000Z</time></trkpt>
        <trkpt lat="29.4815909" lon="105.1036241"><ele>290.26</ele><time>2026-02-11T01:37:59.000Z</time></trkpt>
        <trkpt lat="29.4815833" lon="105.1034983"><ele>289.84</ele><time>2026-02-11T01:38:07.000Z</time></trkpt>
        <trkpt lat="29.4815819" lon="105.1033812"><ele>289.13</ele><time>2026-02-11T01:38:15.000Z</time></trkpt>
        <trkpt lat="29.4816003" lon="105.103257"><ele>288.73</ele><time>2026-02-11T01:38:23.000Z</time></trkpt>
        <trkpt lat="29.4816065" lon="105.1031439"><ele>287.96</ele><time>2026-02-11T01:38:29.000Z</time></trkpt>
        <trkpt lat="29.4816422" lon="105.1030296"><ele>287.38</ele><time>2026-02-11T01:38:37.000Z</time></trkpt>
        <trkpt lat="29.4817308" lon="105.102943"><ele>286.86</ele><time>2026-02-11T01:38:43.000Z</time></trkpt>
        <trkpt lat="29.48184" lon="105.1029066"><ele>286.66</ele><time>2026-02-11T01:38:51.000Z</time></trkpt>
        <trkpt lat="29.481949" lon="105.102884"><ele>286.78</ele><time>2026-02-11T01:38:59.000Z</time></trkpt>
        <trkpt lat="29.4820658" lon="105.1028675"><ele>286.58</ele><time>2026-02-11T01:39:09.000Z</time></trkpt>
        <trkpt lat="29.4821643" lon="105.1028445"><ele>286.35</ele><time>2026-02-11T01:39:15.000Z</time></trkpt>
        <trkpt lat="29.4822627" lon="105.1028143"><ele>286.34</ele><time>2026-02-11T01:39:21.000Z</time></trkpt>
        <trkpt lat="29.4823688" lon="105.102791"><ele>287.02</ele><time>2026-02-11T01:39:29.000Z</time></trkpt>
        <trkpt lat="29.4824687" lon="105.102769"><ele>287.61</ele><time>2026-02-11T01:39:35.000Z</time></trkpt>
        <trkpt lat="29.4825758" lon="105.1027372"><ele>288.65</ele><time>2026-02-11T01:39:43.000Z</time></trkpt>
        <trkpt lat="29.4826713" lon="105.102677"><ele>289.52</ele><time>2026-02-11T01:39:51.000Z</time></trkpt>
        <trkpt lat="29.4827761" lon="105.1026497"><ele>289.2</ele><time>2026-02-11T01:39:59.000Z</time></trkpt>
        <trkpt lat="29.4828803" lon="105.1026365"><ele>288.01</ele><time>2026-02-11T01:40:05.000Z</time></trkpt>
        <trkpt lat="29.4829749" lon="105.1026508"><ele>287.82</ele><time>2026-02-11T01:40:11.000Z</time></trkpt>
        <trkpt lat="29.4830723" lon="105.1026785"><ele>287.47</ele><time>2026-02-11T01:40:17.000Z</time></trkpt>
        <trkpt lat="29.4831653" lon="105.1026828"><ele>286.75</ele><time>2026-02-11T01:40:25.000Z</time></trkpt>
        <trkpt lat="29.4832569" lon="105.102674"><ele>287.18</ele><time>2026-02-11T01:40:33.000Z</time></trkpt>
        <trkpt lat="29.4833587" lon="105.1026534"><ele>287.23</ele><time>2026-02-11T01:40:43.000Z</time></trkpt>
        <trkpt lat="29.4834517" lon="105.102631"><ele>286.78</ele><time>2026-02-11T01:40:51.000Z</time></trkpt>
        <trkpt lat="29.4835532" lon="105.102594"><ele>286.11</ele><time>2026-02-11T01:41:01.000Z</time></trkpt>
        <trkpt lat="29.4836509" lon="105.1025705"><ele>285.24</ele><time>2026-02-11T01:41:07.000Z</time></trkpt>
        <trkpt lat="29.4837436" lon="105.1025576"><ele>284.66</ele><time>2026-02-11T01:41:15.000Z</time></trkpt>
        <trkpt lat="29.4838491" lon="105.1025496"><ele>283.85</ele><time>2026-02-11T01:41:23.000Z</time></trkpt>
        <trkpt lat="29.4839493" lon="105.1025396"><ele>283.14</ele><time>2026-02-11T01:41:29.000Z</time></trkpt>
        <trkpt lat="29.4840442" lon="105.1025107"><ele>282.32</ele><time>2026-02-11T01:41:37.000Z</time></trkpt>
        <trkpt lat="29.484149" lon="105.1024769"><ele>281.91</ele><time>2026-02-11T01:41:45.000Z</time></trkpt>
        <trkpt lat="29.4842646" lon="105.1024438"><ele>281.77</ele><time>2026-02-11T01:41:53.000Z</time></trkpt>
        <trkpt lat="29.4843809" lon="105.1024123"><ele>281.37</ele><time>2026-02-11T01:42:01.000Z</time></trkpt>
        <trkpt lat="29.4844946" lon="105.102384"><ele>281.03</ele><time>2026-02-11T01:42:09.000Z</time></trkpt>
        <trkpt lat="29.4845896" lon="105.1024002"><ele>280.71</ele><time>2026-02-11T01:42:49.000Z</time></trkpt>
        <trkpt lat="29.4846692" lon="105.1023614"><ele>280.2</ele><time>2026-02-11T01:43:07.000Z</time></trkpt>
        <trkpt lat="29.4847602" lon="105.102328"><ele>279.35</ele><time>2026-02-11T01:43:15.000Z</time></trkpt>
        <trkpt lat="29.4848508" lon="105.1022959"><ele>279.27</ele><time>2026-02-11T01:43:21.000Z</time></trkpt>
        <trkpt lat="29.4849377" lon="105.1022635"><ele>279.36</ele><time>2026-02-11T01:43:27.000Z</time></trkpt>
        <trkpt lat="29.4850343" lon="105.1022354"><ele>279.57</ele><time>2026-02-11T01:43:35.000Z</time></trkpt>
        <trkpt lat="29.4851414" lon="105.1022022"><ele>280.02</ele><time>2026-02-11T01:43:43.000Z</time></trkpt>
        <trkpt lat="29.4852384" lon="105.1021559"><ele>280.91</ele><time>2026-02-11T01:43:51.000Z</time></trkpt>
        <trkpt lat="29.485338" lon="105.1021025"><ele>280.59</ele><time>2026-02-11T01:43:59.000Z</time></trkpt>
        <trkpt lat="29.4854169" lon="105.1020342"><ele>280.05</ele><time>2026-02-11T01:44:07.000Z</time></trkpt>
        <trkpt lat="29.4855088" lon="105.1019626"><ele>279.52</ele><time>2026-02-11T01:44:15.000Z</time></trkpt>
        <trkpt lat="29.4856062" lon="105.1019072"><ele>279.14</ele><time>2026-02-11T01:44:23.000Z</time></trkpt>
        <trkpt lat="29.4857047" lon="105.1018643"><ele>278.71</ele><time>2026-02-11T01:44:31.000Z</time></trkpt>
        <trkpt lat="29.4858068" lon="105.1018154"><ele>278.58</ele><time>2026-02-11T01:44:39.000Z</time></trkpt>
        <trkpt lat="29.4859039" lon="105.1017637"><ele>278.41</ele><time>2026-02-11T01:44:47.000Z</time></trkpt>
        <trkpt lat="29.4860063" lon="105.1017078"><ele>278.77</ele><time>2026-02-11T01:44:55.000Z</time></trkpt>
        <trkpt lat="29.4861036" lon="105.1016532"><ele>278.6</ele><time>2026-02-11T01:45:03.000Z</time></trkpt>
        <trkpt lat="29.4861969" lon="105.101599"><ele>278.41</ele><time>2026-02-11T01:45:11.000Z</time></trkpt>
        <trkpt lat="29.4861969" lon="105.101599"><ele>278.41</ele><time>2026-02-11T01:45:37.000Z</time></trkpt>
        <trkpt lat="29.4861969" lon="105.101599"><ele>278.41</ele><time>2026-02-11T01:45:38.000Z</time></trkpt>
        <trkpt lat="29.4861969" lon="105.101599"><ele>278.41</ele><time>2026-02-11T01:45:49.000Z</time></trkpt>
        <trkpt lat="29.4862846" lon="105.1015493"><ele>278.47</ele><time>2026-02-11T01:45:54.000Z</time></trkpt>
        <trkpt lat="29.4862846" lon="105.1015493"><ele>278.47</ele><time>2026-02-11T01:45:57.000Z</time></trkpt>
        <trkpt lat="29.4863846" lon="105.101507"><ele>278.63</ele><time>2026-02-11T01:46:05.000Z</time></trkpt>
        <trkpt lat="29.4864605" lon="105.1014174"><ele>278.94</ele><time>2026-02-11T01:46:11.000Z</time></trkpt>
        <trkpt lat="29.4865462" lon="105.1013486"><ele>279.53</ele><time>2026-02-11T01:46:19.000Z</time></trkpt>
        <trkpt lat="29.4866304" lon="105.101292"><ele>279.7</ele><time>2026-02-11T01:46:25.000Z</time></trkpt>
        <trkpt lat="29.4867213" lon="105.1012336"><ele>279.58</ele><time>2026-02-11T01:46:33.000Z</time></trkpt>
        <trkpt lat="29.4868135" lon="105.1011576"><ele>279.78</ele><time>2026-02-11T01:46:41.000Z</time></trkpt>
        <trkpt lat="29.4868952" lon="105.1010799"><ele>280.36</ele><time>2026-02-11T01:46:49.000Z</time></trkpt>
        <trkpt lat="29.4869728" lon="105.1010101"><ele>280.93</ele><time>2026-02-11T01:46:53.000Z</time></trkpt>
        <trkpt lat="29.4870689" lon="105.1009327"><ele>281.25</ele><time>2026-02-11T01:46:57.000Z</time></trkpt>
        <trkpt lat="29.4871591" lon="105.1008514"><ele>281.71</ele><time>2026-02-11T01:47:01.000Z</time></trkpt>
        <trkpt lat="29.4871591" lon="105.1008514"><ele>281.71</ele><time>2026-02-11T01:47:19.000Z</time></trkpt>
        <trkpt lat="29.4872261" lon="105.1007701"><ele>282.14</ele><time>2026-02-11T01:47:22.000Z</time></trkpt>
        <trkpt lat="29.4872261" lon="105.1007701"><ele>282.14</ele><time>2026-02-11T01:47:25.000Z</time></trkpt>
        <trkpt lat="29.4872903" lon="105.1006953"><ele>282.13</ele><time>2026-02-11T01:47:29.000Z</time></trkpt>
        <trkpt lat="29.4873957" lon="105.1006057"><ele>281.93</ele><time>2026-02-11T01:47:33.000Z</time></trkpt>
        <trkpt lat="29.4874856" lon="105.1005392"><ele>281.64</ele><time>2026-02-11T01:47:39.000Z</time></trkpt>
        <trkpt lat="29.487565" lon="105.1004806"><ele>281.31</ele><time>2026-02-11T01:47:45.000Z</time></trkpt>
        <trkpt lat="29.4876469" lon="105.1004357"><ele>280.53</ele><time>2026-02-11T01:47:51.000Z</time></trkpt>
        <trkpt lat="29.4877347" lon="105.1003831"><ele>280.14</ele><time>2026-02-11T01:48:01.000Z</time></trkpt>
        <trkpt lat="29.4878326" lon="105.1003282"><ele>280.22</ele><time>2026-02-11T01:48:11.000Z</time></trkpt>
        <trkpt lat="29.4879303" lon="105.1002894"><ele>279.73</ele><time>2026-02-11T01:48:39.000Z</time></trkpt>
        <trkpt lat="29.4880239" lon="105.1002492"><ele>279.64</ele><time>2026-02-11T01:48:45.000Z</time></trkpt>
        <trkpt lat="29.488123" lon="105.1002072"><ele>279.47</ele><time>2026-02-11T01:48:53.000Z</time></trkpt>
        <trkpt lat="29.4882173" lon="105.1001672"><ele>279</ele><time>2026-02-11T01:49:07.000Z</time></trkpt>
        <trkpt lat="29.4883029" lon="105.1001033"><ele>279.16</ele><time>2026-02-11T01:49:15.000Z</time></trkpt>
        <trkpt lat="29.4883944" lon="105.1000784"><ele>279.36</ele><time>2026-02-11T01:49:23.000Z</time></trkpt>
        <trkpt lat="29.4884325" lon="105.1001557"><ele>279.2</ele><time>2026-02-11T01:49:31.000Z</time></trkpt>
        <trkpt lat="29.4884211" lon="105.1002648"><ele>278.5</ele><time>2026-02-11T01:49:39.000Z</time></trkpt>
        <trkpt lat="29.4883856" lon="105.1003787"><ele>277.75</ele><time>2026-02-11T01:49:43.000Z</time></trkpt>
        <trkpt lat="29.4883475" lon="105.1005082"><ele>276.93</ele><time>2026-02-11T01:49:49.000Z</time></trkpt>
        <trkpt lat="29.488283" lon="105.1006089"><ele>276.38</ele><time>2026-02-11T01:49:57.000Z</time></trkpt>
        <trkpt lat="29.4881779" lon="105.1006533"><ele>275.96</ele><time>2026-02-11T01:50:07.000Z</time></trkpt>
        <trkpt lat="29.4880684" lon="105.1006326"><ele>275.77</ele><time>2026-02-11T01:50:15.000Z</time></trkpt>
        <trkpt lat="29.488145" lon="105.1006279"><ele>275.01</ele><time>2026-02-11T01:51:39.000Z</time></trkpt>
        <trkpt lat="29.4882382" lon="105.1006483"><ele>275.23</ele><time>2026-02-11T01:51:49.000Z</time></trkpt>
        <trkpt lat="29.4883189" lon="105.1005764"><ele>275.94</ele><time>2026-02-11T01:52:01.000Z</time></trkpt>
        <trkpt lat="29.4883573" lon="105.10048"><ele>276.24</ele><time>2026-02-11T01:52:07.000Z</time></trkpt>
        <trkpt lat="29.4883831" lon="105.1003696"><ele>275.82</ele><time>2026-02-11T01:52:15.000Z</time></trkpt>
        <trkpt lat="29.4883894" lon="105.100248"><ele>274.96</ele><time>2026-02-11T01:52:23.000Z</time></trkpt>
        <trkpt lat="29.4883899" lon="105.1001326"><ele>274.78</ele><time>2026-02-11T01:52:33.000Z</time></trkpt>
        <trkpt lat="29.4884588" lon="105.1000695"><ele>275.07</ele><time>2026-02-11T01:52:39.000Z</time></trkpt>
        <trkpt lat="29.4885589" lon="105.1000255"><ele>275.26</ele><time>2026-02-11T01:52:47.000Z</time></trkpt>
        <trkpt lat="29.4886588" lon="105.0999861"><ele>275.28</ele><time>2026-02-11T01:52:55.000Z</time></trkpt>
        <trkpt lat="29.4887633" lon="105.0999467"><ele>275.03</ele><time>2026-02-11T01:53:03.000Z</time></trkpt>
        <trkpt lat="29.4888634" lon="105.099908"><ele>274.91</ele><time>2026-02-11T01:53:11.000Z</time></trkpt>
        <trkpt lat="29.4889593" lon="105.0998678"><ele>274.79</ele><time>2026-02-11T01:53:19.000Z</time></trkpt>
        <trkpt lat="29.489068" lon="105.0998281"><ele>274.49</ele><time>2026-02-11T01:53:27.000Z</time></trkpt>
        <trkpt lat="29.4891732" lon="105.0997897"><ele>274.37</ele><time>2026-02-11T01:53:35.000Z</time></trkpt>
        <trkpt lat="29.4892785" lon="105.0997486"><ele>274.08</ele><time>2026-02-11T01:53:43.000Z</time></trkpt>
        <trkpt lat="29.4893832" lon="105.0997048"><ele>273.88</ele><time>2026-02-11T01:53:51.000Z</time></trkpt>
        <trkpt lat="29.4894827" lon="105.0996633"><ele>274.03</ele><time>2026-02-11T01:53:57.000Z</time></trkpt>
        <trkpt lat="29.489577" lon="105.0996213"><ele>275.41</ele><time>2026-02-11T01:54:05.000Z</time></trkpt>
        <trkpt lat="29.489662" lon="105.0995756"><ele>277.09</ele><time>2026-02-11T01:54:13.000Z</time></trkpt>
        <trkpt lat="29.4897573" lon="105.0995344"><ele>278.42</ele><time>2026-02-11T01:54:21.000Z</time></trkpt>
        <trkpt lat="29.4898464" lon="105.0994881"><ele>279.13</ele><time>2026-02-11T01:54:29.000Z</time></trkpt>
        <trkpt lat="29.4899472" lon="105.0994538"><ele>280.28</ele><time>2026-02-11T01:54:37.000Z</time></trkpt>
        <trkpt lat="29.4900466" lon="105.099415"><ele>281.37</ele><time>2026-02-11T01:54:45.000Z</time></trkpt>
        <trkpt lat="29.4901436" lon="105.0993732"><ele>281.91</ele><time>2026-02-11T01:54:55.000Z</time></trkpt>
        <trkpt lat="29.4902349" lon="105.0993378"><ele>282.41</ele><time>2026-02-11T01:55:03.000Z</time></trkpt>
        <trkpt lat="29.490328" lon="105.0993069"><ele>282.87</ele><time>2026-02-11T01:55:11.000Z</time></trkpt>
        <trkpt lat="29.4904349" lon="105.0992732"><ele>283.42</ele><time>2026-02-11T01:55:21.000Z</time></trkpt>
        <trkpt lat="29.4905431" lon="105.0992418"><ele>283.68</ele><time>2026-02-11T01:55:29.000Z</time></trkpt>
        <trkpt lat="29.4906592" lon="105.0991995"><ele>283.52</ele><time>2026-02-11T01:55:39.000Z</time></trkpt>
        <trkpt lat="29.4907554" lon="105.099161"><ele>283.46</ele><time>2026-02-11T01:55:45.000Z</time></trkpt>
        <trkpt lat="29.4908564" lon="105.0991218"><ele>283.14</ele><time>2026-02-11T01:55:53.000Z</time></trkpt>
        <trkpt lat="29.4909603" lon="105.0990806"><ele>282.94</ele><time>2026-02-11T01:56:01.000Z</time></trkpt>
        <trkpt lat="29.4910504" lon="105.0990354"><ele>282.85</ele><time>2026-02-11T01:56:09.000Z</time></trkpt>
        <trkpt lat="29.4911475" lon="105.0989924"><ele>282.75</ele><time>2026-02-11T01:56:17.000Z</time></trkpt>
        <trkpt lat="29.4912349" lon="105.0989403"><ele>282.61</ele><time>2026-02-11T01:56:25.000Z</time></trkpt>
        <trkpt lat="29.491323" lon="105.0989007"><ele>282.55</ele><time>2026-02-11T01:56:33.000Z</time></trkpt>
        <trkpt lat="29.4914187" lon="105.0988662"><ele>282.57</ele><time>2026-02-11T01:56:41.000Z</time></trkpt>
        <trkpt lat="29.4915176" lon="105.0988256"><ele>282.56</ele><time>2026-02-11T01:56:49.000Z</time></trkpt>
        <trkpt lat="29.4916191" lon="105.0987794"><ele>282.72</ele><time>2026-02-11T01:56:57.000Z</time></trkpt>
        <trkpt lat="29.4917244" lon="105.0987437"><ele>283.01</ele><time>2026-02-11T01:57:03.000Z</time></trkpt>
        <trkpt lat="29.4918262" lon="105.0987021"><ele>283.37</ele><time>2026-02-11T01:57:07.000Z</time></trkpt>
        <trkpt lat="29.4919245" lon="105.0986723"><ele>283.88</ele><time>2026-02-11T01:57:11.000Z</time></trkpt>
        <trkpt lat="29.4920212" lon="105.0986471"><ele>283.85</ele><time>2026-02-11T01:57:15.000Z</time></trkpt>
        <trkpt lat="29.4921095" lon="105.098619"><ele>283.59</ele><time>2026-02-11T01:57:19.000Z</time></trkpt>
        <trkpt lat="29.4922128" lon="105.0985801"><ele>283.55</ele><time>2026-02-11T01:57:39.000Z</time></trkpt>
        <trkpt lat="29.4922853" lon="105.0984958"><ele>283.42</ele><time>2026-02-11T01:57:51.000Z</time></trkpt>
        <trkpt lat="29.492358" lon="105.098421"><ele>283</ele><time>2026-02-11T01:57:55.000Z</time></trkpt>
        <trkpt lat="29.4924293" lon="105.0983414"><ele>283.05</ele><time>2026-02-11T01:58:01.000Z</time></trkpt>
        <trkpt lat="29.4924933" lon="105.0982585"><ele>283.06</ele><time>2026-02-11T01:58:05.000Z</time></trkpt>
        <trkpt lat="29.4925658" lon="105.0981834"><ele>282.89</ele><time>2026-02-11T01:58:09.000Z</time></trkpt>
        <trkpt lat="29.4926518" lon="105.0981224"><ele>282.85</ele><time>2026-02-11T01:58:13.000Z</time></trkpt>
        <trkpt lat="29.4927316" lon="105.0980348"><ele>283.02</ele><time>2026-02-11T01:58:19.000Z</time></trkpt>
        <trkpt lat="29.4928157" lon="105.09791"><ele>283.3</ele><time>2026-02-11T01:58:25.000Z</time></trkpt>
        <trkpt lat="29.4928743" lon="105.097783"><ele>282.94</ele><time>2026-02-11T01:58:29.000Z</time></trkpt>
        <trkpt lat="29.4929155" lon="105.0976771"><ele>282.59</ele><time>2026-02-11T01:58:33.000Z</time></trkpt>
        <trkpt lat="29.4929426" lon="105.0975739"><ele>282.1</ele><time>2026-02-11T01:58:37.000Z</time></trkpt>
        <trkpt lat="29.4929411" lon="105.0974597"><ele>281.88</ele><time>2026-02-11T01:58:45.000Z</time></trkpt>
        <trkpt lat="29.4929545" lon="105.0973445"><ele>281.06</ele><time>2026-02-11T01:58:53.000Z</time></trkpt>
        <trkpt lat="29.4929665" lon="105.0972308"><ele>280.15</ele><time>2026-02-11T01:59:01.000Z</time></trkpt>
        <trkpt lat="29.4929645" lon="105.0971101"><ele>279.67</ele><time>2026-02-11T01:59:09.000Z</time></trkpt>
        <trkpt lat="29.4929405" lon="105.0969992"><ele>279.77</ele><time>2026-02-11T01:59:17.000Z</time></trkpt>
        <trkpt lat="29.4929177" lon="105.0968864"><ele>279.82</ele><time>2026-02-11T01:59:25.000Z</time></trkpt>
        <trkpt lat="29.4929348" lon="105.09678"><ele>280.42</ele><time>2026-02-11T01:59:47.000Z</time></trkpt>
        <trkpt lat="29.4930102" lon="105.0966794"><ele>281.68</ele><time>2026-02-11T01:59:53.000Z</time></trkpt>
        <trkpt lat="29.4930533" lon="105.0965542"><ele>282.01</ele><time>2026-02-11T01:59:57.000Z</time></trkpt>
        <trkpt lat="29.4930744" lon="105.0964396"><ele>281.77</ele><time>2026-02-11T02:00:03.000Z</time></trkpt>
        <trkpt lat="29.493083" lon="105.0963329"><ele>281.57</ele><time>2026-02-11T02:00:09.000Z</time></trkpt>
        <trkpt lat="29.493103" lon="105.0962165"><ele>281.81</ele><time>2026-02-11T02:00:17.000Z</time></trkpt>
        <trkpt lat="29.493134" lon="105.0961002"><ele>282.58</ele><time>2026-02-11T02:00:25.000Z</time></trkpt>
        <trkpt lat="29.4931934" lon="105.09592"><ele>283.57</ele><time>2026-02-11T02:00:33.000Z</time></trkpt>
        <trkpt lat="29.4932239" lon="105.0957758"><ele>284.4</ele><time>2026-02-11T02:00:37.000Z</time></trkpt>
        <trkpt lat="29.4932712" lon="105.0956555"><ele>284.67</ele><time>2026-02-11T02:00:41.000Z</time></trkpt>
        <trkpt lat="29.4933151" lon="105.0955495"><ele>285.22</ele><time>2026-02-11T02:00:49.000Z</time></trkpt>
        <trkpt lat="29.4933642" lon="105.0954464"><ele>285.36</ele><time>2026-02-11T02:00:57.000Z</time></trkpt>
        <trkpt lat="29.4934196" lon="105.0953607"><ele>285.38</ele><time>2026-02-11T02:01:01.000Z</time></trkpt>
        <trkpt lat="29.4934986" lon="105.0952613"><ele>285.29</ele><time>2026-02-11T02:01:05.000Z</time></trkpt>
        <trkpt lat="29.4935792" lon="105.0951693"><ele>285.01</ele><time>2026-02-11T02:01:09.000Z</time></trkpt>
        <trkpt lat="29.4936572" lon="105.0950862"><ele>284.92</ele><time>2026-02-11T02:01:13.000Z</time></trkpt>
        <trkpt lat="29.4937387" lon="105.0949928"><ele>284.87</ele><time>2026-02-11T02:01:17.000Z</time></trkpt>
        <trkpt lat="29.4938168" lon="105.0949023"><ele>284.81</ele><time>2026-02-11T02:01:21.000Z</time></trkpt>
        <trkpt lat="29.4938933" lon="105.0948016"><ele>284.89</ele><time>2026-02-11T02:01:29.000Z</time></trkpt>
        <trkpt lat="29.4939686" lon="105.0947047"><ele>284.47</ele><time>2026-02-11T02:01:37.000Z</time></trkpt>
        <trkpt lat="29.4940348" lon="105.0946239"><ele>283.87</ele><time>2026-02-11T02:01:45.000Z</time></trkpt>
        <trkpt lat="29.4941062" lon="105.0945615"><ele>282.42</ele><time>2026-02-11T02:01:51.000Z</time></trkpt>
        <trkpt lat="29.4941882" lon="105.0944749"><ele>281.38</ele><time>2026-02-11T02:01:59.000Z</time></trkpt>
        <trkpt lat="29.4942841" lon="105.0943878"><ele>280.81</ele><time>2026-02-11T02:02:05.000Z</time></trkpt>
        <trkpt lat="29.4943741" lon="105.0943071"><ele>280.66</ele><time>2026-02-11T02:02:13.000Z</time></trkpt>
        <trkpt lat="29.4944729" lon="105.0942414"><ele>280.75</ele><time>2026-02-11T02:02:21.000Z</time></trkpt>
        <trkpt lat="29.4945501" lon="105.0941551"><ele>280.69</ele><time>2026-02-11T02:02:29.000Z</time></trkpt>
        <trkpt lat="29.4946226" lon="105.0940699"><ele>280.68</ele><time>2026-02-11T02:02:37.000Z</time></trkpt>
        <trkpt lat="29.4946955" lon="105.093988"><ele>280.49</ele><time>2026-02-11T02:02:45.000Z</time></trkpt>
        <trkpt lat="29.4947559" lon="105.0939076"><ele>280.57</ele><time>2026-02-11T02:02:51.000Z</time></trkpt>
        <trkpt lat="29.4948097" lon="105.0938094"><ele>280.44</ele><time>2026-02-11T02:02:59.000Z</time></trkpt>
        <trkpt lat="29.494836" lon="105.0937051"><ele>280.46</ele><time>2026-02-11T02:03:07.000Z</time></trkpt>
        <trkpt lat="29.4948908" lon="105.0936009"><ele>281.03</ele><time>2026-02-11T02:03:15.000Z</time></trkpt>
        <trkpt lat="29.4949516" lon="105.0935013"><ele>280.74</ele><time>2026-02-11T02:03:21.000Z</time></trkpt>
        <trkpt lat="29.4950193" lon="105.0933949"><ele>280.39</ele><time>2026-02-11T02:03:25.000Z</time></trkpt>
        <trkpt lat="29.4950675" lon="105.0932961"><ele>280.86</ele><time>2026-02-11T02:03:31.000Z</time></trkpt>
        <trkpt lat="29.4951211" lon="105.0931938"><ele>281.39</ele><time>2026-02-11T02:03:39.000Z</time></trkpt>
        <trkpt lat="29.4951867" lon="105.0930939"><ele>281.46</ele><time>2026-02-11T02:03:47.000Z</time></trkpt>
        <trkpt lat="29.4952575" lon="105.0930136"><ele>281.06</ele><time>2026-02-11T02:03:53.000Z</time></trkpt>
        <trkpt lat="29.4953249" lon="105.0929123"><ele>280.96</ele><time>2026-02-11T02:04:03.000Z</time></trkpt>
        <trkpt lat="29.4953778" lon="105.0927984"><ele>281.12</ele><time>2026-02-11T02:04:11.000Z</time></trkpt>
        <trkpt lat="29.4954217" lon="105.0926978"><ele>281.21</ele><time>2026-02-11T02:04:19.000Z</time></trkpt>
        <trkpt lat="29.4954806" lon="105.09259"><ele>281.71</ele><time>2026-02-11T02:04:29.000Z</time></trkpt>
        <trkpt lat="29.4955211" lon="105.0924871"><ele>282.41</ele><time>2026-02-11T02:04:35.000Z</time></trkpt>
        <trkpt lat="29.4955734" lon="105.0923837"><ele>282.43</ele><time>2026-02-11T02:04:43.000Z</time></trkpt>
        <trkpt lat="29.4956195" lon="105.0922898"><ele>282.36</ele><time>2026-02-11T02:04:51.000Z</time></trkpt>
        <trkpt lat="29.4956611" lon="105.092192"><ele>282.57</ele><time>2026-02-11T02:04:59.000Z</time></trkpt>
        <trkpt lat="29.4957053" lon="105.0920878"><ele>282.45</ele><time>2026-02-11T02:05:07.000Z</time></trkpt>
        <trkpt lat="29.4957622" lon="105.0919961"><ele>282.18</ele><time>2026-02-11T02:05:15.000Z</time></trkpt>
        <trkpt lat="29.4958219" lon="105.0919041"><ele>281.37</ele><time>2026-02-11T02:05:23.000Z</time></trkpt>
        <trkpt lat="29.4958845" lon="105.091806"><ele>280.79</ele><time>2026-02-11T02:05:31.000Z</time></trkpt>
        <trkpt lat="29.4959582" lon="105.0917188"><ele>280.55</ele><time>2026-02-11T02:05:39.000Z</time></trkpt>
        <trkpt lat="29.4960344" lon="105.0916527"><ele>279.86</ele><time>2026-02-11T02:05:45.000Z</time></trkpt>
        <trkpt lat="29.4961154" lon="105.091585"><ele>279.37</ele><time>2026-02-11T02:05:51.000Z</time></trkpt>
        <trkpt lat="29.4962091" lon="105.0915217"><ele>278.98</ele><time>2026-02-11T02:05:55.000Z</time></trkpt>
        <trkpt lat="29.496317" lon="105.091456"><ele>278.88</ele><time>2026-02-11T02:05:59.000Z</time></trkpt>
        <trkpt lat="29.4964164" lon="105.091386"><ele>278.9</ele><time>2026-02-11T02:06:03.000Z</time></trkpt>
        <trkpt lat="29.4965227" lon="105.0913063"><ele>278.92</ele><time>2026-02-11T02:06:09.000Z</time></trkpt>
        <trkpt lat="29.4966203" lon="105.0912181"><ele>278.78</ele><time>2026-02-11T02:06:15.000Z</time></trkpt>
        <trkpt lat="29.4967083" lon="105.0911345"><ele>278.18</ele><time>2026-02-11T02:06:23.000Z</time></trkpt>
        <trkpt lat="29.4967935" lon="105.0910787"><ele>277.85</ele><time>2026-02-11T02:06:29.000Z</time></trkpt>
        <trkpt lat="29.4968764" lon="105.0910341"><ele>277.74</ele><time>2026-02-11T02:06:35.000Z</time></trkpt>
        <trkpt lat="29.4969692" lon="105.0909854"><ele>278.04</ele><time>2026-02-11T02:06:43.000Z</time></trkpt>
        <trkpt lat="29.49706" lon="105.0909314"><ele>277.69</ele><time>2026-02-11T02:06:51.000Z</time></trkpt>
        <trkpt lat="29.4971688" lon="105.0908487"><ele>277.1</ele><time>2026-02-11T02:06:57.000Z</time></trkpt>
        <trkpt lat="29.4972591" lon="105.0907819"><ele>276.7</ele><time>2026-02-11T02:07:01.000Z</time></trkpt>
        <trkpt lat="29.4973378" lon="105.0907204"><ele>276.66</ele><time>2026-02-11T02:07:05.000Z</time></trkpt>
        <trkpt lat="29.4974255" lon="105.0906567"><ele>276.5</ele><time>2026-02-11T02:07:13.000Z</time></trkpt>
        <trkpt lat="29.4975102" lon="105.0905925"><ele>275.72</ele><time>2026-02-11T02:07:17.000Z</time></trkpt>
        <trkpt lat="29.4976107" lon="105.090522"><ele>274.9</ele><time>2026-02-11T02:07:21.000Z</time></trkpt>
        <trkpt lat="29.4977017" lon="105.0904584"><ele>274.3</ele><time>2026-02-11T02:07:25.000Z</time></trkpt>
        <trkpt lat="29.4977925" lon="105.0903997"><ele>273.76</ele><time>2026-02-11T02:07:31.000Z</time></trkpt>
        <trkpt lat="29.4978883" lon="105.0903423"><ele>273.08</ele><time>2026-02-11T02:07:39.000Z</time></trkpt>
        <trkpt lat="29.4979841" lon="105.0902699"><ele>272.85</ele><time>2026-02-11T02:07:47.000Z</time></trkpt>
        <trkpt lat="29.4980804" lon="105.0902146"><ele>272.87</ele><time>2026-02-11T02:07:55.000Z</time></trkpt>
        <trkpt lat="29.4981795" lon="105.090151"><ele>272.54</ele><time>2026-02-11T02:08:03.000Z</time></trkpt>
        <trkpt lat="29.4982518" lon="105.0900756"><ele>271.93</ele><time>2026-02-11T02:08:07.000Z</time></trkpt>
        <trkpt lat="29.4983404" lon="105.090019"><ele>271.73</ele><time>2026-02-11T02:08:11.000Z</time></trkpt>
        <trkpt lat="29.4984318" lon="105.0899584"><ele>271.88</ele><time>2026-02-11T02:08:19.000Z</time></trkpt>
        <trkpt lat="29.4985349" lon="105.089883"><ele>272.26</ele><time>2026-02-11T02:08:25.000Z</time></trkpt>
        <trkpt lat="29.4986287" lon="105.0898192"><ele>272.71</ele><time>2026-02-11T02:08:29.000Z</time></trkpt>
        <trkpt lat="29.4987269" lon="105.0897605"><ele>272.77</ele><time>2026-02-11T02:08:37.000Z</time></trkpt>
        <trkpt lat="29.4988165" lon="105.0896965"><ele>271.65</ele><time>2026-02-11T02:08:45.000Z</time></trkpt>
        <trkpt lat="29.4988973" lon="105.0896057"><ele>271.45</ele><time>2026-02-11T02:08:53.000Z</time></trkpt>
        <trkpt lat="29.4989862" lon="105.0895571"><ele>271.19</ele><time>2026-02-11T02:08:59.000Z</time></trkpt>
        <trkpt lat="29.4990747" lon="105.089505"><ele>270.67</ele><time>2026-02-11T02:09:05.000Z</time></trkpt>
        <trkpt lat="29.4991609" lon="105.0894374"><ele>270.26</ele><time>2026-02-11T02:09:13.000Z</time></trkpt>
        <trkpt lat="29.4992564" lon="105.0893655"><ele>270.02</ele><time>2026-02-11T02:09:19.000Z</time></trkpt>
        <trkpt lat="29.4993504" lon="105.089315"><ele>269.4</ele><time>2026-02-11T02:09:23.000Z</time></trkpt>
        <trkpt lat="29.4994363" lon="105.0892711"><ele>268.69</ele><time>2026-02-11T02:09:27.000Z</time></trkpt>
        <trkpt lat="29.4995207" lon="105.0892348"><ele>267.86</ele><time>2026-02-11T02:09:33.000Z</time></trkpt>
        <trkpt lat="29.4996098" lon="105.0892044"><ele>267.39</ele><time>2026-02-11T02:09:39.000Z</time></trkpt>
        <trkpt lat="29.499708" lon="105.0891408"><ele>267.27</ele><time>2026-02-11T02:09:43.000Z</time></trkpt>
        <trkpt lat="29.4997967" lon="105.0890574"><ele>266.66</ele><time>2026-02-11T02:09:47.000Z</time></trkpt>
        <trkpt lat="29.4998829" lon="105.0889873"><ele>266.42</ele><time>2026-02-11T02:09:51.000Z</time></trkpt>
        <trkpt lat="29.4999659" lon="105.0889143"><ele>266.1</ele><time>2026-02-11T02:09:59.000Z</time></trkpt>
        <trkpt lat="29.5000694" lon="105.0888644"><ele>265.47</ele><time>2026-02-11T02:10:03.000Z</time></trkpt>
        <trkpt lat="29.5001804" lon="105.088806"><ele>264.99</ele><time>2026-02-11T02:10:07.000Z</time></trkpt>
        <trkpt lat="29.5002734" lon="105.088741"><ele>264.59</ele><time>2026-02-11T02:10:13.000Z</time></trkpt>
        <trkpt lat="29.5003591" lon="105.0886819"><ele>264.21</ele><time>2026-02-11T02:10:21.000Z</time></trkpt>
        <trkpt lat="29.5004505" lon="105.0886214"><ele>263.47</ele><time>2026-02-11T02:10:27.000Z</time></trkpt>
        <trkpt lat="29.5005341" lon="105.0885548"><ele>263.09</ele><time>2026-02-11T02:10:35.000Z</time></trkpt>
        <trkpt lat="29.5006353" lon="105.0884947"><ele>262.54</ele><time>2026-02-11T02:10:43.000Z</time></trkpt>
        <trkpt lat="29.5007373" lon="105.0884278"><ele>262.07</ele><time>2026-02-11T02:10:51.000Z</time></trkpt>
        <trkpt lat="29.5008494" lon="105.0883889"><ele>261.74</ele><time>2026-02-11T02:11:01.000Z</time></trkpt>
        <trkpt lat="29.5009387" lon="105.0883322"><ele>260.32</ele><time>2026-02-11T02:11:05.000Z</time></trkpt>
        <trkpt lat="29.5010512" lon="105.0882379"><ele>259.74</ele><time>2026-02-11T02:11:09.000Z</time></trkpt>
        <trkpt lat="29.501161" lon="105.0881209"><ele>259.52</ele><time>2026-02-11T02:11:13.000Z</time></trkpt>
        <trkpt lat="29.5012652" lon="105.0880346"><ele>260.15</ele><time>2026-02-11T02:11:17.000Z</time></trkpt>
        <trkpt lat="29.5013604" lon="105.0879738"><ele>261.32</ele><time>2026-02-11T02:11:25.000Z</time></trkpt>
        <trkpt lat="29.5014286" lon="105.0878864"><ele>261.5</ele><time>2026-02-11T02:11:37.000Z</time></trkpt>
        <trkpt lat="29.5015208" lon="105.0878142"><ele>261.33</ele><time>2026-02-11T02:11:43.000Z</time></trkpt>
        <trkpt lat="29.5016107" lon="105.0877425"><ele>260.72</ele><time>2026-02-11T02:11:51.000Z</time></trkpt>
        <trkpt lat="29.5016957" lon="105.0876665"><ele>259.98</ele><time>2026-02-11T02:12:01.000Z</time></trkpt>
        <trkpt lat="29.5017755" lon="105.0876078"><ele>259.21</ele><time>2026-02-11T02:12:09.000Z</time></trkpt>
        <trkpt lat="29.5018672" lon="105.0875351"><ele>258.17</ele><time>2026-02-11T02:12:17.000Z</time></trkpt>
        <trkpt lat="29.5019591" lon="105.087487"><ele>257.08</ele><time>2026-02-11T02:12:25.000Z</time></trkpt>
        <trkpt lat="29.5020554" lon="105.0874987"><ele>256.16</ele><time>2026-02-11T02:12:31.000Z</time></trkpt>
        <trkpt lat="29.5021601" lon="105.0875536"><ele>255.25</ele><time>2026-02-11T02:12:37.000Z</time></trkpt>
        <trkpt lat="29.5021427" lon="105.0875136"><ele>254.82</ele><time>2026-02-11T02:13:09.000Z</time></trkpt>
        <trkpt lat="29.5021688" lon="105.0874334"><ele>254.79</ele><time>2026-02-11T02:13:17.000Z</time></trkpt>
        <trkpt lat="29.5022482" lon="105.0873959"><ele>254.57</ele><time>2026-02-11T02:13:25.000Z</time></trkpt>
        <trkpt lat="29.502339" lon="105.0873241"><ele>254.95</ele><time>2026-02-11T02:13:33.000Z</time></trkpt>
        <trkpt lat="29.5024381" lon="105.0872565"><ele>255.25</ele><time>2026-02-11T02:13:41.000Z</time></trkpt>
        <trkpt lat="29.5025318" lon="105.0871912"><ele>255.33</ele><time>2026-02-11T02:13:49.000Z</time></trkpt>
        <trkpt lat="29.50261" lon="105.0871253"><ele>255.04</ele><time>2026-02-11T02:13:55.000Z</time></trkpt>
        <trkpt lat="29.5027038" lon="105.0870606"><ele>255.15</ele><time>2026-02-11T02:14:03.000Z</time></trkpt>
        <trkpt lat="29.5027924" lon="105.0870059"><ele>255.48</ele><time>2026-02-11T02:14:11.000Z</time></trkpt>
        <trkpt lat="29.5028851" lon="105.086973"><ele>256.26</ele><time>2026-02-11T02:14:19.000Z</time></trkpt>
        <trkpt lat="29.5029771" lon="105.0869533"><ele>256.53</ele><time>2026-02-11T02:14:25.000Z</time></trkpt>
        <trkpt lat="29.5030684" lon="105.0869261"><ele>256.76</ele><time>2026-02-11T02:14:31.000Z</time></trkpt>
        <trkpt lat="29.5031615" lon="105.0869022"><ele>256.85</ele><time>2026-02-11T02:14:39.000Z</time></trkpt>
        <trkpt lat="29.5032555" lon="105.0868897"><ele>256.53</ele><time>2026-02-11T02:14:45.000Z</time></trkpt>
        <trkpt lat="29.5033493" lon="105.0868725"><ele>256.76</ele><time>2026-02-11T02:14:51.000Z</time></trkpt>
        <trkpt lat="29.5034466" lon="105.0868608"><ele>256.8</ele><time>2026-02-11T02:14:57.000Z</time></trkpt>
        <trkpt lat="29.5035519" lon="105.0868594"><ele>256.86</ele><time>2026-02-11T02:15:03.000Z</time></trkpt>
        <trkpt lat="29.503658" lon="105.086858"><ele>256.94</ele><time>2026-02-11T02:15:09.000Z</time></trkpt>
        <trkpt lat="29.5037571" lon="105.08685"><ele>256.55</ele><time>2026-02-11T02:15:17.000Z</time></trkpt>
        <trkpt lat="29.5038563" lon="105.0868464"><ele>255.72</ele><time>2026-02-11T02:15:23.000Z</time></trkpt>
        <trkpt lat="29.5039514" lon="105.0868414"><ele>255.48</ele><time>2026-02-11T02:15:29.000Z</time></trkpt>
        <trkpt lat="29.504045" lon="105.0868269"><ele>255.36</ele><time>2026-02-11T02:15:37.000Z</time></trkpt>
        <trkpt lat="29.5041426" lon="105.0868344"><ele>255.71</ele><time>2026-02-11T02:15:45.000Z</time></trkpt>
        <trkpt lat="29.5042342" lon="105.0868702"><ele>256.06</ele><time>2026-02-11T02:15:53.000Z</time></trkpt>
        <trkpt lat="29.5043251" lon="105.0868555"><ele>256.03</ele><time>2026-02-11T02:16:03.000Z</time></trkpt>
        <trkpt lat="29.5043693" lon="105.0867741"><ele>256.23</ele><time>2026-02-11T02:16:13.000Z</time></trkpt>
        <trkpt lat="29.504438" lon="105.0867893"><ele>256.84</ele><time>2026-02-11T02:16:31.000Z</time></trkpt>
        <trkpt lat="29.5045351" lon="105.0868263"><ele>257.45</ele><time>2026-02-11T02:16:41.000Z</time></trkpt>
        <trkpt lat="29.504628" lon="105.0868639"><ele>257.25</ele><time>2026-02-11T02:16:45.000Z</time></trkpt>
        <trkpt lat="29.5047377" lon="105.0868943"><ele>256.87</ele><time>2026-02-11T02:16:53.000Z</time></trkpt>
        <trkpt lat="29.5048316" lon="105.08693"><ele>256.45</ele><time>2026-02-11T02:16:59.000Z</time></trkpt>
        <trkpt lat="29.5049293" lon="105.0869698"><ele>256.42</ele><time>2026-02-11T02:17:07.000Z</time></trkpt>
        <trkpt lat="29.505024" lon="105.0869936"><ele>256.95</ele><time>2026-02-11T02:17:13.000Z</time></trkpt>
        <trkpt lat="29.5051197" lon="105.0870303"><ele>257.63</ele><time>2026-02-11T02:17:21.000Z</time></trkpt>
        <trkpt lat="29.5052252" lon="105.0870694"><ele>258.56</ele><time>2026-02-11T02:17:29.000Z</time></trkpt>
        <trkpt lat="29.5053316" lon="105.0870781"><ele>259.14</ele><time>2026-02-11T02:17:37.000Z</time></trkpt>
        <trkpt lat="29.5054258" lon="105.087091"><ele>258.75</ele><time>2026-02-11T02:17:43.000Z</time></trkpt>
        <trkpt lat="29.5055198" lon="105.0871318"><ele>258.49</ele><time>2026-02-11T02:17:53.000Z</time></trkpt>
        <trkpt lat="29.5056168" lon="105.0871629"><ele>258.96</ele><time>2026-02-11T02:18:01.000Z</time></trkpt>
        <trkpt lat="29.5057221" lon="105.0871692"><ele>258.86</ele><time>2026-02-11T02:18:07.000Z</time></trkpt>
        <trkpt lat="29.5058289" lon="105.0871518"><ele>258.81</ele><time>2026-02-11T02:18:17.000Z</time></trkpt>
        <trkpt lat="29.5058802" lon="105.0870689"><ele>258.25</ele><time>2026-02-11T02:18:27.000Z</time></trkpt>
        <trkpt lat="29.505958" lon="105.0869839"><ele>258.04</ele><time>2026-02-11T02:18:53.000Z</time></trkpt>
        <trkpt lat="29.5060232" lon="105.086877"><ele>259.04</ele><time>2026-02-11T02:19:01.000Z</time></trkpt>
        <trkpt lat="29.5061138" lon="105.0867944"><ele>259.72</ele><time>2026-02-11T02:19:05.000Z</time></trkpt>
        <trkpt lat="29.5061777" lon="105.0866904"><ele>261.66</ele><time>2026-02-11T02:19:13.000Z</time></trkpt>
        <trkpt lat="29.506239" lon="105.0865902"><ele>263.13</ele><time>2026-02-11T02:19:21.000Z</time></trkpt>
        <trkpt lat="29.5063032" lon="105.086479"><ele>263.83</ele><time>2026-02-11T02:19:29.000Z</time></trkpt>
        <trkpt lat="29.5063788" lon="105.0863838"><ele>264.08</ele><time>2026-02-11T02:19:33.000Z</time></trkpt>
        <trkpt lat="29.5064435" lon="105.0862967"><ele>264.14</ele><time>2026-02-11T02:19:37.000Z</time></trkpt>
        <trkpt lat="29.5065152" lon="105.0861804"><ele>264.32</ele><time>2026-02-11T02:19:43.000Z</time></trkpt>
        <trkpt lat="29.506589" lon="105.0860727"><ele>265.11</ele><time>2026-02-11T02:19:53.000Z</time></trkpt>
        <trkpt lat="29.5066431" lon="105.0859785"><ele>265.84</ele><time>2026-02-11T02:20:05.000Z</time></trkpt>
        <trkpt lat="29.5066967" lon="105.0858853"><ele>267.16</ele><time>2026-02-11T02:20:15.000Z</time></trkpt>
        <trkpt lat="29.50676" lon="105.0857723"><ele>268.05</ele><time>2026-02-11T02:20:21.000Z</time></trkpt>
        <trkpt lat="29.506854" lon="105.0857021"><ele>268.61</ele><time>2026-02-11T02:20:27.000Z</time></trkpt>
        <trkpt lat="29.5069189" lon="105.0856232"><ele>268.79</ele><time>2026-02-11T02:20:37.000Z</time></trkpt>
        <trkpt lat="29.507009" lon="105.0855995"><ele>268.51</ele><time>2026-02-11T02:20:47.000Z</time></trkpt>
        <trkpt lat="29.5071081" lon="105.0856247"><ele>267.61</ele><time>2026-02-11T02:20:59.000Z</time></trkpt>
        <trkpt lat="29.5071854" lon="105.0857027"><ele>266.79</ele><time>2026-02-11T02:21:07.000Z</time></trkpt>
        <trkpt lat="29.5072653" lon="105.0858096"><ele>265.68</ele><time>2026-02-11T02:21:13.000Z</time></trkpt>
        <trkpt lat="29.5073184" lon="105.085922"><ele>264.09</ele><time>2026-02-11T02:21:19.000Z</time></trkpt>
        <trkpt lat="29.5073768" lon="105.0860174"><ele>262.79</ele><time>2026-02-11T02:21:27.000Z</time></trkpt>
        <trkpt lat="29.5074356" lon="105.0861105"><ele>262.1</ele><time>2026-02-11T02:21:37.000Z</time></trkpt>
        <trkpt lat="29.5074448" lon="105.0862237"><ele>261.66</ele><time>2026-02-11T02:21:47.000Z</time></trkpt>
        <trkpt lat="29.5074561" lon="105.0863335"><ele>261.49</ele><time>2026-02-11T02:22:03.000Z</time></trkpt>
        <trkpt lat="29.5074687" lon="105.0864417"><ele>262.3</ele><time>2026-02-11T02:22:09.000Z</time></trkpt>
        <trkpt lat="29.5074557" lon="105.0865666"><ele>262.48</ele><time>2026-02-11T02:22:15.000Z</time></trkpt>
        <trkpt lat="29.5074354" lon="105.0866792"><ele>262.49</ele><time>2026-02-11T02:22:21.000Z</time></trkpt>
        <trkpt lat="29.5074092" lon="105.086789"><ele>262.77</ele><time>2026-02-11T02:22:27.000Z</time></trkpt>
        <trkpt lat="29.5074072" lon="105.0868979"><ele>263.59</ele><time>2026-02-11T02:22:53.000Z</time></trkpt>
        <trkpt lat="29.5074019" lon="105.0870059"><ele>264.94</ele><time>2026-02-11T02:23:01.000Z</time></trkpt>
        <trkpt lat="29.5074248" lon="105.0871189"><ele>265.88</ele><time>2026-02-11T02:23:09.000Z</time></trkpt>
        <trkpt lat="29.5074658" lon="105.0872239"><ele>266.76</ele><time>2026-02-11T02:23:17.000Z</time></trkpt>
        <trkpt lat="29.5074555" lon="105.0873297"><ele>267.3</ele><time>2026-02-11T02:23:59.000Z</time></trkpt>
        <trkpt lat="29.5073907" lon="105.0874086"><ele>269.45</ele><time>2026-02-11T02:24:11.000Z</time></trkpt>
        <trkpt lat="29.5073003" lon="105.0874871"><ele>271.3</ele><time>2026-02-11T02:24:19.000Z</time></trkpt>
        <trkpt lat="29.5072383" lon="105.0875884"><ele>272.15</ele><time>2026-02-11T02:24:29.000Z</time></trkpt>
        <trkpt lat="29.5071798" lon="105.0876931"><ele>272.88</ele><time>2026-02-11T02:24:43.000Z</time></trkpt>
        <trkpt lat="29.5072018" lon="105.0876371"><ele>273.55</ele><time>2026-02-11T02:25:21.000Z</time></trkpt>
        <trkpt lat="29.5072708" lon="105.0875433"><ele>273.63</ele><time>2026-02-11T02:25:29.000Z</time></trkpt>
        <trkpt lat="29.5073479" lon="105.0874492"><ele>274.29</ele><time>2026-02-11T02:25:37.000Z</time></trkpt>
        <trkpt lat="29.5074346" lon="105.0873613"><ele>274.8</ele><time>2026-02-11T02:25:45.000Z</time></trkpt>
        <trkpt lat="29.5075212" lon="105.0872719"><ele>275.54</ele><time>2026-02-11T02:25:55.000Z</time></trkpt>
        <trkpt lat="29.507614" lon="105.0872014"><ele>276.63</ele><time>2026-02-11T02:26:07.000Z</time></trkpt>
        <trkpt lat="29.5077266" lon="105.087165"><ele>277.55</ele><time>2026-02-11T02:26:25.000Z</time></trkpt>
        <trkpt lat="29.5078259" lon="105.0871376"><ele>277.2</ele><time>2026-02-11T02:26:33.000Z</time></trkpt>
        <trkpt lat="29.507927" lon="105.0871072"><ele>276.93</ele><time>2026-02-11T02:26:51.000Z</time></trkpt>
        <trkpt lat="29.5080109" lon="105.087059"><ele>277.59</ele><time>2026-02-11T02:26:59.000Z</time></trkpt>
        <trkpt lat="29.5081025" lon="105.0870074"><ele>278.06</ele><time>2026-02-11T02:27:07.000Z</time></trkpt>
        <trkpt lat="29.5081932" lon="105.0869549"><ele>277.96</ele><time>2026-02-11T02:27:15.000Z</time></trkpt>
        <trkpt lat="29.5082744" lon="105.0868793"><ele>277.83</ele><time>2026-02-11T02:27:29.000Z</time></trkpt>
        <trkpt lat="29.5083631" lon="105.0868097"><ele>277.78</ele><time>2026-02-11T02:27:37.000Z</time></trkpt>
        <trkpt lat="29.5084546" lon="105.0867466"><ele>277.89</ele><time>2026-02-11T02:27:45.000Z</time></trkpt>
        <trkpt lat="29.5085468" lon="105.0866804"><ele>278.6</ele><time>2026-02-11T02:27:53.000Z</time></trkpt>
        <trkpt lat="29.5086356" lon="105.0866131"><ele>278.9</ele><time>2026-02-11T02:28:03.000Z</time></trkpt>
        <trkpt lat="29.508721" lon="105.0865575"><ele>279.05</ele><time>2026-02-11T02:28:13.000Z</time></trkpt>
        <trkpt lat="29.5088143" lon="105.0865035"><ele>279.4</ele><time>2026-02-11T02:28:33.000Z</time></trkpt>
        <trkpt lat="29.5089184" lon="105.0864754"><ele>280.38</ele><time>2026-02-11T02:28:41.000Z</time></trkpt>
        <trkpt lat="29.5090169" lon="105.086462"><ele>281.19</ele><time>2026-02-11T02:28:49.000Z</time></trkpt>
        <trkpt lat="29.5091024" lon="105.0864961"><ele>281.99</ele><time>2026-02-11T02:28:55.000Z</time></trkpt>
        <trkpt lat="29.5091901" lon="105.0865522"><ele>282.49</ele><time>2026-02-11T02:29:03.000Z</time></trkpt>
        <trkpt lat="29.5092674" lon="105.0866367"><ele>282.97</ele><time>2026-02-11T02:29:11.000Z</time></trkpt>
        <trkpt lat="29.5093533" lon="105.0867187"><ele>282.57</ele><time>2026-02-11T02:29:19.000Z</time></trkpt>
        <trkpt lat="29.5094361" lon="105.0867926"><ele>283.19</ele><time>2026-02-11T02:29:27.000Z</time></trkpt>
        <trkpt lat="29.5095142" lon="105.0868617"><ele>283.36</ele><time>2026-02-11T02:29:43.000Z</time></trkpt>
        <trkpt lat="29.5095932" lon="105.0869164"><ele>282.55</ele><time>2026-02-11T02:29:49.000Z</time></trkpt>
        <trkpt lat="29.5096922" lon="105.0869626"><ele>281.71</ele><time>2026-02-11T02:29:59.000Z</time></trkpt>
        <trkpt lat="29.509772" lon="105.0870407"><ele>280.26</ele><time>2026-02-11T02:30:07.000Z</time></trkpt>
        <trkpt lat="29.5098572" lon="105.087087"><ele>279.41</ele><time>2026-02-11T02:30:15.000Z</time></trkpt>
        <trkpt lat="29.509948" lon="105.0870898"><ele>279.1</ele><time>2026-02-11T02:30:49.000Z</time></trkpt>
        <trkpt lat="29.5100423" lon="105.0871098"><ele>278.72</ele><time>2026-02-11T02:30:55.000Z</time></trkpt>
        <trkpt lat="29.5101432" lon="105.087128"><ele>278.75</ele><time>2026-02-11T02:31:05.000Z</time></trkpt>
        <trkpt lat="29.5102439" lon="105.087139"><ele>279.2</ele><time>2026-02-11T02:31:15.000Z</time></trkpt>
        <trkpt lat="29.5103455" lon="105.0871529"><ele>279.38</ele><time>2026-02-11T02:31:23.000Z</time></trkpt>
        <trkpt lat="29.510438" lon="105.0871672"><ele>279.75</ele><time>2026-02-11T02:31:29.000Z</time></trkpt>
        <trkpt lat="29.5105361" lon="105.0871746"><ele>280.57</ele><time>2026-02-11T02:31:37.000Z</time></trkpt>
        <trkpt lat="29.5106428" lon="105.0871338"><ele>280.72</ele><time>2026-02-11T02:31:53.000Z</time></trkpt>
        <trkpt lat="29.5107375" lon="105.0870951"><ele>280.51</ele><time>2026-02-11T02:32:01.000Z</time></trkpt>
        <trkpt lat="29.5108308" lon="105.0870472"><ele>280.12</ele><time>2026-02-11T02:32:09.000Z</time></trkpt>
        <trkpt lat="29.5109302" lon="105.0870031"><ele>278.75</ele><time>2026-02-11T02:32:17.000Z</time></trkpt>
        <trkpt lat="29.5110356" lon="105.086973"><ele>277.58</ele><time>2026-02-11T02:32:27.000Z</time></trkpt>
        <trkpt lat="29.511133" lon="105.0869479"><ele>275.66</ele><time>2026-02-11T02:32:35.000Z</time></trkpt>
        <trkpt lat="29.511133" lon="105.0869479"><ele>275.66</ele><time>2026-02-11T02:33:13.000Z</time></trkpt>
        <trkpt lat="29.5112258" lon="105.0869206"><ele>274.48</ele><time>2026-02-11T02:33:16.000Z</time></trkpt>
        <trkpt lat="29.5112258" lon="105.0869206"><ele>274.48</ele><time>2026-02-11T02:33:59.000Z</time></trkpt>
        <trkpt lat="29.5113214" lon="105.0868663"><ele>272.59</ele><time>2026-02-11T02:34:10.000Z</time></trkpt>
        <trkpt lat="29.5114148" lon="105.0868422"><ele>271.6</ele><time>2026-02-11T02:34:15.000Z</time></trkpt>
        <trkpt lat="29.5115136" lon="105.0868568"><ele>271.19</ele><time>2026-02-11T02:34:22.000Z</time></trkpt>
        <trkpt lat="29.5116093" lon="105.086868"><ele>271.21</ele><time>2026-02-11T02:34:30.000Z</time></trkpt>
        <trkpt lat="29.5117089" lon="105.0868656"><ele>270.84</ele><time>2026-02-11T02:34:37.000Z</time></trkpt>
        <trkpt lat="29.5118111" lon="105.0868573"><ele>270.03</ele><time>2026-02-11T02:34:45.000Z</time></trkpt>
        <trkpt lat="29.5119073" lon="105.0868497"><ele>269.43</ele><time>2026-02-11T02:34:51.000Z</time></trkpt>
        <trkpt lat="29.5120139" lon="105.0868537"><ele>269.35</ele><time>2026-02-11T02:35:04.000Z</time></trkpt>
        <trkpt lat="29.5121115" lon="105.0868341"><ele>268.83</ele><time>2026-02-11T02:35:13.000Z</time></trkpt>
        <trkpt lat="29.5122061" lon="105.0868054"><ele>268.09</ele><time>2026-02-11T02:35:22.000Z</time></trkpt>
        <trkpt lat="29.5122061" lon="105.0868054"><ele>268.09</ele><time>2026-02-11T02:36:41.000Z</time></trkpt>
        <trkpt lat="29.5123423" lon="105.0867661"><ele>266.6</ele><time>2026-02-11T02:37:26.000Z</time></trkpt>
        <trkpt lat="29.5123423" lon="105.0867661"><ele>266.6</ele><time>2026-02-11T02:37:28.000Z</time></trkpt>
        <trkpt lat="29.5122513" lon="105.0867514"><ele>262.29</ele><time>2026-02-11T02:38:07.000Z</time></trkpt>
        <trkpt lat="29.5122091" lon="105.0866572"><ele>263.46</ele><time>2026-02-11T02:38:15.000Z</time></trkpt>
        <trkpt lat="29.5121873" lon="105.0865446"><ele>265.95</ele><time>2026-02-11T02:38:23.000Z</time></trkpt>
        <trkpt lat="29.512177" lon="105.0864285"><ele>266.31</ele><time>2026-02-11T02:38:31.000Z</time></trkpt>
        <trkpt lat="29.5121686" lon="105.086303"><ele>266.58</ele><time>2026-02-11T02:38:40.000Z</time></trkpt>
        <trkpt lat="29.5121492" lon="105.0861907"><ele>267.11</ele><time>2026-02-11T02:39:15.000Z</time></trkpt>
        <trkpt lat="29.5121498" lon="105.0860835"><ele>268.09</ele><time>2026-02-11T02:39:21.000Z</time></trkpt>
        <trkpt lat="29.5121333" lon="105.0859793"><ele>268.81</ele><time>2026-02-11T02:39:46.000Z</time></trkpt>
        <trkpt lat="29.5121333" lon="105.0859793"><ele>268.81</ele><time>2026-02-11T02:40:11.000Z</time></trkpt>
        <trkpt lat="29.5121179" lon="105.0860309"><ele>268.49</ele><time>2026-02-11T02:40:16.000Z</time></trkpt>
        <trkpt lat="29.5121179" lon="105.0860309"><ele>268.49</ele><time>2026-02-11T02:40:36.000Z</time></trkpt>
        <trkpt lat="29.5121056" lon="105.0861409"><ele>266.28</ele><time>2026-02-11T02:40:41.000Z</time></trkpt>
        <trkpt lat="29.5120185" lon="105.0861872"><ele>264.77</ele><time>2026-02-11T02:40:47.000Z</time></trkpt>
        <trkpt lat="29.5119489" lon="105.0862656"><ele>263.2</ele><time>2026-02-11T02:41:18.000Z</time></trkpt>
        <trkpt lat="29.5118936" lon="105.086223"><ele>261.17</ele><time>2026-02-11T02:41:43.000Z</time></trkpt>
        <trkpt lat="29.5118034" lon="105.0862073"><ele>259.64</ele><time>2026-02-11T02:41:49.000Z</time></trkpt>
        <trkpt lat="29.5117206" lon="105.0862538"><ele>259.07</ele><time>2026-02-11T02:42:07.000Z</time></trkpt>
        <trkpt lat="29.5116635" lon="105.0861999"><ele>259.26</ele><time>2026-02-11T02:42:41.000Z</time></trkpt>
        <trkpt lat="29.51158" lon="105.0861345"><ele>259.11</ele><time>2026-02-11T02:42:52.000Z</time></trkpt>
        <trkpt lat="29.5114822" lon="105.08611"><ele>258.35</ele><time>2026-02-11T02:42:59.000Z</time></trkpt>
        <trkpt lat="29.5113854" lon="105.0860838"><ele>257.78</ele><time>2026-02-11T02:43:06.000Z</time></trkpt>
        <trkpt lat="29.511291" lon="105.0860929"><ele>257.67</ele><time>2026-02-11T02:43:50.000Z</time></trkpt>
        <trkpt lat="29.5111952" lon="105.0860782"><ele>256.69</ele><time>2026-02-11T02:44:32.000Z</time></trkpt>
        <trkpt lat="29.5111006" lon="105.0861045"><ele>255.97</ele><time>2026-02-11T02:45:35.000Z</time></trkpt>
        <trkpt lat="29.5110098" lon="105.0861072"><ele>255.89</ele><time>2026-02-11T02:45:42.000Z</time></trkpt>
        <trkpt lat="29.5109189" lon="105.0860982"><ele>255.73</ele><time>2026-02-11T02:45:51.000Z</time></trkpt>
        <trkpt lat="29.5108228" lon="105.0860987"><ele>255.84</ele><time>2026-02-11T02:45:59.000Z</time></trkpt>
        <trkpt lat="29.5107236" lon="105.0861129"><ele>256.05</ele><time>2026-02-11T02:46:06.000Z</time></trkpt>
        <trkpt lat="29.510623" lon="105.0861041"><ele>256.5</ele><time>2026-02-11T02:46:14.000Z</time></trkpt>
        <trkpt lat="29.5105369" lon="105.0860535"><ele>256.73</ele><time>2026-02-11T02:46:23.000Z</time></trkpt>
        <trkpt lat="29.5105201" lon="105.085952"><ele>257.1</ele><time>2026-02-11T02:46:29.000Z</time></trkpt>
        <trkpt lat="29.5104846" lon="105.0858441"><ele>258.17</ele><time>2026-02-11T02:46:38.000Z</time></trkpt>
        <trkpt lat="29.5104524" lon="105.0857368"><ele>258.52</ele><time>2026-02-11T02:46:45.000Z</time></trkpt>
        <trkpt lat="29.5103824" lon="105.0856665"><ele>258.89</ele><time>2026-02-11T02:46:50.000Z</time></trkpt>
        <trkpt lat="29.5102973" lon="105.0856208"><ele>259.17</ele><time>2026-02-11T02:46:56.000Z</time></trkpt>
        <trkpt lat="29.5102056" lon="105.0856322"><ele>259.44</ele><time>2026-02-11T02:47:06.000Z</time></trkpt>
        <trkpt lat="29.5102056" lon="105.0856322"><ele>259.44</ele><time>2026-02-11T02:47:31.000Z</time></trkpt>
        <trkpt lat="29.5101171" lon="105.085607"><ele>260.06</ele><time>2026-02-11T02:47:34.000Z</time></trkpt>
        <trkpt lat="29.5101171" lon="105.085607"><ele>260.06</ele><time>2026-02-11T02:47:52.000Z</time></trkpt>
        <trkpt lat="29.5100624" lon="105.0856826"><ele>259.61</ele><time>2026-02-11T02:48:16.000Z</time></trkpt>
        <trkpt lat="29.510006" lon="105.085816"><ele>258.71</ele><time>2026-02-11T02:49:28.000Z</time></trkpt>
        <trkpt lat="29.5099602" lon="105.0859119"><ele>257.42</ele><time>2026-02-11T02:49:39.000Z</time></trkpt>
        <trkpt lat="29.5099062" lon="105.0860013"><ele>256.84</ele><time>2026-02-11T02:50:25.000Z</time></trkpt>
        <trkpt lat="29.5098967" lon="105.0861129"><ele>257.48</ele><time>2026-02-11T02:50:33.000Z</time></trkpt>
        <trkpt lat="29.5098942" lon="105.0862209"><ele>258.28</ele><time>2026-02-11T02:50:41.000Z</time></trkpt>
        <trkpt lat="29.5099025" lon="105.0863322"><ele>259.37</ele><time>2026-02-11T02:50:54.000Z</time></trkpt>
        <trkpt lat="29.509888" lon="105.086439"><ele>260.35</ele><time>2026-02-11T02:51:01.000Z</time></trkpt>
        <trkpt lat="29.5098983" lon="105.0865528"><ele>261.4</ele><time>2026-02-11T02:51:11.000Z</time></trkpt>
        <trkpt lat="29.5099157" lon="105.0866629"><ele>262.27</ele><time>2026-02-11T02:51:24.000Z</time></trkpt>
        <trkpt lat="29.5098963" lon="105.0867648"><ele>263.27</ele><time>2026-02-11T02:51:35.000Z</time></trkpt>
        <trkpt lat="29.5098788" lon="105.0868721"><ele>264</ele><time>2026-02-11T02:51:53.000Z</time></trkpt>
        <trkpt lat="29.5098874" lon="105.0869863"><ele>265.4</ele><time>2026-02-11T02:52:02.000Z</time></trkpt>
        <trkpt lat="29.5098701" lon="105.087093"><ele>266.7</ele><time>2026-02-11T02:52:16.000Z</time></trkpt>
        <trkpt lat="29.509784" lon="105.0870896"><ele>268.21</ele><time>2026-02-11T02:52:27.000Z</time></trkpt>
        <trkpt lat="29.5096911" lon="105.0870273"><ele>271.31</ele><time>2026-02-11T02:52:32.000Z</time></trkpt>
        <trkpt lat="29.5095895" lon="105.0869696"><ele>273.22</ele><time>2026-02-11T02:52:37.000Z</time></trkpt>
        <trkpt lat="29.5095077" lon="105.0868957"><ele>274.28</ele><time>2026-02-11T02:52:45.000Z</time></trkpt>
        <trkpt lat="29.5094277" lon="105.0868359"><ele>275.84</ele><time>2026-02-11T02:52:55.000Z</time></trkpt>
        <trkpt lat="29.5094581" lon="105.0868737"><ele>277.57</ele><time>2026-02-11T02:53:19.000Z</time></trkpt>
        <trkpt lat="29.509533" lon="105.0869413"><ele>278.09</ele><time>2026-02-11T02:53:31.000Z</time></trkpt>
        <trkpt lat="29.509559" lon="105.0870483"><ele>277.57</ele><time>2026-02-11T02:54:00.000Z</time></trkpt>
        <trkpt lat="29.5094944" lon="105.0870868"><ele>280.87</ele><time>2026-02-11T02:54:06.000Z</time></trkpt>
        <trkpt lat="29.509488" lon="105.0870567"><ele>279.3</ele><time>2026-02-11T02:54:12.000Z</time></trkpt>
        <trkpt lat="29.5094424" lon="105.0871007"><ele>278.45</ele><time>2026-02-11T02:54:19.000Z</time></trkpt>
        <trkpt lat="29.5094424" lon="105.0871007"><ele>278.45</ele><time>2026-02-11T02:54:29.000Z</time></trkpt>
        <trkpt lat="29.5093413" lon="105.0872393"><ele>277.98</ele><time>2026-02-11T02:54:36.000Z</time></trkpt>
        <trkpt lat="29.5093413" lon="105.0872393"><ele>277.98</ele><time>2026-02-11T02:54:51.000Z</time></trkpt>
        <trkpt lat="29.5093809" lon="105.0871676"><ele>279.06</ele><time>2026-02-11T02:54:56.000Z</time></trkpt>
        <trkpt lat="29.5092711" lon="105.0872505"><ele>279.28</ele><time>2026-02-11T02:54:59.000Z</time></trkpt>
        <trkpt lat="29.5091724" lon="105.0873211"><ele>279.04</ele><time>2026-02-11T02:55:22.000Z</time></trkpt>
        <trkpt lat="29.5091724" lon="105.0873211"><ele>279.04</ele><time>2026-02-11T02:55:39.000Z</time></trkpt>
        <trkpt lat="29.5092072" lon="105.0872871"><ele>275.97</ele><time>2026-02-11T02:55:42.000Z</time></trkpt>
        <trkpt lat="29.5092072" lon="105.0872871"><ele>275.97</ele><time>2026-02-11T02:56:09.000Z</time></trkpt>
        <trkpt lat="29.5092479" lon="105.0872597"><ele>277.15</ele><time>2026-02-11T02:56:10.000Z</time></trkpt>
        <trkpt lat="29.5092479" lon="105.0872597"><ele>277.15</ele><time>2026-02-11T02:56:45.000Z</time></trkpt>
        <trkpt lat="29.5092479" lon="105.0872597"><ele>277.15</ele><time>2026-02-11T02:56:54.000Z</time></trkpt>
        <trkpt lat="29.5092479" lon="105.0872597"><ele>277.15</ele><time>2026-02-11T02:57:09.000Z</time></trkpt>
        <trkpt lat="29.5094086" lon="105.0872162"><ele>277.83</ele><time>2026-02-11T02:57:54.000Z</time></trkpt>
        <trkpt lat="29.5094086" lon="105.0872162"><ele>277.83</ele><time>2026-02-11T02:58:16.000Z</time></trkpt>
        <trkpt lat="29.5093046" lon="105.0872699"><ele>277.97</ele><time>2026-02-11T02:58:19.000Z</time></trkpt>
        <trkpt lat="29.5091148" lon="105.087359"><ele>278.49</ele><time>2026-02-11T02:58:20.000Z</time></trkpt>
        <trkpt lat="29.5091375" lon="105.0873651"><ele>281.85</ele><time>2026-02-11T02:58:29.000Z</time></trkpt>
        <trkpt lat="29.509166" lon="105.087364"><ele>290.51</ele><time>2026-02-11T02:58:31.000Z</time></trkpt>
        <trkpt lat="29.509166" lon="105.087364"><ele>290.51</ele><time>2026-02-11T02:58:35.000Z</time></trkpt>
        <trkpt lat="29.5093295" lon="105.0873535"><ele>295.45</ele><time>2026-02-11T03:02:20.000Z</time></trkpt>
        <trkpt lat="29.5093295" lon="105.0873535"><ele>295.45</ele><time>2026-02-11T03:02:34.000Z</time></trkpt>
        <trkpt lat="29.5095273" lon="105.0873455"><ele>289.53</ele><time>2026-02-11T03:02:36.000Z</time></trkpt>
        <trkpt lat="29.5096371" lon="105.0872994"><ele>285.15</ele><time>2026-02-11T03:02:37.000Z</time></trkpt>
        <trkpt lat="29.5095916" lon="105.0872297"><ele>282.74</ele><time>2026-02-11T03:02:40.000Z</time></trkpt>
        <trkpt lat="29.5095565" lon="105.0871949"><ele>278.33</ele><time>2026-02-11T03:02:41.000Z</time></trkpt>
        <trkpt lat="29.509544" lon="105.0872871"><ele>275.66</ele><time>2026-02-11T03:02:43.000Z</time></trkpt>
        <trkpt lat="29.5095113" lon="105.0872538"><ele>274.14</ele><time>2026-02-11T03:02:45.000Z</time></trkpt>
        <trkpt lat="29.509524" lon="105.087226"><ele>273.27</ele><time>2026-02-11T03:02:49.000Z</time></trkpt>
        <trkpt lat="29.5095138" lon="105.0873113"><ele>271.28</ele><time>2026-02-11T03:02:54.000Z</time></trkpt>
        <trkpt lat="29.5094955" lon="105.0873803"><ele>272.18</ele><time>2026-02-11T03:02:56.000Z</time></trkpt>
        <trkpt lat="29.5094955" lon="105.0873803"><ele>272.18</ele><time>2026-02-11T03:03:03.000Z</time></trkpt>
        <trkpt lat="29.5094955" lon="105.0873803"><ele>272.18</ele><time>2026-02-11T03:03:32.000Z</time></trkpt>
        <trkpt lat="29.5094955" lon="105.0873803"><ele>272.18</ele><time>2026-02-11T03:03:57.000Z</time></trkpt>
        <trkpt lat="29.5094063" lon="105.0872633"><ele>272.94</ele><time>2026-02-11T03:04:10.000Z</time></trkpt>
        <trkpt lat="29.5094063" lon="105.0872633"><ele>272.94</ele><time>2026-02-11T03:04:30.000Z</time></trkpt>
        <trkpt lat="29.5094705" lon="105.0872971"><ele>276.59</ele><time>2026-02-11T03:04:33.000Z</time></trkpt>
        <trkpt lat="29.5094721" lon="105.0872141"><ele>283.66</ele><time>2026-02-11T03:04:42.000Z</time></trkpt>
        <trkpt lat="29.5095235" lon="105.0871373"><ele>287.69</ele><time>2026-02-11T03:04:54.000Z</time></trkpt>
        <trkpt lat="29.5095606" lon="105.0870804"><ele>289.99</ele><time>2026-02-11T03:04:56.000Z</time></trkpt>
        <trkpt lat="29.5094299" lon="105.0870682"><ele>291.3</ele><time>2026-02-11T03:05:02.000Z</time></trkpt>
        <trkpt lat="29.5094763" lon="105.0869238"><ele>292.04</ele><time>2026-02-11T03:05:39.000Z</time></trkpt>
        <trkpt lat="29.509585" lon="105.0868199"><ele>286.91</ele><time>2026-02-11T03:05:41.000Z</time></trkpt>
        <trkpt lat="29.5097079" lon="105.0867355"><ele>283.47</ele><time>2026-02-11T03:05:42.000Z</time></trkpt>
        <trkpt lat="29.5096586" lon="105.0867154"><ele>282.01</ele><time>2026-02-11T03:05:48.000Z</time></trkpt>
        <trkpt lat="29.5096105" lon="105.0867091"><ele>281.36</ele><time>2026-02-11T03:05:49.000Z</time></trkpt>
        <trkpt lat="29.5095061" lon="105.0867046"><ele>279.91</ele><time>2026-02-11T03:05:54.000Z</time></trkpt>
        <trkpt lat="29.5093982" lon="105.0866812"><ele>276.59</ele><time>2026-02-11T03:05:59.000Z</time></trkpt>
        <trkpt lat="29.5093081" lon="105.0866272"><ele>277.09</ele><time>2026-02-11T03:06:07.000Z</time></trkpt>
        <trkpt lat="29.5092274" lon="105.0865432"><ele>278.28</ele><time>2026-02-11T03:06:15.000Z</time></trkpt>
        <trkpt lat="29.5091379" lon="105.086479"><ele>280.6</ele><time>2026-02-11T03:06:22.000Z</time></trkpt>
        <trkpt lat="29.5090486" lon="105.0864385"><ele>282.36</ele><time>2026-02-11T03:06:28.000Z</time></trkpt>
        <trkpt lat="29.5089523" lon="105.0864442"><ele>282.82</ele><time>2026-02-11T03:06:34.000Z</time></trkpt>
        <trkpt lat="29.5088562" lon="105.0864948"><ele>282.96</ele><time>2026-02-11T03:06:40.000Z</time></trkpt>
        <trkpt lat="29.5087587" lon="105.0865398"><ele>284.02</ele><time>2026-02-11T03:06:46.000Z</time></trkpt>
        <trkpt lat="29.5086658" lon="105.086567"><ele>284.43</ele><time>2026-02-11T03:06:57.000Z</time></trkpt>
        <trkpt lat="29.5085774" lon="105.0866143"><ele>284.79</ele><time>2026-02-11T03:07:08.000Z</time></trkpt>
        <trkpt lat="29.5085088" lon="105.0866846"><ele>285.05</ele><time>2026-02-11T03:07:14.000Z</time></trkpt>
        <trkpt lat="29.5084298" lon="105.0867513"><ele>285.8</ele><time>2026-02-11T03:07:21.000Z</time></trkpt>
        <trkpt lat="29.508345" lon="105.0868133"><ele>286.28</ele><time>2026-02-11T03:07:29.000Z</time></trkpt>
        <trkpt lat="29.5082656" lon="105.0868755"><ele>286.12</ele><time>2026-02-11T03:07:40.000Z</time></trkpt>
        <trkpt lat="29.5081841" lon="105.0869328"><ele>285.86</ele><time>2026-02-11T03:07:48.000Z</time></trkpt>
        <trkpt lat="29.5081011" lon="105.0869916"><ele>285.51</ele><time>2026-02-11T03:07:58.000Z</time></trkpt>
        <trkpt lat="29.5080265" lon="105.0870589"><ele>285.63</ele><time>2026-02-11T03:08:05.000Z</time></trkpt>
        <trkpt lat="29.5079365" lon="105.0871109"><ele>286.18</ele><time>2026-02-11T03:08:13.000Z</time></trkpt>
        <trkpt lat="29.5078507" lon="105.087167"><ele>286.53</ele><time>2026-02-11T03:08:19.000Z</time></trkpt>
        <trkpt lat="29.5077554" lon="105.0871957"><ele>286.83</ele><time>2026-02-11T03:08:26.000Z</time></trkpt>
        <trkpt lat="29.507656" lon="105.0872111"><ele>287.17</ele><time>2026-02-11T03:08:33.000Z</time></trkpt>
        <trkpt lat="29.5075668" lon="105.0872405"><ele>287.61</ele><time>2026-02-11T03:08:40.000Z</time></trkpt>
        <trkpt lat="29.5075684" lon="105.0873343"><ele>287.68</ele><time>2026-02-11T03:08:59.000Z</time></trkpt>
        <trkpt lat="29.5076191" lon="105.0874299"><ele>287.1</ele><time>2026-02-11T03:09:06.000Z</time></trkpt>
        <trkpt lat="29.5077082" lon="105.087486"><ele>286.97</ele><time>2026-02-11T03:09:17.000Z</time></trkpt>
        <trkpt lat="29.5078082" lon="105.0875438"><ele>286.8</ele><time>2026-02-11T03:09:31.000Z</time></trkpt>
        <trkpt lat="29.5078775" lon="105.0876266"><ele>287.29</ele><time>2026-02-11T03:09:37.000Z</time></trkpt>
        <trkpt lat="29.5079368" lon="105.0877167"><ele>287.31</ele><time>2026-02-11T03:09:42.000Z</time></trkpt>
        <trkpt lat="29.5079592" lon="105.087823"><ele>286.69</ele><time>2026-02-11T03:09:49.000Z</time></trkpt>
        <trkpt lat="29.5079752" lon="105.0879322"><ele>285.75</ele><time>2026-02-11T03:09:57.000Z</time></trkpt>
        <trkpt lat="29.5080133" lon="105.0880271"><ele>284.58</ele><time>2026-02-11T03:10:06.000Z</time></trkpt>
        <trkpt lat="29.5080483" lon="105.0881233"><ele>283.32</ele><time>2026-02-11T03:10:13.000Z</time></trkpt>
        <trkpt lat="29.5080684" lon="105.0882291"><ele>282.31</ele><time>2026-02-11T03:10:21.000Z</time></trkpt>
        <trkpt lat="29.5080523" lon="105.088342"><ele>281.91</ele><time>2026-02-11T03:10:28.000Z</time></trkpt>
        <trkpt lat="29.5080197" lon="105.0884544"><ele>281.72</ele><time>2026-02-11T03:10:39.000Z</time></trkpt>
        <trkpt lat="29.5079573" lon="105.0885426"><ele>281.17</ele><time>2026-02-11T03:10:47.000Z</time></trkpt>
        <trkpt lat="29.5078932" lon="105.088626"><ele>280.57</ele><time>2026-02-11T03:10:54.000Z</time></trkpt>
        <trkpt lat="29.5078463" lon="105.088721"><ele>279.42</ele><time>2026-02-11T03:10:59.000Z</time></trkpt>
        <trkpt lat="29.5078865" lon="105.0888131"><ele>278.37</ele><time>2026-02-11T03:11:04.000Z</time></trkpt>
        <trkpt lat="29.5079584" lon="105.0888966"><ele>277.46</ele><time>2026-02-11T03:11:13.000Z</time></trkpt>
        <trkpt lat="29.5079734" lon="105.0889944"><ele>276.35</ele><time>2026-02-11T03:11:22.000Z</time></trkpt>
        <trkpt lat="29.5079835" lon="105.0891012"><ele>275.6</ele><time>2026-02-11T03:11:31.000Z</time></trkpt>
        <trkpt lat="29.5080237" lon="105.0892004"><ele>273.6</ele><time>2026-02-11T03:11:44.000Z</time></trkpt>
        <trkpt lat="29.5080559" lon="105.0893056"><ele>271.08</ele><time>2026-02-11T03:11:52.000Z</time></trkpt>
        <trkpt lat="29.5081334" lon="105.0893624"><ele>269.51</ele><time>2026-02-11T03:12:06.000Z</time></trkpt>
        <trkpt lat="29.5082207" lon="105.0894214"><ele>269</ele><time>2026-02-11T03:12:16.000Z</time></trkpt>
        <trkpt lat="29.5083159" lon="105.0894546"><ele>268.48</ele><time>2026-02-11T03:12:26.000Z</time></trkpt>
        <trkpt lat="29.5084128" lon="105.0894735"><ele>268.1</ele><time>2026-02-11T03:12:41.000Z</time></trkpt>
        <trkpt lat="29.5084864" lon="105.0895298"><ele>267.73</ele><time>2026-02-11T03:12:48.000Z</time></trkpt>
        <trkpt lat="29.5085748" lon="105.0895647"><ele>267.24</ele><time>2026-02-11T03:12:56.000Z</time></trkpt>
        <trkpt lat="29.5086652" lon="105.089572"><ele>267.72</ele><time>2026-02-11T03:13:05.000Z</time></trkpt>
        <trkpt lat="29.508759" lon="105.089565"><ele>268.87</ele><time>2026-02-11T03:13:14.000Z</time></trkpt>
        <trkpt lat="29.5088504" lon="105.0895753"><ele>270.14</ele><time>2026-02-11T03:13:20.000Z</time></trkpt>
        <trkpt lat="29.5089436" lon="105.0895645"><ele>270.91</ele><time>2026-02-11T03:13:34.000Z</time></trkpt>
        <trkpt lat="29.5090344" lon="105.0895466"><ele>271.27</ele><time>2026-02-11T03:13:45.000Z</time></trkpt>
        <trkpt lat="29.5091248" lon="105.0895288"><ele>273.1</ele><time>2026-02-11T03:13:51.000Z</time></trkpt>
        <trkpt lat="29.5092312" lon="105.0895732"><ele>273.93</ele><time>2026-02-11T03:14:04.000Z</time></trkpt>
        <trkpt lat="29.5093282" lon="105.0895703"><ele>274.84</ele><time>2026-02-11T03:14:13.000Z</time></trkpt>
        <trkpt lat="29.5093979" lon="105.0895058"><ele>275.74</ele><time>2026-02-11T03:14:22.000Z</time></trkpt>
        <trkpt lat="29.5094754" lon="105.0894523"><ele>277.16</ele><time>2026-02-11T03:14:29.000Z</time></trkpt>
        <trkpt lat="29.5095615" lon="105.0893989"><ele>277.74</ele><time>2026-02-11T03:14:36.000Z</time></trkpt>
        <trkpt lat="29.5096393" lon="105.0893363"><ele>277.33</ele><time>2026-02-11T03:14:43.000Z</time></trkpt>
        <trkpt lat="29.5097049" lon="105.0892525"><ele>275.93</ele><time>2026-02-11T03:14:51.000Z</time></trkpt>
        <trkpt lat="29.5097921" lon="105.0892272"><ele>274.63</ele><time>2026-02-11T03:15:01.000Z</time></trkpt>
        <trkpt lat="29.5098844" lon="105.0892122"><ele>274.27</ele><time>2026-02-11T03:15:10.000Z</time></trkpt>
        <trkpt lat="29.5099681" lon="105.0891623"><ele>275.53</ele><time>2026-02-11T03:15:21.000Z</time></trkpt>
        <trkpt lat="29.5100484" lon="105.0890929"><ele>275.29</ele><time>2026-02-11T03:15:27.000Z</time></trkpt>
        <trkpt lat="29.5101139" lon="105.0890096"><ele>274.37</ele><time>2026-02-11T03:15:34.000Z</time></trkpt>
        <trkpt lat="29.510178" lon="105.0889149"><ele>273.37</ele><time>2026-02-11T03:15:40.000Z</time></trkpt>
        <trkpt lat="29.5102381" lon="105.088826"><ele>272.65</ele><time>2026-02-11T03:15:46.000Z</time></trkpt>
        <trkpt lat="29.5102807" lon="105.0887323"><ele>271.15</ele><time>2026-02-11T03:15:54.000Z</time></trkpt>
        <trkpt lat="29.5103237" lon="105.0886371"><ele>269.21</ele><time>2026-02-11T03:16:03.000Z</time></trkpt>
        <trkpt lat="29.510375" lon="105.0885476"><ele>266.49</ele><time>2026-02-11T03:16:10.000Z</time></trkpt>
        <trkpt lat="29.5104333" lon="105.0884658"><ele>264.03</ele><time>2026-02-11T03:16:18.000Z</time></trkpt>
        <trkpt lat="29.5105106" lon="105.0883818"><ele>262.34</ele><time>2026-02-11T03:16:25.000Z</time></trkpt>
        <trkpt lat="29.5106037" lon="105.0883375"><ele>261.35</ele><time>2026-02-11T03:16:29.000Z</time></trkpt>
        <trkpt lat="29.510674" lon="105.0882673"><ele>260.83</ele><time>2026-02-11T03:16:39.000Z</time></trkpt>
        <trkpt lat="29.5107056" lon="105.0881731"><ele>260.6</ele><time>2026-02-11T03:16:47.000Z</time></trkpt>
        <trkpt lat="29.5107464" lon="105.0880813"><ele>260.33</ele><time>2026-02-11T03:17:00.000Z</time></trkpt>
        <trkpt lat="29.510792" lon="105.087991"><ele>259.76</ele><time>2026-02-11T03:17:28.000Z</time></trkpt>
        <trkpt lat="29.5108479" lon="105.0879046"><ele>259</ele><time>2026-02-11T03:17:35.000Z</time></trkpt>
        <trkpt lat="29.5109309" lon="105.087859"><ele>257.93</ele><time>2026-02-11T03:17:43.000Z</time></trkpt>
        <trkpt lat="29.5110047" lon="105.0879092"><ele>255.34</ele><time>2026-02-11T03:17:49.000Z</time></trkpt>
        <trkpt lat="29.5110665" lon="105.0880105"><ele>253.79</ele><time>2026-02-11T03:17:58.000Z</time></trkpt>
        <trkpt lat="29.5111231" lon="105.0881151"><ele>253.66</ele><time>2026-02-11T03:18:07.000Z</time></trkpt>
        <trkpt lat="29.5111891" lon="105.0882085"><ele>253.95</ele><time>2026-02-11T03:18:15.000Z</time></trkpt>
        <trkpt lat="29.5112545" lon="105.0883026"><ele>253.77</ele><time>2026-02-11T03:18:22.000Z</time></trkpt>
        <trkpt lat="29.5112777" lon="105.0884131"><ele>253.05</ele><time>2026-02-11T03:18:31.000Z</time></trkpt>
        <trkpt lat="29.5112678" lon="105.0885284"><ele>252.99</ele><time>2026-02-11T03:18:43.000Z</time></trkpt>
        <trkpt lat="29.511214" lon="105.0886358"><ele>253.19</ele><time>2026-02-11T03:20:07.000Z</time></trkpt>
        <trkpt lat="29.5111902" lon="105.0885268"><ele>253.26</ele><time>2026-02-11T03:20:19.000Z</time></trkpt>
        <trkpt lat="29.5112368" lon="105.088444"><ele>253.53</ele><time>2026-02-11T03:20:25.000Z</time></trkpt>
        <trkpt lat="29.5113129" lon="105.088379"><ele>254</ele><time>2026-02-11T03:20:31.000Z</time></trkpt>
        <trkpt lat="29.5113735" lon="105.0882878"><ele>254.22</ele><time>2026-02-11T03:20:39.000Z</time></trkpt>
        <trkpt lat="29.5113207" lon="105.0882381"><ele>254.36</ele><time>2026-02-11T03:20:54.000Z</time></trkpt>
        <trkpt lat="29.5112456" lon="105.0881683"><ele>255.73</ele><time>2026-02-11T03:21:01.000Z</time></trkpt>
        <trkpt lat="29.5111739" lon="105.0880846"><ele>257.37</ele><time>2026-02-11T03:21:08.000Z</time></trkpt>
        <trkpt lat="29.5111095" lon="105.0879961"><ele>258.68</ele><time>2026-02-11T03:21:15.000Z</time></trkpt>
        <trkpt lat="29.5110355" lon="105.087929"><ele>259.34</ele><time>2026-02-11T03:21:25.000Z</time></trkpt>
        <trkpt lat="29.5109805" lon="105.0878464"><ele>259.88</ele><time>2026-02-11T03:21:34.000Z</time></trkpt>
        <trkpt lat="29.5109094" lon="105.0878716"><ele>260.06</ele><time>2026-02-11T03:21:41.000Z</time></trkpt>
        <trkpt lat="29.5108556" lon="105.0879631"><ele>259.89</ele><time>2026-02-11T03:21:49.000Z</time></trkpt>
        <trkpt lat="29.5107923" lon="105.0880595"><ele>259.74</ele><time>2026-02-11T03:21:56.000Z</time></trkpt>
        <trkpt lat="29.5107923" lon="105.0880595"><ele>259.74</ele><time>2026-02-11T03:22:02.000Z</time></trkpt>
      </trkseg>
  </trk>
</gpx>